<?xml version="1.0" encoding="UTF-8" standalone="no" ?>
<gpx xmlns="http://www.topografix.com/GPX/1/1" xmlns:xsi="http://www.w3.org/2001/XMLSchema-instance" xsi:schemaLocation="http://www.topografix.com/GPX/1/1 http://www.topografix.com/GPX/1/1/gpx.xsd" version="1.1" creator="VisuGPX - https://www.visugpx.com">
  <metadata>
    <name>Crozet Calame vtt</name>
  </metadata>
  <trk>
    <name><![CDATA[Crozet Calame vtt]]></name>
    <trkseg>
      <trkpt lat="46.24968" lon="6.02226">
        <ele>457.60000610352</ele>
        <time>2020-08-13T15:25:30.000Z</time>
      </trkpt>
      <trkpt lat="46.2497" lon="6.02231">
        <ele>457.79998779297</ele>
        <time>2020-08-13T15:25:31.000Z</time>
      </trkpt>
      <trkpt lat="46.24973" lon="6.02238">
        <ele>457.60000610352</ele>
        <time>2020-08-13T15:25:32.000Z</time>
      </trkpt>
      <trkpt lat="46.24985" lon="6.02262">
        <ele>457.79998779297</ele>
        <time>2020-08-13T15:25:36.000Z</time>
      </trkpt>
      <trkpt lat="46.2499" lon="6.02275">
        <ele>457.60000610352</ele>
        <time>2020-08-13T15:25:38.000Z</time>
      </trkpt>
      <trkpt lat="46.25002" lon="6.02302">
        <ele>457.39999389648</ele>
        <time>2020-08-13T15:25:42.000Z</time>
      </trkpt>
      <trkpt lat="46.25027" lon="6.02353">
        <ele>457.60000610352</ele>
        <time>2020-08-13T15:25:50.000Z</time>
      </trkpt>
      <trkpt lat="46.25039" lon="6.02379">
        <ele>457.79998779297</ele>
        <time>2020-08-13T15:25:54.000Z</time>
      </trkpt>
      <trkpt lat="46.25055" lon="6.02416">
        <ele>457.79998779297</ele>
        <time>2020-08-13T15:26:00.000Z</time>
      </trkpt>
      <trkpt lat="46.25063" lon="6.02426">
        <ele>458</ele>
        <time>2020-08-13T15:26:02.000Z</time>
      </trkpt>
      <trkpt lat="46.25095" lon="6.02455">
        <ele>458.39999389648</ele>
        <time>2020-08-13T15:26:09.000Z</time>
      </trkpt>
      <trkpt lat="46.25116" lon="6.02482">
        <ele>458.39999389648</ele>
        <time>2020-08-13T15:26:14.000Z</time>
      </trkpt>
      <trkpt lat="46.25119" lon="6.02488">
        <ele>458.60000610352</ele>
        <time>2020-08-13T15:26:15.000Z</time>
      </trkpt>
      <trkpt lat="46.25121" lon="6.02496">
        <ele>458.60000610352</ele>
        <time>2020-08-13T15:26:16.000Z</time>
      </trkpt>
      <trkpt lat="46.25123" lon="6.0251">
        <ele>459</ele>
        <time>2020-08-13T15:26:18.000Z</time>
      </trkpt>
      <trkpt lat="46.25124" lon="6.02516">
        <ele>459.20001220703</ele>
        <time>2020-08-13T15:26:19.000Z</time>
      </trkpt>
      <trkpt lat="46.25125" lon="6.02521">
        <ele>459.60000610352</ele>
        <time>2020-08-13T15:26:20.000Z</time>
      </trkpt>
      <trkpt lat="46.25132" lon="6.02524">
        <ele>459.79998779297</ele>
        <time>2020-08-13T15:26:22.000Z</time>
      </trkpt>
      <trkpt lat="46.25138" lon="6.02517">
        <ele>459.79998779297</ele>
        <time>2020-08-13T15:26:24.000Z</time>
      </trkpt>
      <trkpt lat="46.2514" lon="6.02511">
        <ele>459.79998779297</ele>
        <time>2020-08-13T15:26:25.000Z</time>
      </trkpt>
      <trkpt lat="46.2515" lon="6.02491">
        <ele>459.79998779297</ele>
        <time>2020-08-13T15:26:28.000Z</time>
      </trkpt>
      <trkpt lat="46.25163" lon="6.02463">
        <ele>459.60000610352</ele>
        <time>2020-08-13T15:26:32.000Z</time>
      </trkpt>
      <trkpt lat="46.25175" lon="6.02431">
        <ele>459.20001220703</ele>
        <time>2020-08-13T15:26:36.000Z</time>
      </trkpt>
      <trkpt lat="46.25178" lon="6.02423">
        <ele>459.20001220703</ele>
        <time>2020-08-13T15:26:37.000Z</time>
      </trkpt>
      <trkpt lat="46.25179" lon="6.02414">
        <ele>459.39999389648</ele>
        <time>2020-08-13T15:26:38.000Z</time>
      </trkpt>
      <trkpt lat="46.25181" lon="6.02379">
        <ele>459.39999389648</ele>
        <time>2020-08-13T15:26:42.000Z</time>
      </trkpt>
      <trkpt lat="46.25183" lon="6.02371">
        <ele>459.39999389648</ele>
        <time>2020-08-13T15:26:43.000Z</time>
      </trkpt>
      <trkpt lat="46.2519" lon="6.02346">
        <ele>459</ele>
        <time>2020-08-13T15:26:46.000Z</time>
      </trkpt>
      <trkpt lat="46.25193" lon="6.02338">
        <ele>459</ele>
        <time>2020-08-13T15:26:47.000Z</time>
      </trkpt>
      <trkpt lat="46.25207" lon="6.02311">
        <ele>459</ele>
        <time>2020-08-13T15:26:51.000Z</time>
      </trkpt>
      <trkpt lat="46.25235" lon="6.02261">
        <ele>458.79998779297</ele>
        <time>2020-08-13T15:26:58.000Z</time>
      </trkpt>
      <trkpt lat="46.25258" lon="6.02221">
        <ele>458.60000610352</ele>
        <time>2020-08-13T15:27:04.000Z</time>
      </trkpt>
      <trkpt lat="46.25259" lon="6.02213">
        <ele>458.60000610352</ele>
        <time>2020-08-13T15:27:05.000Z</time>
      </trkpt>
      <trkpt lat="46.2526" lon="6.02205">
        <ele>458.79998779297</ele>
        <time>2020-08-13T15:27:06.000Z</time>
      </trkpt>
      <trkpt lat="46.25255" lon="6.0219">
        <ele>459.20001220703</ele>
        <time>2020-08-13T15:27:08.000Z</time>
      </trkpt>
      <trkpt lat="46.25242" lon="6.02162">
        <ele>459.39999389648</ele>
        <time>2020-08-13T15:27:12.000Z</time>
      </trkpt>
      <trkpt lat="46.25241" lon="6.02154">
        <ele>459.20001220703</ele>
        <time>2020-08-13T15:27:13.000Z</time>
      </trkpt>
      <trkpt lat="46.25242" lon="6.02146">
        <ele>459.20001220703</ele>
        <time>2020-08-13T15:27:14.000Z</time>
      </trkpt>
      <trkpt lat="46.25248" lon="6.02134">
        <ele>459</ele>
        <time>2020-08-13T15:27:16.000Z</time>
      </trkpt>
      <trkpt lat="46.25262" lon="6.02111">
        <ele>459</ele>
        <time>2020-08-13T15:27:20.000Z</time>
      </trkpt>
      <trkpt lat="46.25274" lon="6.0209">
        <ele>459.60000610352</ele>
        <time>2020-08-13T15:27:24.000Z</time>
      </trkpt>
      <trkpt lat="46.2528" lon="6.02079">
        <ele>460</ele>
        <time>2020-08-13T15:27:26.000Z</time>
      </trkpt>
      <trkpt lat="46.25297" lon="6.02051">
        <ele>461</ele>
        <time>2020-08-13T15:27:31.000Z</time>
      </trkpt>
      <trkpt lat="46.25318" lon="6.02017">
        <ele>461.20001220703</ele>
        <time>2020-08-13T15:27:37.000Z</time>
      </trkpt>
      <trkpt lat="46.25328" lon="6.02">
        <ele>461.39999389648</ele>
        <time>2020-08-13T15:27:40.000Z</time>
      </trkpt>
      <trkpt lat="46.25332" lon="6.01994">
        <ele>461.39999389648</ele>
        <time>2020-08-13T15:27:41.000Z</time>
      </trkpt>
      <trkpt lat="46.25336" lon="6.01991">
        <ele>461.39999389648</ele>
        <time>2020-08-13T15:27:42.000Z</time>
      </trkpt>
      <trkpt lat="46.25341" lon="6.01991">
        <ele>461.39999389648</ele>
        <time>2020-08-13T15:27:43.000Z</time>
      </trkpt>
      <trkpt lat="46.25346" lon="6.01994">
        <ele>461.60000610352</ele>
        <time>2020-08-13T15:27:44.000Z</time>
      </trkpt>
      <trkpt lat="46.2535" lon="6.01999">
        <ele>461.60000610352</ele>
        <time>2020-08-13T15:27:45.000Z</time>
      </trkpt>
      <trkpt lat="46.25353" lon="6.02004">
        <ele>461.79998779297</ele>
        <time>2020-08-13T15:27:46.000Z</time>
      </trkpt>
      <trkpt lat="46.25359" lon="6.02014">
        <ele>462.20001220703</ele>
        <time>2020-08-13T15:27:48.000Z</time>
      </trkpt>
      <trkpt lat="46.25377" lon="6.02038">
        <ele>463</ele>
        <time>2020-08-13T15:27:53.000Z</time>
      </trkpt>
      <trkpt lat="46.25385" lon="6.02043">
        <ele>463</ele>
        <time>2020-08-13T15:27:55.000Z</time>
      </trkpt>
      <trkpt lat="46.25389" lon="6.02042">
        <ele>463</ele>
        <time>2020-08-13T15:27:56.000Z</time>
      </trkpt>
      <trkpt lat="46.25393" lon="6.02039">
        <ele>463</ele>
        <time>2020-08-13T15:27:57.000Z</time>
      </trkpt>
      <trkpt lat="46.254" lon="6.02031">
        <ele>462.79998779297</ele>
        <time>2020-08-13T15:27:59.000Z</time>
      </trkpt>
      <trkpt lat="46.25403" lon="6.02026">
        <ele>462.79998779297</ele>
        <time>2020-08-13T15:28:00.000Z</time>
      </trkpt>
      <trkpt lat="46.25407" lon="6.02022">
        <ele>462.79998779297</ele>
        <time>2020-08-13T15:28:01.000Z</time>
      </trkpt>
      <trkpt lat="46.25422" lon="6.02004">
        <ele>463.20001220703</ele>
        <time>2020-08-13T15:28:05.000Z</time>
      </trkpt>
      <trkpt lat="46.25425" lon="6.01998">
        <ele>463.39999389648</ele>
        <time>2020-08-13T15:28:06.000Z</time>
      </trkpt>
      <trkpt lat="46.25452" lon="6.01962">
        <ele>464</ele>
        <time>2020-08-13T15:28:13.000Z</time>
      </trkpt>
      <trkpt lat="46.25459" lon="6.01951">
        <ele>464</ele>
        <time>2020-08-13T15:28:15.000Z</time>
      </trkpt>
      <trkpt lat="46.25463" lon="6.01946">
        <ele>464</ele>
        <time>2020-08-13T15:28:16.000Z</time>
      </trkpt>
      <trkpt lat="46.25489" lon="6.01909">
        <ele>464</ele>
        <time>2020-08-13T15:28:23.000Z</time>
      </trkpt>
      <trkpt lat="46.25499" lon="6.01894">
        <ele>464.39999389648</ele>
        <time>2020-08-13T15:28:26.000Z</time>
      </trkpt>
      <trkpt lat="46.25506" lon="6.01885">
        <ele>464.79998779297</ele>
        <time>2020-08-13T15:28:28.000Z</time>
      </trkpt>
      <trkpt lat="46.25511" lon="6.01883">
        <ele>464.79998779297</ele>
        <time>2020-08-13T15:28:29.000Z</time>
      </trkpt>
      <trkpt lat="46.25516" lon="6.01883">
        <ele>465</ele>
        <time>2020-08-13T15:28:30.000Z</time>
      </trkpt>
      <trkpt lat="46.25525" lon="6.01888">
        <ele>465.39999389648</ele>
        <time>2020-08-13T15:28:32.000Z</time>
      </trkpt>
      <trkpt lat="46.25528" lon="6.01892">
        <ele>465.60000610352</ele>
        <time>2020-08-13T15:28:33.000Z</time>
      </trkpt>
      <trkpt lat="46.2553" lon="6.01898">
        <ele>465.79998779297</ele>
        <time>2020-08-13T15:28:34.000Z</time>
      </trkpt>
      <trkpt lat="46.25532" lon="6.01905">
        <ele>465.79998779297</ele>
        <time>2020-08-13T15:28:35.000Z</time>
      </trkpt>
      <trkpt lat="46.25533" lon="6.01912">
        <ele>465.79998779297</ele>
        <time>2020-08-13T15:28:36.000Z</time>
      </trkpt>
      <trkpt lat="46.25537" lon="6.01926">
        <ele>466</ele>
        <time>2020-08-13T15:28:38.000Z</time>
      </trkpt>
      <trkpt lat="46.25542" lon="6.01939">
        <ele>466.20001220703</ele>
        <time>2020-08-13T15:28:40.000Z</time>
      </trkpt>
      <trkpt lat="46.25569" lon="6.01988">
        <ele>466.39999389648</ele>
        <time>2020-08-13T15:28:48.000Z</time>
      </trkpt>
      <trkpt lat="46.25581" lon="6.02012">
        <ele>466.60000610352</ele>
        <time>2020-08-13T15:28:52.000Z</time>
      </trkpt>
      <trkpt lat="46.25584" lon="6.02018">
        <ele>466.60000610352</ele>
        <time>2020-08-13T15:28:53.000Z</time>
      </trkpt>
      <trkpt lat="46.25595" lon="6.02039">
        <ele>467.20001220703</ele>
        <time>2020-08-13T15:28:57.000Z</time>
      </trkpt>
      <trkpt lat="46.25612" lon="6.02071">
        <ele>467.39999389648</ele>
        <time>2020-08-13T15:29:03.000Z</time>
      </trkpt>
      <trkpt lat="46.25615" lon="6.02076">
        <ele>467.39999389648</ele>
        <time>2020-08-13T15:29:04.000Z</time>
      </trkpt>
      <trkpt lat="46.25618" lon="6.02081">
        <ele>467.60000610352</ele>
        <time>2020-08-13T15:29:05.000Z</time>
      </trkpt>
      <trkpt lat="46.2562" lon="6.02086">
        <ele>467.79998779297</ele>
        <time>2020-08-13T15:29:06.000Z</time>
      </trkpt>
      <trkpt lat="46.25644" lon="6.02128">
        <ele>468.60000610352</ele>
        <time>2020-08-13T15:29:14.000Z</time>
      </trkpt>
      <trkpt lat="46.25651" lon="6.02138">
        <ele>468.79998779297</ele>
        <time>2020-08-13T15:29:16.000Z</time>
      </trkpt>
      <trkpt lat="46.2568" lon="6.0217">
        <ele>469</ele>
        <time>2020-08-13T15:29:23.000Z</time>
      </trkpt>
      <trkpt lat="46.25723" lon="6.02213">
        <ele>468.60000610352</ele>
        <time>2020-08-13T15:29:33.000Z</time>
      </trkpt>
      <trkpt lat="46.25739" lon="6.02232">
        <ele>469.20001220703</ele>
        <time>2020-08-13T15:29:37.000Z</time>
      </trkpt>
      <trkpt lat="46.25748" lon="6.02239">
        <ele>469.60000610352</ele>
        <time>2020-08-13T15:29:39.000Z</time>
      </trkpt>
      <trkpt lat="46.25761" lon="6.02246">
        <ele>470</ele>
        <time>2020-08-13T15:29:42.000Z</time>
      </trkpt>
      <trkpt lat="46.25766" lon="6.02248">
        <ele>470.20001220703</ele>
        <time>2020-08-13T15:29:43.000Z</time>
      </trkpt>
      <trkpt lat="46.2577" lon="6.02249">
        <ele>470.39999389648</ele>
        <time>2020-08-13T15:29:44.000Z</time>
      </trkpt>
      <trkpt lat="46.25789" lon="6.02251">
        <ele>470.60000610352</ele>
        <time>2020-08-13T15:29:48.000Z</time>
      </trkpt>
      <trkpt lat="46.25798" lon="6.02254">
        <ele>470.39999389648</ele>
        <time>2020-08-13T15:29:50.000Z</time>
      </trkpt>
      <trkpt lat="46.25844" lon="6.02278">
        <ele>470.79998779297</ele>
        <time>2020-08-13T15:30:00.000Z</time>
      </trkpt>
      <trkpt lat="46.25886" lon="6.023">
        <ele>471</ele>
        <time>2020-08-13T15:30:09.000Z</time>
      </trkpt>
      <trkpt lat="46.25934" lon="6.02324">
        <ele>471.39999389648</ele>
        <time>2020-08-13T15:30:19.000Z</time>
      </trkpt>
      <trkpt lat="46.25962" lon="6.02339">
        <ele>472.20001220703</ele>
        <time>2020-08-13T15:30:25.000Z</time>
      </trkpt>
      <trkpt lat="46.25981" lon="6.02349">
        <ele>472.60000610352</ele>
        <time>2020-08-13T15:30:29.000Z</time>
      </trkpt>
      <trkpt lat="46.26018" lon="6.0237">
        <ele>472.79998779297</ele>
        <time>2020-08-13T15:30:37.000Z</time>
      </trkpt>
      <trkpt lat="46.26027" lon="6.02375">
        <ele>473.20001220703</ele>
        <time>2020-08-13T15:30:39.000Z</time>
      </trkpt>
      <trkpt lat="46.26064" lon="6.02394">
        <ele>473.79998779297</ele>
        <time>2020-08-13T15:30:47.000Z</time>
      </trkpt>
      <trkpt lat="46.26105" lon="6.02414">
        <ele>473.79998779297</ele>
        <time>2020-08-13T15:30:56.000Z</time>
      </trkpt>
      <trkpt lat="46.26114" lon="6.02419">
        <ele>473.79998779297</ele>
        <time>2020-08-13T15:30:58.000Z</time>
      </trkpt>
      <trkpt lat="46.26132" lon="6.02431">
        <ele>474.20001220703</ele>
        <time>2020-08-13T15:31:02.000Z</time>
      </trkpt>
      <trkpt lat="46.26136" lon="6.02434">
        <ele>474.39999389648</ele>
        <time>2020-08-13T15:31:03.000Z</time>
      </trkpt>
      <trkpt lat="46.2614" lon="6.02437">
        <ele>474.60000610352</ele>
        <time>2020-08-13T15:31:04.000Z</time>
      </trkpt>
      <trkpt lat="46.26145" lon="6.02447">
        <ele>475</ele>
        <time>2020-08-13T15:31:06.000Z</time>
      </trkpt>
      <trkpt lat="46.26151" lon="6.02466">
        <ele>475.20001220703</ele>
        <time>2020-08-13T15:31:09.000Z</time>
      </trkpt>
      <trkpt lat="46.26157" lon="6.02476">
        <ele>475.39999389648</ele>
        <time>2020-08-13T15:31:11.000Z</time>
      </trkpt>
      <trkpt lat="46.26166" lon="6.02483">
        <ele>475.60000610352</ele>
        <time>2020-08-13T15:31:13.000Z</time>
      </trkpt>
      <trkpt lat="46.26177" lon="6.02489">
        <ele>475.20001220703</ele>
        <time>2020-08-13T15:31:15.000Z</time>
      </trkpt>
      <trkpt lat="46.26194" lon="6.02498">
        <ele>474.20001220703</ele>
        <time>2020-08-13T15:31:18.000Z</time>
      </trkpt>
      <trkpt lat="46.26198" lon="6.02504">
        <ele>474.20001220703</ele>
        <time>2020-08-13T15:31:19.000Z</time>
      </trkpt>
      <trkpt lat="46.262" lon="6.02513">
        <ele>474</ele>
        <time>2020-08-13T15:31:20.000Z</time>
      </trkpt>
      <trkpt lat="46.262" lon="6.02531">
        <ele>474</ele>
        <time>2020-08-13T15:31:22.000Z</time>
      </trkpt>
      <trkpt lat="46.26195" lon="6.02591">
        <ele>473.20001220703</ele>
        <time>2020-08-13T15:31:29.000Z</time>
      </trkpt>
      <trkpt lat="46.26192" lon="6.02654">
        <ele>473</ele>
        <time>2020-08-13T15:31:36.000Z</time>
      </trkpt>
      <trkpt lat="46.26192" lon="6.02664">
        <ele>472.79998779297</ele>
        <time>2020-08-13T15:31:37.000Z</time>
      </trkpt>
      <trkpt lat="46.26191" lon="6.02693">
        <ele>471.79998779297</ele>
        <time>2020-08-13T15:31:40.000Z</time>
      </trkpt>
      <trkpt lat="46.26191" lon="6.02702">
        <ele>471.60000610352</ele>
        <time>2020-08-13T15:31:41.000Z</time>
      </trkpt>
      <trkpt lat="46.26196" lon="6.02715">
        <ele>471.20001220703</ele>
        <time>2020-08-13T15:31:43.000Z</time>
      </trkpt>
      <trkpt lat="46.26205" lon="6.02721">
        <ele>471</ele>
        <time>2020-08-13T15:31:45.000Z</time>
      </trkpt>
      <trkpt lat="46.26211" lon="6.02722">
        <ele>470.79998779297</ele>
        <time>2020-08-13T15:31:46.000Z</time>
      </trkpt>
      <trkpt lat="46.26223" lon="6.02723">
        <ele>470.60000610352</ele>
        <time>2020-08-13T15:31:48.000Z</time>
      </trkpt>
      <trkpt lat="46.26253" lon="6.02732">
        <ele>470.60000610352</ele>
        <time>2020-08-13T15:31:53.000Z</time>
      </trkpt>
      <trkpt lat="46.26274" lon="6.02739">
        <ele>471.39999389648</ele>
        <time>2020-08-13T15:31:57.000Z</time>
      </trkpt>
      <trkpt lat="46.26284" lon="6.02738">
        <ele>471.79998779297</ele>
        <time>2020-08-13T15:31:59.000Z</time>
      </trkpt>
      <trkpt lat="46.26294" lon="6.02734">
        <ele>472</ele>
        <time>2020-08-13T15:32:01.000Z</time>
      </trkpt>
      <trkpt lat="46.26313" lon="6.02724">
        <ele>472.79998779297</ele>
        <time>2020-08-13T15:32:05.000Z</time>
      </trkpt>
      <trkpt lat="46.26323" lon="6.02718">
        <ele>473</ele>
        <time>2020-08-13T15:32:07.000Z</time>
      </trkpt>
      <trkpt lat="46.26349" lon="6.027">
        <ele>474.39999389648</ele>
        <time>2020-08-13T15:32:13.000Z</time>
      </trkpt>
      <trkpt lat="46.26371" lon="6.02686">
        <ele>475.60000610352</ele>
        <time>2020-08-13T15:32:18.000Z</time>
      </trkpt>
      <trkpt lat="46.26379" lon="6.0268">
        <ele>476</ele>
        <time>2020-08-13T15:32:20.000Z</time>
      </trkpt>
      <trkpt lat="46.26384" lon="6.02679">
        <ele>476.20001220703</ele>
        <time>2020-08-13T15:32:21.000Z</time>
      </trkpt>
      <trkpt lat="46.26393" lon="6.02683">
        <ele>476.39999389648</ele>
        <time>2020-08-13T15:32:23.000Z</time>
      </trkpt>
      <trkpt lat="46.26397" lon="6.02686">
        <ele>476.39999389648</ele>
        <time>2020-08-13T15:32:24.000Z</time>
      </trkpt>
      <trkpt lat="46.26402" lon="6.02689">
        <ele>476.39999389648</ele>
        <time>2020-08-13T15:32:25.000Z</time>
      </trkpt>
      <trkpt lat="46.26412" lon="6.02691">
        <ele>476.39999389648</ele>
        <time>2020-08-13T15:32:27.000Z</time>
      </trkpt>
      <trkpt lat="46.26416" lon="6.0269">
        <ele>476.39999389648</ele>
        <time>2020-08-13T15:32:28.000Z</time>
      </trkpt>
      <trkpt lat="46.26421" lon="6.02687">
        <ele>476.39999389648</ele>
        <time>2020-08-13T15:32:29.000Z</time>
      </trkpt>
      <trkpt lat="46.2643" lon="6.0268">
        <ele>476.60000610352</ele>
        <time>2020-08-13T15:32:31.000Z</time>
      </trkpt>
      <trkpt lat="46.26435" lon="6.02678">
        <ele>476.79998779297</ele>
        <time>2020-08-13T15:32:32.000Z</time>
      </trkpt>
      <trkpt lat="46.2644" lon="6.0268">
        <ele>476.79998779297</ele>
        <time>2020-08-13T15:32:33.000Z</time>
      </trkpt>
      <trkpt lat="46.26443" lon="6.02684">
        <ele>477</ele>
        <time>2020-08-13T15:32:34.000Z</time>
      </trkpt>
      <trkpt lat="46.26445" lon="6.0269">
        <ele>477.20001220703</ele>
        <time>2020-08-13T15:32:35.000Z</time>
      </trkpt>
      <trkpt lat="46.2645" lon="6.027">
        <ele>477.39999389648</ele>
        <time>2020-08-13T15:32:37.000Z</time>
      </trkpt>
      <trkpt lat="46.26453" lon="6.02703">
        <ele>477.60000610352</ele>
        <time>2020-08-13T15:32:38.000Z</time>
      </trkpt>
      <trkpt lat="46.26458" lon="6.02705">
        <ele>477.79998779297</ele>
        <time>2020-08-13T15:32:39.000Z</time>
      </trkpt>
      <trkpt lat="46.26466" lon="6.02706">
        <ele>478.20001220703</ele>
        <time>2020-08-13T15:32:41.000Z</time>
      </trkpt>
      <trkpt lat="46.26481" lon="6.02704">
        <ele>478.39999389648</ele>
        <time>2020-08-13T15:32:44.000Z</time>
      </trkpt>
      <trkpt lat="46.2649" lon="6.02701">
        <ele>478.79998779297</ele>
        <time>2020-08-13T15:32:46.000Z</time>
      </trkpt>
      <trkpt lat="46.26494" lon="6.02699">
        <ele>479</ele>
        <time>2020-08-13T15:32:47.000Z</time>
      </trkpt>
      <trkpt lat="46.26514" lon="6.027">
        <ele>479.60000610352</ele>
        <time>2020-08-13T15:32:52.000Z</time>
      </trkpt>
      <trkpt lat="46.26536" lon="6.02699">
        <ele>479.79998779297</ele>
        <time>2020-08-13T15:32:57.000Z</time>
      </trkpt>
      <trkpt lat="46.26541" lon="6.02698">
        <ele>480</ele>
        <time>2020-08-13T15:32:58.000Z</time>
      </trkpt>
      <trkpt lat="46.26545" lon="6.02695">
        <ele>480.39999389648</ele>
        <time>2020-08-13T15:32:59.000Z</time>
      </trkpt>
      <trkpt lat="46.26549" lon="6.02692">
        <ele>480.60000610352</ele>
        <time>2020-08-13T15:33:00.000Z</time>
      </trkpt>
      <trkpt lat="46.26556" lon="6.02684">
        <ele>480.79998779297</ele>
        <time>2020-08-13T15:33:02.000Z</time>
      </trkpt>
      <trkpt lat="46.26559" lon="6.0268">
        <ele>480.79998779297</ele>
        <time>2020-08-13T15:33:03.000Z</time>
      </trkpt>
      <trkpt lat="46.26582" lon="6.02643">
        <ele>481.39999389648</ele>
        <time>2020-08-13T15:33:10.000Z</time>
      </trkpt>
      <trkpt lat="46.26596" lon="6.02622">
        <ele>481.60000610352</ele>
        <time>2020-08-13T15:33:14.000Z</time>
      </trkpt>
      <trkpt lat="46.26605" lon="6.02616">
        <ele>482</ele>
        <time>2020-08-13T15:33:16.000Z</time>
      </trkpt>
      <trkpt lat="46.26629" lon="6.02614">
        <ele>482.39999389648</ele>
        <time>2020-08-13T15:33:21.000Z</time>
      </trkpt>
      <trkpt lat="46.26656" lon="6.02608">
        <ele>482</ele>
        <time>2020-08-13T15:33:26.000Z</time>
      </trkpt>
      <trkpt lat="46.26695" lon="6.02609">
        <ele>481.39999389648</ele>
        <time>2020-08-13T15:33:33.000Z</time>
      </trkpt>
      <trkpt lat="46.26727" lon="6.02612">
        <ele>481.79998779297</ele>
        <time>2020-08-13T15:33:39.000Z</time>
      </trkpt>
      <trkpt lat="46.26736" lon="6.02613">
        <ele>482</ele>
        <time>2020-08-13T15:33:41.000Z</time>
      </trkpt>
      <trkpt lat="46.2677" lon="6.02614">
        <ele>481.79998779297</ele>
        <time>2020-08-13T15:33:48.000Z</time>
      </trkpt>
      <trkpt lat="46.26784" lon="6.02614">
        <ele>482</ele>
        <time>2020-08-13T15:33:51.000Z</time>
      </trkpt>
      <trkpt lat="46.26798" lon="6.02613">
        <ele>482.39999389648</ele>
        <time>2020-08-13T15:33:54.000Z</time>
      </trkpt>
      <trkpt lat="46.26838" lon="6.02615">
        <ele>482.39999389648</ele>
        <time>2020-08-13T15:34:02.000Z</time>
      </trkpt>
      <trkpt lat="46.26883" lon="6.02621">
        <ele>482.79998779297</ele>
        <time>2020-08-13T15:34:11.000Z</time>
      </trkpt>
      <trkpt lat="46.26913" lon="6.02623">
        <ele>482.60000610352</ele>
        <time>2020-08-13T15:34:17.000Z</time>
      </trkpt>
      <trkpt lat="46.26932" lon="6.02625">
        <ele>483</ele>
        <time>2020-08-13T15:34:21.000Z</time>
      </trkpt>
      <trkpt lat="46.26952" lon="6.02626">
        <ele>483.60000610352</ele>
        <time>2020-08-13T15:34:25.000Z</time>
      </trkpt>
      <trkpt lat="46.26985" lon="6.02631">
        <ele>484</ele>
        <time>2020-08-13T15:34:32.000Z</time>
      </trkpt>
      <trkpt lat="46.27024" lon="6.02639">
        <ele>484</ele>
        <time>2020-08-13T15:34:40.000Z</time>
      </trkpt>
      <trkpt lat="46.27062" lon="6.02657">
        <ele>484.20001220703</ele>
        <time>2020-08-13T15:34:48.000Z</time>
      </trkpt>
      <trkpt lat="46.27066" lon="6.0266">
        <ele>484.20001220703</ele>
        <time>2020-08-13T15:34:49.000Z</time>
      </trkpt>
      <trkpt lat="46.27095" lon="6.02679">
        <ele>484.60000610352</ele>
        <time>2020-08-13T15:34:56.000Z</time>
      </trkpt>
      <trkpt lat="46.27099" lon="6.02681">
        <ele>484.79998779297</ele>
        <time>2020-08-13T15:34:57.000Z</time>
      </trkpt>
      <trkpt lat="46.27102" lon="6.02682">
        <ele>485.20001220703</ele>
        <time>2020-08-13T15:34:58.000Z</time>
      </trkpt>
      <trkpt lat="46.27109" lon="6.02681">
        <ele>485.79998779297</ele>
        <time>2020-08-13T15:35:00.000Z</time>
      </trkpt>
      <trkpt lat="46.2712" lon="6.02665">
        <ele>486.20001220703</ele>
        <time>2020-08-13T15:35:04.000Z</time>
      </trkpt>
      <trkpt lat="46.27123" lon="6.0266">
        <ele>486.39999389648</ele>
        <time>2020-08-13T15:35:05.000Z</time>
      </trkpt>
      <trkpt lat="46.27135" lon="6.02636">
        <ele>487.39999389648</ele>
        <time>2020-08-13T15:35:11.000Z</time>
      </trkpt>
      <trkpt lat="46.27148" lon="6.02615">
        <ele>488.60000610352</ele>
        <time>2020-08-13T15:35:17.000Z</time>
      </trkpt>
      <trkpt lat="46.2715" lon="6.02612">
        <ele>489</ele>
        <time>2020-08-13T15:35:18.000Z</time>
      </trkpt>
      <trkpt lat="46.27156" lon="6.02602">
        <ele>490</ele>
        <time>2020-08-13T15:35:21.000Z</time>
      </trkpt>
      <trkpt lat="46.27165" lon="6.02589">
        <ele>491</ele>
        <time>2020-08-13T15:35:25.000Z</time>
      </trkpt>
      <trkpt lat="46.27168" lon="6.02582">
        <ele>491.20001220703</ele>
        <time>2020-08-13T15:35:27.000Z</time>
      </trkpt>
      <trkpt lat="46.2717" lon="6.02579">
        <ele>491.39999389648</ele>
        <time>2020-08-13T15:35:28.000Z</time>
      </trkpt>
      <trkpt lat="46.27176" lon="6.02568">
        <ele>491.79998779297</ele>
        <time>2020-08-13T15:35:31.000Z</time>
      </trkpt>
      <trkpt lat="46.2718" lon="6.0256">
        <ele>492.20001220703</ele>
        <time>2020-08-13T15:35:33.000Z</time>
      </trkpt>
      <trkpt lat="46.27184" lon="6.02553">
        <ele>492.60000610352</ele>
        <time>2020-08-13T15:35:35.000Z</time>
      </trkpt>
      <trkpt lat="46.2719" lon="6.02543">
        <ele>493.60000610352</ele>
        <time>2020-08-13T15:35:38.000Z</time>
      </trkpt>
      <trkpt lat="46.27197" lon="6.02533">
        <ele>494.79998779297</ele>
        <time>2020-08-13T15:35:41.000Z</time>
      </trkpt>
      <trkpt lat="46.27199" lon="6.0253">
        <ele>495</ele>
        <time>2020-08-13T15:35:42.000Z</time>
      </trkpt>
      <trkpt lat="46.27202" lon="6.02526">
        <ele>495.20001220703</ele>
        <time>2020-08-13T15:35:43.000Z</time>
      </trkpt>
      <trkpt lat="46.27204" lon="6.02522">
        <ele>495.39999389648</ele>
        <time>2020-08-13T15:35:44.000Z</time>
      </trkpt>
      <trkpt lat="46.27211" lon="6.02512">
        <ele>496</ele>
        <time>2020-08-13T15:35:47.000Z</time>
      </trkpt>
      <trkpt lat="46.2722" lon="6.02497">
        <ele>496.60000610352</ele>
        <time>2020-08-13T15:35:51.000Z</time>
      </trkpt>
      <trkpt lat="46.27222" lon="6.02494">
        <ele>496.60000610352</ele>
        <time>2020-08-13T15:35:52.000Z</time>
      </trkpt>
      <trkpt lat="46.27227" lon="6.02487">
        <ele>497</ele>
        <time>2020-08-13T15:35:54.000Z</time>
      </trkpt>
      <trkpt lat="46.27244" lon="6.02461">
        <ele>498.20001220703</ele>
        <time>2020-08-13T15:36:01.000Z</time>
      </trkpt>
      <trkpt lat="46.2726" lon="6.02437">
        <ele>499.39999389648</ele>
        <time>2020-08-13T15:36:07.000Z</time>
      </trkpt>
      <trkpt lat="46.27277" lon="6.02406">
        <ele>499.39999389648</ele>
        <time>2020-08-13T15:36:14.000Z</time>
      </trkpt>
      <trkpt lat="46.27275" lon="6.02384">
        <ele>500.39999389648</ele>
        <time>2020-08-13T15:36:18.000Z</time>
      </trkpt>
      <trkpt lat="46.27273" lon="6.02373">
        <ele>500.60000610352</ele>
        <time>2020-08-13T15:36:20.000Z</time>
      </trkpt>
      <trkpt lat="46.27267" lon="6.02356">
        <ele>500.79998779297</ele>
        <time>2020-08-13T15:36:23.000Z</time>
      </trkpt>
      <trkpt lat="46.27268" lon="6.02338">
        <ele>500.79998779297</ele>
        <time>2020-08-13T15:36:26.000Z</time>
      </trkpt>
      <trkpt lat="46.2727" lon="6.02333">
        <ele>501</ele>
        <time>2020-08-13T15:36:27.000Z</time>
      </trkpt>
      <trkpt lat="46.27281" lon="6.02312">
        <ele>501.20001220703</ele>
        <time>2020-08-13T15:36:31.000Z</time>
      </trkpt>
      <trkpt lat="46.27291" lon="6.02297">
        <ele>501.60000610352</ele>
        <time>2020-08-13T15:36:34.000Z</time>
      </trkpt>
      <trkpt lat="46.27304" lon="6.02277">
        <ele>502.20001220703</ele>
        <time>2020-08-13T15:36:38.000Z</time>
      </trkpt>
      <trkpt lat="46.2732" lon="6.02249">
        <ele>502.60000610352</ele>
        <time>2020-08-13T15:36:43.000Z</time>
      </trkpt>
      <trkpt lat="46.27334" lon="6.02227">
        <ele>502.79998779297</ele>
        <time>2020-08-13T15:36:47.000Z</time>
      </trkpt>
      <trkpt lat="46.27361" lon="6.02185">
        <ele>503</ele>
        <time>2020-08-13T15:36:54.000Z</time>
      </trkpt>
      <trkpt lat="46.2739" lon="6.02135">
        <ele>502.60000610352</ele>
        <time>2020-08-13T15:37:02.000Z</time>
      </trkpt>
      <trkpt lat="46.27393" lon="6.02129">
        <ele>502.60000610352</ele>
        <time>2020-08-13T15:37:03.000Z</time>
      </trkpt>
      <trkpt lat="46.27413" lon="6.02093">
        <ele>503.39999389648</ele>
        <time>2020-08-13T15:37:09.000Z</time>
      </trkpt>
      <trkpt lat="46.27419" lon="6.02081">
        <ele>503.79998779297</ele>
        <time>2020-08-13T15:37:11.000Z</time>
      </trkpt>
      <trkpt lat="46.27434" lon="6.02055">
        <ele>504.60000610352</ele>
        <time>2020-08-13T15:37:16.000Z</time>
      </trkpt>
      <trkpt lat="46.27441" lon="6.02044">
        <ele>504.79998779297</ele>
        <time>2020-08-13T15:37:18.000Z</time>
      </trkpt>
      <trkpt lat="46.27461" lon="6.02016">
        <ele>506</ele>
        <time>2020-08-13T15:37:24.000Z</time>
      </trkpt>
      <trkpt lat="46.27467" lon="6.02007">
        <ele>506.39999389648</ele>
        <time>2020-08-13T15:37:26.000Z</time>
      </trkpt>
      <trkpt lat="46.27477" lon="6.01992">
        <ele>507</ele>
        <time>2020-08-13T15:37:29.000Z</time>
      </trkpt>
      <trkpt lat="46.27494" lon="6.01968">
        <ele>507.60000610352</ele>
        <time>2020-08-13T15:37:34.000Z</time>
      </trkpt>
      <trkpt lat="46.27502" lon="6.01953">
        <ele>508.20001220703</ele>
        <time>2020-08-13T15:37:37.000Z</time>
      </trkpt>
      <trkpt lat="46.27515" lon="6.01935">
        <ele>509.20001220703</ele>
        <time>2020-08-13T15:37:41.000Z</time>
      </trkpt>
      <trkpt lat="46.27518" lon="6.01931">
        <ele>509.60000610352</ele>
        <time>2020-08-13T15:37:42.000Z</time>
      </trkpt>
      <trkpt lat="46.27523" lon="6.01923">
        <ele>510.20001220703</ele>
        <time>2020-08-13T15:37:44.000Z</time>
      </trkpt>
      <trkpt lat="46.27526" lon="6.01918">
        <ele>510.20001220703</ele>
        <time>2020-08-13T15:37:45.000Z</time>
      </trkpt>
      <trkpt lat="46.27536" lon="6.01903">
        <ele>511.60000610352</ele>
        <time>2020-08-13T15:37:49.000Z</time>
      </trkpt>
      <trkpt lat="46.27541" lon="6.01895">
        <ele>512.40002441406</ele>
        <time>2020-08-13T15:37:51.000Z</time>
      </trkpt>
      <trkpt lat="46.27546" lon="6.01887">
        <ele>512.79998779297</ele>
        <time>2020-08-13T15:37:53.000Z</time>
      </trkpt>
      <trkpt lat="46.27557" lon="6.01871">
        <ele>513.79998779297</ele>
        <time>2020-08-13T15:37:57.000Z</time>
      </trkpt>
      <trkpt lat="46.2756" lon="6.01868">
        <ele>514.20001220703</ele>
        <time>2020-08-13T15:37:58.000Z</time>
      </trkpt>
      <trkpt lat="46.27565" lon="6.01861">
        <ele>514.79998779297</ele>
        <time>2020-08-13T15:38:00.000Z</time>
      </trkpt>
      <trkpt lat="46.27573" lon="6.01849">
        <ele>516</ele>
        <time>2020-08-13T15:38:03.000Z</time>
      </trkpt>
      <trkpt lat="46.27583" lon="6.01833">
        <ele>516.59997558594</ele>
        <time>2020-08-13T15:38:07.000Z</time>
      </trkpt>
      <trkpt lat="46.27588" lon="6.01824">
        <ele>517</ele>
        <time>2020-08-13T15:38:09.000Z</time>
      </trkpt>
      <trkpt lat="46.27596" lon="6.01814">
        <ele>517.59997558594</ele>
        <time>2020-08-13T15:38:12.000Z</time>
      </trkpt>
      <trkpt lat="46.27603" lon="6.01801">
        <ele>518.20001220703</ele>
        <time>2020-08-13T15:38:15.000Z</time>
      </trkpt>
      <trkpt lat="46.27614" lon="6.01787">
        <ele>519.40002441406</ele>
        <time>2020-08-13T15:38:19.000Z</time>
      </trkpt>
      <trkpt lat="46.27624" lon="6.01773">
        <ele>520.59997558594</ele>
        <time>2020-08-13T15:38:23.000Z</time>
      </trkpt>
      <trkpt lat="46.27634" lon="6.01758">
        <ele>521.40002441406</ele>
        <time>2020-08-13T15:38:27.000Z</time>
      </trkpt>
      <trkpt lat="46.27636" lon="6.01754">
        <ele>521.79998779297</ele>
        <time>2020-08-13T15:38:28.000Z</time>
      </trkpt>
      <trkpt lat="46.27643" lon="6.01743">
        <ele>522.79998779297</ele>
        <time>2020-08-13T15:38:31.000Z</time>
      </trkpt>
      <trkpt lat="46.27654" lon="6.0173">
        <ele>524</ele>
        <time>2020-08-13T15:38:35.000Z</time>
      </trkpt>
      <trkpt lat="46.27657" lon="6.01727">
        <ele>524.20001220703</ele>
        <time>2020-08-13T15:38:36.000Z</time>
      </trkpt>
      <trkpt lat="46.27671" lon="6.01725">
        <ele>524.40002441406</ele>
        <time>2020-08-13T15:38:40.000Z</time>
      </trkpt>
      <trkpt lat="46.277" lon="6.01739">
        <ele>524.79998779297</ele>
        <time>2020-08-13T15:38:47.000Z</time>
      </trkpt>
      <trkpt lat="46.27709" lon="6.01744">
        <ele>525</ele>
        <time>2020-08-13T15:38:49.000Z</time>
      </trkpt>
      <trkpt lat="46.2773" lon="6.01761">
        <ele>526</ele>
        <time>2020-08-13T15:38:54.000Z</time>
      </trkpt>
      <trkpt lat="46.27734" lon="6.01764">
        <ele>526.20001220703</ele>
        <time>2020-08-13T15:38:55.000Z</time>
      </trkpt>
      <trkpt lat="46.27763" lon="6.01785">
        <ele>525.40002441406</ele>
        <time>2020-08-13T15:39:02.000Z</time>
      </trkpt>
      <trkpt lat="46.27767" lon="6.01788">
        <ele>525.40002441406</ele>
        <time>2020-08-13T15:39:03.000Z</time>
      </trkpt>
      <trkpt lat="46.27771" lon="6.01792">
        <ele>525.59997558594</ele>
        <time>2020-08-13T15:39:04.000Z</time>
      </trkpt>
      <trkpt lat="46.278" lon="6.01811">
        <ele>526.20001220703</ele>
        <time>2020-08-13T15:39:11.000Z</time>
      </trkpt>
      <trkpt lat="46.27804" lon="6.01814">
        <ele>526.20001220703</ele>
        <time>2020-08-13T15:39:12.000Z</time>
      </trkpt>
      <trkpt lat="46.27841" lon="6.0184">
        <ele>527</ele>
        <time>2020-08-13T15:39:21.000Z</time>
      </trkpt>
      <trkpt lat="46.27873" lon="6.01862">
        <ele>526.59997558594</ele>
        <time>2020-08-13T15:39:28.000Z</time>
      </trkpt>
      <trkpt lat="46.27877" lon="6.01866">
        <ele>526.59997558594</ele>
        <time>2020-08-13T15:39:29.000Z</time>
      </trkpt>
      <trkpt lat="46.27928" lon="6.01901">
        <ele>526.40002441406</ele>
        <time>2020-08-13T15:39:40.000Z</time>
      </trkpt>
      <trkpt lat="46.27971" lon="6.0193">
        <ele>527.20001220703</ele>
        <time>2020-08-13T15:39:49.000Z</time>
      </trkpt>
      <trkpt lat="46.27976" lon="6.01933">
        <ele>527.20001220703</ele>
        <time>2020-08-13T15:39:50.000Z</time>
      </trkpt>
      <trkpt lat="46.27995" lon="6.01946">
        <ele>527.20001220703</ele>
        <time>2020-08-13T15:39:54.000Z</time>
      </trkpt>
      <trkpt lat="46.28004" lon="6.01952">
        <ele>527.20001220703</ele>
        <time>2020-08-13T15:39:56.000Z</time>
      </trkpt>
      <trkpt lat="46.28009" lon="6.01956">
        <ele>527.20001220703</ele>
        <time>2020-08-13T15:39:57.000Z</time>
      </trkpt>
      <trkpt lat="46.28013" lon="6.0196">
        <ele>527</ele>
        <time>2020-08-13T15:39:58.000Z</time>
      </trkpt>
      <trkpt lat="46.28034" lon="6.01974">
        <ele>526.59997558594</ele>
        <time>2020-08-13T15:40:02.000Z</time>
      </trkpt>
      <trkpt lat="46.28052" lon="6.01987">
        <ele>525.79998779297</ele>
        <time>2020-08-13T15:40:05.000Z</time>
      </trkpt>
      <trkpt lat="46.28066" lon="6.01997">
        <ele>525</ele>
        <time>2020-08-13T15:40:07.000Z</time>
      </trkpt>
      <trkpt lat="46.28074" lon="6.02002">
        <ele>524.59997558594</ele>
        <time>2020-08-13T15:40:08.000Z</time>
      </trkpt>
      <trkpt lat="46.28087" lon="6.02005">
        <ele>524.40002441406</ele>
        <time>2020-08-13T15:40:10.000Z</time>
      </trkpt>
      <trkpt lat="46.28096" lon="6.01998">
        <ele>524.59997558594</ele>
        <time>2020-08-13T15:40:12.000Z</time>
      </trkpt>
      <trkpt lat="46.28099" lon="6.01992">
        <ele>524.79998779297</ele>
        <time>2020-08-13T15:40:13.000Z</time>
      </trkpt>
      <trkpt lat="46.281" lon="6.01985">
        <ele>524.79998779297</ele>
        <time>2020-08-13T15:40:14.000Z</time>
      </trkpt>
      <trkpt lat="46.28101" lon="6.01964">
        <ele>525.79998779297</ele>
        <time>2020-08-13T15:40:17.000Z</time>
      </trkpt>
      <trkpt lat="46.281" lon="6.01957">
        <ele>526.20001220703</ele>
        <time>2020-08-13T15:40:18.000Z</time>
      </trkpt>
      <trkpt lat="46.281" lon="6.0195">
        <ele>526.40002441406</ele>
        <time>2020-08-13T15:40:19.000Z</time>
      </trkpt>
      <trkpt lat="46.28099" lon="6.01931">
        <ele>527</ele>
        <time>2020-08-13T15:40:22.000Z</time>
      </trkpt>
      <trkpt lat="46.281" lon="6.01918">
        <ele>527.59997558594</ele>
        <time>2020-08-13T15:40:24.000Z</time>
      </trkpt>
      <trkpt lat="46.281" lon="6.01912">
        <ele>527.59997558594</ele>
        <time>2020-08-13T15:40:25.000Z</time>
      </trkpt>
      <trkpt lat="46.28104" lon="6.01893">
        <ele>528</ele>
        <time>2020-08-13T15:40:28.000Z</time>
      </trkpt>
      <trkpt lat="46.28105" lon="6.01888">
        <ele>528.40002441406</ele>
        <time>2020-08-13T15:40:29.000Z</time>
      </trkpt>
      <trkpt lat="46.28107" lon="6.01882">
        <ele>528.59997558594</ele>
        <time>2020-08-13T15:40:30.000Z</time>
      </trkpt>
      <trkpt lat="46.28109" lon="6.01856">
        <ele>529.40002441406</ele>
        <time>2020-08-13T15:40:35.000Z</time>
      </trkpt>
      <trkpt lat="46.2811" lon="6.0185">
        <ele>529.79998779297</ele>
        <time>2020-08-13T15:40:36.000Z</time>
      </trkpt>
      <trkpt lat="46.28111" lon="6.01833">
        <ele>530.20001220703</ele>
        <time>2020-08-13T15:40:39.000Z</time>
      </trkpt>
      <trkpt lat="46.28112" lon="6.01822">
        <ele>530.40002441406</ele>
        <time>2020-08-13T15:40:41.000Z</time>
      </trkpt>
      <trkpt lat="46.28113" lon="6.01805">
        <ele>531</ele>
        <time>2020-08-13T15:40:44.000Z</time>
      </trkpt>
      <trkpt lat="46.28113" lon="6.01788">
        <ele>531.40002441406</ele>
        <time>2020-08-13T15:40:47.000Z</time>
      </trkpt>
      <trkpt lat="46.28113" lon="6.0177">
        <ele>532.79998779297</ele>
        <time>2020-08-13T15:40:50.000Z</time>
      </trkpt>
      <trkpt lat="46.28113" lon="6.01764">
        <ele>533</ele>
        <time>2020-08-13T15:40:51.000Z</time>
      </trkpt>
      <trkpt lat="46.28118" lon="6.01732">
        <ele>533.59997558594</ele>
        <time>2020-08-13T15:40:57.000Z</time>
      </trkpt>
      <trkpt lat="46.2812" lon="6.01722">
        <ele>534</ele>
        <time>2020-08-13T15:40:59.000Z</time>
      </trkpt>
      <trkpt lat="46.28125" lon="6.01705">
        <ele>535</ele>
        <time>2020-08-13T15:41:03.000Z</time>
      </trkpt>
      <trkpt lat="46.28127" lon="6.01701">
        <ele>535.20001220703</ele>
        <time>2020-08-13T15:41:04.000Z</time>
      </trkpt>
      <trkpt lat="46.28132" lon="6.01689">
        <ele>535.79998779297</ele>
        <time>2020-08-13T15:41:07.000Z</time>
      </trkpt>
      <trkpt lat="46.28133" lon="6.01685">
        <ele>536</ele>
        <time>2020-08-13T15:41:08.000Z</time>
      </trkpt>
      <trkpt lat="46.28137" lon="6.01673">
        <ele>537</ele>
        <time>2020-08-13T15:41:11.000Z</time>
      </trkpt>
      <trkpt lat="46.28138" lon="6.01669">
        <ele>537.40002441406</ele>
        <time>2020-08-13T15:41:12.000Z</time>
      </trkpt>
      <trkpt lat="46.28151" lon="6.01649">
        <ele>538</ele>
        <time>2020-08-13T15:41:18.000Z</time>
      </trkpt>
      <trkpt lat="46.28154" lon="6.01649">
        <ele>538.20001220703</ele>
        <time>2020-08-13T15:41:19.000Z</time>
      </trkpt>
      <trkpt lat="46.28156" lon="6.0165">
        <ele>538.59997558594</ele>
        <time>2020-08-13T15:41:20.000Z</time>
      </trkpt>
      <trkpt lat="46.28159" lon="6.01653">
        <ele>539.20001220703</ele>
        <time>2020-08-13T15:41:21.000Z</time>
      </trkpt>
      <trkpt lat="46.28162" lon="6.01656">
        <ele>539.79998779297</ele>
        <time>2020-08-13T15:41:22.000Z</time>
      </trkpt>
      <trkpt lat="46.28172" lon="6.01677">
        <ele>540.59997558594</ele>
        <time>2020-08-13T15:41:27.000Z</time>
      </trkpt>
      <trkpt lat="46.28186" lon="6.01697">
        <ele>540.59997558594</ele>
        <time>2020-08-13T15:41:32.000Z</time>
      </trkpt>
      <trkpt lat="46.28189" lon="6.01701">
        <ele>540.40002441406</ele>
        <time>2020-08-13T15:41:33.000Z</time>
      </trkpt>
      <trkpt lat="46.28193" lon="6.01706">
        <ele>540.40002441406</ele>
        <time>2020-08-13T15:41:34.000Z</time>
      </trkpt>
      <trkpt lat="46.28196" lon="6.01709">
        <ele>540.40002441406</ele>
        <time>2020-08-13T15:41:35.000Z</time>
      </trkpt>
      <trkpt lat="46.28204" lon="6.01712">
        <ele>540.40002441406</ele>
        <time>2020-08-13T15:41:37.000Z</time>
      </trkpt>
      <trkpt lat="46.28213" lon="6.01704">
        <ele>541</ele>
        <time>2020-08-13T15:41:40.000Z</time>
      </trkpt>
      <trkpt lat="46.28216" lon="6.01701">
        <ele>541.40002441406</ele>
        <time>2020-08-13T15:41:41.000Z</time>
      </trkpt>
      <trkpt lat="46.28221" lon="6.01693">
        <ele>542.40002441406</ele>
        <time>2020-08-13T15:41:44.000Z</time>
      </trkpt>
      <trkpt lat="46.28224" lon="6.01686">
        <ele>543.20001220703</ele>
        <time>2020-08-13T15:41:46.000Z</time>
      </trkpt>
      <trkpt lat="46.28228" lon="6.0168">
        <ele>543.59997558594</ele>
        <time>2020-08-13T15:41:48.000Z</time>
      </trkpt>
      <trkpt lat="46.28231" lon="6.01674">
        <ele>543.79998779297</ele>
        <time>2020-08-13T15:41:50.000Z</time>
      </trkpt>
      <trkpt lat="46.28237" lon="6.01665">
        <ele>544.79998779297</ele>
        <time>2020-08-13T15:41:53.000Z</time>
      </trkpt>
      <trkpt lat="46.28241" lon="6.01655">
        <ele>545.79998779297</ele>
        <time>2020-08-13T15:41:56.000Z</time>
      </trkpt>
      <trkpt lat="46.28243" lon="6.01652">
        <ele>546</ele>
        <time>2020-08-13T15:41:57.000Z</time>
      </trkpt>
      <trkpt lat="46.28251" lon="6.0163">
        <ele>547</ele>
        <time>2020-08-13T15:42:03.000Z</time>
      </trkpt>
      <trkpt lat="46.28254" lon="6.01622">
        <ele>547.40002441406</ele>
        <time>2020-08-13T15:42:05.000Z</time>
      </trkpt>
      <trkpt lat="46.28257" lon="6.01611">
        <ele>548.20001220703</ele>
        <time>2020-08-13T15:42:08.000Z</time>
      </trkpt>
      <trkpt lat="46.28263" lon="6.01597">
        <ele>549.40002441406</ele>
        <time>2020-08-13T15:42:12.000Z</time>
      </trkpt>
      <trkpt lat="46.28264" lon="6.01594">
        <ele>549.59997558594</ele>
        <time>2020-08-13T15:42:13.000Z</time>
      </trkpt>
      <trkpt lat="46.28268" lon="6.0158">
        <ele>550.40002441406</ele>
        <time>2020-08-13T15:42:17.000Z</time>
      </trkpt>
      <trkpt lat="46.2827" lon="6.01573">
        <ele>551</ele>
        <time>2020-08-13T15:42:19.000Z</time>
      </trkpt>
      <trkpt lat="46.28272" lon="6.01566">
        <ele>551.59997558594</ele>
        <time>2020-08-13T15:42:21.000Z</time>
      </trkpt>
      <trkpt lat="46.28276" lon="6.01553">
        <ele>552.59997558594</ele>
        <time>2020-08-13T15:42:25.000Z</time>
      </trkpt>
      <trkpt lat="46.28277" lon="6.0155">
        <ele>552.79998779297</ele>
        <time>2020-08-13T15:42:26.000Z</time>
      </trkpt>
      <trkpt lat="46.28281" lon="6.01536">
        <ele>553.79998779297</ele>
        <time>2020-08-13T15:42:30.000Z</time>
      </trkpt>
      <trkpt lat="46.28282" lon="6.01525">
        <ele>554.20001220703</ele>
        <time>2020-08-13T15:42:33.000Z</time>
      </trkpt>
      <trkpt lat="46.28284" lon="6.01519">
        <ele>554.59997558594</ele>
        <time>2020-08-13T15:42:35.000Z</time>
      </trkpt>
      <trkpt lat="46.28287" lon="6.01518">
        <ele>554.79998779297</ele>
        <time>2020-08-13T15:42:36.000Z</time>
      </trkpt>
      <trkpt lat="46.28298" lon="6.01527">
        <ele>555</ele>
        <time>2020-08-13T15:42:40.000Z</time>
      </trkpt>
      <trkpt lat="46.28317" lon="6.01548">
        <ele>554.79998779297</ele>
        <time>2020-08-13T15:42:46.000Z</time>
      </trkpt>
      <trkpt lat="46.2832" lon="6.01551">
        <ele>554.79998779297</ele>
        <time>2020-08-13T15:42:47.000Z</time>
      </trkpt>
      <trkpt lat="46.28326" lon="6.01558">
        <ele>555</ele>
        <time>2020-08-13T15:42:49.000Z</time>
      </trkpt>
      <trkpt lat="46.28346" lon="6.01578">
        <ele>555.40002441406</ele>
        <time>2020-08-13T15:42:56.000Z</time>
      </trkpt>
      <trkpt lat="46.28362" lon="6.01584">
        <ele>556</ele>
        <time>2020-08-13T15:43:02.000Z</time>
      </trkpt>
      <trkpt lat="46.28365" lon="6.01585">
        <ele>556.20001220703</ele>
        <time>2020-08-13T15:43:03.000Z</time>
      </trkpt>
      <trkpt lat="46.28368" lon="6.01585">
        <ele>556.40002441406</ele>
        <time>2020-08-13T15:43:04.000Z</time>
      </trkpt>
      <trkpt lat="46.2837" lon="6.01585">
        <ele>556.59997558594</ele>
        <time>2020-08-13T15:43:05.000Z</time>
      </trkpt>
      <trkpt lat="46.28373" lon="6.01586">
        <ele>556.59997558594</ele>
        <time>2020-08-13T15:43:06.000Z</time>
      </trkpt>
      <trkpt lat="46.28376" lon="6.01586">
        <ele>556.79998779297</ele>
        <time>2020-08-13T15:43:07.000Z</time>
      </trkpt>
      <trkpt lat="46.2838" lon="6.01587">
        <ele>557</ele>
        <time>2020-08-13T15:43:08.000Z</time>
      </trkpt>
      <trkpt lat="46.28388" lon="6.01588">
        <ele>557.79998779297</ele>
        <time>2020-08-13T15:43:11.000Z</time>
      </trkpt>
      <trkpt lat="46.28391" lon="6.01588">
        <ele>558</ele>
        <time>2020-08-13T15:43:12.000Z</time>
      </trkpt>
      <trkpt lat="46.28394" lon="6.01588">
        <ele>558</ele>
        <time>2020-08-13T15:43:13.000Z</time>
      </trkpt>
      <trkpt lat="46.28407" lon="6.01587">
        <ele>559</ele>
        <time>2020-08-13T15:43:18.000Z</time>
      </trkpt>
      <trkpt lat="46.2841" lon="6.01586">
        <ele>559.20001220703</ele>
        <time>2020-08-13T15:43:19.000Z</time>
      </trkpt>
      <trkpt lat="46.28426" lon="6.01585">
        <ele>560.40002441406</ele>
        <time>2020-08-13T15:43:25.000Z</time>
      </trkpt>
      <trkpt lat="46.28437" lon="6.01586">
        <ele>561.59997558594</ele>
        <time>2020-08-13T15:43:29.000Z</time>
      </trkpt>
      <trkpt lat="46.28451" lon="6.01582">
        <ele>562.79998779297</ele>
        <time>2020-08-13T15:43:34.000Z</time>
      </trkpt>
      <trkpt lat="46.28454" lon="6.01581">
        <ele>563</ele>
        <time>2020-08-13T15:43:35.000Z</time>
      </trkpt>
      <trkpt lat="46.28464" lon="6.01576">
        <ele>563.79998779297</ele>
        <time>2020-08-13T15:43:39.000Z</time>
      </trkpt>
      <trkpt lat="46.28471" lon="6.0157">
        <ele>564.40002441406</ele>
        <time>2020-08-13T15:43:42.000Z</time>
      </trkpt>
      <trkpt lat="46.28475" lon="6.01566">
        <ele>564.79998779297</ele>
        <time>2020-08-13T15:43:44.000Z</time>
      </trkpt>
      <trkpt lat="46.28484" lon="6.0156">
        <ele>566</ele>
        <time>2020-08-13T15:43:48.000Z</time>
      </trkpt>
      <trkpt lat="46.28487" lon="6.01557">
        <ele>566.59997558594</ele>
        <time>2020-08-13T15:43:50.000Z</time>
      </trkpt>
      <trkpt lat="46.28489" lon="6.01556">
        <ele>567</ele>
        <time>2020-08-13T15:43:51.000Z</time>
      </trkpt>
      <trkpt lat="46.285" lon="6.01549">
        <ele>568.20001220703</ele>
        <time>2020-08-13T15:43:56.000Z</time>
      </trkpt>
      <trkpt lat="46.28504" lon="6.01548">
        <ele>568.79998779297</ele>
        <time>2020-08-13T15:43:58.000Z</time>
      </trkpt>
      <trkpt lat="46.28508" lon="6.01546">
        <ele>569.40002441406</ele>
        <time>2020-08-13T15:44:00.000Z</time>
      </trkpt>
      <trkpt lat="46.28517" lon="6.01544">
        <ele>570.40002441406</ele>
        <time>2020-08-13T15:44:04.000Z</time>
      </trkpt>
      <trkpt lat="46.28526" lon="6.01541">
        <ele>571.59997558594</ele>
        <time>2020-08-13T15:44:08.000Z</time>
      </trkpt>
      <trkpt lat="46.28537" lon="6.01538">
        <ele>572.59997558594</ele>
        <time>2020-08-13T15:44:13.000Z</time>
      </trkpt>
      <trkpt lat="46.28544" lon="6.01538">
        <ele>573.40002441406</ele>
        <time>2020-08-13T15:44:16.000Z</time>
      </trkpt>
      <trkpt lat="46.28546" lon="6.01538">
        <ele>573.79998779297</ele>
        <time>2020-08-13T15:44:17.000Z</time>
      </trkpt>
      <trkpt lat="46.28559" lon="6.01537">
        <ele>574.79998779297</ele>
        <time>2020-08-13T15:44:23.000Z</time>
      </trkpt>
      <trkpt lat="46.28566" lon="6.01537">
        <ele>575.59997558594</ele>
        <time>2020-08-13T15:44:26.000Z</time>
      </trkpt>
      <trkpt lat="46.28568" lon="6.01537">
        <ele>575.79998779297</ele>
        <time>2020-08-13T15:44:27.000Z</time>
      </trkpt>
      <trkpt lat="46.28578" lon="6.01539">
        <ele>576.79998779297</ele>
        <time>2020-08-13T15:44:31.000Z</time>
      </trkpt>
      <trkpt lat="46.28584" lon="6.0154">
        <ele>577.40002441406</ele>
        <time>2020-08-13T15:44:34.000Z</time>
      </trkpt>
      <trkpt lat="46.28588" lon="6.01541">
        <ele>578</ele>
        <time>2020-08-13T15:44:36.000Z</time>
      </trkpt>
      <trkpt lat="46.28597" lon="6.01542">
        <ele>579.20001220703</ele>
        <time>2020-08-13T15:44:40.000Z</time>
      </trkpt>
      <trkpt lat="46.28601" lon="6.01543">
        <ele>579.40002441406</ele>
        <time>2020-08-13T15:44:42.000Z</time>
      </trkpt>
      <trkpt lat="46.28615" lon="6.01544">
        <ele>580.40002441406</ele>
        <time>2020-08-13T15:44:48.000Z</time>
      </trkpt>
      <trkpt lat="46.28619" lon="6.01545">
        <ele>581.20001220703</ele>
        <time>2020-08-13T15:44:50.000Z</time>
      </trkpt>
      <trkpt lat="46.28621" lon="6.01546">
        <ele>581.59997558594</ele>
        <time>2020-08-13T15:44:51.000Z</time>
      </trkpt>
      <trkpt lat="46.28632" lon="6.01546">
        <ele>582.40002441406</ele>
        <time>2020-08-13T15:44:56.000Z</time>
      </trkpt>
      <trkpt lat="46.28633" lon="6.01547">
        <ele>582.59997558594</ele>
        <time>2020-08-13T15:44:57.000Z</time>
      </trkpt>
      <trkpt lat="46.28641" lon="6.01546">
        <ele>583.59997558594</ele>
        <time>2020-08-13T15:45:01.000Z</time>
      </trkpt>
      <trkpt lat="46.28646" lon="6.01546">
        <ele>584</ele>
        <time>2020-08-13T15:45:03.000Z</time>
      </trkpt>
      <trkpt lat="46.28652" lon="6.01545">
        <ele>584.79998779297</ele>
        <time>2020-08-13T15:45:06.000Z</time>
      </trkpt>
      <trkpt lat="46.28664" lon="6.01545">
        <ele>585.79998779297</ele>
        <time>2020-08-13T15:45:12.000Z</time>
      </trkpt>
      <trkpt lat="46.28671" lon="6.01543">
        <ele>587</ele>
        <time>2020-08-13T15:45:15.000Z</time>
      </trkpt>
      <trkpt lat="46.28683" lon="6.01544">
        <ele>587.79998779297</ele>
        <time>2020-08-13T15:45:20.000Z</time>
      </trkpt>
      <trkpt lat="46.28686" lon="6.01544">
        <ele>588.20001220703</ele>
        <time>2020-08-13T15:45:21.000Z</time>
      </trkpt>
      <trkpt lat="46.287" lon="6.01543">
        <ele>589.20001220703</ele>
        <time>2020-08-13T15:45:27.000Z</time>
      </trkpt>
      <trkpt lat="46.28702" lon="6.01542">
        <ele>589.59997558594</ele>
        <time>2020-08-13T15:45:28.000Z</time>
      </trkpt>
      <trkpt lat="46.28709" lon="6.0154">
        <ele>590.20001220703</ele>
        <time>2020-08-13T15:45:31.000Z</time>
      </trkpt>
      <trkpt lat="46.28718" lon="6.01539">
        <ele>591</ele>
        <time>2020-08-13T15:45:35.000Z</time>
      </trkpt>
      <trkpt lat="46.2872" lon="6.01539">
        <ele>591.20001220703</ele>
        <time>2020-08-13T15:45:36.000Z</time>
      </trkpt>
      <trkpt lat="46.28733" lon="6.01535">
        <ele>592.59997558594</ele>
        <time>2020-08-13T15:45:42.000Z</time>
      </trkpt>
      <trkpt lat="46.28742" lon="6.01533">
        <ele>593.40002441406</ele>
        <time>2020-08-13T15:45:46.000Z</time>
      </trkpt>
      <trkpt lat="46.28744" lon="6.01532">
        <ele>593.59997558594</ele>
        <time>2020-08-13T15:45:47.000Z</time>
      </trkpt>
      <trkpt lat="46.28758" lon="6.01528">
        <ele>594.79998779297</ele>
        <time>2020-08-13T15:45:53.000Z</time>
      </trkpt>
      <trkpt lat="46.28765" lon="6.01526">
        <ele>595.40002441406</ele>
        <time>2020-08-13T15:45:56.000Z</time>
      </trkpt>
      <trkpt lat="46.28778" lon="6.01523">
        <ele>595.79998779297</ele>
        <time>2020-08-13T15:46:01.000Z</time>
      </trkpt>
      <trkpt lat="46.28788" lon="6.01521">
        <ele>596.59997558594</ele>
        <time>2020-08-13T15:46:05.000Z</time>
      </trkpt>
      <trkpt lat="46.2879" lon="6.01521">
        <ele>597</ele>
        <time>2020-08-13T15:46:06.000Z</time>
      </trkpt>
      <trkpt lat="46.28811" lon="6.01519">
        <ele>598</ele>
        <time>2020-08-13T15:46:14.000Z</time>
      </trkpt>
      <trkpt lat="46.28823" lon="6.0152">
        <ele>599</ele>
        <time>2020-08-13T15:46:19.000Z</time>
      </trkpt>
      <trkpt lat="46.2883" lon="6.01522">
        <ele>599.59997558594</ele>
        <time>2020-08-13T15:46:22.000Z</time>
      </trkpt>
      <trkpt lat="46.2884" lon="6.01524">
        <ele>600</ele>
        <time>2020-08-13T15:46:26.000Z</time>
      </trkpt>
      <trkpt lat="46.28848" lon="6.01528">
        <ele>600.59997558594</ele>
        <time>2020-08-13T15:46:29.000Z</time>
      </trkpt>
      <trkpt lat="46.28859" lon="6.01533">
        <ele>601.20001220703</ele>
        <time>2020-08-13T15:46:33.000Z</time>
      </trkpt>
      <trkpt lat="46.2887" lon="6.01537">
        <ele>601.59997558594</ele>
        <time>2020-08-13T15:46:37.000Z</time>
      </trkpt>
      <trkpt lat="46.28872" lon="6.01538">
        <ele>602</ele>
        <time>2020-08-13T15:46:38.000Z</time>
      </trkpt>
      <trkpt lat="46.28875" lon="6.01539">
        <ele>602.20001220703</ele>
        <time>2020-08-13T15:46:39.000Z</time>
      </trkpt>
      <trkpt lat="46.28888" lon="6.01545">
        <ele>603.20001220703</ele>
        <time>2020-08-13T15:46:44.000Z</time>
      </trkpt>
      <trkpt lat="46.28891" lon="6.01546">
        <ele>603.40002441406</ele>
        <time>2020-08-13T15:46:45.000Z</time>
      </trkpt>
      <trkpt lat="46.28893" lon="6.01547">
        <ele>603.59997558594</ele>
        <time>2020-08-13T15:46:46.000Z</time>
      </trkpt>
      <trkpt lat="46.28913" lon="6.01556">
        <ele>604.40002441406</ele>
        <time>2020-08-13T15:46:53.000Z</time>
      </trkpt>
      <trkpt lat="46.28916" lon="6.01557">
        <ele>604.59997558594</ele>
        <time>2020-08-13T15:46:54.000Z</time>
      </trkpt>
      <trkpt lat="46.28928" lon="6.01563">
        <ele>605.59997558594</ele>
        <time>2020-08-13T15:46:59.000Z</time>
      </trkpt>
      <trkpt lat="46.28933" lon="6.01565">
        <ele>606</ele>
        <time>2020-08-13T15:47:01.000Z</time>
      </trkpt>
      <trkpt lat="46.28945" lon="6.01571">
        <ele>606.79998779297</ele>
        <time>2020-08-13T15:47:06.000Z</time>
      </trkpt>
      <trkpt lat="46.28953" lon="6.01576">
        <ele>607.20001220703</ele>
        <time>2020-08-13T15:47:09.000Z</time>
      </trkpt>
      <trkpt lat="46.28958" lon="6.01578">
        <ele>607.79998779297</ele>
        <time>2020-08-13T15:47:11.000Z</time>
      </trkpt>
      <trkpt lat="46.28968" lon="6.01583">
        <ele>608.79998779297</ele>
        <time>2020-08-13T15:47:15.000Z</time>
      </trkpt>
      <trkpt lat="46.28975" lon="6.01586">
        <ele>609.59997558594</ele>
        <time>2020-08-13T15:47:18.000Z</time>
      </trkpt>
      <trkpt lat="46.28984" lon="6.0159">
        <ele>610</ele>
        <time>2020-08-13T15:47:21.000Z</time>
      </trkpt>
      <trkpt lat="46.28991" lon="6.01593">
        <ele>610.79998779297</ele>
        <time>2020-08-13T15:47:24.000Z</time>
      </trkpt>
      <trkpt lat="46.28996" lon="6.01594">
        <ele>611</ele>
        <time>2020-08-13T15:47:26.000Z</time>
      </trkpt>
      <trkpt lat="46.29006" lon="6.01598">
        <ele>612.20001220703</ele>
        <time>2020-08-13T15:47:30.000Z</time>
      </trkpt>
      <trkpt lat="46.29008" lon="6.01599">
        <ele>612.20001220703</ele>
        <time>2020-08-13T15:47:31.000Z</time>
      </trkpt>
      <trkpt lat="46.29012" lon="6.01601">
        <ele>612.59997558594</ele>
        <time>2020-08-13T15:47:33.000Z</time>
      </trkpt>
      <trkpt lat="46.29018" lon="6.01603">
        <ele>613.40002441406</ele>
        <time>2020-08-13T15:47:36.000Z</time>
      </trkpt>
      <trkpt lat="46.29023" lon="6.01604">
        <ele>614</ele>
        <time>2020-08-13T15:47:38.000Z</time>
      </trkpt>
      <trkpt lat="46.29028" lon="6.01606">
        <ele>614.59997558594</ele>
        <time>2020-08-13T15:47:40.000Z</time>
      </trkpt>
      <trkpt lat="46.29038" lon="6.01611">
        <ele>615.59997558594</ele>
        <time>2020-08-13T15:47:44.000Z</time>
      </trkpt>
      <trkpt lat="46.29045" lon="6.01613">
        <ele>616.40002441406</ele>
        <time>2020-08-13T15:47:47.000Z</time>
      </trkpt>
      <trkpt lat="46.29047" lon="6.01614">
        <ele>616.59997558594</ele>
        <time>2020-08-13T15:47:48.000Z</time>
      </trkpt>
      <trkpt lat="46.29051" lon="6.01615">
        <ele>617</ele>
        <time>2020-08-13T15:47:50.000Z</time>
      </trkpt>
      <trkpt lat="46.29055" lon="6.01618">
        <ele>617.40002441406</ele>
        <time>2020-08-13T15:47:52.000Z</time>
      </trkpt>
      <trkpt lat="46.2906" lon="6.01621">
        <ele>617.79998779297</ele>
        <time>2020-08-13T15:47:54.000Z</time>
      </trkpt>
      <trkpt lat="46.29069" lon="6.01626">
        <ele>619</ele>
        <time>2020-08-13T15:47:58.000Z</time>
      </trkpt>
      <trkpt lat="46.29079" lon="6.01633">
        <ele>620.20001220703</ele>
        <time>2020-08-13T15:48:03.000Z</time>
      </trkpt>
      <trkpt lat="46.29084" lon="6.01637">
        <ele>621</ele>
        <time>2020-08-13T15:48:06.000Z</time>
      </trkpt>
      <trkpt lat="46.29088" lon="6.01639">
        <ele>621.40002441406</ele>
        <time>2020-08-13T15:48:08.000Z</time>
      </trkpt>
      <trkpt lat="46.29096" lon="6.01644">
        <ele>622.40002441406</ele>
        <time>2020-08-13T15:48:12.000Z</time>
      </trkpt>
      <trkpt lat="46.29106" lon="6.01649">
        <ele>623.59997558594</ele>
        <time>2020-08-13T15:48:17.000Z</time>
      </trkpt>
      <trkpt lat="46.29115" lon="6.01654">
        <ele>624.20001220703</ele>
        <time>2020-08-13T15:48:21.000Z</time>
      </trkpt>
      <trkpt lat="46.29121" lon="6.01656">
        <ele>625</ele>
        <time>2020-08-13T15:48:24.000Z</time>
      </trkpt>
      <trkpt lat="46.29126" lon="6.01659">
        <ele>626</ele>
        <time>2020-08-13T15:48:27.000Z</time>
      </trkpt>
      <trkpt lat="46.29128" lon="6.0166">
        <ele>626.20001220703</ele>
        <time>2020-08-13T15:48:28.000Z</time>
      </trkpt>
      <trkpt lat="46.2914" lon="6.01668">
        <ele>627.20001220703</ele>
        <time>2020-08-13T15:48:34.000Z</time>
      </trkpt>
      <trkpt lat="46.29144" lon="6.01671">
        <ele>627.59997558594</ele>
        <time>2020-08-13T15:48:36.000Z</time>
      </trkpt>
      <trkpt lat="46.29151" lon="6.01675">
        <ele>628.40002441406</ele>
        <time>2020-08-13T15:48:40.000Z</time>
      </trkpt>
      <trkpt lat="46.29163" lon="6.01683">
        <ele>629.40002441406</ele>
        <time>2020-08-13T15:48:46.000Z</time>
      </trkpt>
      <trkpt lat="46.29165" lon="6.01684">
        <ele>629.40002441406</ele>
        <time>2020-08-13T15:48:47.000Z</time>
      </trkpt>
      <trkpt lat="46.29179" lon="6.01691">
        <ele>630.59997558594</ele>
        <time>2020-08-13T15:48:53.000Z</time>
      </trkpt>
      <trkpt lat="46.29181" lon="6.01692">
        <ele>631</ele>
        <time>2020-08-13T15:48:54.000Z</time>
      </trkpt>
      <trkpt lat="46.29186" lon="6.01696">
        <ele>631.59997558594</ele>
        <time>2020-08-13T15:48:57.000Z</time>
      </trkpt>
      <trkpt lat="46.29193" lon="6.01699">
        <ele>632</ele>
        <time>2020-08-13T15:49:01.000Z</time>
      </trkpt>
      <trkpt lat="46.29207" lon="6.01705">
        <ele>632.79998779297</ele>
        <time>2020-08-13T15:49:07.000Z</time>
      </trkpt>
      <trkpt lat="46.29209" lon="6.01706">
        <ele>633</ele>
        <time>2020-08-13T15:49:08.000Z</time>
      </trkpt>
      <trkpt lat="46.29217" lon="6.01708">
        <ele>634</ele>
        <time>2020-08-13T15:49:12.000Z</time>
      </trkpt>
      <trkpt lat="46.29218" lon="6.01709">
        <ele>634.20001220703</ele>
        <time>2020-08-13T15:49:13.000Z</time>
      </trkpt>
      <trkpt lat="46.2922" lon="6.0171">
        <ele>634.40002441406</ele>
        <time>2020-08-13T15:49:14.000Z</time>
      </trkpt>
      <trkpt lat="46.29223" lon="6.01712">
        <ele>635</ele>
        <time>2020-08-13T15:49:16.000Z</time>
      </trkpt>
      <trkpt lat="46.29229" lon="6.01712">
        <ele>635.59997558594</ele>
        <time>2020-08-13T15:49:20.000Z</time>
      </trkpt>
      <trkpt lat="46.29233" lon="6.01713">
        <ele>636</ele>
        <time>2020-08-13T15:49:22.000Z</time>
      </trkpt>
      <trkpt lat="46.29243" lon="6.01712">
        <ele>637.20001220703</ele>
        <time>2020-08-13T15:49:27.000Z</time>
      </trkpt>
      <trkpt lat="46.29254" lon="6.01711">
        <ele>638.40002441406</ele>
        <time>2020-08-13T15:49:32.000Z</time>
      </trkpt>
      <trkpt lat="46.29262" lon="6.0171">
        <ele>639.20001220703</ele>
        <time>2020-08-13T15:49:36.000Z</time>
      </trkpt>
      <trkpt lat="46.29269" lon="6.01706">
        <ele>639.59997558594</ele>
        <time>2020-08-13T15:49:39.000Z</time>
      </trkpt>
      <trkpt lat="46.29279" lon="6.01702">
        <ele>640.40002441406</ele>
        <time>2020-08-13T15:49:43.000Z</time>
      </trkpt>
      <trkpt lat="46.29281" lon="6.01702">
        <ele>640.59997558594</ele>
        <time>2020-08-13T15:49:44.000Z</time>
      </trkpt>
      <trkpt lat="46.29294" lon="6.01703">
        <ele>641.79998779297</ele>
        <time>2020-08-13T15:49:49.000Z</time>
      </trkpt>
      <trkpt lat="46.29299" lon="6.01703">
        <ele>642.40002441406</ele>
        <time>2020-08-13T15:49:51.000Z</time>
      </trkpt>
      <trkpt lat="46.29304" lon="6.01703">
        <ele>642.79998779297</ele>
        <time>2020-08-13T15:49:53.000Z</time>
      </trkpt>
      <trkpt lat="46.29314" lon="6.01702">
        <ele>644</ele>
        <time>2020-08-13T15:49:57.000Z</time>
      </trkpt>
      <trkpt lat="46.2932" lon="6.01702">
        <ele>644.20001220703</ele>
        <time>2020-08-13T15:49:59.000Z</time>
      </trkpt>
      <trkpt lat="46.29329" lon="6.01703">
        <ele>645</ele>
        <time>2020-08-13T15:50:02.000Z</time>
      </trkpt>
      <trkpt lat="46.29341" lon="6.01704">
        <ele>646.20001220703</ele>
        <time>2020-08-13T15:50:06.000Z</time>
      </trkpt>
      <trkpt lat="46.29346" lon="6.01706">
        <ele>646.79998779297</ele>
        <time>2020-08-13T15:50:08.000Z</time>
      </trkpt>
      <trkpt lat="46.29351" lon="6.01708">
        <ele>647.40002441406</ele>
        <time>2020-08-13T15:50:10.000Z</time>
      </trkpt>
      <trkpt lat="46.29363" lon="6.01712">
        <ele>648.40002441406</ele>
        <time>2020-08-13T15:50:15.000Z</time>
      </trkpt>
      <trkpt lat="46.29367" lon="6.01714">
        <ele>648.79998779297</ele>
        <time>2020-08-13T15:50:17.000Z</time>
      </trkpt>
      <trkpt lat="46.29377" lon="6.01719">
        <ele>649.59997558594</ele>
        <time>2020-08-13T15:50:21.000Z</time>
      </trkpt>
      <trkpt lat="46.29385" lon="6.01724">
        <ele>650.20001220703</ele>
        <time>2020-08-13T15:50:24.000Z</time>
      </trkpt>
      <trkpt lat="46.29392" lon="6.01729">
        <ele>650.79998779297</ele>
        <time>2020-08-13T15:50:27.000Z</time>
      </trkpt>
      <trkpt lat="46.2941" lon="6.01739">
        <ele>651.59997558594</ele>
        <time>2020-08-13T15:50:34.000Z</time>
      </trkpt>
      <trkpt lat="46.29415" lon="6.01741">
        <ele>651.79998779297</ele>
        <time>2020-08-13T15:50:36.000Z</time>
      </trkpt>
      <trkpt lat="46.29423" lon="6.01746">
        <ele>652.79998779297</ele>
        <time>2020-08-13T15:50:40.000Z</time>
      </trkpt>
      <trkpt lat="46.29426" lon="6.01747">
        <ele>653</ele>
        <time>2020-08-13T15:50:41.000Z</time>
      </trkpt>
      <trkpt lat="46.2944" lon="6.01755">
        <ele>653.79998779297</ele>
        <time>2020-08-13T15:50:47.000Z</time>
      </trkpt>
      <trkpt lat="46.29447" lon="6.01758">
        <ele>654.20001220703</ele>
        <time>2020-08-13T15:50:50.000Z</time>
      </trkpt>
      <trkpt lat="46.29455" lon="6.01762">
        <ele>654.79998779297</ele>
        <time>2020-08-13T15:50:54.000Z</time>
      </trkpt>
      <trkpt lat="46.29459" lon="6.01764">
        <ele>655.20001220703</ele>
        <time>2020-08-13T15:50:56.000Z</time>
      </trkpt>
      <trkpt lat="46.29472" lon="6.01771">
        <ele>656.20001220703</ele>
        <time>2020-08-13T15:51:01.000Z</time>
      </trkpt>
      <trkpt lat="46.29491" lon="6.0178">
        <ele>657.20001220703</ele>
        <time>2020-08-13T15:51:08.000Z</time>
      </trkpt>
      <trkpt lat="46.29493" lon="6.01781">
        <ele>657.40002441406</ele>
        <time>2020-08-13T15:51:09.000Z</time>
      </trkpt>
      <trkpt lat="46.29504" lon="6.01783">
        <ele>658.20001220703</ele>
        <time>2020-08-13T15:51:14.000Z</time>
      </trkpt>
      <trkpt lat="46.29514" lon="6.01788">
        <ele>659</ele>
        <time>2020-08-13T15:51:19.000Z</time>
      </trkpt>
      <trkpt lat="46.29518" lon="6.01789">
        <ele>659.20001220703</ele>
        <time>2020-08-13T15:51:21.000Z</time>
      </trkpt>
      <trkpt lat="46.29533" lon="6.01795">
        <ele>660.40002441406</ele>
        <time>2020-08-13T15:51:27.000Z</time>
      </trkpt>
      <trkpt lat="46.29547" lon="6.01802">
        <ele>661.40002441406</ele>
        <time>2020-08-13T15:51:32.000Z</time>
      </trkpt>
      <trkpt lat="46.29552" lon="6.01804">
        <ele>662</ele>
        <time>2020-08-13T15:51:34.000Z</time>
      </trkpt>
      <trkpt lat="46.29561" lon="6.01808">
        <ele>662.40002441406</ele>
        <time>2020-08-13T15:51:37.000Z</time>
      </trkpt>
      <trkpt lat="46.29575" lon="6.01815">
        <ele>663.20001220703</ele>
        <time>2020-08-13T15:51:42.000Z</time>
      </trkpt>
      <trkpt lat="46.29578" lon="6.01817">
        <ele>663.40002441406</ele>
        <time>2020-08-13T15:51:43.000Z</time>
      </trkpt>
      <trkpt lat="46.29591" lon="6.01823">
        <ele>664.40002441406</ele>
        <time>2020-08-13T15:51:48.000Z</time>
      </trkpt>
      <trkpt lat="46.29593" lon="6.01824">
        <ele>664.59997558594</ele>
        <time>2020-08-13T15:51:49.000Z</time>
      </trkpt>
      <trkpt lat="46.29604" lon="6.01829">
        <ele>665.59997558594</ele>
        <time>2020-08-13T15:51:53.000Z</time>
      </trkpt>
      <trkpt lat="46.29609" lon="6.01831">
        <ele>666</ele>
        <time>2020-08-13T15:51:55.000Z</time>
      </trkpt>
      <trkpt lat="46.29617" lon="6.01832">
        <ele>666.59997558594</ele>
        <time>2020-08-13T15:51:58.000Z</time>
      </trkpt>
      <trkpt lat="46.29629" lon="6.01836">
        <ele>667.59997558594</ele>
        <time>2020-08-13T15:52:03.000Z</time>
      </trkpt>
      <trkpt lat="46.29632" lon="6.01836">
        <ele>667.79998779297</ele>
        <time>2020-08-13T15:52:04.000Z</time>
      </trkpt>
      <trkpt lat="46.29641" lon="6.01834">
        <ele>668.79998779297</ele>
        <time>2020-08-13T15:52:09.000Z</time>
      </trkpt>
      <trkpt lat="46.29643" lon="6.01833">
        <ele>669</ele>
        <time>2020-08-13T15:52:10.000Z</time>
      </trkpt>
      <trkpt lat="46.29657" lon="6.01822">
        <ele>669.79998779297</ele>
        <time>2020-08-13T15:52:15.000Z</time>
      </trkpt>
      <trkpt lat="46.29662" lon="6.01819">
        <ele>670</ele>
        <time>2020-08-13T15:52:17.000Z</time>
      </trkpt>
      <trkpt lat="46.29671" lon="6.01816">
        <ele>670.59997558594</ele>
        <time>2020-08-13T15:52:21.000Z</time>
      </trkpt>
      <trkpt lat="46.29675" lon="6.01817">
        <ele>671.20001220703</ele>
        <time>2020-08-13T15:52:23.000Z</time>
      </trkpt>
      <trkpt lat="46.29689" lon="6.01823">
        <ele>672.20001220703</ele>
        <time>2020-08-13T15:52:28.000Z</time>
      </trkpt>
      <trkpt lat="46.29692" lon="6.01825">
        <ele>672.40002441406</ele>
        <time>2020-08-13T15:52:29.000Z</time>
      </trkpt>
      <trkpt lat="46.29706" lon="6.01836">
        <ele>673.59997558594</ele>
        <time>2020-08-13T15:52:35.000Z</time>
      </trkpt>
      <trkpt lat="46.2971" lon="6.01838">
        <ele>673.79998779297</ele>
        <time>2020-08-13T15:52:36.000Z</time>
      </trkpt>
      <trkpt lat="46.29726" lon="6.01846">
        <ele>674.59997558594</ele>
        <time>2020-08-13T15:52:42.000Z</time>
      </trkpt>
      <trkpt lat="46.29729" lon="6.01848">
        <ele>674.79998779297</ele>
        <time>2020-08-13T15:52:43.000Z</time>
      </trkpt>
      <trkpt lat="46.29732" lon="6.01849">
        <ele>675.20001220703</ele>
        <time>2020-08-13T15:52:44.000Z</time>
      </trkpt>
      <trkpt lat="46.29742" lon="6.01856">
        <ele>675.59997558594</ele>
        <time>2020-08-13T15:52:48.000Z</time>
      </trkpt>
      <trkpt lat="46.29744" lon="6.01857">
        <ele>675.79998779297</ele>
        <time>2020-08-13T15:52:49.000Z</time>
      </trkpt>
      <trkpt lat="46.29758" lon="6.01868">
        <ele>676.79998779297</ele>
        <time>2020-08-13T15:52:55.000Z</time>
      </trkpt>
      <trkpt lat="46.29771" lon="6.0187">
        <ele>677.40002441406</ele>
        <time>2020-08-13T15:53:01.000Z</time>
      </trkpt>
      <trkpt lat="46.29776" lon="6.01867">
        <ele>677.79998779297</ele>
        <time>2020-08-13T15:53:03.000Z</time>
      </trkpt>
      <trkpt lat="46.29788" lon="6.01857">
        <ele>678.40002441406</ele>
        <time>2020-08-13T15:53:07.000Z</time>
      </trkpt>
      <trkpt lat="46.29794" lon="6.01849">
        <ele>679</ele>
        <time>2020-08-13T15:53:10.000Z</time>
      </trkpt>
      <trkpt lat="46.29804" lon="6.01838">
        <ele>679.79998779297</ele>
        <time>2020-08-13T15:53:15.000Z</time>
      </trkpt>
      <trkpt lat="46.29808" lon="6.01834">
        <ele>680.20001220703</ele>
        <time>2020-08-13T15:53:17.000Z</time>
      </trkpt>
      <trkpt lat="46.29813" lon="6.01829">
        <ele>681.20001220703</ele>
        <time>2020-08-13T15:53:20.000Z</time>
      </trkpt>
      <trkpt lat="46.29823" lon="6.01827">
        <ele>682</ele>
        <time>2020-08-13T15:53:24.000Z</time>
      </trkpt>
      <trkpt lat="46.29825" lon="6.01828">
        <ele>682.20001220703</ele>
        <time>2020-08-13T15:53:25.000Z</time>
      </trkpt>
      <trkpt lat="46.29839" lon="6.01838">
        <ele>683.40002441406</ele>
        <time>2020-08-13T15:53:30.000Z</time>
      </trkpt>
      <trkpt lat="46.29848" lon="6.01851">
        <ele>684.40002441406</ele>
        <time>2020-08-13T15:53:35.000Z</time>
      </trkpt>
      <trkpt lat="46.2985" lon="6.01854">
        <ele>684.59997558594</ele>
        <time>2020-08-13T15:53:36.000Z</time>
      </trkpt>
      <trkpt lat="46.29859" lon="6.01872">
        <ele>685.59997558594</ele>
        <time>2020-08-13T15:53:42.000Z</time>
      </trkpt>
      <trkpt lat="46.2986" lon="6.01875">
        <ele>685.79998779297</ele>
        <time>2020-08-13T15:53:43.000Z</time>
      </trkpt>
      <trkpt lat="46.29864" lon="6.01889">
        <ele>686.79998779297</ele>
        <time>2020-08-13T15:53:47.000Z</time>
      </trkpt>
      <trkpt lat="46.29866" lon="6.019">
        <ele>687.20001220703</ele>
        <time>2020-08-13T15:53:50.000Z</time>
      </trkpt>
      <trkpt lat="46.29871" lon="6.01909">
        <ele>687.79998779297</ele>
        <time>2020-08-13T15:53:53.000Z</time>
      </trkpt>
      <trkpt lat="46.29879" lon="6.01919">
        <ele>688.40002441406</ele>
        <time>2020-08-13T15:53:57.000Z</time>
      </trkpt>
      <trkpt lat="46.29885" lon="6.01923">
        <ele>688.79998779297</ele>
        <time>2020-08-13T15:54:00.000Z</time>
      </trkpt>
      <trkpt lat="46.29893" lon="6.01928">
        <ele>689.79998779297</ele>
        <time>2020-08-13T15:54:05.000Z</time>
      </trkpt>
      <trkpt lat="46.29894" lon="6.01929">
        <ele>689.79998779297</ele>
        <time>2020-08-13T15:54:06.000Z</time>
      </trkpt>
      <trkpt lat="46.29905" lon="6.01932">
        <ele>690.79998779297</ele>
        <time>2020-08-13T15:54:11.000Z</time>
      </trkpt>
      <trkpt lat="46.29907" lon="6.01932">
        <ele>691.20001220703</ele>
        <time>2020-08-13T15:54:12.000Z</time>
      </trkpt>
      <trkpt lat="46.2991" lon="6.01933">
        <ele>691.40002441406</ele>
        <time>2020-08-13T15:54:13.000Z</time>
      </trkpt>
      <trkpt lat="46.29921" lon="6.01936">
        <ele>692</ele>
        <time>2020-08-13T15:54:18.000Z</time>
      </trkpt>
      <trkpt lat="46.29923" lon="6.01937">
        <ele>692.20001220703</ele>
        <time>2020-08-13T15:54:19.000Z</time>
      </trkpt>
      <trkpt lat="46.29941" lon="6.01941">
        <ele>693.20001220703</ele>
        <time>2020-08-13T15:54:24.000Z</time>
      </trkpt>
      <trkpt lat="46.29945" lon="6.01942">
        <ele>693.20001220703</ele>
        <time>2020-08-13T15:54:25.000Z</time>
      </trkpt>
      <trkpt lat="46.29949" lon="6.01943">
        <ele>693.40002441406</ele>
        <time>2020-08-13T15:54:26.000Z</time>
      </trkpt>
      <trkpt lat="46.29961" lon="6.01947">
        <ele>694</ele>
        <time>2020-08-13T15:54:30.000Z</time>
      </trkpt>
      <trkpt lat="46.29964" lon="6.01947">
        <ele>694.20001220703</ele>
        <time>2020-08-13T15:54:31.000Z</time>
      </trkpt>
      <trkpt lat="46.29971" lon="6.0195">
        <ele>695</ele>
        <time>2020-08-13T15:54:34.000Z</time>
      </trkpt>
      <trkpt lat="46.29975" lon="6.01951">
        <ele>695.40002441406</ele>
        <time>2020-08-13T15:54:36.000Z</time>
      </trkpt>
      <trkpt lat="46.29983" lon="6.01954">
        <ele>696</ele>
        <time>2020-08-13T15:54:40.000Z</time>
      </trkpt>
      <trkpt lat="46.29986" lon="6.01955">
        <ele>696.20001220703</ele>
        <time>2020-08-13T15:54:41.000Z</time>
      </trkpt>
      <trkpt lat="46.29992" lon="6.01958">
        <ele>696.79998779297</ele>
        <time>2020-08-13T15:54:43.000Z</time>
      </trkpt>
      <trkpt lat="46.30006" lon="6.01965">
        <ele>697.59997558594</ele>
        <time>2020-08-13T15:54:48.000Z</time>
      </trkpt>
      <trkpt lat="46.30009" lon="6.01967">
        <ele>697.79998779297</ele>
        <time>2020-08-13T15:54:49.000Z</time>
      </trkpt>
      <trkpt lat="46.30023" lon="6.01979">
        <ele>699</ele>
        <time>2020-08-13T15:54:54.000Z</time>
      </trkpt>
      <trkpt lat="46.30029" lon="6.01983">
        <ele>699.40002441406</ele>
        <time>2020-08-13T15:54:56.000Z</time>
      </trkpt>
      <trkpt lat="46.30042" lon="6.01986">
        <ele>700.20001220703</ele>
        <time>2020-08-13T15:55:01.000Z</time>
      </trkpt>
      <trkpt lat="46.30044" lon="6.01985">
        <ele>700.40002441406</ele>
        <time>2020-08-13T15:55:02.000Z</time>
      </trkpt>
      <trkpt lat="46.30053" lon="6.01975">
        <ele>701.59997558594</ele>
        <time>2020-08-13T15:55:06.000Z</time>
      </trkpt>
      <trkpt lat="46.30054" lon="6.01972">
        <ele>702</ele>
        <time>2020-08-13T15:55:07.000Z</time>
      </trkpt>
      <trkpt lat="46.30052" lon="6.01962">
        <ele>702.59997558594</ele>
        <time>2020-08-13T15:55:10.000Z</time>
      </trkpt>
      <trkpt lat="46.30049" lon="6.01957">
        <ele>703</ele>
        <time>2020-08-13T15:55:12.000Z</time>
      </trkpt>
      <trkpt lat="46.3004" lon="6.01951">
        <ele>704</ele>
        <time>2020-08-13T15:55:16.000Z</time>
      </trkpt>
      <trkpt lat="46.30035" lon="6.01946">
        <ele>704.59997558594</ele>
        <time>2020-08-13T15:55:19.000Z</time>
      </trkpt>
      <trkpt lat="46.30029" lon="6.0194">
        <ele>705</ele>
        <time>2020-08-13T15:55:22.000Z</time>
      </trkpt>
      <trkpt lat="46.30019" lon="6.01931">
        <ele>706</ele>
        <time>2020-08-13T15:55:27.000Z</time>
      </trkpt>
      <trkpt lat="46.30011" lon="6.01924">
        <ele>707</ele>
        <time>2020-08-13T15:55:31.000Z</time>
      </trkpt>
      <trkpt lat="46.30005" lon="6.01915">
        <ele>707.79998779297</ele>
        <time>2020-08-13T15:55:35.000Z</time>
      </trkpt>
      <trkpt lat="46.30001" lon="6.01911">
        <ele>708.40002441406</ele>
        <time>2020-08-13T15:55:37.000Z</time>
      </trkpt>
      <trkpt lat="46.29992" lon="6.01899">
        <ele>709.20001220703</ele>
        <time>2020-08-13T15:55:42.000Z</time>
      </trkpt>
      <trkpt lat="46.2999" lon="6.01898">
        <ele>709.40002441406</ele>
        <time>2020-08-13T15:55:43.000Z</time>
      </trkpt>
      <trkpt lat="46.29985" lon="6.01893">
        <ele>710.40002441406</ele>
        <time>2020-08-13T15:55:46.000Z</time>
      </trkpt>
      <trkpt lat="46.29975" lon="6.01885">
        <ele>711.40002441406</ele>
        <time>2020-08-13T15:55:51.000Z</time>
      </trkpt>
      <trkpt lat="46.29971" lon="6.01882">
        <ele>711.59997558594</ele>
        <time>2020-08-13T15:55:53.000Z</time>
      </trkpt>
      <trkpt lat="46.29962" lon="6.01874">
        <ele>712.79998779297</ele>
        <time>2020-08-13T15:55:57.000Z</time>
      </trkpt>
      <trkpt lat="46.29956" lon="6.01869">
        <ele>713.40002441406</ele>
        <time>2020-08-13T15:56:00.000Z</time>
      </trkpt>
      <trkpt lat="46.2995" lon="6.01864">
        <ele>713.79998779297</ele>
        <time>2020-08-13T15:56:03.000Z</time>
      </trkpt>
      <trkpt lat="46.29942" lon="6.01854">
        <ele>714.40002441406</ele>
        <time>2020-08-13T15:56:07.000Z</time>
      </trkpt>
      <trkpt lat="46.29939" lon="6.01849">
        <ele>715</ele>
        <time>2020-08-13T15:56:09.000Z</time>
      </trkpt>
      <trkpt lat="46.29931" lon="6.01829">
        <ele>716.20001220703</ele>
        <time>2020-08-13T15:56:15.000Z</time>
      </trkpt>
      <trkpt lat="46.29927" lon="6.01802">
        <ele>717.40002441406</ele>
        <time>2020-08-13T15:56:22.000Z</time>
      </trkpt>
      <trkpt lat="46.29927" lon="6.01798">
        <ele>717.59997558594</ele>
        <time>2020-08-13T15:56:23.000Z</time>
      </trkpt>
      <trkpt lat="46.29927" lon="6.01781">
        <ele>718.40002441406</ele>
        <time>2020-08-13T15:56:28.000Z</time>
      </trkpt>
      <trkpt lat="46.29928" lon="6.01776">
        <ele>719</ele>
        <time>2020-08-13T15:56:30.000Z</time>
      </trkpt>
      <trkpt lat="46.29929" lon="6.01769">
        <ele>719.59997558594</ele>
        <time>2020-08-13T15:56:32.000Z</time>
      </trkpt>
      <trkpt lat="46.29931" lon="6.01756">
        <ele>720.40002441406</ele>
        <time>2020-08-13T15:56:36.000Z</time>
      </trkpt>
      <trkpt lat="46.29932" lon="6.01747">
        <ele>720.79998779297</ele>
        <time>2020-08-13T15:56:39.000Z</time>
      </trkpt>
      <trkpt lat="46.2993" lon="6.01731">
        <ele>721.20001220703</ele>
        <time>2020-08-13T15:56:43.000Z</time>
      </trkpt>
      <trkpt lat="46.29926" lon="6.0171">
        <ele>721.79998779297</ele>
        <time>2020-08-13T15:56:48.000Z</time>
      </trkpt>
      <trkpt lat="46.29922" lon="6.01698">
        <ele>722.40002441406</ele>
        <time>2020-08-13T15:56:51.000Z</time>
      </trkpt>
      <trkpt lat="46.29919" lon="6.01692">
        <ele>722.79998779297</ele>
        <time>2020-08-13T15:56:53.000Z</time>
      </trkpt>
      <trkpt lat="46.29907" lon="6.01675">
        <ele>723.59997558594</ele>
        <time>2020-08-13T15:56:59.000Z</time>
      </trkpt>
      <trkpt lat="46.29903" lon="6.01671">
        <ele>724</ele>
        <time>2020-08-13T15:57:01.000Z</time>
      </trkpt>
      <trkpt lat="46.29895" lon="6.01667">
        <ele>724.79998779297</ele>
        <time>2020-08-13T15:57:05.000Z</time>
      </trkpt>
      <trkpt lat="46.2989" lon="6.01666">
        <ele>725</ele>
        <time>2020-08-13T15:57:07.000Z</time>
      </trkpt>
      <trkpt lat="46.29876" lon="6.01663">
        <ele>726.20001220703</ele>
        <time>2020-08-13T15:57:13.000Z</time>
      </trkpt>
      <trkpt lat="46.29858" lon="6.01653">
        <ele>727</ele>
        <time>2020-08-13T15:57:20.000Z</time>
      </trkpt>
      <trkpt lat="46.29856" lon="6.01651">
        <ele>727.20001220703</ele>
        <time>2020-08-13T15:57:21.000Z</time>
      </trkpt>
      <trkpt lat="46.29848" lon="6.01643">
        <ele>728.40002441406</ele>
        <time>2020-08-13T15:57:25.000Z</time>
      </trkpt>
      <trkpt lat="46.29843" lon="6.01636">
        <ele>728.79998779297</ele>
        <time>2020-08-13T15:57:28.000Z</time>
      </trkpt>
      <trkpt lat="46.29833" lon="6.01625">
        <ele>729.59997558594</ele>
        <time>2020-08-13T15:57:33.000Z</time>
      </trkpt>
      <trkpt lat="46.29826" lon="6.01617">
        <ele>730.40002441406</ele>
        <time>2020-08-13T15:57:37.000Z</time>
      </trkpt>
      <trkpt lat="46.29825" lon="6.01615">
        <ele>730.59997558594</ele>
        <time>2020-08-13T15:57:38.000Z</time>
      </trkpt>
      <trkpt lat="46.29815" lon="6.01605">
        <ele>731.59997558594</ele>
        <time>2020-08-13T15:57:43.000Z</time>
      </trkpt>
      <trkpt lat="46.29811" lon="6.01601">
        <ele>732</ele>
        <time>2020-08-13T15:57:45.000Z</time>
      </trkpt>
      <trkpt lat="46.29804" lon="6.0159">
        <ele>732.79998779297</ele>
        <time>2020-08-13T15:57:49.000Z</time>
      </trkpt>
      <trkpt lat="46.29796" lon="6.01576">
        <ele>733.79998779297</ele>
        <time>2020-08-13T15:57:54.000Z</time>
      </trkpt>
      <trkpt lat="46.29787" lon="6.01554">
        <ele>735</ele>
        <time>2020-08-13T15:58:01.000Z</time>
      </trkpt>
      <trkpt lat="46.29783" lon="6.01541">
        <ele>736</ele>
        <time>2020-08-13T15:58:05.000Z</time>
      </trkpt>
      <trkpt lat="46.29782" lon="6.01538">
        <ele>736.20001220703</ele>
        <time>2020-08-13T15:58:06.000Z</time>
      </trkpt>
      <trkpt lat="46.29777" lon="6.01525">
        <ele>737.20001220703</ele>
        <time>2020-08-13T15:58:10.000Z</time>
      </trkpt>
      <trkpt lat="46.29772" lon="6.01518">
        <ele>738</ele>
        <time>2020-08-13T15:58:13.000Z</time>
      </trkpt>
      <trkpt lat="46.29771" lon="6.01515">
        <ele>738.20001220703</ele>
        <time>2020-08-13T15:58:14.000Z</time>
      </trkpt>
      <trkpt lat="46.29765" lon="6.01499">
        <ele>739.20001220703</ele>
        <time>2020-08-13T15:58:19.000Z</time>
      </trkpt>
      <trkpt lat="46.29761" lon="6.01491">
        <ele>739.79998779297</ele>
        <time>2020-08-13T15:58:22.000Z</time>
      </trkpt>
      <trkpt lat="46.29756" lon="6.01484">
        <ele>740.40002441406</ele>
        <time>2020-08-13T15:58:25.000Z</time>
      </trkpt>
      <trkpt lat="46.29748" lon="6.01471">
        <ele>741.20001220703</ele>
        <time>2020-08-13T15:58:30.000Z</time>
      </trkpt>
      <trkpt lat="46.29747" lon="6.01465">
        <ele>741.59997558594</ele>
        <time>2020-08-13T15:58:32.000Z</time>
      </trkpt>
      <trkpt lat="46.2974" lon="6.01452">
        <ele>742</ele>
        <time>2020-08-13T15:58:37.000Z</time>
      </trkpt>
      <trkpt lat="46.29735" lon="6.01448">
        <ele>742.79998779297</ele>
        <time>2020-08-13T15:58:40.000Z</time>
      </trkpt>
      <trkpt lat="46.29728" lon="6.01444">
        <ele>744</ele>
        <time>2020-08-13T15:58:44.000Z</time>
      </trkpt>
      <trkpt lat="46.2972" lon="6.01438">
        <ele>745</ele>
        <time>2020-08-13T15:58:48.000Z</time>
      </trkpt>
      <trkpt lat="46.29711" lon="6.01429">
        <ele>745.79998779297</ele>
        <time>2020-08-13T15:58:53.000Z</time>
      </trkpt>
      <trkpt lat="46.29707" lon="6.01424">
        <ele>746.20001220703</ele>
        <time>2020-08-13T15:58:55.000Z</time>
      </trkpt>
      <trkpt lat="46.29698" lon="6.01413">
        <ele>747.40002441406</ele>
        <time>2020-08-13T15:59:00.000Z</time>
      </trkpt>
      <trkpt lat="46.29697" lon="6.01412">
        <ele>747.59997558594</ele>
        <time>2020-08-13T15:59:01.000Z</time>
      </trkpt>
      <trkpt lat="46.29689" lon="6.01407">
        <ele>748.59997558594</ele>
        <time>2020-08-13T15:59:05.000Z</time>
      </trkpt>
      <trkpt lat="46.2968" lon="6.014">
        <ele>749.79998779297</ele>
        <time>2020-08-13T15:59:10.000Z</time>
      </trkpt>
      <trkpt lat="46.29671" lon="6.01394">
        <ele>750.79998779297</ele>
        <time>2020-08-13T15:59:15.000Z</time>
      </trkpt>
      <trkpt lat="46.29667" lon="6.01389">
        <ele>751.59997558594</ele>
        <time>2020-08-13T15:59:18.000Z</time>
      </trkpt>
      <trkpt lat="46.29662" lon="6.01384">
        <ele>751.79998779297</ele>
        <time>2020-08-13T15:59:21.000Z</time>
      </trkpt>
      <trkpt lat="46.29655" lon="6.01377">
        <ele>752.59997558594</ele>
        <time>2020-08-13T15:59:25.000Z</time>
      </trkpt>
      <trkpt lat="46.29651" lon="6.01373">
        <ele>753</ele>
        <time>2020-08-13T15:59:27.000Z</time>
      </trkpt>
      <trkpt lat="46.29633" lon="6.0136">
        <ele>754.20001220703</ele>
        <time>2020-08-13T15:59:34.000Z</time>
      </trkpt>
      <trkpt lat="46.29631" lon="6.01358">
        <ele>754.40002441406</ele>
        <time>2020-08-13T15:59:35.000Z</time>
      </trkpt>
      <trkpt lat="46.29621" lon="6.01337">
        <ele>755.20001220703</ele>
        <time>2020-08-13T15:59:42.000Z</time>
      </trkpt>
      <trkpt lat="46.29621" lon="6.01334">
        <ele>755.20001220703</ele>
        <time>2020-08-13T15:59:43.000Z</time>
      </trkpt>
      <trkpt lat="46.29625" lon="6.01322">
        <ele>756.40002441406</ele>
        <time>2020-08-13T15:59:47.000Z</time>
      </trkpt>
      <trkpt lat="46.2963" lon="6.01314">
        <ele>757.59997558594</ele>
        <time>2020-08-13T15:59:52.000Z</time>
      </trkpt>
      <trkpt lat="46.29631" lon="6.01313">
        <ele>757.79998779297</ele>
        <time>2020-08-13T15:59:53.000Z</time>
      </trkpt>
      <trkpt lat="46.29631" lon="6.01312">
        <ele>757.79998779297</ele>
        <time>2020-08-13T15:59:54.000Z</time>
      </trkpt>
      <trkpt lat="46.29634" lon="6.01315">
        <ele>758.20001220703</ele>
        <time>2020-08-13T15:59:58.000Z</time>
      </trkpt>
      <trkpt lat="46.29632" lon="6.01315">
        <ele>758.20001220703</ele>
        <time>2020-08-13T16:00:04.000Z</time>
      </trkpt>
      <trkpt lat="46.29632" lon="6.01314">
        <ele>758.20001220703</ele>
        <time>2020-08-13T16:00:05.000Z</time>
      </trkpt>
      <trkpt lat="46.29634" lon="6.01314">
        <ele>758.20001220703</ele>
        <time>2020-08-13T16:00:07.000Z</time>
      </trkpt>
      <trkpt lat="46.29635" lon="6.01315">
        <ele>758.20001220703</ele>
        <time>2020-08-13T16:00:08.000Z</time>
      </trkpt>
      <trkpt lat="46.29638" lon="6.01318">
        <ele>758.20001220703</ele>
        <time>2020-08-13T16:00:10.000Z</time>
      </trkpt>
      <trkpt lat="46.29644" lon="6.01322">
        <ele>758.59997558594</ele>
        <time>2020-08-13T16:00:13.000Z</time>
      </trkpt>
      <trkpt lat="46.2965" lon="6.01327">
        <ele>759</ele>
        <time>2020-08-13T16:00:16.000Z</time>
      </trkpt>
      <trkpt lat="46.29656" lon="6.01333">
        <ele>759.79998779297</ele>
        <time>2020-08-13T16:00:19.000Z</time>
      </trkpt>
      <trkpt lat="46.29668" lon="6.01342">
        <ele>760.79998779297</ele>
        <time>2020-08-13T16:00:25.000Z</time>
      </trkpt>
      <trkpt lat="46.29669" lon="6.01342">
        <ele>761</ele>
        <time>2020-08-13T16:00:26.000Z</time>
      </trkpt>
      <trkpt lat="46.2968" lon="6.0134">
        <ele>762.20001220703</ele>
        <time>2020-08-13T16:00:32.000Z</time>
      </trkpt>
      <trkpt lat="46.29693" lon="6.0133">
        <ele>763.20001220703</ele>
        <time>2020-08-13T16:00:38.000Z</time>
      </trkpt>
      <trkpt lat="46.29695" lon="6.01329">
        <ele>763.40002441406</ele>
        <time>2020-08-13T16:00:39.000Z</time>
      </trkpt>
      <trkpt lat="46.29703" lon="6.01328">
        <ele>764.40002441406</ele>
        <time>2020-08-13T16:00:43.000Z</time>
      </trkpt>
      <trkpt lat="46.29707" lon="6.0133">
        <ele>764.79998779297</ele>
        <time>2020-08-13T16:00:45.000Z</time>
      </trkpt>
      <trkpt lat="46.29714" lon="6.01332">
        <ele>765.59997558594</ele>
        <time>2020-08-13T16:00:48.000Z</time>
      </trkpt>
      <trkpt lat="46.29723" lon="6.01333">
        <ele>766.59997558594</ele>
        <time>2020-08-13T16:00:53.000Z</time>
      </trkpt>
      <trkpt lat="46.29735" lon="6.01328">
        <ele>767.59997558594</ele>
        <time>2020-08-13T16:00:59.000Z</time>
      </trkpt>
      <trkpt lat="46.29736" lon="6.01327">
        <ele>767.79998779297</ele>
        <time>2020-08-13T16:01:00.000Z</time>
      </trkpt>
      <trkpt lat="46.29746" lon="6.01323">
        <ele>769</ele>
        <time>2020-08-13T16:01:05.000Z</time>
      </trkpt>
      <trkpt lat="46.2975" lon="6.01323">
        <ele>769.59997558594</ele>
        <time>2020-08-13T16:01:07.000Z</time>
      </trkpt>
      <trkpt lat="46.29754" lon="6.01322">
        <ele>770</ele>
        <time>2020-08-13T16:01:09.000Z</time>
      </trkpt>
      <trkpt lat="46.29758" lon="6.0132">
        <ele>771</ele>
        <time>2020-08-13T16:01:12.000Z</time>
      </trkpt>
      <trkpt lat="46.29765" lon="6.0132">
        <ele>771.59997558594</ele>
        <time>2020-08-13T16:01:15.000Z</time>
      </trkpt>
      <trkpt lat="46.29768" lon="6.01319">
        <ele>772</ele>
        <time>2020-08-13T16:01:17.000Z</time>
      </trkpt>
      <trkpt lat="46.29777" lon="6.01318">
        <ele>773</ele>
        <time>2020-08-13T16:01:23.000Z</time>
      </trkpt>
      <trkpt lat="46.2978" lon="6.01317">
        <ele>773.20001220703</ele>
        <time>2020-08-13T16:01:24.000Z</time>
      </trkpt>
      <trkpt lat="46.29793" lon="6.01315">
        <ele>774</ele>
        <time>2020-08-13T16:01:29.000Z</time>
      </trkpt>
      <trkpt lat="46.29795" lon="6.01315">
        <ele>774.40002441406</ele>
        <time>2020-08-13T16:01:30.000Z</time>
      </trkpt>
      <trkpt lat="46.298" lon="6.01314">
        <ele>775</ele>
        <time>2020-08-13T16:01:33.000Z</time>
      </trkpt>
      <trkpt lat="46.2981" lon="6.01315">
        <ele>776.20001220703</ele>
        <time>2020-08-13T16:01:38.000Z</time>
      </trkpt>
      <trkpt lat="46.29824" lon="6.01322">
        <ele>777.20001220703</ele>
        <time>2020-08-13T16:01:42.000Z</time>
      </trkpt>
      <trkpt lat="46.29828" lon="6.01324">
        <ele>777.40002441406</ele>
        <time>2020-08-13T16:01:43.000Z</time>
      </trkpt>
      <trkpt lat="46.29845" lon="6.01339">
        <ele>778.40002441406</ele>
        <time>2020-08-13T16:01:50.000Z</time>
      </trkpt>
      <trkpt lat="46.29858" lon="6.01354">
        <ele>779.40002441406</ele>
        <time>2020-08-13T16:01:56.000Z</time>
      </trkpt>
      <trkpt lat="46.29861" lon="6.01359">
        <ele>779.79998779297</ele>
        <time>2020-08-13T16:01:58.000Z</time>
      </trkpt>
      <trkpt lat="46.29866" lon="6.01365">
        <ele>780.40002441406</ele>
        <time>2020-08-13T16:02:01.000Z</time>
      </trkpt>
      <trkpt lat="46.29872" lon="6.01371">
        <ele>781</ele>
        <time>2020-08-13T16:02:04.000Z</time>
      </trkpt>
      <trkpt lat="46.29878" lon="6.01374">
        <ele>781.59997558594</ele>
        <time>2020-08-13T16:02:07.000Z</time>
      </trkpt>
      <trkpt lat="46.29885" lon="6.01376">
        <ele>782.40002441406</ele>
        <time>2020-08-13T16:02:11.000Z</time>
      </trkpt>
      <trkpt lat="46.29891" lon="6.01377">
        <ele>782.79998779297</ele>
        <time>2020-08-13T16:02:14.000Z</time>
      </trkpt>
      <trkpt lat="46.299" lon="6.01377">
        <ele>783.40002441406</ele>
        <time>2020-08-13T16:02:19.000Z</time>
      </trkpt>
      <trkpt lat="46.29903" lon="6.01376">
        <ele>783.79998779297</ele>
        <time>2020-08-13T16:02:21.000Z</time>
      </trkpt>
      <trkpt lat="46.29912" lon="6.01374">
        <ele>785</ele>
        <time>2020-08-13T16:02:26.000Z</time>
      </trkpt>
      <trkpt lat="46.29914" lon="6.01374">
        <ele>785.20001220703</ele>
        <time>2020-08-13T16:02:27.000Z</time>
      </trkpt>
      <trkpt lat="46.29922" lon="6.01373">
        <ele>786.20001220703</ele>
        <time>2020-08-13T16:02:31.000Z</time>
      </trkpt>
      <trkpt lat="46.29931" lon="6.01373">
        <ele>786.79998779297</ele>
        <time>2020-08-13T16:02:35.000Z</time>
      </trkpt>
      <trkpt lat="46.29938" lon="6.01372">
        <ele>787.20001220703</ele>
        <time>2020-08-13T16:02:38.000Z</time>
      </trkpt>
      <trkpt lat="46.29946" lon="6.01368">
        <ele>788</ele>
        <time>2020-08-13T16:02:42.000Z</time>
      </trkpt>
      <trkpt lat="46.29951" lon="6.01364">
        <ele>788.40002441406</ele>
        <time>2020-08-13T16:02:45.000Z</time>
      </trkpt>
      <trkpt lat="46.29962" lon="6.01356">
        <ele>789</ele>
        <time>2020-08-13T16:02:49.000Z</time>
      </trkpt>
      <trkpt lat="46.2997" lon="6.0135">
        <ele>789.40002441406</ele>
        <time>2020-08-13T16:02:52.000Z</time>
      </trkpt>
      <trkpt lat="46.2998" lon="6.01341">
        <ele>790.59997558594</ele>
        <time>2020-08-13T16:02:57.000Z</time>
      </trkpt>
      <trkpt lat="46.29995" lon="6.01329">
        <ele>791.59997558594</ele>
        <time>2020-08-13T16:03:04.000Z</time>
      </trkpt>
      <trkpt lat="46.3" lon="6.01326">
        <ele>791.79998779297</ele>
        <time>2020-08-13T16:03:06.000Z</time>
      </trkpt>
      <trkpt lat="46.30007" lon="6.01319">
        <ele>792.59997558594</ele>
        <time>2020-08-13T16:03:09.000Z</time>
      </trkpt>
      <trkpt lat="46.30016" lon="6.01308">
        <ele>793.40002441406</ele>
        <time>2020-08-13T16:03:14.000Z</time>
      </trkpt>
      <trkpt lat="46.30019" lon="6.01305">
        <ele>793.79998779297</ele>
        <time>2020-08-13T16:03:16.000Z</time>
      </trkpt>
      <trkpt lat="46.30028" lon="6.01294">
        <ele>795</ele>
        <time>2020-08-13T16:03:21.000Z</time>
      </trkpt>
      <trkpt lat="46.30038" lon="6.01284">
        <ele>796.20001220703</ele>
        <time>2020-08-13T16:03:28.000Z</time>
      </trkpt>
      <trkpt lat="46.30039" lon="6.01283">
        <ele>796.40002441406</ele>
        <time>2020-08-13T16:03:29.000Z</time>
      </trkpt>
      <trkpt lat="46.30048" lon="6.0129">
        <ele>797.20001220703</ele>
        <time>2020-08-13T16:03:33.000Z</time>
      </trkpt>
      <trkpt lat="46.3005" lon="6.01293">
        <ele>797.59997558594</ele>
        <time>2020-08-13T16:03:34.000Z</time>
      </trkpt>
      <trkpt lat="46.30056" lon="6.01305">
        <ele>798.40002441406</ele>
        <time>2020-08-13T16:03:39.000Z</time>
      </trkpt>
      <trkpt lat="46.30057" lon="6.01311">
        <ele>799</ele>
        <time>2020-08-13T16:03:41.000Z</time>
      </trkpt>
      <trkpt lat="46.3006" lon="6.01319">
        <ele>799.40002441406</ele>
        <time>2020-08-13T16:03:44.000Z</time>
      </trkpt>
      <trkpt lat="46.30064" lon="6.01331">
        <ele>800.20001220703</ele>
        <time>2020-08-13T16:03:48.000Z</time>
      </trkpt>
      <trkpt lat="46.30065" lon="6.01334">
        <ele>800.40002441406</ele>
        <time>2020-08-13T16:03:49.000Z</time>
      </trkpt>
      <trkpt lat="46.3007" lon="6.01347">
        <ele>801.40002441406</ele>
        <time>2020-08-13T16:03:54.000Z</time>
      </trkpt>
      <trkpt lat="46.30071" lon="6.0135">
        <ele>801.59997558594</ele>
        <time>2020-08-13T16:03:55.000Z</time>
      </trkpt>
      <trkpt lat="46.30078" lon="6.01361">
        <ele>802.59997558594</ele>
        <time>2020-08-13T16:04:00.000Z</time>
      </trkpt>
      <trkpt lat="46.30082" lon="6.01364">
        <ele>803.20001220703</ele>
        <time>2020-08-13T16:04:02.000Z</time>
      </trkpt>
      <trkpt lat="46.30088" lon="6.01369">
        <ele>803.59997558594</ele>
        <time>2020-08-13T16:04:05.000Z</time>
      </trkpt>
      <trkpt lat="46.30096" lon="6.01376">
        <ele>804.79998779297</ele>
        <time>2020-08-13T16:04:10.000Z</time>
      </trkpt>
      <trkpt lat="46.30106" lon="6.01386">
        <ele>806</ele>
        <time>2020-08-13T16:04:16.000Z</time>
      </trkpt>
      <trkpt lat="46.30109" lon="6.01391">
        <ele>806.40002441406</ele>
        <time>2020-08-13T16:04:18.000Z</time>
      </trkpt>
      <trkpt lat="46.30121" lon="6.01402">
        <ele>807.20001220703</ele>
        <time>2020-08-13T16:04:24.000Z</time>
      </trkpt>
      <trkpt lat="46.30123" lon="6.01403">
        <ele>807.20001220703</ele>
        <time>2020-08-13T16:04:25.000Z</time>
      </trkpt>
      <trkpt lat="46.30131" lon="6.01411">
        <ele>808.40002441406</ele>
        <time>2020-08-13T16:04:30.000Z</time>
      </trkpt>
      <trkpt lat="46.30133" lon="6.01414">
        <ele>808.59997558594</ele>
        <time>2020-08-13T16:04:32.000Z</time>
      </trkpt>
      <trkpt lat="46.30141" lon="6.01418">
        <ele>809.59997558594</ele>
        <time>2020-08-13T16:04:36.000Z</time>
      </trkpt>
      <trkpt lat="46.30147" lon="6.01422">
        <ele>810.20001220703</ele>
        <time>2020-08-13T16:04:39.000Z</time>
      </trkpt>
      <trkpt lat="46.30153" lon="6.01426">
        <ele>810.59997558594</ele>
        <time>2020-08-13T16:04:42.000Z</time>
      </trkpt>
      <trkpt lat="46.30163" lon="6.0143">
        <ele>811.40002441406</ele>
        <time>2020-08-13T16:04:46.000Z</time>
      </trkpt>
      <trkpt lat="46.30167" lon="6.01431">
        <ele>811.79998779297</ele>
        <time>2020-08-13T16:04:48.000Z</time>
      </trkpt>
      <trkpt lat="46.30173" lon="6.0143">
        <ele>813</ele>
        <time>2020-08-13T16:04:52.000Z</time>
      </trkpt>
      <trkpt lat="46.30179" lon="6.01427">
        <ele>813.40002441406</ele>
        <time>2020-08-13T16:04:55.000Z</time>
      </trkpt>
      <trkpt lat="46.30187" lon="6.01421">
        <ele>814</ele>
        <time>2020-08-13T16:04:59.000Z</time>
      </trkpt>
      <trkpt lat="46.30193" lon="6.01415">
        <ele>814.40002441406</ele>
        <time>2020-08-13T16:05:02.000Z</time>
      </trkpt>
      <trkpt lat="46.30202" lon="6.01409">
        <ele>815.20001220703</ele>
        <time>2020-08-13T16:05:06.000Z</time>
      </trkpt>
      <trkpt lat="46.30208" lon="6.01406">
        <ele>815.40002441406</ele>
        <time>2020-08-13T16:05:09.000Z</time>
      </trkpt>
      <trkpt lat="46.30212" lon="6.01406">
        <ele>816.20001220703</ele>
        <time>2020-08-13T16:05:11.000Z</time>
      </trkpt>
      <trkpt lat="46.30225" lon="6.01409">
        <ele>817.20001220703</ele>
        <time>2020-08-13T16:05:16.000Z</time>
      </trkpt>
      <trkpt lat="46.30235" lon="6.01412">
        <ele>818.40002441406</ele>
        <time>2020-08-13T16:05:21.000Z</time>
      </trkpt>
      <trkpt lat="46.30239" lon="6.01409">
        <ele>818.59997558594</ele>
        <time>2020-08-13T16:05:23.000Z</time>
      </trkpt>
      <trkpt lat="46.30247" lon="6.01406">
        <ele>819.40002441406</ele>
        <time>2020-08-13T16:05:27.000Z</time>
      </trkpt>
      <trkpt lat="46.30252" lon="6.01403">
        <ele>820.20001220703</ele>
        <time>2020-08-13T16:05:30.000Z</time>
      </trkpt>
      <trkpt lat="46.30257" lon="6.014">
        <ele>820.40002441406</ele>
        <time>2020-08-13T16:05:32.000Z</time>
      </trkpt>
      <trkpt lat="46.30267" lon="6.01392">
        <ele>820.79998779297</ele>
        <time>2020-08-13T16:05:37.000Z</time>
      </trkpt>
      <trkpt lat="46.30272" lon="6.01388">
        <ele>821.40002441406</ele>
        <time>2020-08-13T16:05:39.000Z</time>
      </trkpt>
      <trkpt lat="46.30283" lon="6.0138">
        <ele>822.40002441406</ele>
        <time>2020-08-13T16:05:45.000Z</time>
      </trkpt>
      <trkpt lat="46.30291" lon="6.01377">
        <ele>823.59997558594</ele>
        <time>2020-08-13T16:05:51.000Z</time>
      </trkpt>
      <trkpt lat="46.30299" lon="6.01383">
        <ele>824.79998779297</ele>
        <time>2020-08-13T16:05:55.000Z</time>
      </trkpt>
      <trkpt lat="46.30303" lon="6.01388">
        <ele>825.40002441406</ele>
        <time>2020-08-13T16:05:57.000Z</time>
      </trkpt>
      <trkpt lat="46.30309" lon="6.01398">
        <ele>826</ele>
        <time>2020-08-13T16:06:01.000Z</time>
      </trkpt>
      <trkpt lat="46.30316" lon="6.01408">
        <ele>826.59997558594</ele>
        <time>2020-08-13T16:06:05.000Z</time>
      </trkpt>
      <trkpt lat="46.30319" lon="6.01414">
        <ele>827</ele>
        <time>2020-08-13T16:06:07.000Z</time>
      </trkpt>
      <trkpt lat="46.30325" lon="6.01426">
        <ele>828</ele>
        <time>2020-08-13T16:06:11.000Z</time>
      </trkpt>
      <trkpt lat="46.30326" lon="6.01432">
        <ele>828.59997558594</ele>
        <time>2020-08-13T16:06:13.000Z</time>
      </trkpt>
      <trkpt lat="46.30331" lon="6.0144">
        <ele>829.20001220703</ele>
        <time>2020-08-13T16:06:16.000Z</time>
      </trkpt>
      <trkpt lat="46.30338" lon="6.01455">
        <ele>830.20001220703</ele>
        <time>2020-08-13T16:06:21.000Z</time>
      </trkpt>
      <trkpt lat="46.30345" lon="6.01466">
        <ele>831.40002441406</ele>
        <time>2020-08-13T16:06:26.000Z</time>
      </trkpt>
      <trkpt lat="46.30349" lon="6.0147">
        <ele>831.59997558594</ele>
        <time>2020-08-13T16:06:28.000Z</time>
      </trkpt>
      <trkpt lat="46.30359" lon="6.01479">
        <ele>832.40002441406</ele>
        <time>2020-08-13T16:06:34.000Z</time>
      </trkpt>
      <trkpt lat="46.30365" lon="6.01482">
        <ele>833.40002441406</ele>
        <time>2020-08-13T16:06:37.000Z</time>
      </trkpt>
      <trkpt lat="46.30373" lon="6.01487">
        <ele>834.59997558594</ele>
        <time>2020-08-13T16:06:42.000Z</time>
      </trkpt>
      <trkpt lat="46.30376" lon="6.01488">
        <ele>835.20001220703</ele>
        <time>2020-08-13T16:06:44.000Z</time>
      </trkpt>
      <trkpt lat="46.30382" lon="6.01487">
        <ele>835.79998779297</ele>
        <time>2020-08-13T16:06:47.000Z</time>
      </trkpt>
      <trkpt lat="46.3039" lon="6.01484">
        <ele>836.20001220703</ele>
        <time>2020-08-13T16:06:52.000Z</time>
      </trkpt>
      <trkpt lat="46.30395" lon="6.01481">
        <ele>836.79998779297</ele>
        <time>2020-08-13T16:06:55.000Z</time>
      </trkpt>
      <trkpt lat="46.30404" lon="6.01476">
        <ele>838</ele>
        <time>2020-08-13T16:07:01.000Z</time>
      </trkpt>
      <trkpt lat="46.30412" lon="6.01478">
        <ele>839</ele>
        <time>2020-08-13T16:07:05.000Z</time>
      </trkpt>
      <trkpt lat="46.30418" lon="6.01482">
        <ele>839.59997558594</ele>
        <time>2020-08-13T16:07:07.000Z</time>
      </trkpt>
      <trkpt lat="46.30429" lon="6.01488">
        <ele>840.20001220703</ele>
        <time>2020-08-13T16:07:10.000Z</time>
      </trkpt>
      <trkpt lat="46.30444" lon="6.01498">
        <ele>841.40002441406</ele>
        <time>2020-08-13T16:07:15.000Z</time>
      </trkpt>
      <trkpt lat="46.30451" lon="6.01508">
        <ele>842.40002441406</ele>
        <time>2020-08-13T16:07:19.000Z</time>
      </trkpt>
      <trkpt lat="46.3046" lon="6.0152">
        <ele>843.20001220703</ele>
        <time>2020-08-13T16:07:24.000Z</time>
      </trkpt>
      <trkpt lat="46.30462" lon="6.01526">
        <ele>843.59997558594</ele>
        <time>2020-08-13T16:07:26.000Z</time>
      </trkpt>
      <trkpt lat="46.30471" lon="6.01539">
        <ele>844.40002441406</ele>
        <time>2020-08-13T16:07:31.000Z</time>
      </trkpt>
      <trkpt lat="46.30474" lon="6.01541">
        <ele>844.59997558594</ele>
        <time>2020-08-13T16:07:32.000Z</time>
      </trkpt>
      <trkpt lat="46.30485" lon="6.01554">
        <ele>845</ele>
        <time>2020-08-13T16:07:38.000Z</time>
      </trkpt>
      <trkpt lat="46.30491" lon="6.01558">
        <ele>845.79998779297</ele>
        <time>2020-08-13T16:07:41.000Z</time>
      </trkpt>
      <trkpt lat="46.30497" lon="6.01562">
        <ele>846.59997558594</ele>
        <time>2020-08-13T16:07:44.000Z</time>
      </trkpt>
      <trkpt lat="46.30499" lon="6.01563">
        <ele>846.79998779297</ele>
        <time>2020-08-13T16:07:45.000Z</time>
      </trkpt>
      <trkpt lat="46.3051" lon="6.01565">
        <ele>848</ele>
        <time>2020-08-13T16:07:51.000Z</time>
      </trkpt>
      <trkpt lat="46.30523" lon="6.01558">
        <ele>849</ele>
        <time>2020-08-13T16:07:57.000Z</time>
      </trkpt>
      <trkpt lat="46.30525" lon="6.01556">
        <ele>849.20001220703</ele>
        <time>2020-08-13T16:07:58.000Z</time>
      </trkpt>
      <trkpt lat="46.30529" lon="6.01541">
        <ele>850</ele>
        <time>2020-08-13T16:08:03.000Z</time>
      </trkpt>
      <trkpt lat="46.30528" lon="6.01538">
        <ele>850.20001220703</ele>
        <time>2020-08-13T16:08:04.000Z</time>
      </trkpt>
      <trkpt lat="46.30523" lon="6.01528">
        <ele>850.79998779297</ele>
        <time>2020-08-13T16:08:08.000Z</time>
      </trkpt>
      <trkpt lat="46.30518" lon="6.01521">
        <ele>851.20001220703</ele>
        <time>2020-08-13T16:08:11.000Z</time>
      </trkpt>
      <trkpt lat="46.30504" lon="6.01505">
        <ele>852.20001220703</ele>
        <time>2020-08-13T16:08:19.000Z</time>
      </trkpt>
      <trkpt lat="46.30488" lon="6.01489">
        <ele>853.40002441406</ele>
        <time>2020-08-13T16:08:26.000Z</time>
      </trkpt>
      <trkpt lat="46.30486" lon="6.01487">
        <ele>853.59997558594</ele>
        <time>2020-08-13T16:08:27.000Z</time>
      </trkpt>
      <trkpt lat="46.30477" lon="6.01473">
        <ele>854.40002441406</ele>
        <time>2020-08-13T16:08:32.000Z</time>
      </trkpt>
      <trkpt lat="46.30474" lon="6.01468">
        <ele>854.79998779297</ele>
        <time>2020-08-13T16:08:34.000Z</time>
      </trkpt>
      <trkpt lat="46.30469" lon="6.01458">
        <ele>855.40002441406</ele>
        <time>2020-08-13T16:08:37.000Z</time>
      </trkpt>
      <trkpt lat="46.30465" lon="6.01444">
        <ele>856.59997558594</ele>
        <time>2020-08-13T16:08:41.000Z</time>
      </trkpt>
      <trkpt lat="46.30465" lon="6.0144">
        <ele>856.79998779297</ele>
        <time>2020-08-13T16:08:42.000Z</time>
      </trkpt>
      <trkpt lat="46.30462" lon="6.01429">
        <ele>857.79998779297</ele>
        <time>2020-08-13T16:08:45.000Z</time>
      </trkpt>
      <trkpt lat="46.30457" lon="6.01414">
        <ele>858.40002441406</ele>
        <time>2020-08-13T16:08:50.000Z</time>
      </trkpt>
      <trkpt lat="46.30452" lon="6.01409">
        <ele>858.79998779297</ele>
        <time>2020-08-13T16:08:53.000Z</time>
      </trkpt>
      <trkpt lat="46.30447" lon="6.01404">
        <ele>859.59997558594</ele>
        <time>2020-08-13T16:08:57.000Z</time>
      </trkpt>
      <trkpt lat="46.30444" lon="6.01402">
        <ele>860</ele>
        <time>2020-08-13T16:08:59.000Z</time>
      </trkpt>
      <trkpt lat="46.30438" lon="6.01398">
        <ele>861.20001220703</ele>
        <time>2020-08-13T16:09:03.000Z</time>
      </trkpt>
      <trkpt lat="46.30436" lon="6.01396">
        <ele>861.40002441406</ele>
        <time>2020-08-13T16:09:04.000Z</time>
      </trkpt>
      <trkpt lat="46.30422" lon="6.01386">
        <ele>862.20001220703</ele>
        <time>2020-08-13T16:09:10.000Z</time>
      </trkpt>
      <trkpt lat="46.3042" lon="6.01384">
        <ele>862.40002441406</ele>
        <time>2020-08-13T16:09:11.000Z</time>
      </trkpt>
      <trkpt lat="46.30415" lon="6.01373">
        <ele>863.40002441406</ele>
        <time>2020-08-13T16:09:15.000Z</time>
      </trkpt>
      <trkpt lat="46.30408" lon="6.01362">
        <ele>864.20001220703</ele>
        <time>2020-08-13T16:09:19.000Z</time>
      </trkpt>
      <trkpt lat="46.30406" lon="6.01357">
        <ele>864.59997558594</ele>
        <time>2020-08-13T16:09:21.000Z</time>
      </trkpt>
      <trkpt lat="46.304" lon="6.01344">
        <ele>865.40002441406</ele>
        <time>2020-08-13T16:09:26.000Z</time>
      </trkpt>
      <trkpt lat="46.30396" lon="6.0134">
        <ele>865.79998779297</ele>
        <time>2020-08-13T16:09:28.000Z</time>
      </trkpt>
      <trkpt lat="46.3039" lon="6.01326">
        <ele>866.40002441406</ele>
        <time>2020-08-13T16:09:33.000Z</time>
      </trkpt>
      <trkpt lat="46.30385" lon="6.01318">
        <ele>866.79998779297</ele>
        <time>2020-08-13T16:09:36.000Z</time>
      </trkpt>
      <trkpt lat="46.30379" lon="6.01304">
        <ele>868</ele>
        <time>2020-08-13T16:09:41.000Z</time>
      </trkpt>
      <trkpt lat="46.30374" lon="6.01283">
        <ele>869</ele>
        <time>2020-08-13T16:09:47.000Z</time>
      </trkpt>
      <trkpt lat="46.30374" lon="6.01279">
        <ele>869.20001220703</ele>
        <time>2020-08-13T16:09:48.000Z</time>
      </trkpt>
      <trkpt lat="46.30373" lon="6.01265">
        <ele>870.20001220703</ele>
        <time>2020-08-13T16:09:52.000Z</time>
      </trkpt>
      <trkpt lat="46.30374" lon="6.0125">
        <ele>871.20001220703</ele>
        <time>2020-08-13T16:09:56.000Z</time>
      </trkpt>
      <trkpt lat="46.30375" lon="6.01226">
        <ele>872.40002441406</ele>
        <time>2020-08-13T16:10:03.000Z</time>
      </trkpt>
      <trkpt lat="46.30375" lon="6.01219">
        <ele>872.40002441406</ele>
        <time>2020-08-13T16:10:05.000Z</time>
      </trkpt>
      <trkpt lat="46.30376" lon="6.01206">
        <ele>873.40002441406</ele>
        <time>2020-08-13T16:10:09.000Z</time>
      </trkpt>
      <trkpt lat="46.30374" lon="6.01193">
        <ele>873.79998779297</ele>
        <time>2020-08-13T16:10:13.000Z</time>
      </trkpt>
      <trkpt lat="46.30371" lon="6.0118">
        <ele>874.40002441406</ele>
        <time>2020-08-13T16:10:17.000Z</time>
      </trkpt>
      <trkpt lat="46.30369" lon="6.01168">
        <ele>875.20001220703</ele>
        <time>2020-08-13T16:10:21.000Z</time>
      </trkpt>
      <trkpt lat="46.30369" lon="6.01165">
        <ele>875.40002441406</ele>
        <time>2020-08-13T16:10:22.000Z</time>
      </trkpt>
      <trkpt lat="46.30362" lon="6.01156">
        <ele>876.40002441406</ele>
        <time>2020-08-13T16:10:26.000Z</time>
      </trkpt>
      <trkpt lat="46.3036" lon="6.01154">
        <ele>876.59997558594</ele>
        <time>2020-08-13T16:10:27.000Z</time>
      </trkpt>
      <trkpt lat="46.30346" lon="6.01138">
        <ele>877.40002441406</ele>
        <time>2020-08-13T16:10:35.000Z</time>
      </trkpt>
      <trkpt lat="46.30344" lon="6.01138">
        <ele>877.59997558594</ele>
        <time>2020-08-13T16:10:36.000Z</time>
      </trkpt>
      <trkpt lat="46.30337" lon="6.0114">
        <ele>878.59997558594</ele>
        <time>2020-08-13T16:10:40.000Z</time>
      </trkpt>
      <trkpt lat="46.30335" lon="6.01142">
        <ele>878.79998779297</ele>
        <time>2020-08-13T16:10:42.000Z</time>
      </trkpt>
      <trkpt lat="46.30332" lon="6.01148">
        <ele>879.79998779297</ele>
        <time>2020-08-13T16:10:45.000Z</time>
      </trkpt>
      <trkpt lat="46.30325" lon="6.01157">
        <ele>880.59997558594</ele>
        <time>2020-08-13T16:10:50.000Z</time>
      </trkpt>
      <trkpt lat="46.30324" lon="6.01159">
        <ele>880.79998779297</ele>
        <time>2020-08-13T16:10:51.000Z</time>
      </trkpt>
      <trkpt lat="46.30316" lon="6.01163">
        <ele>881.79998779297</ele>
        <time>2020-08-13T16:10:56.000Z</time>
      </trkpt>
      <trkpt lat="46.30314" lon="6.01162">
        <ele>882</ele>
        <time>2020-08-13T16:10:57.000Z</time>
      </trkpt>
      <trkpt lat="46.30305" lon="6.01154">
        <ele>883</ele>
        <time>2020-08-13T16:11:02.000Z</time>
      </trkpt>
      <trkpt lat="46.30303" lon="6.01152">
        <ele>883.40002441406</ele>
        <time>2020-08-13T16:11:03.000Z</time>
      </trkpt>
      <trkpt lat="46.30301" lon="6.01136">
        <ele>884.20001220703</ele>
        <time>2020-08-13T16:11:08.000Z</time>
      </trkpt>
      <trkpt lat="46.30295" lon="6.01115">
        <ele>885.20001220703</ele>
        <time>2020-08-13T16:11:15.000Z</time>
      </trkpt>
      <trkpt lat="46.30288" lon="6.011">
        <ele>886.40002441406</ele>
        <time>2020-08-13T16:11:22.000Z</time>
      </trkpt>
      <trkpt lat="46.30284" lon="6.01097">
        <ele>887.40002441406</ele>
        <time>2020-08-13T16:11:26.000Z</time>
      </trkpt>
      <trkpt lat="46.30279" lon="6.01095">
        <ele>888.40002441406</ele>
        <time>2020-08-13T16:11:29.000Z</time>
      </trkpt>
      <trkpt lat="46.30272" lon="6.01092">
        <ele>889.59997558594</ele>
        <time>2020-08-13T16:11:34.000Z</time>
      </trkpt>
      <trkpt lat="46.3027" lon="6.01091">
        <ele>889.59997558594</ele>
        <time>2020-08-13T16:11:35.000Z</time>
      </trkpt>
      <trkpt lat="46.30259" lon="6.01088">
        <ele>890.59997558594</ele>
        <time>2020-08-13T16:11:40.000Z</time>
      </trkpt>
      <trkpt lat="46.30247" lon="6.01083">
        <ele>891.40002441406</ele>
        <time>2020-08-13T16:11:45.000Z</time>
      </trkpt>
      <trkpt lat="46.3024" lon="6.01081">
        <ele>891.79998779297</ele>
        <time>2020-08-13T16:11:47.000Z</time>
      </trkpt>
      <trkpt lat="46.30232" lon="6.01073">
        <ele>892.79998779297</ele>
        <time>2020-08-13T16:11:51.000Z</time>
      </trkpt>
      <trkpt lat="46.3023" lon="6.01071">
        <ele>893</ele>
        <time>2020-08-13T16:11:52.000Z</time>
      </trkpt>
      <trkpt lat="46.30218" lon="6.01053">
        <ele>893.79998779297</ele>
        <time>2020-08-13T16:11:59.000Z</time>
      </trkpt>
      <trkpt lat="46.30211" lon="6.0103">
        <ele>894.79998779297</ele>
        <time>2020-08-13T16:12:06.000Z</time>
      </trkpt>
      <trkpt lat="46.3021" lon="6.01026">
        <ele>895</ele>
        <time>2020-08-13T16:12:07.000Z</time>
      </trkpt>
      <trkpt lat="46.30207" lon="6.01011">
        <ele>896</ele>
        <time>2020-08-13T16:12:11.000Z</time>
      </trkpt>
      <trkpt lat="46.30205" lon="6.01004">
        <ele>896.59997558594</ele>
        <time>2020-08-13T16:12:13.000Z</time>
      </trkpt>
      <trkpt lat="46.30203" lon="6.00997">
        <ele>897.20001220703</ele>
        <time>2020-08-13T16:12:15.000Z</time>
      </trkpt>
      <trkpt lat="46.30201" lon="6.00977">
        <ele>898</ele>
        <time>2020-08-13T16:12:21.000Z</time>
      </trkpt>
      <trkpt lat="46.30201" lon="6.00973">
        <ele>898</ele>
        <time>2020-08-13T16:12:22.000Z</time>
      </trkpt>
      <trkpt lat="46.30202" lon="6.00968">
        <ele>898.20001220703</ele>
        <time>2020-08-13T16:12:24.000Z</time>
      </trkpt>
      <trkpt lat="46.30202" lon="6.00964">
        <ele>899</ele>
        <time>2020-08-13T16:12:27.000Z</time>
      </trkpt>
      <trkpt lat="46.30199" lon="6.00961">
        <ele>898.79998779297</ele>
        <time>2020-08-13T16:13:40.000Z</time>
      </trkpt>
      <trkpt lat="46.30197" lon="6.00953">
        <ele>898.79998779297</ele>
        <time>2020-08-13T16:13:43.000Z</time>
      </trkpt>
      <trkpt lat="46.30198" lon="6.0094">
        <ele>899.40002441406</ele>
        <time>2020-08-13T16:13:47.000Z</time>
      </trkpt>
      <trkpt lat="46.30198" lon="6.00934">
        <ele>899.79998779297</ele>
        <time>2020-08-13T16:13:49.000Z</time>
      </trkpt>
      <trkpt lat="46.302" lon="6.00925">
        <ele>900.59997558594</ele>
        <time>2020-08-13T16:13:52.000Z</time>
      </trkpt>
      <trkpt lat="46.302" lon="6.00918">
        <ele>901</ele>
        <time>2020-08-13T16:13:54.000Z</time>
      </trkpt>
      <trkpt lat="46.30199" lon="6.00909">
        <ele>901.59997558594</ele>
        <time>2020-08-13T16:13:57.000Z</time>
      </trkpt>
      <trkpt lat="46.30202" lon="6.00895">
        <ele>902.40002441406</ele>
        <time>2020-08-13T16:14:01.000Z</time>
      </trkpt>
      <trkpt lat="46.30203" lon="6.00892">
        <ele>902.59997558594</ele>
        <time>2020-08-13T16:14:02.000Z</time>
      </trkpt>
      <trkpt lat="46.30204" lon="6.00889">
        <ele>902.79998779297</ele>
        <time>2020-08-13T16:14:03.000Z</time>
      </trkpt>
      <trkpt lat="46.30205" lon="6.00882">
        <ele>903</ele>
        <time>2020-08-13T16:14:05.000Z</time>
      </trkpt>
      <trkpt lat="46.30206" lon="6.00871">
        <ele>903.59997558594</ele>
        <time>2020-08-13T16:14:08.000Z</time>
      </trkpt>
      <trkpt lat="46.30205" lon="6.00868">
        <ele>903.79998779297</ele>
        <time>2020-08-13T16:14:09.000Z</time>
      </trkpt>
      <trkpt lat="46.30205" lon="6.00864">
        <ele>903.79998779297</ele>
        <time>2020-08-13T16:14:10.000Z</time>
      </trkpt>
      <trkpt lat="46.30205" lon="6.00847">
        <ele>904.79998779297</ele>
        <time>2020-08-13T16:14:14.000Z</time>
      </trkpt>
      <trkpt lat="46.30205" lon="6.00844">
        <ele>905</ele>
        <time>2020-08-13T16:14:15.000Z</time>
      </trkpt>
      <trkpt lat="46.30204" lon="6.00829">
        <ele>906</ele>
        <time>2020-08-13T16:14:19.000Z</time>
      </trkpt>
      <trkpt lat="46.30203" lon="6.00817">
        <ele>906.79998779297</ele>
        <time>2020-08-13T16:14:23.000Z</time>
      </trkpt>
      <trkpt lat="46.30202" lon="6.00814">
        <ele>907</ele>
        <time>2020-08-13T16:14:24.000Z</time>
      </trkpt>
      <trkpt lat="46.30201" lon="6.00794">
        <ele>907.79998779297</ele>
        <time>2020-08-13T16:14:30.000Z</time>
      </trkpt>
      <trkpt lat="46.30201" lon="6.00787">
        <ele>908.20001220703</ele>
        <time>2020-08-13T16:14:32.000Z</time>
      </trkpt>
      <trkpt lat="46.30197" lon="6.00773">
        <ele>909</ele>
        <time>2020-08-13T16:14:37.000Z</time>
      </trkpt>
      <trkpt lat="46.30195" lon="6.00768">
        <ele>909.40002441406</ele>
        <time>2020-08-13T16:14:39.000Z</time>
      </trkpt>
      <trkpt lat="46.30188" lon="6.00759">
        <ele>910.40002441406</ele>
        <time>2020-08-13T16:14:44.000Z</time>
      </trkpt>
      <trkpt lat="46.30187" lon="6.00759">
        <ele>910.59997558594</ele>
        <time>2020-08-13T16:14:45.000Z</time>
      </trkpt>
      <trkpt lat="46.3018" lon="6.00756">
        <ele>911.59997558594</ele>
        <time>2020-08-13T16:14:49.000Z</time>
      </trkpt>
      <trkpt lat="46.30173" lon="6.00755">
        <ele>912.40002441406</ele>
        <time>2020-08-13T16:14:52.000Z</time>
      </trkpt>
      <trkpt lat="46.30171" lon="6.00755">
        <ele>912.59997558594</ele>
        <time>2020-08-13T16:14:53.000Z</time>
      </trkpt>
      <trkpt lat="46.30166" lon="6.00753">
        <ele>914</ele>
        <time>2020-08-13T16:14:57.000Z</time>
      </trkpt>
      <trkpt lat="46.30164" lon="6.00752">
        <ele>914.20001220703</ele>
        <time>2020-08-13T16:14:58.000Z</time>
      </trkpt>
      <trkpt lat="46.30152" lon="6.00749">
        <ele>915</ele>
        <time>2020-08-13T16:15:03.000Z</time>
      </trkpt>
      <trkpt lat="46.30149" lon="6.00746">
        <ele>915.40002441406</ele>
        <time>2020-08-13T16:15:05.000Z</time>
      </trkpt>
      <trkpt lat="46.30138" lon="6.00741">
        <ele>916.20001220703</ele>
        <time>2020-08-13T16:15:11.000Z</time>
      </trkpt>
      <trkpt lat="46.30124" lon="6.0075">
        <ele>917.20001220703</ele>
        <time>2020-08-13T16:15:17.000Z</time>
      </trkpt>
      <trkpt lat="46.30108" lon="6.00764">
        <ele>918.40002441406</ele>
        <time>2020-08-13T16:15:24.000Z</time>
      </trkpt>
      <trkpt lat="46.30101" lon="6.00768">
        <ele>919.40002441406</ele>
        <time>2020-08-13T16:15:28.000Z</time>
      </trkpt>
      <trkpt lat="46.30097" lon="6.0077">
        <ele>919.79998779297</ele>
        <time>2020-08-13T16:15:30.000Z</time>
      </trkpt>
      <trkpt lat="46.30084" lon="6.00772">
        <ele>920.59997558594</ele>
        <time>2020-08-13T16:15:37.000Z</time>
      </trkpt>
      <trkpt lat="46.30082" lon="6.00772">
        <ele>920.79998779297</ele>
        <time>2020-08-13T16:15:38.000Z</time>
      </trkpt>
      <trkpt lat="46.30073" lon="6.00773">
        <ele>921.79998779297</ele>
        <time>2020-08-13T16:15:42.000Z</time>
      </trkpt>
      <trkpt lat="46.30069" lon="6.00774">
        <ele>922.20001220703</ele>
        <time>2020-08-13T16:15:45.000Z</time>
      </trkpt>
      <trkpt lat="46.30063" lon="6.00775">
        <ele>922.79998779297</ele>
        <time>2020-08-13T16:15:48.000Z</time>
      </trkpt>
      <trkpt lat="46.30053" lon="6.0078">
        <ele>923.59997558594</ele>
        <time>2020-08-13T16:15:52.000Z</time>
      </trkpt>
      <trkpt lat="46.30049" lon="6.00781">
        <ele>924</ele>
        <time>2020-08-13T16:15:54.000Z</time>
      </trkpt>
      <trkpt lat="46.30042" lon="6.00783">
        <ele>925</ele>
        <time>2020-08-13T16:15:58.000Z</time>
      </trkpt>
      <trkpt lat="46.3004" lon="6.00783">
        <ele>925.40002441406</ele>
        <time>2020-08-13T16:15:59.000Z</time>
      </trkpt>
      <trkpt lat="46.30026" lon="6.00778">
        <ele>926.20001220703</ele>
        <time>2020-08-13T16:16:05.000Z</time>
      </trkpt>
      <trkpt lat="46.30015" lon="6.00771">
        <ele>927.20001220703</ele>
        <time>2020-08-13T16:16:10.000Z</time>
      </trkpt>
      <trkpt lat="46.30007" lon="6.00766">
        <ele>927.79998779297</ele>
        <time>2020-08-13T16:16:14.000Z</time>
      </trkpt>
      <trkpt lat="46.29996" lon="6.00758">
        <ele>928.40002441406</ele>
        <time>2020-08-13T16:16:19.000Z</time>
      </trkpt>
      <trkpt lat="46.29987" lon="6.00746">
        <ele>928.79998779297</ele>
        <time>2020-08-13T16:16:23.000Z</time>
      </trkpt>
      <trkpt lat="46.29983" lon="6.00739">
        <ele>929.40002441406</ele>
        <time>2020-08-13T16:16:25.000Z</time>
      </trkpt>
      <trkpt lat="46.29979" lon="6.0073">
        <ele>930</ele>
        <time>2020-08-13T16:16:28.000Z</time>
      </trkpt>
      <trkpt lat="46.29975" lon="6.00723">
        <ele>930.20001220703</ele>
        <time>2020-08-13T16:16:31.000Z</time>
      </trkpt>
      <trkpt lat="46.29973" lon="6.00721">
        <ele>930.40002441406</ele>
        <time>2020-08-13T16:16:32.000Z</time>
      </trkpt>
      <trkpt lat="46.29972" lon="6.00718">
        <ele>930.59997558594</ele>
        <time>2020-08-13T16:16:33.000Z</time>
      </trkpt>
      <trkpt lat="46.29963" lon="6.00699">
        <ele>931.59997558594</ele>
        <time>2020-08-13T16:16:40.000Z</time>
      </trkpt>
      <trkpt lat="46.29961" lon="6.00694">
        <ele>931.79998779297</ele>
        <time>2020-08-13T16:16:42.000Z</time>
      </trkpt>
      <trkpt lat="46.29956" lon="6.00685">
        <ele>932.79998779297</ele>
        <time>2020-08-13T16:16:45.000Z</time>
      </trkpt>
      <trkpt lat="46.2995" lon="6.00674">
        <ele>933.59997558594</ele>
        <time>2020-08-13T16:16:49.000Z</time>
      </trkpt>
      <trkpt lat="46.29944" lon="6.00662">
        <ele>934</ele>
        <time>2020-08-13T16:16:53.000Z</time>
      </trkpt>
      <trkpt lat="46.29939" lon="6.00651">
        <ele>934.79998779297</ele>
        <time>2020-08-13T16:16:57.000Z</time>
      </trkpt>
      <trkpt lat="46.29937" lon="6.00648">
        <ele>935</ele>
        <time>2020-08-13T16:16:58.000Z</time>
      </trkpt>
      <trkpt lat="46.29927" lon="6.00635">
        <ele>936.20001220703</ele>
        <time>2020-08-13T16:17:04.000Z</time>
      </trkpt>
      <trkpt lat="46.29926" lon="6.00633">
        <ele>936.79998779297</ele>
        <time>2020-08-13T16:17:05.000Z</time>
      </trkpt>
      <trkpt lat="46.29923" lon="6.00627">
        <ele>937.40002441406</ele>
        <time>2020-08-13T16:17:07.000Z</time>
      </trkpt>
      <trkpt lat="46.29916" lon="6.0061">
        <ele>938.20001220703</ele>
        <time>2020-08-13T16:17:13.000Z</time>
      </trkpt>
      <trkpt lat="46.29916" lon="6.00607">
        <ele>938.59997558594</ele>
        <time>2020-08-13T16:17:14.000Z</time>
      </trkpt>
      <trkpt lat="46.29912" lon="6.00594">
        <ele>939.59997558594</ele>
        <time>2020-08-13T16:17:18.000Z</time>
      </trkpt>
      <trkpt lat="46.2991" lon="6.00588">
        <ele>939.79998779297</ele>
        <time>2020-08-13T16:17:20.000Z</time>
      </trkpt>
      <trkpt lat="46.29903" lon="6.0056">
        <ele>940.20001220703</ele>
        <time>2020-08-13T16:17:28.000Z</time>
      </trkpt>
      <trkpt lat="46.29897" lon="6.00546">
        <ele>940.59997558594</ele>
        <time>2020-08-13T16:17:33.000Z</time>
      </trkpt>
      <trkpt lat="46.29893" lon="6.00538">
        <ele>942</ele>
        <time>2020-08-13T16:17:36.000Z</time>
      </trkpt>
      <trkpt lat="46.29892" lon="6.00536">
        <ele>942.20001220703</ele>
        <time>2020-08-13T16:17:37.000Z</time>
      </trkpt>
      <trkpt lat="46.29889" lon="6.00533">
        <ele>943</ele>
        <time>2020-08-13T16:17:39.000Z</time>
      </trkpt>
      <trkpt lat="46.29881" lon="6.00521">
        <ele>944</ele>
        <time>2020-08-13T16:17:45.000Z</time>
      </trkpt>
      <trkpt lat="46.2988" lon="6.00518">
        <ele>944</ele>
        <time>2020-08-13T16:17:46.000Z</time>
      </trkpt>
      <trkpt lat="46.29869" lon="6.00501">
        <ele>945.20001220703</ele>
        <time>2020-08-13T16:17:53.000Z</time>
      </trkpt>
      <trkpt lat="46.29859" lon="6.00485">
        <ele>945.79998779297</ele>
        <time>2020-08-13T16:17:59.000Z</time>
      </trkpt>
      <trkpt lat="46.29854" lon="6.00479">
        <ele>946.20001220703</ele>
        <time>2020-08-13T16:18:02.000Z</time>
      </trkpt>
      <trkpt lat="46.29848" lon="6.00476">
        <ele>946.79998779297</ele>
        <time>2020-08-13T16:18:05.000Z</time>
      </trkpt>
      <trkpt lat="46.29843" lon="6.00472">
        <ele>947.20001220703</ele>
        <time>2020-08-13T16:18:07.000Z</time>
      </trkpt>
      <trkpt lat="46.29834" lon="6.00461">
        <ele>948</ele>
        <time>2020-08-13T16:18:12.000Z</time>
      </trkpt>
      <trkpt lat="46.29826" lon="6.00449">
        <ele>948.40002441406</ele>
        <time>2020-08-13T16:18:17.000Z</time>
      </trkpt>
      <trkpt lat="46.29822" lon="6.00441">
        <ele>949.20001220703</ele>
        <time>2020-08-13T16:18:20.000Z</time>
      </trkpt>
      <trkpt lat="46.29819" lon="6.00436">
        <ele>949.59997558594</ele>
        <time>2020-08-13T16:18:22.000Z</time>
      </trkpt>
      <trkpt lat="46.29808" lon="6.00422">
        <ele>950.40002441406</ele>
        <time>2020-08-13T16:18:29.000Z</time>
      </trkpt>
      <trkpt lat="46.29805" lon="6.00418">
        <ele>950.59997558594</ele>
        <time>2020-08-13T16:18:31.000Z</time>
      </trkpt>
      <trkpt lat="46.298" lon="6.00411">
        <ele>951.79998779297</ele>
        <time>2020-08-13T16:18:34.000Z</time>
      </trkpt>
      <trkpt lat="46.29794" lon="6.00401">
        <ele>952.20001220703</ele>
        <time>2020-08-13T16:18:38.000Z</time>
      </trkpt>
      <trkpt lat="46.2979" lon="6.00393">
        <ele>952.79998779297</ele>
        <time>2020-08-13T16:18:41.000Z</time>
      </trkpt>
      <trkpt lat="46.29782" lon="6.0038">
        <ele>953.59997558594</ele>
        <time>2020-08-13T16:18:46.000Z</time>
      </trkpt>
      <trkpt lat="46.29778" lon="6.00376">
        <ele>954</ele>
        <time>2020-08-13T16:18:48.000Z</time>
      </trkpt>
      <trkpt lat="46.29771" lon="6.00371">
        <ele>955</ele>
        <time>2020-08-13T16:18:52.000Z</time>
      </trkpt>
      <trkpt lat="46.29769" lon="6.0037">
        <ele>955.40002441406</ele>
        <time>2020-08-13T16:18:53.000Z</time>
      </trkpt>
      <trkpt lat="46.2976" lon="6.00364">
        <ele>956.20001220703</ele>
        <time>2020-08-13T16:18:58.000Z</time>
      </trkpt>
      <trkpt lat="46.29753" lon="6.00359">
        <ele>956.40002441406</ele>
        <time>2020-08-13T16:19:01.000Z</time>
      </trkpt>
      <trkpt lat="46.29746" lon="6.00355">
        <ele>957.20001220703</ele>
        <time>2020-08-13T16:19:05.000Z</time>
      </trkpt>
      <trkpt lat="46.29739" lon="6.00352">
        <ele>957.79998779297</ele>
        <time>2020-08-13T16:19:09.000Z</time>
      </trkpt>
      <trkpt lat="46.29734" lon="6.00348">
        <ele>958.40002441406</ele>
        <time>2020-08-13T16:19:12.000Z</time>
      </trkpt>
      <trkpt lat="46.29725" lon="6.00345">
        <ele>959.59997558594</ele>
        <time>2020-08-13T16:19:16.000Z</time>
      </trkpt>
      <trkpt lat="46.29723" lon="6.00344">
        <ele>959.79998779297</ele>
        <time>2020-08-13T16:19:17.000Z</time>
      </trkpt>
      <trkpt lat="46.29714" lon="6.00335">
        <ele>961</ele>
        <time>2020-08-13T16:19:22.000Z</time>
      </trkpt>
      <trkpt lat="46.29711" lon="6.0033">
        <ele>961.40002441406</ele>
        <time>2020-08-13T16:19:24.000Z</time>
      </trkpt>
      <trkpt lat="46.29704" lon="6.00306">
        <ele>962</ele>
        <time>2020-08-13T16:19:31.000Z</time>
      </trkpt>
      <trkpt lat="46.29703" lon="6.00302">
        <ele>962</ele>
        <time>2020-08-13T16:19:32.000Z</time>
      </trkpt>
      <trkpt lat="46.29693" lon="6.00291">
        <ele>963</ele>
        <time>2020-08-13T16:19:38.000Z</time>
      </trkpt>
      <trkpt lat="46.29691" lon="6.00289">
        <ele>963.20001220703</ele>
        <time>2020-08-13T16:19:39.000Z</time>
      </trkpt>
      <trkpt lat="46.29683" lon="6.00285">
        <ele>964.20001220703</ele>
        <time>2020-08-13T16:19:43.000Z</time>
      </trkpt>
      <trkpt lat="46.29676" lon="6.00281">
        <ele>965.20001220703</ele>
        <time>2020-08-13T16:19:46.000Z</time>
      </trkpt>
      <trkpt lat="46.29674" lon="6.00279">
        <ele>965.40002441406</ele>
        <time>2020-08-13T16:19:47.000Z</time>
      </trkpt>
      <trkpt lat="46.29659" lon="6.00265">
        <ele>966.40002441406</ele>
        <time>2020-08-13T16:19:55.000Z</time>
      </trkpt>
      <trkpt lat="46.29648" lon="6.00252">
        <ele>967.40002441406</ele>
        <time>2020-08-13T16:20:01.000Z</time>
      </trkpt>
      <trkpt lat="46.29645" lon="6.00247">
        <ele>968</ele>
        <time>2020-08-13T16:20:03.000Z</time>
      </trkpt>
      <trkpt lat="46.29639" lon="6.00237">
        <ele>968.59997558594</ele>
        <time>2020-08-13T16:20:07.000Z</time>
      </trkpt>
      <trkpt lat="46.29632" lon="6.00228">
        <ele>969.20001220703</ele>
        <time>2020-08-13T16:20:11.000Z</time>
      </trkpt>
      <trkpt lat="46.29627" lon="6.00221">
        <ele>970</ele>
        <time>2020-08-13T16:20:14.000Z</time>
      </trkpt>
      <trkpt lat="46.29622" lon="6.00212">
        <ele>971</ele>
        <time>2020-08-13T16:20:18.000Z</time>
      </trkpt>
      <trkpt lat="46.29621" lon="6.0021">
        <ele>971</ele>
        <time>2020-08-13T16:20:19.000Z</time>
      </trkpt>
      <trkpt lat="46.29609" lon="6.00194">
        <ele>972</ele>
        <time>2020-08-13T16:20:26.000Z</time>
      </trkpt>
      <trkpt lat="46.29608" lon="6.00191">
        <ele>972.20001220703</ele>
        <time>2020-08-13T16:20:27.000Z</time>
      </trkpt>
      <trkpt lat="46.29602" lon="6.00176">
        <ele>973.20001220703</ele>
        <time>2020-08-13T16:20:32.000Z</time>
      </trkpt>
      <trkpt lat="46.29601" lon="6.00173">
        <ele>973.40002441406</ele>
        <time>2020-08-13T16:20:33.000Z</time>
      </trkpt>
      <trkpt lat="46.29596" lon="6.00151">
        <ele>974</ele>
        <time>2020-08-13T16:20:40.000Z</time>
      </trkpt>
      <trkpt lat="46.29592" lon="6.00139">
        <ele>974.40002441406</ele>
        <time>2020-08-13T16:20:44.000Z</time>
      </trkpt>
      <trkpt lat="46.29588" lon="6.00133">
        <ele>975.20001220703</ele>
        <time>2020-08-13T16:20:47.000Z</time>
      </trkpt>
      <trkpt lat="46.29586" lon="6.00131">
        <ele>975.40002441406</ele>
        <time>2020-08-13T16:20:48.000Z</time>
      </trkpt>
      <trkpt lat="46.2958" lon="6.00129">
        <ele>976.40002441406</ele>
        <time>2020-08-13T16:20:51.000Z</time>
      </trkpt>
      <trkpt lat="46.29576" lon="6.00128">
        <ele>976.79998779297</ele>
        <time>2020-08-13T16:20:53.000Z</time>
      </trkpt>
      <trkpt lat="46.29562" lon="6.00117">
        <ele>977.40002441406</ele>
        <time>2020-08-13T16:21:00.000Z</time>
      </trkpt>
      <trkpt lat="46.2956" lon="6.00114">
        <ele>977.59997558594</ele>
        <time>2020-08-13T16:21:01.000Z</time>
      </trkpt>
      <trkpt lat="46.2955" lon="6.00092">
        <ele>978.40002441406</ele>
        <time>2020-08-13T16:21:09.000Z</time>
      </trkpt>
      <trkpt lat="46.29548" lon="6.0009">
        <ele>978.79998779297</ele>
        <time>2020-08-13T16:21:10.000Z</time>
      </trkpt>
      <trkpt lat="46.2954" lon="6.00088">
        <ele>980</ele>
        <time>2020-08-13T16:21:15.000Z</time>
      </trkpt>
      <trkpt lat="46.29533" lon="6.00087">
        <ele>981.20001220703</ele>
        <time>2020-08-13T16:21:19.000Z</time>
      </trkpt>
      <trkpt lat="46.29528" lon="6.00086">
        <ele>981.79998779297</ele>
        <time>2020-08-13T16:21:22.000Z</time>
      </trkpt>
      <trkpt lat="46.29523" lon="6.00085">
        <ele>982.20001220703</ele>
        <time>2020-08-13T16:21:25.000Z</time>
      </trkpt>
      <trkpt lat="46.29515" lon="6.00083">
        <ele>982.59997558594</ele>
        <time>2020-08-13T16:21:29.000Z</time>
      </trkpt>
      <trkpt lat="46.29501" lon="6.00071">
        <ele>983.20001220703</ele>
        <time>2020-08-13T16:21:35.000Z</time>
      </trkpt>
      <trkpt lat="46.29499" lon="6.00068">
        <ele>983.40002441406</ele>
        <time>2020-08-13T16:21:36.000Z</time>
      </trkpt>
      <trkpt lat="46.29488" lon="6.0005">
        <ele>984</ele>
        <time>2020-08-13T16:21:43.000Z</time>
      </trkpt>
      <trkpt lat="46.29485" lon="6.00045">
        <ele>984.40002441406</ele>
        <time>2020-08-13T16:21:45.000Z</time>
      </trkpt>
      <trkpt lat="46.29479" lon="6.00034">
        <ele>985.59997558594</ele>
        <time>2020-08-13T16:21:49.000Z</time>
      </trkpt>
      <trkpt lat="46.29476" lon="6.00029">
        <ele>986.20001220703</ele>
        <time>2020-08-13T16:21:51.000Z</time>
      </trkpt>
      <trkpt lat="46.29473" lon="6.00024">
        <ele>986.59997558594</ele>
        <time>2020-08-13T16:21:53.000Z</time>
      </trkpt>
      <trkpt lat="46.29464" lon="6">
        <ele>987.59997558594</ele>
        <time>2020-08-13T16:22:01.000Z</time>
      </trkpt>
      <trkpt lat="46.29459" lon="5.99985">
        <ele>988.79998779297</ele>
        <time>2020-08-13T16:22:06.000Z</time>
      </trkpt>
      <trkpt lat="46.29457" lon="5.99976">
        <ele>989.40002441406</ele>
        <time>2020-08-13T16:22:09.000Z</time>
      </trkpt>
      <trkpt lat="46.29453" lon="5.99968">
        <ele>989.79998779297</ele>
        <time>2020-08-13T16:22:12.000Z</time>
      </trkpt>
      <trkpt lat="46.29447" lon="5.9995">
        <ele>990.59997558594</ele>
        <time>2020-08-13T16:22:18.000Z</time>
      </trkpt>
      <trkpt lat="46.29447" lon="5.99948">
        <ele>990.79998779297</ele>
        <time>2020-08-13T16:22:19.000Z</time>
      </trkpt>
      <trkpt lat="46.2944" lon="5.99935">
        <ele>991.79998779297</ele>
        <time>2020-08-13T16:22:24.000Z</time>
      </trkpt>
      <trkpt lat="46.29439" lon="5.99932">
        <ele>992</ele>
        <time>2020-08-13T16:22:25.000Z</time>
      </trkpt>
      <trkpt lat="46.2943" lon="5.99918">
        <ele>993</ele>
        <time>2020-08-13T16:22:31.000Z</time>
      </trkpt>
      <trkpt lat="46.29424" lon="5.99912">
        <ele>993.40002441406</ele>
        <time>2020-08-13T16:22:34.000Z</time>
      </trkpt>
      <trkpt lat="46.29414" lon="5.99894">
        <ele>994.20001220703</ele>
        <time>2020-08-13T16:22:41.000Z</time>
      </trkpt>
      <trkpt lat="46.29413" lon="5.99892">
        <ele>994.40002441406</ele>
        <time>2020-08-13T16:22:42.000Z</time>
      </trkpt>
      <trkpt lat="46.29408" lon="5.9988">
        <ele>995.40002441406</ele>
        <time>2020-08-13T16:22:46.000Z</time>
      </trkpt>
      <trkpt lat="46.29402" lon="5.99871">
        <ele>996.20001220703</ele>
        <time>2020-08-13T16:22:50.000Z</time>
      </trkpt>
      <trkpt lat="46.294" lon="5.99866">
        <ele>996.40002441406</ele>
        <time>2020-08-13T16:22:52.000Z</time>
      </trkpt>
      <trkpt lat="46.29394" lon="5.99852">
        <ele>997.40002441406</ele>
        <time>2020-08-13T16:22:57.000Z</time>
      </trkpt>
      <trkpt lat="46.29393" lon="5.9985">
        <ele>997.40002441406</ele>
        <time>2020-08-13T16:22:58.000Z</time>
      </trkpt>
      <trkpt lat="46.29385" lon="5.99837">
        <ele>998.59997558594</ele>
        <time>2020-08-13T16:23:04.000Z</time>
      </trkpt>
      <trkpt lat="46.29376" lon="5.99828">
        <ele>999.79998779297</ele>
        <time>2020-08-13T16:23:10.000Z</time>
      </trkpt>
      <trkpt lat="46.29373" lon="5.99824">
        <ele>1000.200012207</ele>
        <time>2020-08-13T16:23:12.000Z</time>
      </trkpt>
      <trkpt lat="46.29363" lon="5.99811">
        <ele>1000.799987793</ele>
        <time>2020-08-13T16:23:18.000Z</time>
      </trkpt>
      <trkpt lat="46.29362" lon="5.99808">
        <ele>1001</ele>
        <time>2020-08-13T16:23:19.000Z</time>
      </trkpt>
      <trkpt lat="46.29355" lon="5.99796">
        <ele>1001.5999755859</ele>
        <time>2020-08-13T16:23:24.000Z</time>
      </trkpt>
      <trkpt lat="46.2935" lon="5.99787">
        <ele>1002.200012207</ele>
        <time>2020-08-13T16:23:27.000Z</time>
      </trkpt>
      <trkpt lat="46.29342" lon="5.99778">
        <ele>1003</ele>
        <time>2020-08-13T16:23:31.000Z</time>
      </trkpt>
      <trkpt lat="46.29338" lon="5.99771">
        <ele>1003.4000244141</ele>
        <time>2020-08-13T16:23:34.000Z</time>
      </trkpt>
      <trkpt lat="46.2933" lon="5.99768">
        <ele>1004.5999755859</ele>
        <time>2020-08-13T16:23:38.000Z</time>
      </trkpt>
      <trkpt lat="46.29323" lon="5.99765">
        <ele>1005.5999755859</ele>
        <time>2020-08-13T16:23:42.000Z</time>
      </trkpt>
      <trkpt lat="46.29321" lon="5.99763">
        <ele>1006.200012207</ele>
        <time>2020-08-13T16:23:44.000Z</time>
      </trkpt>
      <trkpt lat="46.29309" lon="5.99754">
        <ele>1006.799987793</ele>
        <time>2020-08-13T16:23:52.000Z</time>
      </trkpt>
      <trkpt lat="46.29306" lon="5.9975">
        <ele>1007.200012207</ele>
        <time>2020-08-13T16:23:54.000Z</time>
      </trkpt>
      <trkpt lat="46.29298" lon="5.99743">
        <ele>1007.799987793</ele>
        <time>2020-08-13T16:24:00.000Z</time>
      </trkpt>
      <trkpt lat="46.29293" lon="5.99735">
        <ele>1008.4000244141</ele>
        <time>2020-08-13T16:24:03.000Z</time>
      </trkpt>
      <trkpt lat="46.29286" lon="5.99726">
        <ele>1009</ele>
        <time>2020-08-13T16:24:07.000Z</time>
      </trkpt>
      <trkpt lat="46.29279" lon="5.99719">
        <ele>1009.200012207</ele>
        <time>2020-08-13T16:24:10.000Z</time>
      </trkpt>
      <trkpt lat="46.29276" lon="5.99713">
        <ele>1009.4000244141</ele>
        <time>2020-08-13T16:24:12.000Z</time>
      </trkpt>
      <trkpt lat="46.29272" lon="5.99703">
        <ele>1010</ele>
        <time>2020-08-13T16:24:15.000Z</time>
      </trkpt>
      <trkpt lat="46.2927" lon="5.99694">
        <ele>1010.799987793</ele>
        <time>2020-08-13T16:24:18.000Z</time>
      </trkpt>
      <trkpt lat="46.29268" lon="5.99689">
        <ele>1011.200012207</ele>
        <time>2020-08-13T16:24:20.000Z</time>
      </trkpt>
      <trkpt lat="46.29264" lon="5.99674">
        <ele>1011.799987793</ele>
        <time>2020-08-13T16:24:25.000Z</time>
      </trkpt>
      <trkpt lat="46.29262" lon="5.99668">
        <ele>1012.4000244141</ele>
        <time>2020-08-13T16:24:27.000Z</time>
      </trkpt>
      <trkpt lat="46.29259" lon="5.99654">
        <ele>1012.799987793</ele>
        <time>2020-08-13T16:24:32.000Z</time>
      </trkpt>
      <trkpt lat="46.29256" lon="5.99649">
        <ele>1013.4000244141</ele>
        <time>2020-08-13T16:24:34.000Z</time>
      </trkpt>
      <trkpt lat="46.29253" lon="5.99633">
        <ele>1014</ele>
        <time>2020-08-13T16:24:39.000Z</time>
      </trkpt>
      <trkpt lat="46.29253" lon="5.99627">
        <ele>1014.4000244141</ele>
        <time>2020-08-13T16:24:41.000Z</time>
      </trkpt>
      <trkpt lat="46.2925" lon="5.99614">
        <ele>1015.4000244141</ele>
        <time>2020-08-13T16:24:46.000Z</time>
      </trkpt>
      <trkpt lat="46.2925" lon="5.99612">
        <ele>1015.4000244141</ele>
        <time>2020-08-13T16:24:47.000Z</time>
      </trkpt>
      <trkpt lat="46.29251" lon="5.99596">
        <ele>1016.5999755859</ele>
        <time>2020-08-13T16:24:52.000Z</time>
      </trkpt>
      <trkpt lat="46.29252" lon="5.99593">
        <ele>1016.799987793</ele>
        <time>2020-08-13T16:24:53.000Z</time>
      </trkpt>
      <trkpt lat="46.29248" lon="5.99582">
        <ele>1017.4000244141</ele>
        <time>2020-08-13T16:24:59.000Z</time>
      </trkpt>
      <trkpt lat="46.29243" lon="5.99579">
        <ele>1017.5999755859</ele>
        <time>2020-08-13T16:25:02.000Z</time>
      </trkpt>
      <trkpt lat="46.29238" lon="5.99578">
        <ele>1018.200012207</ele>
        <time>2020-08-13T16:25:05.000Z</time>
      </trkpt>
      <trkpt lat="46.29232" lon="5.99577">
        <ele>1018.799987793</ele>
        <time>2020-08-13T16:25:08.000Z</time>
      </trkpt>
      <trkpt lat="46.29224" lon="5.99569">
        <ele>1019.5999755859</ele>
        <time>2020-08-13T16:25:13.000Z</time>
      </trkpt>
      <trkpt lat="46.29222" lon="5.99567">
        <ele>1019.799987793</ele>
        <time>2020-08-13T16:25:14.000Z</time>
      </trkpt>
      <trkpt lat="46.29218" lon="5.99564">
        <ele>1020.4000244141</ele>
        <time>2020-08-13T16:25:16.000Z</time>
      </trkpt>
      <trkpt lat="46.29209" lon="5.99554">
        <ele>1021</ele>
        <time>2020-08-13T16:25:21.000Z</time>
      </trkpt>
      <trkpt lat="46.29199" lon="5.99536">
        <ele>1022</ele>
        <time>2020-08-13T16:25:27.000Z</time>
      </trkpt>
      <trkpt lat="46.29197" lon="5.99534">
        <ele>1022</ele>
        <time>2020-08-13T16:25:28.000Z</time>
      </trkpt>
      <trkpt lat="46.29185" lon="5.99521">
        <ele>1023.200012207</ele>
        <time>2020-08-13T16:25:35.000Z</time>
      </trkpt>
      <trkpt lat="46.29174" lon="5.9951">
        <ele>1024.1999511719</ele>
        <time>2020-08-13T16:25:41.000Z</time>
      </trkpt>
      <trkpt lat="46.29171" lon="5.99504">
        <ele>1024.5999755859</ele>
        <time>2020-08-13T16:25:43.000Z</time>
      </trkpt>
      <trkpt lat="46.29165" lon="5.99495">
        <ele>1025.1999511719</ele>
        <time>2020-08-13T16:25:46.000Z</time>
      </trkpt>
      <trkpt lat="46.29157" lon="5.99482">
        <ele>1026</ele>
        <time>2020-08-13T16:25:51.000Z</time>
      </trkpt>
      <trkpt lat="46.29154" lon="5.99476">
        <ele>1026.4000244141</ele>
        <time>2020-08-13T16:25:53.000Z</time>
      </trkpt>
      <trkpt lat="46.29145" lon="5.99463">
        <ele>1026.8000488281</ele>
        <time>2020-08-13T16:25:58.000Z</time>
      </trkpt>
      <trkpt lat="46.29141" lon="5.99455">
        <ele>1027.5999755859</ele>
        <time>2020-08-13T16:26:01.000Z</time>
      </trkpt>
      <trkpt lat="46.29135" lon="5.99444">
        <ele>1028</ele>
        <time>2020-08-13T16:26:05.000Z</time>
      </trkpt>
      <trkpt lat="46.29131" lon="5.99435">
        <ele>1028.5999755859</ele>
        <time>2020-08-13T16:26:08.000Z</time>
      </trkpt>
      <trkpt lat="46.29127" lon="5.9942">
        <ele>1029.1999511719</ele>
        <time>2020-08-13T16:26:12.000Z</time>
      </trkpt>
      <trkpt lat="46.29122" lon="5.99401">
        <ele>1029.5999755859</ele>
        <time>2020-08-13T16:26:18.000Z</time>
      </trkpt>
      <trkpt lat="46.29121" lon="5.99398">
        <ele>1029.8000488281</ele>
        <time>2020-08-13T16:26:19.000Z</time>
      </trkpt>
      <trkpt lat="46.29116" lon="5.99384">
        <ele>1030.8000488281</ele>
        <time>2020-08-13T16:26:23.000Z</time>
      </trkpt>
      <trkpt lat="46.29111" lon="5.99371">
        <ele>1031.4000244141</ele>
        <time>2020-08-13T16:26:27.000Z</time>
      </trkpt>
      <trkpt lat="46.29098" lon="5.99342">
        <ele>1031.8000488281</ele>
        <time>2020-08-13T16:26:36.000Z</time>
      </trkpt>
      <trkpt lat="46.29097" lon="5.99339">
        <ele>1032</ele>
        <time>2020-08-13T16:26:37.000Z</time>
      </trkpt>
      <trkpt lat="46.2909" lon="5.99324">
        <ele>1033</ele>
        <time>2020-08-13T16:26:42.000Z</time>
      </trkpt>
      <trkpt lat="46.29087" lon="5.99314">
        <ele>1033.1999511719</ele>
        <time>2020-08-13T16:26:45.000Z</time>
      </trkpt>
      <trkpt lat="46.29078" lon="5.99297">
        <ele>1034</ele>
        <time>2020-08-13T16:26:51.000Z</time>
      </trkpt>
      <trkpt lat="46.29076" lon="5.99294">
        <ele>1034.1999511719</ele>
        <time>2020-08-13T16:26:52.000Z</time>
      </trkpt>
      <trkpt lat="46.29065" lon="5.99278">
        <ele>1035.1999511719</ele>
        <time>2020-08-13T16:26:58.000Z</time>
      </trkpt>
      <trkpt lat="46.29062" lon="5.99272">
        <ele>1036</ele>
        <time>2020-08-13T16:27:00.000Z</time>
      </trkpt>
      <trkpt lat="46.2906" lon="5.99262">
        <ele>1036.4000244141</ele>
        <time>2020-08-13T16:27:03.000Z</time>
      </trkpt>
      <trkpt lat="46.29061" lon="5.99256">
        <ele>1036.4000244141</ele>
        <time>2020-08-13T16:27:05.000Z</time>
      </trkpt>
      <trkpt lat="46.29064" lon="5.99248">
        <ele>1036.5999755859</ele>
        <time>2020-08-13T16:27:08.000Z</time>
      </trkpt>
      <trkpt lat="46.29068" lon="5.99245">
        <ele>1037</ele>
        <time>2020-08-13T16:27:10.000Z</time>
      </trkpt>
      <trkpt lat="46.2907" lon="5.99245">
        <ele>1037</ele>
        <time>2020-08-13T16:27:11.000Z</time>
      </trkpt>
      <trkpt lat="46.29075" lon="5.99245">
        <ele>1037.4000244141</ele>
        <time>2020-08-13T16:27:13.000Z</time>
      </trkpt>
      <trkpt lat="46.2908" lon="5.99248">
        <ele>1037.5999755859</ele>
        <time>2020-08-13T16:27:15.000Z</time>
      </trkpt>
      <trkpt lat="46.29092" lon="5.99262">
        <ele>1038.1999511719</ele>
        <time>2020-08-13T16:27:21.000Z</time>
      </trkpt>
      <trkpt lat="46.29103" lon="5.99277">
        <ele>1038.4000244141</ele>
        <time>2020-08-13T16:27:27.000Z</time>
      </trkpt>
      <trkpt lat="46.29105" lon="5.99279">
        <ele>1038.5999755859</ele>
        <time>2020-08-13T16:27:28.000Z</time>
      </trkpt>
      <trkpt lat="46.29108" lon="5.99291">
        <ele>1039.5999755859</ele>
        <time>2020-08-13T16:27:32.000Z</time>
      </trkpt>
      <trkpt lat="46.29109" lon="5.99294">
        <ele>1039.8000488281</ele>
        <time>2020-08-13T16:27:33.000Z</time>
      </trkpt>
      <trkpt lat="46.29117" lon="5.99318">
        <ele>1040.5999755859</ele>
        <time>2020-08-13T16:27:40.000Z</time>
      </trkpt>
      <trkpt lat="46.29121" lon="5.99325">
        <ele>1040.8000488281</ele>
        <time>2020-08-13T16:27:42.000Z</time>
      </trkpt>
      <trkpt lat="46.29127" lon="5.99342">
        <ele>1041.1999511719</ele>
        <time>2020-08-13T16:27:47.000Z</time>
      </trkpt>
      <trkpt lat="46.29142" lon="5.9937">
        <ele>1041.5999755859</ele>
        <time>2020-08-13T16:27:55.000Z</time>
      </trkpt>
      <trkpt lat="46.29154" lon="5.99392">
        <ele>1041.8000488281</ele>
        <time>2020-08-13T16:28:01.000Z</time>
      </trkpt>
      <trkpt lat="46.2917" lon="5.99417">
        <ele>1042.5999755859</ele>
        <time>2020-08-13T16:28:08.000Z</time>
      </trkpt>
      <trkpt lat="46.29176" lon="5.99426">
        <ele>1042.8000488281</ele>
        <time>2020-08-13T16:28:11.000Z</time>
      </trkpt>
      <trkpt lat="46.29184" lon="5.99435">
        <ele>1043.1999511719</ele>
        <time>2020-08-13T16:28:15.000Z</time>
      </trkpt>
      <trkpt lat="46.29194" lon="5.99443">
        <ele>1043.8000488281</ele>
        <time>2020-08-13T16:28:20.000Z</time>
      </trkpt>
      <trkpt lat="46.29198" lon="5.99445">
        <ele>1044</ele>
        <time>2020-08-13T16:28:22.000Z</time>
      </trkpt>
      <trkpt lat="46.2921" lon="5.99449">
        <ele>1044.5999755859</ele>
        <time>2020-08-13T16:28:27.000Z</time>
      </trkpt>
      <trkpt lat="46.2922" lon="5.99455">
        <ele>1044.5999755859</ele>
        <time>2020-08-13T16:28:30.000Z</time>
      </trkpt>
      <trkpt lat="46.2923" lon="5.99465">
        <ele>1045.1999511719</ele>
        <time>2020-08-13T16:28:33.000Z</time>
      </trkpt>
      <trkpt lat="46.29238" lon="5.99472">
        <ele>1046.1999511719</ele>
        <time>2020-08-13T16:28:36.000Z</time>
      </trkpt>
      <trkpt lat="46.29254" lon="5.99487">
        <ele>1046.5999755859</ele>
        <time>2020-08-13T16:28:43.000Z</time>
      </trkpt>
      <trkpt lat="46.29274" lon="5.9949">
        <ele>1046.8000488281</ele>
        <time>2020-08-13T16:28:49.000Z</time>
      </trkpt>
      <trkpt lat="46.29291" lon="5.99498">
        <ele>1046.5999755859</ele>
        <time>2020-08-13T16:28:54.000Z</time>
      </trkpt>
      <trkpt lat="46.29293" lon="5.99501">
        <ele>1046.5999755859</ele>
        <time>2020-08-13T16:28:55.000Z</time>
      </trkpt>
      <trkpt lat="46.29299" lon="5.99509">
        <ele>1047.4000244141</ele>
        <time>2020-08-13T16:28:58.000Z</time>
      </trkpt>
      <trkpt lat="46.29303" lon="5.9952">
        <ele>1048</ele>
        <time>2020-08-13T16:29:01.000Z</time>
      </trkpt>
      <trkpt lat="46.29308" lon="5.99531">
        <ele>1048.5999755859</ele>
        <time>2020-08-13T16:29:04.000Z</time>
      </trkpt>
      <trkpt lat="46.29316" lon="5.99543">
        <ele>1049.4000244141</ele>
        <time>2020-08-13T16:29:08.000Z</time>
      </trkpt>
      <trkpt lat="46.29318" lon="5.99546">
        <ele>1049.8000488281</ele>
        <time>2020-08-13T16:29:09.000Z</time>
      </trkpt>
      <trkpt lat="46.29321" lon="5.99552">
        <ele>1050.8000488281</ele>
        <time>2020-08-13T16:29:11.000Z</time>
      </trkpt>
      <trkpt lat="46.29328" lon="5.99564">
        <ele>1051.8000488281</ele>
        <time>2020-08-13T16:29:15.000Z</time>
      </trkpt>
      <trkpt lat="46.29331" lon="5.99566">
        <ele>1052</ele>
        <time>2020-08-13T16:29:16.000Z</time>
      </trkpt>
      <trkpt lat="46.29344" lon="5.99577">
        <ele>1053</ele>
        <time>2020-08-13T16:29:23.000Z</time>
      </trkpt>
      <trkpt lat="46.29345" lon="5.99578">
        <ele>1053.4000244141</ele>
        <time>2020-08-13T16:29:24.000Z</time>
      </trkpt>
      <trkpt lat="46.2935" lon="5.9958">
        <ele>1054</ele>
        <time>2020-08-13T16:29:27.000Z</time>
      </trkpt>
      <trkpt lat="46.29356" lon="5.99585">
        <ele>1054.1999511719</ele>
        <time>2020-08-13T16:29:30.000Z</time>
      </trkpt>
      <trkpt lat="46.29364" lon="5.99594">
        <ele>1054.8000488281</ele>
        <time>2020-08-13T16:29:34.000Z</time>
      </trkpt>
      <trkpt lat="46.29368" lon="5.99598">
        <ele>1055.1999511719</ele>
        <time>2020-08-13T16:29:36.000Z</time>
      </trkpt>
      <trkpt lat="46.2937" lon="5.996">
        <ele>1055.1999511719</ele>
        <time>2020-08-13T16:29:37.000Z</time>
      </trkpt>
      <trkpt lat="46.29378" lon="5.99611">
        <ele>1056.4000244141</ele>
        <time>2020-08-13T16:29:41.000Z</time>
      </trkpt>
      <trkpt lat="46.29388" lon="5.99622">
        <ele>1057.5999755859</ele>
        <time>2020-08-13T16:29:46.000Z</time>
      </trkpt>
      <trkpt lat="46.29394" lon="5.99628">
        <ele>1058.4000244141</ele>
        <time>2020-08-13T16:29:50.000Z</time>
      </trkpt>
      <trkpt lat="46.29399" lon="5.9963">
        <ele>1058.8000488281</ele>
        <time>2020-08-13T16:29:54.000Z</time>
      </trkpt>
      <trkpt lat="46.29411" lon="5.99626">
        <ele>1059.4000244141</ele>
        <time>2020-08-13T16:30:02.000Z</time>
      </trkpt>
      <trkpt lat="46.29414" lon="5.99625">
        <ele>1060</ele>
        <time>2020-08-13T16:30:04.000Z</time>
      </trkpt>
      <trkpt lat="46.29422" lon="5.99624">
        <ele>1061.1999511719</ele>
        <time>2020-08-13T16:30:09.000Z</time>
      </trkpt>
      <trkpt lat="46.29424" lon="5.99625">
        <ele>1061.5999755859</ele>
        <time>2020-08-13T16:30:10.000Z</time>
      </trkpt>
      <trkpt lat="46.29434" lon="5.99633">
        <ele>1062.4000244141</ele>
        <time>2020-08-13T16:30:16.000Z</time>
      </trkpt>
      <trkpt lat="46.29442" lon="5.99641">
        <ele>1063.4000244141</ele>
        <time>2020-08-13T16:30:20.000Z</time>
      </trkpt>
      <trkpt lat="46.29446" lon="5.99645">
        <ele>1063.8000488281</ele>
        <time>2020-08-13T16:30:22.000Z</time>
      </trkpt>
      <trkpt lat="46.2946" lon="5.99655">
        <ele>1064.4000244141</ele>
        <time>2020-08-13T16:30:27.000Z</time>
      </trkpt>
      <trkpt lat="46.29462" lon="5.99656">
        <ele>1064.8000488281</ele>
        <time>2020-08-13T16:30:28.000Z</time>
      </trkpt>
      <trkpt lat="46.29473" lon="5.99663">
        <ele>1065.5999755859</ele>
        <time>2020-08-13T16:30:33.000Z</time>
      </trkpt>
      <trkpt lat="46.29478" lon="5.99666">
        <ele>1066.1999511719</ele>
        <time>2020-08-13T16:30:35.000Z</time>
      </trkpt>
      <trkpt lat="46.29483" lon="5.99669">
        <ele>1066.5999755859</ele>
        <time>2020-08-13T16:30:37.000Z</time>
      </trkpt>
      <trkpt lat="46.29495" lon="5.99677">
        <ele>1067.8000488281</ele>
        <time>2020-08-13T16:30:42.000Z</time>
      </trkpt>
      <trkpt lat="46.2951" lon="5.99689">
        <ele>1068.5999755859</ele>
        <time>2020-08-13T16:30:49.000Z</time>
      </trkpt>
      <trkpt lat="46.29515" lon="5.99695">
        <ele>1068.8000488281</ele>
        <time>2020-08-13T16:30:52.000Z</time>
      </trkpt>
      <trkpt lat="46.29523" lon="5.99702">
        <ele>1070</ele>
        <time>2020-08-13T16:30:56.000Z</time>
      </trkpt>
      <trkpt lat="46.29525" lon="5.99703">
        <ele>1070.4000244141</ele>
        <time>2020-08-13T16:30:57.000Z</time>
      </trkpt>
      <trkpt lat="46.29532" lon="5.9971">
        <ele>1071</ele>
        <time>2020-08-13T16:31:02.000Z</time>
      </trkpt>
      <trkpt lat="46.29534" lon="5.99711">
        <ele>1071</ele>
        <time>2020-08-13T16:31:03.000Z</time>
      </trkpt>
      <trkpt lat="46.29545" lon="5.99716">
        <ele>1072.1999511719</ele>
        <time>2020-08-13T16:31:08.000Z</time>
      </trkpt>
      <trkpt lat="46.29549" lon="5.9972">
        <ele>1072.8000488281</ele>
        <time>2020-08-13T16:31:11.000Z</time>
      </trkpt>
      <trkpt lat="46.29556" lon="5.99727">
        <ele>1073.1999511719</ele>
        <time>2020-08-13T16:31:16.000Z</time>
      </trkpt>
      <trkpt lat="46.29564" lon="5.99734">
        <ele>1074.4000244141</ele>
        <time>2020-08-13T16:31:20.000Z</time>
      </trkpt>
      <trkpt lat="46.29581" lon="5.99743">
        <ele>1075.1999511719</ele>
        <time>2020-08-13T16:31:27.000Z</time>
      </trkpt>
      <trkpt lat="46.29587" lon="5.99745">
        <ele>1075.4000244141</ele>
        <time>2020-08-13T16:31:29.000Z</time>
      </trkpt>
      <trkpt lat="46.29597" lon="5.99747">
        <ele>1076.4000244141</ele>
        <time>2020-08-13T16:31:33.000Z</time>
      </trkpt>
      <trkpt lat="46.29599" lon="5.99747">
        <ele>1076.5999755859</ele>
        <time>2020-08-13T16:31:34.000Z</time>
      </trkpt>
      <trkpt lat="46.29611" lon="5.9975">
        <ele>1077.1999511719</ele>
        <time>2020-08-13T16:31:40.000Z</time>
      </trkpt>
      <trkpt lat="46.29618" lon="5.99755">
        <ele>1078</ele>
        <time>2020-08-13T16:31:44.000Z</time>
      </trkpt>
      <trkpt lat="46.29622" lon="5.99757">
        <ele>1078.8000488281</ele>
        <time>2020-08-13T16:31:47.000Z</time>
      </trkpt>
      <trkpt lat="46.29628" lon="5.9976">
        <ele>1079</ele>
        <time>2020-08-13T16:31:50.000Z</time>
      </trkpt>
      <trkpt lat="46.29631" lon="5.99761">
        <ele>1079.5999755859</ele>
        <time>2020-08-13T16:31:53.000Z</time>
      </trkpt>
      <trkpt lat="46.29641" lon="5.99761">
        <ele>1080.4000244141</ele>
        <time>2020-08-13T16:31:59.000Z</time>
      </trkpt>
      <trkpt lat="46.29648" lon="5.99762">
        <ele>1081.1999511719</ele>
        <time>2020-08-13T16:32:02.000Z</time>
      </trkpt>
      <trkpt lat="46.29652" lon="5.9976">
        <ele>1081.4000244141</ele>
        <time>2020-08-13T16:32:04.000Z</time>
      </trkpt>
      <trkpt lat="46.29666" lon="5.99759">
        <ele>1081.4000244141</ele>
        <time>2020-08-13T16:32:11.000Z</time>
      </trkpt>
      <trkpt lat="46.29676" lon="5.99758">
        <ele>1082.4000244141</ele>
        <time>2020-08-13T16:32:16.000Z</time>
      </trkpt>
      <trkpt lat="46.2969" lon="5.99758">
        <ele>1083.4000244141</ele>
        <time>2020-08-13T16:32:21.000Z</time>
      </trkpt>
      <trkpt lat="46.29708" lon="5.99758">
        <ele>1084.5999755859</ele>
        <time>2020-08-13T16:32:29.000Z</time>
      </trkpt>
      <trkpt lat="46.29725" lon="5.9975">
        <ele>1085.1999511719</ele>
        <time>2020-08-13T16:32:36.000Z</time>
      </trkpt>
      <trkpt lat="46.29741" lon="5.99743">
        <ele>1085.5999755859</ele>
        <time>2020-08-13T16:32:42.000Z</time>
      </trkpt>
      <trkpt lat="46.29743" lon="5.99742">
        <ele>1085.8000488281</ele>
        <time>2020-08-13T16:32:43.000Z</time>
      </trkpt>
      <trkpt lat="46.2975" lon="5.99733">
        <ele>1087</ele>
        <time>2020-08-13T16:32:47.000Z</time>
      </trkpt>
      <trkpt lat="46.29756" lon="5.99732">
        <ele>1087.5999755859</ele>
        <time>2020-08-13T16:32:49.000Z</time>
      </trkpt>
      <trkpt lat="46.29762" lon="5.99732">
        <ele>1088</ele>
        <time>2020-08-13T16:32:51.000Z</time>
      </trkpt>
      <trkpt lat="46.29779" lon="5.9973">
        <ele>1089.1999511719</ele>
        <time>2020-08-13T16:32:58.000Z</time>
      </trkpt>
      <trkpt lat="46.29797" lon="5.99744">
        <ele>1090.1999511719</ele>
        <time>2020-08-13T16:33:05.000Z</time>
      </trkpt>
      <trkpt lat="46.2981" lon="5.99753">
        <ele>1091.1999511719</ele>
        <time>2020-08-13T16:33:10.000Z</time>
      </trkpt>
      <trkpt lat="46.29818" lon="5.99761">
        <ele>1092</ele>
        <time>2020-08-13T16:33:14.000Z</time>
      </trkpt>
      <trkpt lat="46.29823" lon="5.99764">
        <ele>1092.4000244141</ele>
        <time>2020-08-13T16:33:16.000Z</time>
      </trkpt>
      <trkpt lat="46.29833" lon="5.9977">
        <ele>1093</ele>
        <time>2020-08-13T16:33:21.000Z</time>
      </trkpt>
      <trkpt lat="46.2984" lon="5.99772">
        <ele>1093.4000244141</ele>
        <time>2020-08-13T16:33:24.000Z</time>
      </trkpt>
      <trkpt lat="46.29852" lon="5.99774">
        <ele>1094.5999755859</ele>
        <time>2020-08-13T16:33:30.000Z</time>
      </trkpt>
      <trkpt lat="46.29854" lon="5.99774">
        <ele>1094.8000488281</ele>
        <time>2020-08-13T16:33:31.000Z</time>
      </trkpt>
      <trkpt lat="46.29863" lon="5.9977">
        <ele>1095.8000488281</ele>
        <time>2020-08-13T16:33:36.000Z</time>
      </trkpt>
      <trkpt lat="46.29867" lon="5.99768">
        <ele>1096</ele>
        <time>2020-08-13T16:33:38.000Z</time>
      </trkpt>
      <trkpt lat="46.29873" lon="5.99766">
        <ele>1096.8000488281</ele>
        <time>2020-08-13T16:33:42.000Z</time>
      </trkpt>
      <trkpt lat="46.2988" lon="5.99766">
        <ele>1097.5999755859</ele>
        <time>2020-08-13T16:33:45.000Z</time>
      </trkpt>
      <trkpt lat="46.29884" lon="5.99767">
        <ele>1097.8000488281</ele>
        <time>2020-08-13T16:33:47.000Z</time>
      </trkpt>
      <trkpt lat="46.29891" lon="5.99772">
        <ele>1098.8000488281</ele>
        <time>2020-08-13T16:33:52.000Z</time>
      </trkpt>
      <trkpt lat="46.29892" lon="5.99773">
        <ele>1099</ele>
        <time>2020-08-13T16:33:53.000Z</time>
      </trkpt>
      <trkpt lat="46.29901" lon="5.99777">
        <ele>1099.8000488281</ele>
        <time>2020-08-13T16:33:59.000Z</time>
      </trkpt>
      <trkpt lat="46.29903" lon="5.99778">
        <ele>1100</ele>
        <time>2020-08-13T16:34:00.000Z</time>
      </trkpt>
      <trkpt lat="46.29913" lon="5.99782">
        <ele>1101</ele>
        <time>2020-08-13T16:34:05.000Z</time>
      </trkpt>
      <trkpt lat="46.2992" lon="5.99786">
        <ele>1101.4000244141</ele>
        <time>2020-08-13T16:34:08.000Z</time>
      </trkpt>
      <trkpt lat="46.29928" lon="5.99794">
        <ele>1102.1999511719</ele>
        <time>2020-08-13T16:34:12.000Z</time>
      </trkpt>
      <trkpt lat="46.29942" lon="5.99801">
        <ele>1103</ele>
        <time>2020-08-13T16:34:18.000Z</time>
      </trkpt>
      <trkpt lat="46.29944" lon="5.99802">
        <ele>1103.1999511719</ele>
        <time>2020-08-13T16:34:19.000Z</time>
      </trkpt>
      <trkpt lat="46.29952" lon="5.99805">
        <ele>1104.4000244141</ele>
        <time>2020-08-13T16:34:23.000Z</time>
      </trkpt>
      <trkpt lat="46.29957" lon="5.99808">
        <ele>1105</ele>
        <time>2020-08-13T16:34:26.000Z</time>
      </trkpt>
      <trkpt lat="46.29964" lon="5.99812">
        <ele>1105.4000244141</ele>
        <time>2020-08-13T16:34:29.000Z</time>
      </trkpt>
      <trkpt lat="46.2997" lon="5.99814">
        <ele>1105.8000488281</ele>
        <time>2020-08-13T16:34:32.000Z</time>
      </trkpt>
      <trkpt lat="46.29975" lon="5.99816">
        <ele>1106</ele>
        <time>2020-08-13T16:34:34.000Z</time>
      </trkpt>
      <trkpt lat="46.29978" lon="5.99818">
        <ele>1106.8000488281</ele>
        <time>2020-08-13T16:34:37.000Z</time>
      </trkpt>
      <trkpt lat="46.29987" lon="5.99819">
        <ele>1107.4000244141</ele>
        <time>2020-08-13T16:34:41.000Z</time>
      </trkpt>
      <trkpt lat="46.29996" lon="5.9982">
        <ele>1107.8000488281</ele>
        <time>2020-08-13T16:34:44.000Z</time>
      </trkpt>
      <trkpt lat="46.30003" lon="5.99819">
        <ele>1108.5999755859</ele>
        <time>2020-08-13T16:34:48.000Z</time>
      </trkpt>
      <trkpt lat="46.30005" lon="5.99818">
        <ele>1108.8000488281</ele>
        <time>2020-08-13T16:34:50.000Z</time>
      </trkpt>
      <trkpt lat="46.30016" lon="5.99815">
        <ele>1109.5999755859</ele>
        <time>2020-08-13T16:34:56.000Z</time>
      </trkpt>
      <trkpt lat="46.30026" lon="5.99817">
        <ele>1110</ele>
        <time>2020-08-13T16:35:00.000Z</time>
      </trkpt>
      <trkpt lat="46.30037" lon="5.99819">
        <ele>1110.8000488281</ele>
        <time>2020-08-13T16:35:04.000Z</time>
      </trkpt>
      <trkpt lat="46.30043" lon="5.99821">
        <ele>1111.1999511719</ele>
        <time>2020-08-13T16:35:06.000Z</time>
      </trkpt>
      <trkpt lat="46.30057" lon="5.99824">
        <ele>1112.4000244141</ele>
        <time>2020-08-13T16:35:12.000Z</time>
      </trkpt>
      <trkpt lat="46.30071" lon="5.99828">
        <ele>1113.1999511719</ele>
        <time>2020-08-13T16:35:18.000Z</time>
      </trkpt>
      <trkpt lat="46.30078" lon="5.99829">
        <ele>1113.4000244141</ele>
        <time>2020-08-13T16:35:21.000Z</time>
      </trkpt>
      <trkpt lat="46.30084" lon="5.99829">
        <ele>1114.4000244141</ele>
        <time>2020-08-13T16:35:25.000Z</time>
      </trkpt>
      <trkpt lat="46.30101" lon="5.99825">
        <ele>1115.8000488281</ele>
        <time>2020-08-13T16:35:32.000Z</time>
      </trkpt>
      <trkpt lat="46.30118" lon="5.99817">
        <ele>1116.4000244141</ele>
        <time>2020-08-13T16:35:40.000Z</time>
      </trkpt>
      <trkpt lat="46.30121" lon="5.99817">
        <ele>1116.8000488281</ele>
        <time>2020-08-13T16:35:41.000Z</time>
      </trkpt>
      <trkpt lat="46.30132" lon="5.99814">
        <ele>1118</ele>
        <time>2020-08-13T16:35:46.000Z</time>
      </trkpt>
      <trkpt lat="46.30137" lon="5.99814">
        <ele>1118.4000244141</ele>
        <time>2020-08-13T16:35:49.000Z</time>
      </trkpt>
      <trkpt lat="46.30146" lon="5.99819">
        <ele>1119.1999511719</ele>
        <time>2020-08-13T16:35:53.000Z</time>
      </trkpt>
      <trkpt lat="46.30152" lon="5.99821">
        <ele>1120</ele>
        <time>2020-08-13T16:35:56.000Z</time>
      </trkpt>
      <trkpt lat="46.30154" lon="5.99823">
        <ele>1120.1999511719</ele>
        <time>2020-08-13T16:35:57.000Z</time>
      </trkpt>
      <trkpt lat="46.30166" lon="5.9983">
        <ele>1121.4000244141</ele>
        <time>2020-08-13T16:36:03.000Z</time>
      </trkpt>
      <trkpt lat="46.30172" lon="5.99831">
        <ele>1122</ele>
        <time>2020-08-13T16:36:07.000Z</time>
      </trkpt>
      <trkpt lat="46.30178" lon="5.99831">
        <ele>1122.5999755859</ele>
        <time>2020-08-13T16:36:11.000Z</time>
      </trkpt>
      <trkpt lat="46.3018" lon="5.99831">
        <ele>1123</ele>
        <time>2020-08-13T16:36:13.000Z</time>
      </trkpt>
      <trkpt lat="46.30183" lon="5.99831">
        <ele>1123</ele>
        <time>2020-08-13T16:36:14.000Z</time>
      </trkpt>
      <trkpt lat="46.30185" lon="5.9983">
        <ele>1123</ele>
        <time>2020-08-13T16:36:15.000Z</time>
      </trkpt>
      <trkpt lat="46.30186" lon="5.9983">
        <ele>1123.1999511719</ele>
        <time>2020-08-13T16:36:16.000Z</time>
      </trkpt>
      <trkpt lat="46.3019" lon="5.99831">
        <ele>1123.8000488281</ele>
        <time>2020-08-13T16:36:18.000Z</time>
      </trkpt>
      <trkpt lat="46.30192" lon="5.99831">
        <ele>1124</ele>
        <time>2020-08-13T16:36:19.000Z</time>
      </trkpt>
      <trkpt lat="46.30207" lon="5.99833">
        <ele>1124.5999755859</ele>
        <time>2020-08-13T16:36:26.000Z</time>
      </trkpt>
      <trkpt lat="46.30208" lon="5.99834">
        <ele>1124.8000488281</ele>
        <time>2020-08-13T16:36:27.000Z</time>
      </trkpt>
      <trkpt lat="46.30219" lon="5.99839">
        <ele>1125.8000488281</ele>
        <time>2020-08-13T16:36:33.000Z</time>
      </trkpt>
      <trkpt lat="46.30222" lon="5.99841">
        <ele>1126</ele>
        <time>2020-08-13T16:36:35.000Z</time>
      </trkpt>
      <trkpt lat="46.30233" lon="5.99847">
        <ele>1127.1999511719</ele>
        <time>2020-08-13T16:36:39.000Z</time>
      </trkpt>
      <trkpt lat="46.30236" lon="5.99849">
        <ele>1127.5999755859</ele>
        <time>2020-08-13T16:36:40.000Z</time>
      </trkpt>
      <trkpt lat="46.30246" lon="5.99852">
        <ele>1128.5999755859</ele>
        <time>2020-08-13T16:36:46.000Z</time>
      </trkpt>
      <trkpt lat="46.30259" lon="5.99857">
        <ele>1129.1999511719</ele>
        <time>2020-08-13T16:36:52.000Z</time>
      </trkpt>
      <trkpt lat="46.30267" lon="5.99857">
        <ele>1129.5999755859</ele>
        <time>2020-08-13T16:36:55.000Z</time>
      </trkpt>
      <trkpt lat="46.30279" lon="5.99858">
        <ele>1130.4000244141</ele>
        <time>2020-08-13T16:36:59.000Z</time>
      </trkpt>
      <trkpt lat="46.30282" lon="5.99858">
        <ele>1130.8000488281</ele>
        <time>2020-08-13T16:37:00.000Z</time>
      </trkpt>
      <trkpt lat="46.30297" lon="5.9986">
        <ele>1131.8000488281</ele>
        <time>2020-08-13T16:37:05.000Z</time>
      </trkpt>
      <trkpt lat="46.30305" lon="5.9986">
        <ele>1132.4000244141</ele>
        <time>2020-08-13T16:37:08.000Z</time>
      </trkpt>
      <trkpt lat="46.30316" lon="5.99861">
        <ele>1132.8000488281</ele>
        <time>2020-08-13T16:37:12.000Z</time>
      </trkpt>
      <trkpt lat="46.30327" lon="5.99862">
        <ele>1133.4000244141</ele>
        <time>2020-08-13T16:37:17.000Z</time>
      </trkpt>
      <trkpt lat="46.30331" lon="5.99864">
        <ele>1134</ele>
        <time>2020-08-13T16:37:19.000Z</time>
      </trkpt>
      <trkpt lat="46.30339" lon="5.99868">
        <ele>1135</ele>
        <time>2020-08-13T16:37:23.000Z</time>
      </trkpt>
      <trkpt lat="46.30344" lon="5.99869">
        <ele>1135.4000244141</ele>
        <time>2020-08-13T16:37:25.000Z</time>
      </trkpt>
      <trkpt lat="46.30353" lon="5.99875">
        <ele>1136</ele>
        <time>2020-08-13T16:37:30.000Z</time>
      </trkpt>
      <trkpt lat="46.30355" lon="5.99876">
        <ele>1136.1999511719</ele>
        <time>2020-08-13T16:37:31.000Z</time>
      </trkpt>
      <trkpt lat="46.30367" lon="5.99876">
        <ele>1137.1999511719</ele>
        <time>2020-08-13T16:37:37.000Z</time>
      </trkpt>
      <trkpt lat="46.30369" lon="5.99876">
        <ele>1137.1999511719</ele>
        <time>2020-08-13T16:37:38.000Z</time>
      </trkpt>
      <trkpt lat="46.30385" lon="5.99876">
        <ele>1138.1999511719</ele>
        <time>2020-08-13T16:37:45.000Z</time>
      </trkpt>
      <trkpt lat="46.30388" lon="5.99876">
        <ele>1138.4000244141</ele>
        <time>2020-08-13T16:37:46.000Z</time>
      </trkpt>
      <trkpt lat="46.30401" lon="5.99874">
        <ele>1139.4000244141</ele>
        <time>2020-08-13T16:37:52.000Z</time>
      </trkpt>
      <trkpt lat="46.30404" lon="5.99872">
        <ele>1140</ele>
        <time>2020-08-13T16:37:54.000Z</time>
      </trkpt>
      <trkpt lat="46.30412" lon="5.99868">
        <ele>1140.4000244141</ele>
        <time>2020-08-13T16:37:58.000Z</time>
      </trkpt>
      <trkpt lat="46.30416" lon="5.99862">
        <ele>1141</ele>
        <time>2020-08-13T16:38:01.000Z</time>
      </trkpt>
      <trkpt lat="46.30429" lon="5.99855">
        <ele>1141.1999511719</ele>
        <time>2020-08-13T16:38:07.000Z</time>
      </trkpt>
      <trkpt lat="46.30432" lon="5.99853">
        <ele>1141.8000488281</ele>
        <time>2020-08-13T16:38:09.000Z</time>
      </trkpt>
      <trkpt lat="46.30439" lon="5.99852">
        <ele>1142.5999755859</ele>
        <time>2020-08-13T16:38:13.000Z</time>
      </trkpt>
      <trkpt lat="46.30441" lon="5.99852">
        <ele>1142.8000488281</ele>
        <time>2020-08-13T16:38:14.000Z</time>
      </trkpt>
      <trkpt lat="46.30453" lon="5.99856">
        <ele>1143.8000488281</ele>
        <time>2020-08-13T16:38:20.000Z</time>
      </trkpt>
      <trkpt lat="46.30455" lon="5.99857">
        <ele>1143.8000488281</ele>
        <time>2020-08-13T16:38:21.000Z</time>
      </trkpt>
      <trkpt lat="46.30467" lon="5.99861">
        <ele>1144.8000488281</ele>
        <time>2020-08-13T16:38:27.000Z</time>
      </trkpt>
      <trkpt lat="46.30473" lon="5.99862">
        <ele>1145.1999511719</ele>
        <time>2020-08-13T16:38:29.000Z</time>
      </trkpt>
      <trkpt lat="46.30481" lon="5.99861">
        <ele>1145.8000488281</ele>
        <time>2020-08-13T16:38:32.000Z</time>
      </trkpt>
      <trkpt lat="46.30493" lon="5.9986">
        <ele>1146.8000488281</ele>
        <time>2020-08-13T16:38:37.000Z</time>
      </trkpt>
      <trkpt lat="46.30504" lon="5.99865">
        <ele>1147.4000244141</ele>
        <time>2020-08-13T16:38:43.000Z</time>
      </trkpt>
      <trkpt lat="46.30509" lon="5.99867">
        <ele>1148</ele>
        <time>2020-08-13T16:38:46.000Z</time>
      </trkpt>
      <trkpt lat="46.30517" lon="5.99874">
        <ele>1148.5999755859</ele>
        <time>2020-08-13T16:38:51.000Z</time>
      </trkpt>
      <trkpt lat="46.30522" lon="5.99878">
        <ele>1149</ele>
        <time>2020-08-13T16:38:54.000Z</time>
      </trkpt>
      <trkpt lat="46.30525" lon="5.99891">
        <ele>1149.4000244141</ele>
        <time>2020-08-13T16:38:58.000Z</time>
      </trkpt>
      <trkpt lat="46.30529" lon="5.99894">
        <ele>1150.1999511719</ele>
        <time>2020-08-13T16:39:00.000Z</time>
      </trkpt>
      <trkpt lat="46.30537" lon="5.99902">
        <ele>1151.1999511719</ele>
        <time>2020-08-13T16:39:04.000Z</time>
      </trkpt>
      <trkpt lat="46.3054" lon="5.99905">
        <ele>1151.4000244141</ele>
        <time>2020-08-13T16:39:06.000Z</time>
      </trkpt>
      <trkpt lat="46.30554" lon="5.99915">
        <ele>1152.1999511719</ele>
        <time>2020-08-13T16:39:13.000Z</time>
      </trkpt>
      <trkpt lat="46.30555" lon="5.99917">
        <ele>1152.5999755859</ele>
        <time>2020-08-13T16:39:14.000Z</time>
      </trkpt>
      <trkpt lat="46.30566" lon="5.99925">
        <ele>1153.4000244141</ele>
        <time>2020-08-13T16:39:20.000Z</time>
      </trkpt>
      <trkpt lat="46.3057" lon="5.99927">
        <ele>1153.8000488281</ele>
        <time>2020-08-13T16:39:22.000Z</time>
      </trkpt>
      <trkpt lat="46.30582" lon="5.9993">
        <ele>1154.4000244141</ele>
        <time>2020-08-13T16:39:28.000Z</time>
      </trkpt>
      <trkpt lat="46.30584" lon="5.99931">
        <ele>1154.5999755859</ele>
        <time>2020-08-13T16:39:29.000Z</time>
      </trkpt>
      <trkpt lat="46.30594" lon="5.9994">
        <ele>1155.8000488281</ele>
        <time>2020-08-13T16:39:35.000Z</time>
      </trkpt>
      <trkpt lat="46.30607" lon="5.99952">
        <ele>1156.8000488281</ele>
        <time>2020-08-13T16:39:43.000Z</time>
      </trkpt>
      <trkpt lat="46.3062" lon="5.99962">
        <ele>1157.5999755859</ele>
        <time>2020-08-13T16:39:49.000Z</time>
      </trkpt>
      <trkpt lat="46.30621" lon="5.99963">
        <ele>1158</ele>
        <time>2020-08-13T16:39:50.000Z</time>
      </trkpt>
      <trkpt lat="46.30633" lon="5.99978">
        <ele>1158.8000488281</ele>
        <time>2020-08-13T16:39:57.000Z</time>
      </trkpt>
      <trkpt lat="46.30641" lon="5.99987">
        <ele>1159</ele>
        <time>2020-08-13T16:40:01.000Z</time>
      </trkpt>
      <trkpt lat="46.30649" lon="5.99992">
        <ele>1160.1999511719</ele>
        <time>2020-08-13T16:40:05.000Z</time>
      </trkpt>
      <trkpt lat="46.30656" lon="5.99992">
        <ele>1161.4000244141</ele>
        <time>2020-08-13T16:40:10.000Z</time>
      </trkpt>
      <trkpt lat="46.30658" lon="5.99991">
        <ele>1161.8000488281</ele>
        <time>2020-08-13T16:40:11.000Z</time>
      </trkpt>
      <trkpt lat="46.30666" lon="5.99983">
        <ele>1162.5999755859</ele>
        <time>2020-08-13T16:40:15.000Z</time>
      </trkpt>
      <trkpt lat="46.3067" lon="5.99975">
        <ele>1163</ele>
        <time>2020-08-13T16:40:18.000Z</time>
      </trkpt>
      <trkpt lat="46.30671" lon="5.99966">
        <ele>1163.5999755859</ele>
        <time>2020-08-13T16:40:21.000Z</time>
      </trkpt>
      <trkpt lat="46.3067" lon="5.99958">
        <ele>1163.8000488281</ele>
        <time>2020-08-13T16:40:24.000Z</time>
      </trkpt>
      <trkpt lat="46.30665" lon="5.99946">
        <ele>1164.8000488281</ele>
        <time>2020-08-13T16:40:30.000Z</time>
      </trkpt>
      <trkpt lat="46.30662" lon="5.99942">
        <ele>1165</ele>
        <time>2020-08-13T16:40:32.000Z</time>
      </trkpt>
      <trkpt lat="46.30651" lon="5.99933">
        <ele>1166</ele>
        <time>2020-08-13T16:40:38.000Z</time>
      </trkpt>
      <trkpt lat="46.30637" lon="5.99924">
        <ele>1167</ele>
        <time>2020-08-13T16:40:46.000Z</time>
      </trkpt>
      <trkpt lat="46.30632" lon="5.99919">
        <ele>1168</ele>
        <time>2020-08-13T16:40:49.000Z</time>
      </trkpt>
      <trkpt lat="46.30625" lon="5.99912">
        <ele>1168.5999755859</ele>
        <time>2020-08-13T16:40:53.000Z</time>
      </trkpt>
      <trkpt lat="46.30618" lon="5.99906">
        <ele>1169.1999511719</ele>
        <time>2020-08-13T16:40:57.000Z</time>
      </trkpt>
      <trkpt lat="46.3061" lon="5.99898">
        <ele>1170</ele>
        <time>2020-08-13T16:41:02.000Z</time>
      </trkpt>
      <trkpt lat="46.30605" lon="5.99892">
        <ele>1170.1999511719</ele>
        <time>2020-08-13T16:41:05.000Z</time>
      </trkpt>
      <trkpt lat="46.306" lon="5.99885">
        <ele>1171.1999511719</ele>
        <time>2020-08-13T16:41:10.000Z</time>
      </trkpt>
      <trkpt lat="46.30589" lon="5.9987">
        <ele>1172.4000244141</ele>
        <time>2020-08-13T16:41:17.000Z</time>
      </trkpt>
      <trkpt lat="46.30587" lon="5.99868">
        <ele>1172.8000488281</ele>
        <time>2020-08-13T16:41:18.000Z</time>
      </trkpt>
      <trkpt lat="46.30578" lon="5.99853">
        <ele>1173.4000244141</ele>
        <time>2020-08-13T16:41:24.000Z</time>
      </trkpt>
      <trkpt lat="46.30577" lon="5.9985">
        <ele>1173.4000244141</ele>
        <time>2020-08-13T16:41:25.000Z</time>
      </trkpt>
      <trkpt lat="46.30576" lon="5.99847">
        <ele>1173.5999755859</ele>
        <time>2020-08-13T16:41:26.000Z</time>
      </trkpt>
      <trkpt lat="46.30569" lon="5.99834">
        <ele>1174.8000488281</ele>
        <time>2020-08-13T16:41:31.000Z</time>
      </trkpt>
      <trkpt lat="46.30568" lon="5.99832">
        <ele>1175</ele>
        <time>2020-08-13T16:41:32.000Z</time>
      </trkpt>
      <trkpt lat="46.30554" lon="5.99816">
        <ele>1176</ele>
        <time>2020-08-13T16:41:40.000Z</time>
      </trkpt>
      <trkpt lat="46.30542" lon="5.99806">
        <ele>1177</ele>
        <time>2020-08-13T16:41:46.000Z</time>
      </trkpt>
      <trkpt lat="46.3054" lon="5.99804">
        <ele>1177.1999511719</ele>
        <time>2020-08-13T16:41:47.000Z</time>
      </trkpt>
      <trkpt lat="46.30533" lon="5.99797">
        <ele>1178.1999511719</ele>
        <time>2020-08-13T16:41:51.000Z</time>
      </trkpt>
      <trkpt lat="46.30528" lon="5.99791">
        <ele>1178.8000488281</ele>
        <time>2020-08-13T16:41:54.000Z</time>
      </trkpt>
      <trkpt lat="46.30519" lon="5.99781">
        <ele>1179.1999511719</ele>
        <time>2020-08-13T16:41:59.000Z</time>
      </trkpt>
      <trkpt lat="46.30516" lon="5.99777">
        <ele>1179.4000244141</ele>
        <time>2020-08-13T16:42:01.000Z</time>
      </trkpt>
      <trkpt lat="46.30504" lon="5.99768">
        <ele>1180</ele>
        <time>2020-08-13T16:42:08.000Z</time>
      </trkpt>
      <trkpt lat="46.30499" lon="5.99766">
        <ele>1180.1999511719</ele>
        <time>2020-08-13T16:42:10.000Z</time>
      </trkpt>
      <trkpt lat="46.30486" lon="5.99762">
        <ele>1181.1999511719</ele>
        <time>2020-08-13T16:42:15.000Z</time>
      </trkpt>
      <trkpt lat="46.30483" lon="5.99761">
        <ele>1181.4000244141</ele>
        <time>2020-08-13T16:42:16.000Z</time>
      </trkpt>
      <trkpt lat="46.30468" lon="5.99758">
        <ele>1182.4000244141</ele>
        <time>2020-08-13T16:42:22.000Z</time>
      </trkpt>
      <trkpt lat="46.30466" lon="5.99756">
        <ele>1182.5999755859</ele>
        <time>2020-08-13T16:42:23.000Z</time>
      </trkpt>
      <trkpt lat="46.30451" lon="5.99742">
        <ele>1183.4000244141</ele>
        <time>2020-08-13T16:42:31.000Z</time>
      </trkpt>
      <trkpt lat="46.3045" lon="5.9974">
        <ele>1183.4000244141</ele>
        <time>2020-08-13T16:42:32.000Z</time>
      </trkpt>
      <trkpt lat="46.30438" lon="5.99726">
        <ele>1184.4000244141</ele>
        <time>2020-08-13T16:42:39.000Z</time>
      </trkpt>
      <trkpt lat="46.30436" lon="5.99725">
        <ele>1184.5999755859</ele>
        <time>2020-08-13T16:42:40.000Z</time>
      </trkpt>
      <trkpt lat="46.30426" lon="5.99717">
        <ele>1185.5999755859</ele>
        <time>2020-08-13T16:42:45.000Z</time>
      </trkpt>
      <trkpt lat="46.3042" lon="5.99712">
        <ele>1186</ele>
        <time>2020-08-13T16:42:48.000Z</time>
      </trkpt>
      <trkpt lat="46.30413" lon="5.99706">
        <ele>1186.8000488281</ele>
        <time>2020-08-13T16:42:52.000Z</time>
      </trkpt>
      <trkpt lat="46.30405" lon="5.997">
        <ele>1188</ele>
        <time>2020-08-13T16:42:56.000Z</time>
      </trkpt>
      <trkpt lat="46.30392" lon="5.99692">
        <ele>1189</ele>
        <time>2020-08-13T16:43:02.000Z</time>
      </trkpt>
      <trkpt lat="46.30388" lon="5.99689">
        <ele>1189.1999511719</ele>
        <time>2020-08-13T16:43:04.000Z</time>
      </trkpt>
      <trkpt lat="46.30381" lon="5.99682">
        <ele>1190</ele>
        <time>2020-08-13T16:43:08.000Z</time>
      </trkpt>
      <trkpt lat="46.30375" lon="5.99677">
        <ele>1190.8000488281</ele>
        <time>2020-08-13T16:43:11.000Z</time>
      </trkpt>
      <trkpt lat="46.30371" lon="5.99675">
        <ele>1191.1999511719</ele>
        <time>2020-08-13T16:43:13.000Z</time>
      </trkpt>
      <trkpt lat="46.3036" lon="5.99661">
        <ele>1191.5999755859</ele>
        <time>2020-08-13T16:43:20.000Z</time>
      </trkpt>
      <trkpt lat="46.30357" lon="5.99657">
        <ele>1192.4000244141</ele>
        <time>2020-08-13T16:43:22.000Z</time>
      </trkpt>
      <trkpt lat="46.30348" lon="5.99649">
        <ele>1193.4000244141</ele>
        <time>2020-08-13T16:43:27.000Z</time>
      </trkpt>
      <trkpt lat="46.30338" lon="5.99644">
        <ele>1194.5999755859</ele>
        <time>2020-08-13T16:43:31.000Z</time>
      </trkpt>
      <trkpt lat="46.30334" lon="5.99641">
        <ele>1194.8000488281</ele>
        <time>2020-08-13T16:43:33.000Z</time>
      </trkpt>
      <trkpt lat="46.30319" lon="5.99635">
        <ele>1195.5999755859</ele>
        <time>2020-08-13T16:43:40.000Z</time>
      </trkpt>
      <trkpt lat="46.30317" lon="5.99634">
        <ele>1195.8000488281</ele>
        <time>2020-08-13T16:43:41.000Z</time>
      </trkpt>
      <trkpt lat="46.30304" lon="5.99628">
        <ele>1197</ele>
        <time>2020-08-13T16:43:46.000Z</time>
      </trkpt>
      <trkpt lat="46.30301" lon="5.99627">
        <ele>1197.1999511719</ele>
        <time>2020-08-13T16:43:47.000Z</time>
      </trkpt>
      <trkpt lat="46.30292" lon="5.99621">
        <ele>1198.1999511719</ele>
        <time>2020-08-13T16:43:51.000Z</time>
      </trkpt>
      <trkpt lat="46.30287" lon="5.99616">
        <ele>1198.5999755859</ele>
        <time>2020-08-13T16:43:54.000Z</time>
      </trkpt>
      <trkpt lat="46.30279" lon="5.99607">
        <ele>1199.1999511719</ele>
        <time>2020-08-13T16:43:58.000Z</time>
      </trkpt>
      <trkpt lat="46.30269" lon="5.99598">
        <ele>1200</ele>
        <time>2020-08-13T16:44:03.000Z</time>
      </trkpt>
      <trkpt lat="46.30267" lon="5.99596">
        <ele>1200.1999511719</ele>
        <time>2020-08-13T16:44:04.000Z</time>
      </trkpt>
      <trkpt lat="46.30256" lon="5.99586">
        <ele>1201.1999511719</ele>
        <time>2020-08-13T16:44:10.000Z</time>
      </trkpt>
      <trkpt lat="46.30254" lon="5.99585">
        <ele>1201.1999511719</ele>
        <time>2020-08-13T16:44:11.000Z</time>
      </trkpt>
      <trkpt lat="46.30243" lon="5.99575">
        <ele>1202.4000244141</ele>
        <time>2020-08-13T16:44:17.000Z</time>
      </trkpt>
      <trkpt lat="46.30227" lon="5.99565">
        <ele>1203.4000244141</ele>
        <time>2020-08-13T16:44:25.000Z</time>
      </trkpt>
      <trkpt lat="46.30216" lon="5.9956">
        <ele>1204.5999755859</ele>
        <time>2020-08-13T16:44:30.000Z</time>
      </trkpt>
      <trkpt lat="46.30213" lon="5.99557">
        <ele>1205</ele>
        <time>2020-08-13T16:44:32.000Z</time>
      </trkpt>
      <trkpt lat="46.30205" lon="5.99552">
        <ele>1205.8000488281</ele>
        <time>2020-08-13T16:44:36.000Z</time>
      </trkpt>
      <trkpt lat="46.30196" lon="5.99547">
        <ele>1206.4000244141</ele>
        <time>2020-08-13T16:44:40.000Z</time>
      </trkpt>
      <trkpt lat="46.30188" lon="5.99541">
        <ele>1206.8000488281</ele>
        <time>2020-08-13T16:44:44.000Z</time>
      </trkpt>
      <trkpt lat="46.30179" lon="5.99535">
        <ele>1207.8000488281</ele>
        <time>2020-08-13T16:44:48.000Z</time>
      </trkpt>
      <trkpt lat="46.30177" lon="5.99533">
        <ele>1207.8000488281</ele>
        <time>2020-08-13T16:44:49.000Z</time>
      </trkpt>
      <trkpt lat="46.30165" lon="5.99526">
        <ele>1208.5999755859</ele>
        <time>2020-08-13T16:44:56.000Z</time>
      </trkpt>
      <trkpt lat="46.30162" lon="5.99525">
        <ele>1208.8000488281</ele>
        <time>2020-08-13T16:44:57.000Z</time>
      </trkpt>
      <trkpt lat="46.30153" lon="5.99515">
        <ele>1210</ele>
        <time>2020-08-13T16:45:03.000Z</time>
      </trkpt>
      <trkpt lat="46.30149" lon="5.99512">
        <ele>1210.4000244141</ele>
        <time>2020-08-13T16:45:05.000Z</time>
      </trkpt>
      <trkpt lat="46.30139" lon="5.99505">
        <ele>1211</ele>
        <time>2020-08-13T16:45:09.000Z</time>
      </trkpt>
      <trkpt lat="46.30136" lon="5.99501">
        <ele>1211.4000244141</ele>
        <time>2020-08-13T16:45:11.000Z</time>
      </trkpt>
      <trkpt lat="46.30129" lon="5.99496">
        <ele>1212.1999511719</ele>
        <time>2020-08-13T16:45:14.000Z</time>
      </trkpt>
      <trkpt lat="46.30121" lon="5.99491">
        <ele>1212.4000244141</ele>
        <time>2020-08-13T16:45:17.000Z</time>
      </trkpt>
      <trkpt lat="46.30111" lon="5.99483">
        <ele>1213</ele>
        <time>2020-08-13T16:45:22.000Z</time>
      </trkpt>
      <trkpt lat="46.30109" lon="5.99482">
        <ele>1213.1999511719</ele>
        <time>2020-08-13T16:45:23.000Z</time>
      </trkpt>
      <trkpt lat="46.30108" lon="5.9948">
        <ele>1213.4000244141</ele>
        <time>2020-08-13T16:45:24.000Z</time>
      </trkpt>
      <trkpt lat="46.301" lon="5.99472">
        <ele>1214.4000244141</ele>
        <time>2020-08-13T16:45:29.000Z</time>
      </trkpt>
      <trkpt lat="46.30098" lon="5.99471">
        <ele>1214.4000244141</ele>
        <time>2020-08-13T16:45:30.000Z</time>
      </trkpt>
      <trkpt lat="46.30088" lon="5.99463">
        <ele>1215.4000244141</ele>
        <time>2020-08-13T16:45:35.000Z</time>
      </trkpt>
      <trkpt lat="46.30081" lon="5.99455">
        <ele>1216.1999511719</ele>
        <time>2020-08-13T16:45:39.000Z</time>
      </trkpt>
      <trkpt lat="46.30079" lon="5.99453">
        <ele>1216.5999755859</ele>
        <time>2020-08-13T16:45:40.000Z</time>
      </trkpt>
      <trkpt lat="46.30071" lon="5.99447">
        <ele>1217.5999755859</ele>
        <time>2020-08-13T16:45:44.000Z</time>
      </trkpt>
      <trkpt lat="46.30064" lon="5.99442">
        <ele>1218</ele>
        <time>2020-08-13T16:45:47.000Z</time>
      </trkpt>
      <trkpt lat="46.30051" lon="5.99439">
        <ele>1218.5999755859</ele>
        <time>2020-08-13T16:45:52.000Z</time>
      </trkpt>
      <trkpt lat="46.30046" lon="5.99437">
        <ele>1218.8000488281</ele>
        <time>2020-08-13T16:45:54.000Z</time>
      </trkpt>
      <trkpt lat="46.30034" lon="5.99432">
        <ele>1219.8000488281</ele>
        <time>2020-08-13T16:45:59.000Z</time>
      </trkpt>
      <trkpt lat="46.30027" lon="5.99429">
        <ele>1220.5999755859</ele>
        <time>2020-08-13T16:46:03.000Z</time>
      </trkpt>
      <trkpt lat="46.30024" lon="5.99427">
        <ele>1221</ele>
        <time>2020-08-13T16:46:04.000Z</time>
      </trkpt>
      <trkpt lat="46.30009" lon="5.99417">
        <ele>1221.8000488281</ele>
        <time>2020-08-13T16:46:10.000Z</time>
      </trkpt>
      <trkpt lat="46.30002" lon="5.99414">
        <ele>1222.1999511719</ele>
        <time>2020-08-13T16:46:13.000Z</time>
      </trkpt>
      <trkpt lat="46.29995" lon="5.9941">
        <ele>1222.8000488281</ele>
        <time>2020-08-13T16:46:16.000Z</time>
      </trkpt>
      <trkpt lat="46.29988" lon="5.99408">
        <ele>1223.4000244141</ele>
        <time>2020-08-13T16:46:18.000Z</time>
      </trkpt>
      <trkpt lat="46.29976" lon="5.99397">
        <ele>1224</ele>
        <time>2020-08-13T16:46:24.000Z</time>
      </trkpt>
      <trkpt lat="46.2997" lon="5.99392">
        <ele>1224.4000244141</ele>
        <time>2020-08-13T16:46:27.000Z</time>
      </trkpt>
      <trkpt lat="46.29965" lon="5.99385">
        <ele>1225.4000244141</ele>
        <time>2020-08-13T16:46:30.000Z</time>
      </trkpt>
      <trkpt lat="46.2996" lon="5.99382">
        <ele>1226</ele>
        <time>2020-08-13T16:46:32.000Z</time>
      </trkpt>
      <trkpt lat="46.29954" lon="5.99376">
        <ele>1226.4000244141</ele>
        <time>2020-08-13T16:46:35.000Z</time>
      </trkpt>
      <trkpt lat="46.29946" lon="5.99367">
        <ele>1227</ele>
        <time>2020-08-13T16:46:40.000Z</time>
      </trkpt>
      <trkpt lat="46.29938" lon="5.99356">
        <ele>1227.5999755859</ele>
        <time>2020-08-13T16:46:46.000Z</time>
      </trkpt>
      <trkpt lat="46.29932" lon="5.99349">
        <ele>1228.1999511719</ele>
        <time>2020-08-13T16:46:49.000Z</time>
      </trkpt>
      <trkpt lat="46.29927" lon="5.99345">
        <ele>1228.5999755859</ele>
        <time>2020-08-13T16:46:52.000Z</time>
      </trkpt>
      <trkpt lat="46.29918" lon="5.99336">
        <ele>1229.8000488281</ele>
        <time>2020-08-13T16:46:57.000Z</time>
      </trkpt>
      <trkpt lat="46.29912" lon="5.99332">
        <ele>1230.4000244141</ele>
        <time>2020-08-13T16:47:00.000Z</time>
      </trkpt>
      <trkpt lat="46.29901" lon="5.99318">
        <ele>1230.5999755859</ele>
        <time>2020-08-13T16:47:07.000Z</time>
      </trkpt>
      <trkpt lat="46.29896" lon="5.99311">
        <ele>1231</ele>
        <time>2020-08-13T16:47:10.000Z</time>
      </trkpt>
      <trkpt lat="46.29888" lon="5.99303">
        <ele>1231.8000488281</ele>
        <time>2020-08-13T16:47:14.000Z</time>
      </trkpt>
      <trkpt lat="46.29887" lon="5.99301">
        <ele>1232</ele>
        <time>2020-08-13T16:47:15.000Z</time>
      </trkpt>
      <trkpt lat="46.29874" lon="5.99291">
        <ele>1232.5999755859</ele>
        <time>2020-08-13T16:47:22.000Z</time>
      </trkpt>
      <trkpt lat="46.29871" lon="5.99289">
        <ele>1233.1999511719</ele>
        <time>2020-08-13T16:47:24.000Z</time>
      </trkpt>
      <trkpt lat="46.29863" lon="5.99284">
        <ele>1234.1999511719</ele>
        <time>2020-08-13T16:47:29.000Z</time>
      </trkpt>
      <trkpt lat="46.2986" lon="5.99282">
        <ele>1234.8000488281</ele>
        <time>2020-08-13T16:47:31.000Z</time>
      </trkpt>
      <trkpt lat="46.29852" lon="5.99279">
        <ele>1235.1999511719</ele>
        <time>2020-08-13T16:47:34.000Z</time>
      </trkpt>
      <trkpt lat="46.29845" lon="5.99273">
        <ele>1235.5999755859</ele>
        <time>2020-08-13T16:47:37.000Z</time>
      </trkpt>
      <trkpt lat="46.29833" lon="5.99265">
        <ele>1236.4000244141</ele>
        <time>2020-08-13T16:47:41.000Z</time>
      </trkpt>
      <trkpt lat="46.29828" lon="5.99258">
        <ele>1236.5999755859</ele>
        <time>2020-08-13T16:47:44.000Z</time>
      </trkpt>
      <trkpt lat="46.29819" lon="5.99245">
        <ele>1237.4000244141</ele>
        <time>2020-08-13T16:47:50.000Z</time>
      </trkpt>
      <trkpt lat="46.29817" lon="5.99243">
        <ele>1237.5999755859</ele>
        <time>2020-08-13T16:47:51.000Z</time>
      </trkpt>
      <trkpt lat="46.29808" lon="5.99236">
        <ele>1238.5999755859</ele>
        <time>2020-08-13T16:47:56.000Z</time>
      </trkpt>
      <trkpt lat="46.29802" lon="5.99233">
        <ele>1238.8000488281</ele>
        <time>2020-08-13T16:47:58.000Z</time>
      </trkpt>
      <trkpt lat="46.29792" lon="5.99228">
        <ele>1240</ele>
        <time>2020-08-13T16:48:03.000Z</time>
      </trkpt>
      <trkpt lat="46.29786" lon="5.99223">
        <ele>1240.8000488281</ele>
        <time>2020-08-13T16:48:07.000Z</time>
      </trkpt>
      <trkpt lat="46.29784" lon="5.99223">
        <ele>1241</ele>
        <time>2020-08-13T16:48:08.000Z</time>
      </trkpt>
      <trkpt lat="46.29771" lon="5.99215">
        <ele>1241.8000488281</ele>
        <time>2020-08-13T16:48:14.000Z</time>
      </trkpt>
      <trkpt lat="46.29763" lon="5.99211">
        <ele>1242.1999511719</ele>
        <time>2020-08-13T16:48:17.000Z</time>
      </trkpt>
      <trkpt lat="46.29756" lon="5.99205">
        <ele>1243</ele>
        <time>2020-08-13T16:48:21.000Z</time>
      </trkpt>
      <trkpt lat="46.2975" lon="5.99202">
        <ele>1243.4000244141</ele>
        <time>2020-08-13T16:48:24.000Z</time>
      </trkpt>
      <trkpt lat="46.29741" lon="5.99199">
        <ele>1244.4000244141</ele>
        <time>2020-08-13T16:48:28.000Z</time>
      </trkpt>
      <trkpt lat="46.2974" lon="5.99198">
        <ele>1244.5999755859</ele>
        <time>2020-08-13T16:48:29.000Z</time>
      </trkpt>
      <trkpt lat="46.29721" lon="5.99187">
        <ele>1245.4000244141</ele>
        <time>2020-08-13T16:48:37.000Z</time>
      </trkpt>
      <trkpt lat="46.29718" lon="5.99186">
        <ele>1245.5999755859</ele>
        <time>2020-08-13T16:48:38.000Z</time>
      </trkpt>
      <trkpt lat="46.29705" lon="5.99178">
        <ele>1246.5999755859</ele>
        <time>2020-08-13T16:48:43.000Z</time>
      </trkpt>
      <trkpt lat="46.29701" lon="5.99172">
        <ele>1247.1999511719</ele>
        <time>2020-08-13T16:48:46.000Z</time>
      </trkpt>
      <trkpt lat="46.29698" lon="5.99168">
        <ele>1247.5999755859</ele>
        <time>2020-08-13T16:48:48.000Z</time>
      </trkpt>
      <trkpt lat="46.29689" lon="5.99158">
        <ele>1247.8000488281</ele>
        <time>2020-08-13T16:48:53.000Z</time>
      </trkpt>
      <trkpt lat="46.29675" lon="5.99145">
        <ele>1248.8000488281</ele>
        <time>2020-08-13T16:49:00.000Z</time>
      </trkpt>
      <trkpt lat="46.29664" lon="5.99132">
        <ele>1249.8000488281</ele>
        <time>2020-08-13T16:49:06.000Z</time>
      </trkpt>
      <trkpt lat="46.29662" lon="5.99128">
        <ele>1249.8000488281</ele>
        <time>2020-08-13T16:49:07.000Z</time>
      </trkpt>
      <trkpt lat="46.29658" lon="5.99117">
        <ele>1251</ele>
        <time>2020-08-13T16:49:10.000Z</time>
      </trkpt>
      <trkpt lat="46.29654" lon="5.99106">
        <ele>1251.8000488281</ele>
        <time>2020-08-13T16:49:14.000Z</time>
      </trkpt>
      <trkpt lat="46.29652" lon="5.99101">
        <ele>1252.1999511719</ele>
        <time>2020-08-13T16:49:16.000Z</time>
      </trkpt>
      <trkpt lat="46.29645" lon="5.99089">
        <ele>1252.5999755859</ele>
        <time>2020-08-13T16:49:21.000Z</time>
      </trkpt>
      <trkpt lat="46.29644" lon="5.99086">
        <ele>1252.8000488281</ele>
        <time>2020-08-13T16:49:22.000Z</time>
      </trkpt>
      <trkpt lat="46.29642" lon="5.99076">
        <ele>1253.1999511719</ele>
        <time>2020-08-13T16:49:25.000Z</time>
      </trkpt>
      <trkpt lat="46.29637" lon="5.99065">
        <ele>1253.5999755859</ele>
        <time>2020-08-13T16:49:29.000Z</time>
      </trkpt>
      <trkpt lat="46.29631" lon="5.99045">
        <ele>1254.4000244141</ele>
        <time>2020-08-13T16:49:35.000Z</time>
      </trkpt>
      <trkpt lat="46.2963" lon="5.99037">
        <ele>1254.5999755859</ele>
        <time>2020-08-13T16:49:37.000Z</time>
      </trkpt>
      <trkpt lat="46.29626" lon="5.99017">
        <ele>1255.4000244141</ele>
        <time>2020-08-13T16:49:43.000Z</time>
      </trkpt>
      <trkpt lat="46.29624" lon="5.99011">
        <ele>1255.5999755859</ele>
        <time>2020-08-13T16:49:45.000Z</time>
      </trkpt>
      <trkpt lat="46.29624" lon="5.9899">
        <ele>1256.1999511719</ele>
        <time>2020-08-13T16:49:51.000Z</time>
      </trkpt>
      <trkpt lat="46.29624" lon="5.98987">
        <ele>1256.4000244141</ele>
        <time>2020-08-13T16:49:52.000Z</time>
      </trkpt>
      <trkpt lat="46.29625" lon="5.98969">
        <ele>1257.5999755859</ele>
        <time>2020-08-13T16:49:57.000Z</time>
      </trkpt>
      <trkpt lat="46.29625" lon="5.98966">
        <ele>1257.8000488281</ele>
        <time>2020-08-13T16:49:58.000Z</time>
      </trkpt>
      <trkpt lat="46.29623" lon="5.98949">
        <ele>1258.1999511719</ele>
        <time>2020-08-13T16:50:04.000Z</time>
      </trkpt>
      <trkpt lat="46.29617" lon="5.98941">
        <ele>1258.5999755859</ele>
        <time>2020-08-13T16:50:08.000Z</time>
      </trkpt>
      <trkpt lat="46.29612" lon="5.98938">
        <ele>1259</ele>
        <time>2020-08-13T16:50:10.000Z</time>
      </trkpt>
      <trkpt lat="46.29597" lon="5.98936">
        <ele>1259.5999755859</ele>
        <time>2020-08-13T16:50:16.000Z</time>
      </trkpt>
      <trkpt lat="46.29595" lon="5.98935">
        <ele>1259.8000488281</ele>
        <time>2020-08-13T16:50:17.000Z</time>
      </trkpt>
      <trkpt lat="46.29582" lon="5.98929">
        <ele>1260.8000488281</ele>
        <time>2020-08-13T16:50:23.000Z</time>
      </trkpt>
      <trkpt lat="46.2958" lon="5.98927">
        <ele>1260.8000488281</ele>
        <time>2020-08-13T16:50:24.000Z</time>
      </trkpt>
      <trkpt lat="46.29568" lon="5.98912">
        <ele>1260.4000244141</ele>
        <time>2020-08-13T16:50:31.000Z</time>
      </trkpt>
      <trkpt lat="46.29562" lon="5.98903">
        <ele>1262.1999511719</ele>
        <time>2020-08-13T16:50:35.000Z</time>
      </trkpt>
      <trkpt lat="46.29555" lon="5.98894">
        <ele>1263.4000244141</ele>
        <time>2020-08-13T16:50:39.000Z</time>
      </trkpt>
      <trkpt lat="46.29553" lon="5.98892">
        <ele>1263.8000488281</ele>
        <time>2020-08-13T16:50:40.000Z</time>
      </trkpt>
      <trkpt lat="46.29547" lon="5.98884">
        <ele>1264.5999755859</ele>
        <time>2020-08-13T16:50:44.000Z</time>
      </trkpt>
      <trkpt lat="46.29544" lon="5.9888">
        <ele>1265</ele>
        <time>2020-08-13T16:50:46.000Z</time>
      </trkpt>
      <trkpt lat="46.2954" lon="5.9887">
        <ele>1265.5999755859</ele>
        <time>2020-08-13T16:50:50.000Z</time>
      </trkpt>
      <trkpt lat="46.29535" lon="5.98862">
        <ele>1265.8000488281</ele>
        <time>2020-08-13T16:50:53.000Z</time>
      </trkpt>
      <trkpt lat="46.29527" lon="5.9885">
        <ele>1266.5999755859</ele>
        <time>2020-08-13T16:50:58.000Z</time>
      </trkpt>
      <trkpt lat="46.29522" lon="5.98841">
        <ele>1267.8000488281</ele>
        <time>2020-08-13T16:51:02.000Z</time>
      </trkpt>
      <trkpt lat="46.29514" lon="5.98831">
        <ele>1269</ele>
        <time>2020-08-13T16:51:07.000Z</time>
      </trkpt>
      <trkpt lat="46.29511" lon="5.98828">
        <ele>1269.4000244141</ele>
        <time>2020-08-13T16:51:09.000Z</time>
      </trkpt>
      <trkpt lat="46.29499" lon="5.98819">
        <ele>1269.8000488281</ele>
        <time>2020-08-13T16:51:16.000Z</time>
      </trkpt>
      <trkpt lat="46.29493" lon="5.98816">
        <ele>1270</ele>
        <time>2020-08-13T16:51:19.000Z</time>
      </trkpt>
      <trkpt lat="46.2949" lon="5.98814">
        <ele>1270.5999755859</ele>
        <time>2020-08-13T16:51:21.000Z</time>
      </trkpt>
      <trkpt lat="46.29488" lon="5.98814">
        <ele>1270.8000488281</ele>
        <time>2020-08-13T16:51:22.000Z</time>
      </trkpt>
      <trkpt lat="46.29486" lon="5.98813">
        <ele>1271.1999511719</ele>
        <time>2020-08-13T16:51:23.000Z</time>
      </trkpt>
      <trkpt lat="46.29478" lon="5.98811">
        <ele>1272.1999511719</ele>
        <time>2020-08-13T16:51:27.000Z</time>
      </trkpt>
      <trkpt lat="46.29476" lon="5.98811">
        <ele>1272.1999511719</ele>
        <time>2020-08-13T16:51:28.000Z</time>
      </trkpt>
      <trkpt lat="46.29474" lon="5.98811">
        <ele>1272.1999511719</ele>
        <time>2020-08-13T16:51:29.000Z</time>
      </trkpt>
      <trkpt lat="46.2946" lon="5.98808">
        <ele>1272.8000488281</ele>
        <time>2020-08-13T16:51:35.000Z</time>
      </trkpt>
      <trkpt lat="46.29449" lon="5.98797">
        <ele>1273.1999511719</ele>
        <time>2020-08-13T16:51:41.000Z</time>
      </trkpt>
      <trkpt lat="46.29447" lon="5.98794">
        <ele>1273.4000244141</ele>
        <time>2020-08-13T16:51:42.000Z</time>
      </trkpt>
      <trkpt lat="46.29446" lon="5.98792">
        <ele>1273.5999755859</ele>
        <time>2020-08-13T16:51:43.000Z</time>
      </trkpt>
      <trkpt lat="46.29441" lon="5.9878">
        <ele>1274.5999755859</ele>
        <time>2020-08-13T16:51:47.000Z</time>
      </trkpt>
      <trkpt lat="46.29434" lon="5.98762">
        <ele>1275.8000488281</ele>
        <time>2020-08-13T16:51:53.000Z</time>
      </trkpt>
      <trkpt lat="46.29433" lon="5.98759">
        <ele>1276</ele>
        <time>2020-08-13T16:51:54.000Z</time>
      </trkpt>
      <trkpt lat="46.29431" lon="5.98753">
        <ele>1276.8000488281</ele>
        <time>2020-08-13T16:51:56.000Z</time>
      </trkpt>
      <trkpt lat="46.29427" lon="5.98744">
        <ele>1277.1999511719</ele>
        <time>2020-08-13T16:51:59.000Z</time>
      </trkpt>
      <trkpt lat="46.29427" lon="5.98741">
        <ele>1277.4000244141</ele>
        <time>2020-08-13T16:52:00.000Z</time>
      </trkpt>
      <trkpt lat="46.29425" lon="5.98735">
        <ele>1277.8000488281</ele>
        <time>2020-08-13T16:52:02.000Z</time>
      </trkpt>
      <trkpt lat="46.29418" lon="5.98709">
        <ele>1278.8000488281</ele>
        <time>2020-08-13T16:52:10.000Z</time>
      </trkpt>
      <trkpt lat="46.29416" lon="5.98704">
        <ele>1279</ele>
        <time>2020-08-13T16:52:12.000Z</time>
      </trkpt>
      <trkpt lat="46.29411" lon="5.98689">
        <ele>1280</ele>
        <time>2020-08-13T16:52:17.000Z</time>
      </trkpt>
      <trkpt lat="46.2941" lon="5.98686">
        <ele>1280</ele>
        <time>2020-08-13T16:52:18.000Z</time>
      </trkpt>
      <trkpt lat="46.29409" lon="5.98683">
        <ele>1280.1999511719</ele>
        <time>2020-08-13T16:52:19.000Z</time>
      </trkpt>
      <trkpt lat="46.29406" lon="5.98668">
        <ele>1280.8000488281</ele>
        <time>2020-08-13T16:52:24.000Z</time>
      </trkpt>
      <trkpt lat="46.29405" lon="5.98665">
        <ele>1281</ele>
        <time>2020-08-13T16:52:25.000Z</time>
      </trkpt>
      <trkpt lat="46.29405" lon="5.98662">
        <ele>1281.1999511719</ele>
        <time>2020-08-13T16:52:26.000Z</time>
      </trkpt>
      <trkpt lat="46.29401" lon="5.98647">
        <ele>1281.4000244141</ele>
        <time>2020-08-13T16:52:31.000Z</time>
      </trkpt>
      <trkpt lat="46.29397" lon="5.98634">
        <ele>1282.1999511719</ele>
        <time>2020-08-13T16:52:36.000Z</time>
      </trkpt>
      <trkpt lat="46.29395" lon="5.98629">
        <ele>1282.5999755859</ele>
        <time>2020-08-13T16:52:38.000Z</time>
      </trkpt>
      <trkpt lat="46.29392" lon="5.98614">
        <ele>1283.1999511719</ele>
        <time>2020-08-13T16:52:43.000Z</time>
      </trkpt>
      <trkpt lat="46.29391" lon="5.9861">
        <ele>1283.1999511719</ele>
        <time>2020-08-13T16:52:44.000Z</time>
      </trkpt>
      <trkpt lat="46.29391" lon="5.98601">
        <ele>1283.4000244141</ele>
        <time>2020-08-13T16:52:47.000Z</time>
      </trkpt>
      <trkpt lat="46.29391" lon="5.9859">
        <ele>1283.8000488281</ele>
        <time>2020-08-13T16:52:51.000Z</time>
      </trkpt>
      <trkpt lat="46.29392" lon="5.98583">
        <ele>1284.4000244141</ele>
        <time>2020-08-13T16:52:53.000Z</time>
      </trkpt>
      <trkpt lat="46.29393" lon="5.98574">
        <ele>1284.8000488281</ele>
        <time>2020-08-13T16:52:56.000Z</time>
      </trkpt>
      <trkpt lat="46.29395" lon="5.98556">
        <ele>1285.1999511719</ele>
        <time>2020-08-13T16:53:02.000Z</time>
      </trkpt>
      <trkpt lat="46.29398" lon="5.98541">
        <ele>1285.5999755859</ele>
        <time>2020-08-13T16:53:07.000Z</time>
      </trkpt>
      <trkpt lat="46.294" lon="5.98533">
        <ele>1286.1999511719</ele>
        <time>2020-08-13T16:53:10.000Z</time>
      </trkpt>
      <trkpt lat="46.29403" lon="5.98526">
        <ele>1286.8000488281</ele>
        <time>2020-08-13T16:53:13.000Z</time>
      </trkpt>
      <trkpt lat="46.29406" lon="5.98515">
        <ele>1287.5999755859</ele>
        <time>2020-08-13T16:53:17.000Z</time>
      </trkpt>
      <trkpt lat="46.29408" lon="5.98509">
        <ele>1287.8000488281</ele>
        <time>2020-08-13T16:53:19.000Z</time>
      </trkpt>
      <trkpt lat="46.29411" lon="5.985">
        <ele>1288.1999511719</ele>
        <time>2020-08-13T16:53:22.000Z</time>
      </trkpt>
      <trkpt lat="46.29413" lon="5.9849">
        <ele>1289.4000244141</ele>
        <time>2020-08-13T16:53:25.000Z</time>
      </trkpt>
      <trkpt lat="46.29413" lon="5.98487">
        <ele>1289.5999755859</ele>
        <time>2020-08-13T16:53:26.000Z</time>
      </trkpt>
      <trkpt lat="46.29414" lon="5.9848">
        <ele>1289.8000488281</ele>
        <time>2020-08-13T16:53:28.000Z</time>
      </trkpt>
      <trkpt lat="46.29413" lon="5.98468">
        <ele>1290.1999511719</ele>
        <time>2020-08-13T16:53:32.000Z</time>
      </trkpt>
      <trkpt lat="46.29413" lon="5.98461">
        <ele>1290.4000244141</ele>
        <time>2020-08-13T16:53:34.000Z</time>
      </trkpt>
      <trkpt lat="46.29412" lon="5.98443">
        <ele>1291.5999755859</ele>
        <time>2020-08-13T16:53:40.000Z</time>
      </trkpt>
      <trkpt lat="46.29411" lon="5.9844">
        <ele>1291.5999755859</ele>
        <time>2020-08-13T16:53:41.000Z</time>
      </trkpt>
      <trkpt lat="46.2941" lon="5.98428">
        <ele>1291.8000488281</ele>
        <time>2020-08-13T16:53:45.000Z</time>
      </trkpt>
      <trkpt lat="46.29406" lon="5.9842">
        <ele>1292.1999511719</ele>
        <time>2020-08-13T16:53:48.000Z</time>
      </trkpt>
      <trkpt lat="46.29404" lon="5.98415">
        <ele>1292.5999755859</ele>
        <time>2020-08-13T16:53:50.000Z</time>
      </trkpt>
      <trkpt lat="46.29397" lon="5.98407">
        <ele>1293.5999755859</ele>
        <time>2020-08-13T16:53:54.000Z</time>
      </trkpt>
      <trkpt lat="46.29396" lon="5.98405">
        <ele>1294</ele>
        <time>2020-08-13T16:53:55.000Z</time>
      </trkpt>
      <trkpt lat="46.2939" lon="5.98399">
        <ele>1294.8000488281</ele>
        <time>2020-08-13T16:53:58.000Z</time>
      </trkpt>
      <trkpt lat="46.29384" lon="5.98391">
        <ele>1295.8000488281</ele>
        <time>2020-08-13T16:54:02.000Z</time>
      </trkpt>
      <trkpt lat="46.29383" lon="5.98389">
        <ele>1296</ele>
        <time>2020-08-13T16:54:03.000Z</time>
      </trkpt>
      <trkpt lat="46.29379" lon="5.98375">
        <ele>1296.8000488281</ele>
        <time>2020-08-13T16:54:09.000Z</time>
      </trkpt>
      <trkpt lat="46.29379" lon="5.98372">
        <ele>1297</ele>
        <time>2020-08-13T16:54:10.000Z</time>
      </trkpt>
      <trkpt lat="46.29379" lon="5.98367">
        <ele>1297</ele>
        <time>2020-08-13T16:54:12.000Z</time>
      </trkpt>
      <trkpt lat="46.29381" lon="5.98358">
        <ele>1297.1999511719</ele>
        <time>2020-08-13T16:54:15.000Z</time>
      </trkpt>
      <trkpt lat="46.29391" lon="5.98345">
        <ele>1298</ele>
        <time>2020-08-13T16:54:21.000Z</time>
      </trkpt>
      <trkpt lat="46.29394" lon="5.9834">
        <ele>1297.8000488281</ele>
        <time>2020-08-13T16:54:23.000Z</time>
      </trkpt>
      <trkpt lat="46.29396" lon="5.98333">
        <ele>1297.4000244141</ele>
        <time>2020-08-13T16:54:25.000Z</time>
      </trkpt>
      <trkpt lat="46.29396" lon="5.98328">
        <ele>1297</ele>
        <time>2020-08-13T16:54:26.000Z</time>
      </trkpt>
      <trkpt lat="46.29394" lon="5.98324">
        <ele>1296.5999755859</ele>
        <time>2020-08-13T16:54:27.000Z</time>
      </trkpt>
      <trkpt lat="46.29392" lon="5.9832">
        <ele>1296.4000244141</ele>
        <time>2020-08-13T16:54:28.000Z</time>
      </trkpt>
      <trkpt lat="46.29388" lon="5.98304">
        <ele>1295.4000244141</ele>
        <time>2020-08-13T16:54:31.000Z</time>
      </trkpt>
      <trkpt lat="46.29388" lon="5.98299">
        <ele>1295.4000244141</ele>
        <time>2020-08-13T16:54:32.000Z</time>
      </trkpt>
      <trkpt lat="46.29383" lon="5.98274">
        <ele>1295.5999755859</ele>
        <time>2020-08-13T16:54:38.000Z</time>
      </trkpt>
      <trkpt lat="46.29368" lon="5.98258">
        <ele>1294.8000488281</ele>
        <time>2020-08-13T16:54:43.000Z</time>
      </trkpt>
      <trkpt lat="46.29352" lon="5.98241">
        <ele>1295.5999755859</ele>
        <time>2020-08-13T16:54:48.000Z</time>
      </trkpt>
      <trkpt lat="46.29346" lon="5.98234">
        <ele>1295.8000488281</ele>
        <time>2020-08-13T16:54:50.000Z</time>
      </trkpt>
      <trkpt lat="46.29334" lon="5.98216">
        <ele>1296.4000244141</ele>
        <time>2020-08-13T16:54:56.000Z</time>
      </trkpt>
      <trkpt lat="46.29332" lon="5.98213">
        <ele>1296.4000244141</ele>
        <time>2020-08-13T16:54:57.000Z</time>
      </trkpt>
      <trkpt lat="46.29323" lon="5.98191">
        <ele>1297.5999755859</ele>
        <time>2020-08-13T16:55:03.000Z</time>
      </trkpt>
      <trkpt lat="46.2932" lon="5.98166">
        <ele>1298.8000488281</ele>
        <time>2020-08-13T16:55:10.000Z</time>
      </trkpt>
      <trkpt lat="46.2932" lon="5.98162">
        <ele>1298.8000488281</ele>
        <time>2020-08-13T16:55:11.000Z</time>
      </trkpt>
      <trkpt lat="46.2932" lon="5.98144">
        <ele>1299.8000488281</ele>
        <time>2020-08-13T16:55:16.000Z</time>
      </trkpt>
      <trkpt lat="46.29318" lon="5.98125">
        <ele>1300.5999755859</ele>
        <time>2020-08-13T16:55:21.000Z</time>
      </trkpt>
      <trkpt lat="46.29318" lon="5.98121">
        <ele>1301.1999511719</ele>
        <time>2020-08-13T16:55:22.000Z</time>
      </trkpt>
      <trkpt lat="46.29318" lon="5.98095">
        <ele>1302</ele>
        <time>2020-08-13T16:55:29.000Z</time>
      </trkpt>
      <trkpt lat="46.29318" lon="5.98084">
        <ele>1302.4000244141</ele>
        <time>2020-08-13T16:55:32.000Z</time>
      </trkpt>
      <trkpt lat="46.29317" lon="5.98067">
        <ele>1302.8000488281</ele>
        <time>2020-08-13T16:55:37.000Z</time>
      </trkpt>
      <trkpt lat="46.29317" lon="5.98057">
        <ele>1303.4000244141</ele>
        <time>2020-08-13T16:55:40.000Z</time>
      </trkpt>
      <trkpt lat="46.29316" lon="5.98047">
        <ele>1304.4000244141</ele>
        <time>2020-08-13T16:55:43.000Z</time>
      </trkpt>
      <trkpt lat="46.29315" lon="5.9804">
        <ele>1304.5999755859</ele>
        <time>2020-08-13T16:55:45.000Z</time>
      </trkpt>
      <trkpt lat="46.29313" lon="5.98023">
        <ele>1305.5999755859</ele>
        <time>2020-08-13T16:55:50.000Z</time>
      </trkpt>
      <trkpt lat="46.29313" lon="5.9802">
        <ele>1306</ele>
        <time>2020-08-13T16:55:51.000Z</time>
      </trkpt>
      <trkpt lat="46.2931" lon="5.98006">
        <ele>1307</ele>
        <time>2020-08-13T16:55:56.000Z</time>
      </trkpt>
      <trkpt lat="46.29306" lon="5.97996">
        <ele>1308.1999511719</ele>
        <time>2020-08-13T16:56:00.000Z</time>
      </trkpt>
      <trkpt lat="46.29302" lon="5.97986">
        <ele>1308.5999755859</ele>
        <time>2020-08-13T16:56:04.000Z</time>
      </trkpt>
      <trkpt lat="46.293" lon="5.97978">
        <ele>1309.1999511719</ele>
        <time>2020-08-13T16:56:07.000Z</time>
      </trkpt>
      <trkpt lat="46.29298" lon="5.97974">
        <ele>1310.4000244141</ele>
        <time>2020-08-13T16:56:09.000Z</time>
      </trkpt>
      <trkpt lat="46.29296" lon="5.97966">
        <ele>1311.5999755859</ele>
        <time>2020-08-13T16:56:12.000Z</time>
      </trkpt>
      <trkpt lat="46.29291" lon="5.97952">
        <ele>1312.8000488281</ele>
        <time>2020-08-13T16:56:18.000Z</time>
      </trkpt>
      <trkpt lat="46.29289" lon="5.97948">
        <ele>1313.1999511719</ele>
        <time>2020-08-13T16:56:20.000Z</time>
      </trkpt>
      <trkpt lat="46.29286" lon="5.97944">
        <ele>1314.1999511719</ele>
        <time>2020-08-13T16:56:22.000Z</time>
      </trkpt>
      <trkpt lat="46.29283" lon="5.97936">
        <ele>1315.4000244141</ele>
        <time>2020-08-13T16:56:26.000Z</time>
      </trkpt>
      <trkpt lat="46.29282" lon="5.97933">
        <ele>1315.5999755859</ele>
        <time>2020-08-13T16:56:27.000Z</time>
      </trkpt>
      <trkpt lat="46.2928" lon="5.97923">
        <ele>1316.1999511719</ele>
        <time>2020-08-13T16:56:31.000Z</time>
      </trkpt>
      <trkpt lat="46.2928" lon="5.97917">
        <ele>1316.4000244141</ele>
        <time>2020-08-13T16:56:33.000Z</time>
      </trkpt>
      <trkpt lat="46.2928" lon="5.97914">
        <ele>1316.5999755859</ele>
        <time>2020-08-13T16:56:34.000Z</time>
      </trkpt>
      <trkpt lat="46.29283" lon="5.97901">
        <ele>1317.4000244141</ele>
        <time>2020-08-13T16:56:39.000Z</time>
      </trkpt>
      <trkpt lat="46.29284" lon="5.97897">
        <ele>1317.8000488281</ele>
        <time>2020-08-13T16:56:41.000Z</time>
      </trkpt>
      <trkpt lat="46.29287" lon="5.97884">
        <ele>1318.5999755859</ele>
        <time>2020-08-13T16:56:46.000Z</time>
      </trkpt>
      <trkpt lat="46.29287" lon="5.97876">
        <ele>1319.4000244141</ele>
        <time>2020-08-13T16:56:49.000Z</time>
      </trkpt>
      <trkpt lat="46.29284" lon="5.97868">
        <ele>1319.8000488281</ele>
        <time>2020-08-13T16:56:52.000Z</time>
      </trkpt>
      <trkpt lat="46.29281" lon="5.97859">
        <ele>1321</ele>
        <time>2020-08-13T16:56:56.000Z</time>
      </trkpt>
      <trkpt lat="46.29279" lon="5.97857">
        <ele>1321.5999755859</ele>
        <time>2020-08-13T16:56:57.000Z</time>
      </trkpt>
      <trkpt lat="46.29266" lon="5.97847">
        <ele>1321.8000488281</ele>
        <time>2020-08-13T16:57:03.000Z</time>
      </trkpt>
      <trkpt lat="46.29255" lon="5.97845">
        <ele>1322.1999511719</ele>
        <time>2020-08-13T16:57:07.000Z</time>
      </trkpt>
      <trkpt lat="46.2925" lon="5.97845">
        <ele>1322.8000488281</ele>
        <time>2020-08-13T16:57:09.000Z</time>
      </trkpt>
      <trkpt lat="46.29246" lon="5.97844">
        <ele>1323.4000244141</ele>
        <time>2020-08-13T16:57:11.000Z</time>
      </trkpt>
      <trkpt lat="46.29239" lon="5.97843">
        <ele>1324.4000244141</ele>
        <time>2020-08-13T16:57:14.000Z</time>
      </trkpt>
      <trkpt lat="46.29235" lon="5.97843">
        <ele>1325</ele>
        <time>2020-08-13T16:57:16.000Z</time>
      </trkpt>
      <trkpt lat="46.29227" lon="5.97843">
        <ele>1325.5999755859</ele>
        <time>2020-08-13T16:57:19.000Z</time>
      </trkpt>
      <trkpt lat="46.29212" lon="5.97846">
        <ele>1325.5999755859</ele>
        <time>2020-08-13T16:57:24.000Z</time>
      </trkpt>
      <trkpt lat="46.29193" lon="5.97849">
        <ele>1325.4000244141</ele>
        <time>2020-08-13T16:57:31.000Z</time>
      </trkpt>
      <trkpt lat="46.29188" lon="5.97849">
        <ele>1326</ele>
        <time>2020-08-13T16:57:34.000Z</time>
      </trkpt>
      <trkpt lat="46.29184" lon="5.97848">
        <ele>1326.8000488281</ele>
        <time>2020-08-13T16:57:37.000Z</time>
      </trkpt>
      <trkpt lat="46.29179" lon="5.97846">
        <ele>1327.8000488281</ele>
        <time>2020-08-13T16:57:40.000Z</time>
      </trkpt>
      <trkpt lat="46.29174" lon="5.97844">
        <ele>1328.8000488281</ele>
        <time>2020-08-13T16:57:43.000Z</time>
      </trkpt>
      <trkpt lat="46.29167" lon="5.97842">
        <ele>1330</ele>
        <time>2020-08-13T16:57:47.000Z</time>
      </trkpt>
      <trkpt lat="46.29165" lon="5.97839">
        <ele>1330.5999755859</ele>
        <time>2020-08-13T16:57:49.000Z</time>
      </trkpt>
      <trkpt lat="46.29162" lon="5.97836">
        <ele>1331.1999511719</ele>
        <time>2020-08-13T16:57:51.000Z</time>
      </trkpt>
      <trkpt lat="46.29151" lon="5.97824">
        <ele>1332</ele>
        <time>2020-08-13T16:57:58.000Z</time>
      </trkpt>
      <trkpt lat="46.29146" lon="5.97815">
        <ele>1332.1999511719</ele>
        <time>2020-08-13T16:58:01.000Z</time>
      </trkpt>
      <trkpt lat="46.29144" lon="5.97812">
        <ele>1332.1999511719</ele>
        <time>2020-08-13T16:58:02.000Z</time>
      </trkpt>
      <trkpt lat="46.29141" lon="5.97803">
        <ele>1332.5999755859</ele>
        <time>2020-08-13T16:58:05.000Z</time>
      </trkpt>
      <trkpt lat="46.29139" lon="5.97793">
        <ele>1333.5999755859</ele>
        <time>2020-08-13T16:58:09.000Z</time>
      </trkpt>
      <trkpt lat="46.29138" lon="5.97788">
        <ele>1334.4000244141</ele>
        <time>2020-08-13T16:58:11.000Z</time>
      </trkpt>
      <trkpt lat="46.29138" lon="5.97786">
        <ele>1334.5999755859</ele>
        <time>2020-08-13T16:58:12.000Z</time>
      </trkpt>
      <trkpt lat="46.29136" lon="5.97774">
        <ele>1335.4000244141</ele>
        <time>2020-08-13T16:58:17.000Z</time>
      </trkpt>
      <trkpt lat="46.29135" lon="5.97772">
        <ele>1335.4000244141</ele>
        <time>2020-08-13T16:58:18.000Z</time>
      </trkpt>
      <trkpt lat="46.29132" lon="5.97769">
        <ele>1335.8000488281</ele>
        <time>2020-08-13T16:58:21.000Z</time>
      </trkpt>
      <trkpt lat="46.2913" lon="5.97768">
        <ele>1336</ele>
        <time>2020-08-13T16:58:22.000Z</time>
      </trkpt>
      <trkpt lat="46.29125" lon="5.97766">
        <ele>1337</ele>
        <time>2020-08-13T16:58:25.000Z</time>
      </trkpt>
      <trkpt lat="46.29119" lon="5.97763">
        <ele>1337.8000488281</ele>
        <time>2020-08-13T16:58:29.000Z</time>
      </trkpt>
      <trkpt lat="46.29118" lon="5.97764">
        <ele>1338.1999511719</ele>
        <time>2020-08-13T16:58:30.000Z</time>
      </trkpt>
      <trkpt lat="46.29113" lon="5.97765">
        <ele>1339.4000244141</ele>
        <time>2020-08-13T16:58:33.000Z</time>
      </trkpt>
      <trkpt lat="46.29109" lon="5.97769">
        <ele>1340.5999755859</ele>
        <time>2020-08-13T16:58:36.000Z</time>
      </trkpt>
      <trkpt lat="46.29108" lon="5.9777">
        <ele>1340.8000488281</ele>
        <time>2020-08-13T16:58:37.000Z</time>
      </trkpt>
      <trkpt lat="46.291" lon="5.97773">
        <ele>1341.1999511719</ele>
        <time>2020-08-13T16:58:41.000Z</time>
      </trkpt>
      <trkpt lat="46.29095" lon="5.97776">
        <ele>1341.4000244141</ele>
        <time>2020-08-13T16:58:43.000Z</time>
      </trkpt>
      <trkpt lat="46.29079" lon="5.97789">
        <ele>1341.4000244141</ele>
        <time>2020-08-13T16:58:50.000Z</time>
      </trkpt>
      <trkpt lat="46.29075" lon="5.97791">
        <ele>1341.5999755859</ele>
        <time>2020-08-13T16:58:52.000Z</time>
      </trkpt>
      <trkpt lat="46.29065" lon="5.97788">
        <ele>1342</ele>
        <time>2020-08-13T16:58:56.000Z</time>
      </trkpt>
      <trkpt lat="46.29051" lon="5.97777">
        <ele>1342.5999755859</ele>
        <time>2020-08-13T16:59:04.000Z</time>
      </trkpt>
      <trkpt lat="46.29047" lon="5.97773">
        <ele>1343.4000244141</ele>
        <time>2020-08-13T16:59:07.000Z</time>
      </trkpt>
      <trkpt lat="46.29045" lon="5.97772">
        <ele>1343.8000488281</ele>
        <time>2020-08-13T16:59:08.000Z</time>
      </trkpt>
      <trkpt lat="46.29038" lon="5.97767">
        <ele>1344.4000244141</ele>
        <time>2020-08-13T16:59:12.000Z</time>
      </trkpt>
      <trkpt lat="46.29032" lon="5.97763">
        <ele>1345.1999511719</ele>
        <time>2020-08-13T16:59:15.000Z</time>
      </trkpt>
      <trkpt lat="46.29024" lon="5.97758">
        <ele>1346</ele>
        <time>2020-08-13T16:59:20.000Z</time>
      </trkpt>
      <trkpt lat="46.29008" lon="5.97747">
        <ele>1345</ele>
        <time>2020-08-13T16:59:28.000Z</time>
      </trkpt>
      <trkpt lat="46.28994" lon="5.97745">
        <ele>1345.8000488281</ele>
        <time>2020-08-13T16:59:34.000Z</time>
      </trkpt>
      <trkpt lat="46.28993" lon="5.97746">
        <ele>1346.5999755859</ele>
        <time>2020-08-13T16:59:35.000Z</time>
      </trkpt>
      <trkpt lat="46.2899" lon="5.97747">
        <ele>1348</ele>
        <time>2020-08-13T16:59:37.000Z</time>
      </trkpt>
      <trkpt lat="46.28987" lon="5.9775">
        <ele>1349.1999511719</ele>
        <time>2020-08-13T16:59:40.000Z</time>
      </trkpt>
      <trkpt lat="46.28984" lon="5.97752">
        <ele>1349.5999755859</ele>
        <time>2020-08-13T16:59:42.000Z</time>
      </trkpt>
      <trkpt lat="46.2898" lon="5.97754">
        <ele>1350</ele>
        <time>2020-08-13T16:59:45.000Z</time>
      </trkpt>
      <trkpt lat="46.28979" lon="5.97754">
        <ele>1350</ele>
        <time>2020-08-13T16:59:46.000Z</time>
      </trkpt>
      <trkpt lat="46.28976" lon="5.97753">
        <ele>1350.1999511719</ele>
        <time>2020-08-13T16:59:48.000Z</time>
      </trkpt>
      <trkpt lat="46.28975" lon="5.97753">
        <ele>1350.1999511719</ele>
        <time>2020-08-13T16:59:49.000Z</time>
      </trkpt>
      <trkpt lat="46.2897" lon="5.97752">
        <ele>1351.4000244141</ele>
        <time>2020-08-13T16:59:53.000Z</time>
      </trkpt>
      <trkpt lat="46.28969" lon="5.97752">
        <ele>1351.5999755859</ele>
        <time>2020-08-13T16:59:54.000Z</time>
      </trkpt>
      <trkpt lat="46.28967" lon="5.97752">
        <ele>1352.4000244141</ele>
        <time>2020-08-13T17:00:00.000Z</time>
      </trkpt>
      <trkpt lat="46.28965" lon="5.97751">
        <ele>1353.1999511719</ele>
        <time>2020-08-13T17:00:02.000Z</time>
      </trkpt>
      <trkpt lat="46.28964" lon="5.9775">
        <ele>1353.5999755859</ele>
        <time>2020-08-13T17:00:04.000Z</time>
      </trkpt>
      <trkpt lat="46.28963" lon="5.97749">
        <ele>1354</ele>
        <time>2020-08-13T17:00:06.000Z</time>
      </trkpt>
      <trkpt lat="46.28961" lon="5.97747">
        <ele>1354.5999755859</ele>
        <time>2020-08-13T17:00:09.000Z</time>
      </trkpt>
      <trkpt lat="46.2896" lon="5.97746">
        <ele>1355</ele>
        <time>2020-08-13T17:00:10.000Z</time>
      </trkpt>
      <trkpt lat="46.28958" lon="5.97743">
        <ele>1356</ele>
        <time>2020-08-13T17:00:13.000Z</time>
      </trkpt>
      <trkpt lat="46.28954" lon="5.97738">
        <ele>1356.4000244141</ele>
        <time>2020-08-13T17:00:21.000Z</time>
      </trkpt>
      <trkpt lat="46.2895" lon="5.97732">
        <ele>1357</ele>
        <time>2020-08-13T17:00:26.000Z</time>
      </trkpt>
      <trkpt lat="46.28944" lon="5.97726">
        <ele>1357.4000244141</ele>
        <time>2020-08-13T17:00:30.000Z</time>
      </trkpt>
      <trkpt lat="46.28937" lon="5.97718">
        <ele>1358</ele>
        <time>2020-08-13T17:00:35.000Z</time>
      </trkpt>
      <trkpt lat="46.28935" lon="5.97715">
        <ele>1358.1999511719</ele>
        <time>2020-08-13T17:00:37.000Z</time>
      </trkpt>
      <trkpt lat="46.28927" lon="5.97705">
        <ele>1359.1999511719</ele>
        <time>2020-08-13T17:00:42.000Z</time>
      </trkpt>
      <trkpt lat="46.28925" lon="5.97703">
        <ele>1359.4000244141</ele>
        <time>2020-08-13T17:00:44.000Z</time>
      </trkpt>
      <trkpt lat="46.28919" lon="5.97694">
        <ele>1360.1999511719</ele>
        <time>2020-08-13T17:00:49.000Z</time>
      </trkpt>
      <trkpt lat="46.28916" lon="5.9769">
        <ele>1360.5999755859</ele>
        <time>2020-08-13T17:00:52.000Z</time>
      </trkpt>
      <trkpt lat="46.28913" lon="5.97688">
        <ele>1361.1999511719</ele>
        <time>2020-08-13T17:00:54.000Z</time>
      </trkpt>
      <trkpt lat="46.28908" lon="5.97687">
        <ele>1361.8000488281</ele>
        <time>2020-08-13T17:00:58.000Z</time>
      </trkpt>
      <trkpt lat="46.28906" lon="5.97687">
        <ele>1362.1999511719</ele>
        <time>2020-08-13T17:01:00.000Z</time>
      </trkpt>
      <trkpt lat="46.289" lon="5.97688">
        <ele>1363.4000244141</ele>
        <time>2020-08-13T17:01:05.000Z</time>
      </trkpt>
      <trkpt lat="46.28895" lon="5.97686">
        <ele>1364.1999511719</ele>
        <time>2020-08-13T17:01:09.000Z</time>
      </trkpt>
      <trkpt lat="46.28894" lon="5.97685">
        <ele>1364.4000244141</ele>
        <time>2020-08-13T17:01:10.000Z</time>
      </trkpt>
      <trkpt lat="46.28893" lon="5.97684">
        <ele>1364.5999755859</ele>
        <time>2020-08-13T17:01:11.000Z</time>
      </trkpt>
      <trkpt lat="46.28891" lon="5.97678">
        <ele>1365.4000244141</ele>
        <time>2020-08-13T17:01:15.000Z</time>
      </trkpt>
      <trkpt lat="46.28891" lon="5.97674">
        <ele>1366</ele>
        <time>2020-08-13T17:01:17.000Z</time>
      </trkpt>
      <trkpt lat="46.28891" lon="5.97672">
        <ele>1366.5999755859</ele>
        <time>2020-08-13T17:01:19.000Z</time>
      </trkpt>
      <trkpt lat="46.28889" lon="5.97666">
        <ele>1367.4000244141</ele>
        <time>2020-08-13T17:01:23.000Z</time>
      </trkpt>
      <trkpt lat="46.28889" lon="5.97665">
        <ele>1367.8000488281</ele>
        <time>2020-08-13T17:01:24.000Z</time>
      </trkpt>
      <trkpt lat="46.28889" lon="5.97661">
        <ele>1369</ele>
        <time>2020-08-13T17:01:27.000Z</time>
      </trkpt>
      <trkpt lat="46.28888" lon="5.97659">
        <ele>1369.1999511719</ele>
        <time>2020-08-13T17:01:28.000Z</time>
      </trkpt>
      <trkpt lat="46.28888" lon="5.97658">
        <ele>1369.1999511719</ele>
        <time>2020-08-13T17:01:29.000Z</time>
      </trkpt>
      <trkpt lat="46.28886" lon="5.97653">
        <ele>1370</ele>
        <time>2020-08-13T17:01:34.000Z</time>
      </trkpt>
      <trkpt lat="46.28884" lon="5.97651">
        <ele>1370.8000488281</ele>
        <time>2020-08-13T17:01:36.000Z</time>
      </trkpt>
      <trkpt lat="46.28883" lon="5.9765">
        <ele>1371.1999511719</ele>
        <time>2020-08-13T17:01:37.000Z</time>
      </trkpt>
      <trkpt lat="46.28881" lon="5.97649">
        <ele>1371.5999755859</ele>
        <time>2020-08-13T17:01:39.000Z</time>
      </trkpt>
      <trkpt lat="46.28876" lon="5.97649">
        <ele>1372.1999511719</ele>
        <time>2020-08-13T17:01:43.000Z</time>
      </trkpt>
      <trkpt lat="46.28869" lon="5.97656">
        <ele>1373.1999511719</ele>
        <time>2020-08-13T17:01:50.000Z</time>
      </trkpt>
      <trkpt lat="46.2886" lon="5.9767">
        <ele>1374.1999511719</ele>
        <time>2020-08-13T17:01:58.000Z</time>
      </trkpt>
      <trkpt lat="46.28855" lon="5.97681">
        <ele>1375.4000244141</ele>
        <time>2020-08-13T17:02:05.000Z</time>
      </trkpt>
      <trkpt lat="46.28854" lon="5.97683">
        <ele>1375.5999755859</ele>
        <time>2020-08-13T17:02:06.000Z</time>
      </trkpt>
      <trkpt lat="46.2885" lon="5.97689">
        <ele>1376.5999755859</ele>
        <time>2020-08-13T17:02:10.000Z</time>
      </trkpt>
      <trkpt lat="46.28847" lon="5.97694">
        <ele>1377.4000244141</ele>
        <time>2020-08-13T17:02:13.000Z</time>
      </trkpt>
      <trkpt lat="46.28847" lon="5.97695">
        <ele>1377.8000488281</ele>
        <time>2020-08-13T17:02:14.000Z</time>
      </trkpt>
      <trkpt lat="46.28843" lon="5.97703">
        <ele>1378.8000488281</ele>
        <time>2020-08-13T17:02:19.000Z</time>
      </trkpt>
      <trkpt lat="46.28841" lon="5.97707">
        <ele>1379.4000244141</ele>
        <time>2020-08-13T17:02:22.000Z</time>
      </trkpt>
      <trkpt lat="46.28837" lon="5.97712">
        <ele>1379.5999755859</ele>
        <time>2020-08-13T17:02:26.000Z</time>
      </trkpt>
      <trkpt lat="46.28837" lon="5.97713">
        <ele>1379.8000488281</ele>
        <time>2020-08-13T17:02:27.000Z</time>
      </trkpt>
      <trkpt lat="46.28836" lon="5.97717">
        <ele>1380.1999511719</ele>
        <time>2020-08-13T17:02:30.000Z</time>
      </trkpt>
      <trkpt lat="46.28835" lon="5.97722">
        <ele>1381.1999511719</ele>
        <time>2020-08-13T17:02:33.000Z</time>
      </trkpt>
      <trkpt lat="46.28834" lon="5.97727">
        <ele>1382.1999511719</ele>
        <time>2020-08-13T17:02:36.000Z</time>
      </trkpt>
      <trkpt lat="46.28834" lon="5.97728">
        <ele>1382.5999755859</ele>
        <time>2020-08-13T17:02:37.000Z</time>
      </trkpt>
      <trkpt lat="46.28834" lon="5.97731">
        <ele>1383.4000244141</ele>
        <time>2020-08-13T17:02:39.000Z</time>
      </trkpt>
      <trkpt lat="46.28833" lon="5.97737">
        <ele>1384.4000244141</ele>
        <time>2020-08-13T17:02:42.000Z</time>
      </trkpt>
      <trkpt lat="46.28833" lon="5.9774">
        <ele>1385.4000244141</ele>
        <time>2020-08-13T17:02:44.000Z</time>
      </trkpt>
      <trkpt lat="46.28833" lon="5.97742">
        <ele>1385.8000488281</ele>
        <time>2020-08-13T17:02:45.000Z</time>
      </trkpt>
      <trkpt lat="46.28833" lon="5.9775">
        <ele>1386.8000488281</ele>
        <time>2020-08-13T17:02:50.000Z</time>
      </trkpt>
      <trkpt lat="46.28833" lon="5.97752">
        <ele>1387.1999511719</ele>
        <time>2020-08-13T17:02:51.000Z</time>
      </trkpt>
      <trkpt lat="46.28832" lon="5.97755">
        <ele>1388</ele>
        <time>2020-08-13T17:02:53.000Z</time>
      </trkpt>
      <trkpt lat="46.28829" lon="5.97767">
        <ele>1389.1999511719</ele>
        <time>2020-08-13T17:02:58.000Z</time>
      </trkpt>
      <trkpt lat="46.28828" lon="5.97771">
        <ele>1389.8000488281</ele>
        <time>2020-08-13T17:03:00.000Z</time>
      </trkpt>
      <trkpt lat="46.28827" lon="5.97774">
        <ele>1390.4000244141</ele>
        <time>2020-08-13T17:03:02.000Z</time>
      </trkpt>
      <trkpt lat="46.28825" lon="5.97777">
        <ele>1391.4000244141</ele>
        <time>2020-08-13T17:03:04.000Z</time>
      </trkpt>
      <trkpt lat="46.2882" lon="5.97782">
        <ele>1392.1999511719</ele>
        <time>2020-08-13T17:03:08.000Z</time>
      </trkpt>
      <trkpt lat="46.28814" lon="5.9778">
        <ele>1392.5999755859</ele>
        <time>2020-08-13T17:03:12.000Z</time>
      </trkpt>
      <trkpt lat="46.28812" lon="5.97779">
        <ele>1392.8000488281</ele>
        <time>2020-08-13T17:03:14.000Z</time>
      </trkpt>
      <trkpt lat="46.28808" lon="5.97779">
        <ele>1393.8000488281</ele>
        <time>2020-08-13T17:03:17.000Z</time>
      </trkpt>
      <trkpt lat="46.28806" lon="5.97779">
        <ele>1394.4000244141</ele>
        <time>2020-08-13T17:03:19.000Z</time>
      </trkpt>
      <trkpt lat="46.28803" lon="5.97779">
        <ele>1394.5999755859</ele>
        <time>2020-08-13T17:03:21.000Z</time>
      </trkpt>
      <trkpt lat="46.28802" lon="5.97779">
        <ele>1394.8000488281</ele>
        <time>2020-08-13T17:03:22.000Z</time>
      </trkpt>
      <trkpt lat="46.28798" lon="5.97779">
        <ele>1395.8000488281</ele>
        <time>2020-08-13T17:03:26.000Z</time>
      </trkpt>
      <trkpt lat="46.28794" lon="5.97779">
        <ele>1396.8000488281</ele>
        <time>2020-08-13T17:03:29.000Z</time>
      </trkpt>
      <trkpt lat="46.28793" lon="5.9778">
        <ele>1397</ele>
        <time>2020-08-13T17:03:30.000Z</time>
      </trkpt>
      <trkpt lat="46.28788" lon="5.97778">
        <ele>1398</ele>
        <time>2020-08-13T17:03:35.000Z</time>
      </trkpt>
      <trkpt lat="46.28787" lon="5.97778">
        <ele>1398.1999511719</ele>
        <time>2020-08-13T17:03:36.000Z</time>
      </trkpt>
      <trkpt lat="46.28775" lon="5.97773">
        <ele>1398.5999755859</ele>
        <time>2020-08-13T17:03:44.000Z</time>
      </trkpt>
      <trkpt lat="46.28771" lon="5.9777">
        <ele>1399.4000244141</ele>
        <time>2020-08-13T17:03:47.000Z</time>
      </trkpt>
      <trkpt lat="46.28767" lon="5.97769">
        <ele>1400.4000244141</ele>
        <time>2020-08-13T17:03:51.000Z</time>
      </trkpt>
      <trkpt lat="46.28766" lon="5.9777">
        <ele>1400.5999755859</ele>
        <time>2020-08-13T17:03:52.000Z</time>
      </trkpt>
      <trkpt lat="46.28758" lon="5.97768">
        <ele>1401.5999755859</ele>
        <time>2020-08-13T17:03:58.000Z</time>
      </trkpt>
      <trkpt lat="46.28753" lon="5.97768">
        <ele>1402.8000488281</ele>
        <time>2020-08-13T17:04:02.000Z</time>
      </trkpt>
      <trkpt lat="46.2875" lon="5.97767">
        <ele>1403.5999755859</ele>
        <time>2020-08-13T17:04:05.000Z</time>
      </trkpt>
      <trkpt lat="46.28748" lon="5.97765">
        <ele>1404.1999511719</ele>
        <time>2020-08-13T17:04:07.000Z</time>
      </trkpt>
      <trkpt lat="46.28743" lon="5.97756">
        <ele>1405</ele>
        <time>2020-08-13T17:04:13.000Z</time>
      </trkpt>
      <trkpt lat="46.28736" lon="5.97742">
        <ele>1405.1999511719</ele>
        <time>2020-08-13T17:04:19.000Z</time>
      </trkpt>
      <trkpt lat="46.28734" lon="5.97741">
        <ele>1405.1999511719</ele>
        <time>2020-08-13T17:04:20.000Z</time>
      </trkpt>
      <trkpt lat="46.28733" lon="5.9774">
        <ele>1405.4000244141</ele>
        <time>2020-08-13T17:04:21.000Z</time>
      </trkpt>
      <trkpt lat="46.28723" lon="5.97739">
        <ele>1405.4000244141</ele>
        <time>2020-08-13T17:04:26.000Z</time>
      </trkpt>
      <trkpt lat="46.28721" lon="5.97739">
        <ele>1405.4000244141</ele>
        <time>2020-08-13T17:04:27.000Z</time>
      </trkpt>
      <trkpt lat="46.28712" lon="5.97737">
        <ele>1406.5999755859</ele>
        <time>2020-08-13T17:04:32.000Z</time>
      </trkpt>
      <trkpt lat="46.28708" lon="5.97736">
        <ele>1407</ele>
        <time>2020-08-13T17:04:35.000Z</time>
      </trkpt>
      <trkpt lat="46.28697" lon="5.97732">
        <ele>1407</ele>
        <time>2020-08-13T17:04:40.000Z</time>
      </trkpt>
      <trkpt lat="46.28692" lon="5.97729">
        <ele>1406.8000488281</ele>
        <time>2020-08-13T17:04:42.000Z</time>
      </trkpt>
      <trkpt lat="46.28679" lon="5.97715">
        <ele>1406</ele>
        <time>2020-08-13T17:04:48.000Z</time>
      </trkpt>
      <trkpt lat="46.28667" lon="5.97704">
        <ele>1407</ele>
        <time>2020-08-13T17:04:54.000Z</time>
      </trkpt>
      <trkpt lat="46.28664" lon="5.97702">
        <ele>1407.8000488281</ele>
        <time>2020-08-13T17:04:56.000Z</time>
      </trkpt>
      <trkpt lat="46.28657" lon="5.97699">
        <ele>1408.8000488281</ele>
        <time>2020-08-13T17:04:59.000Z</time>
      </trkpt>
      <trkpt lat="46.28655" lon="5.97699">
        <ele>1408.8000488281</ele>
        <time>2020-08-13T17:05:00.000Z</time>
      </trkpt>
      <trkpt lat="46.28651" lon="5.97699">
        <ele>1408.8000488281</ele>
        <time>2020-08-13T17:05:02.000Z</time>
      </trkpt>
      <trkpt lat="46.28643" lon="5.97697">
        <ele>1409</ele>
        <time>2020-08-13T17:05:06.000Z</time>
      </trkpt>
      <trkpt lat="46.28636" lon="5.97696">
        <ele>1409.8000488281</ele>
        <time>2020-08-13T17:05:09.000Z</time>
      </trkpt>
      <trkpt lat="46.28634" lon="5.97695">
        <ele>1410</ele>
        <time>2020-08-13T17:05:10.000Z</time>
      </trkpt>
      <trkpt lat="46.2863" lon="5.97691">
        <ele>1410.4000244141</ele>
        <time>2020-08-13T17:05:12.000Z</time>
      </trkpt>
      <trkpt lat="46.28624" lon="5.97686">
        <ele>1410.5999755859</ele>
        <time>2020-08-13T17:05:15.000Z</time>
      </trkpt>
      <trkpt lat="46.28611" lon="5.97668">
        <ele>1411</ele>
        <time>2020-08-13T17:05:22.000Z</time>
      </trkpt>
      <trkpt lat="46.28609" lon="5.97665">
        <ele>1411</ele>
        <time>2020-08-13T17:05:23.000Z</time>
      </trkpt>
      <trkpt lat="46.28594" lon="5.97647">
        <ele>1411.1999511719</ele>
        <time>2020-08-13T17:05:30.000Z</time>
      </trkpt>
      <trkpt lat="46.28583" lon="5.97625">
        <ele>1411.1999511719</ele>
        <time>2020-08-13T17:05:37.000Z</time>
      </trkpt>
      <trkpt lat="46.28576" lon="5.97612">
        <ele>1411.8000488281</ele>
        <time>2020-08-13T17:05:40.000Z</time>
      </trkpt>
      <trkpt lat="46.28569" lon="5.97594">
        <ele>1411.8000488281</ele>
        <time>2020-08-13T17:05:44.000Z</time>
      </trkpt>
      <trkpt lat="46.28559" lon="5.97569">
        <ele>1411.4000244141</ele>
        <time>2020-08-13T17:05:50.000Z</time>
      </trkpt>
      <trkpt lat="46.28557" lon="5.97564">
        <ele>1411.4000244141</ele>
        <time>2020-08-13T17:05:51.000Z</time>
      </trkpt>
      <trkpt lat="46.28556" lon="5.97559">
        <ele>1411.1999511719</ele>
        <time>2020-08-13T17:05:52.000Z</time>
      </trkpt>
      <trkpt lat="46.28554" lon="5.97554">
        <ele>1410.8000488281</ele>
        <time>2020-08-13T17:05:53.000Z</time>
      </trkpt>
      <trkpt lat="46.28552" lon="5.97549">
        <ele>1410.1999511719</ele>
        <time>2020-08-13T17:05:54.000Z</time>
      </trkpt>
      <trkpt lat="46.2855" lon="5.97544">
        <ele>1410.1999511719</ele>
        <time>2020-08-13T17:05:55.000Z</time>
      </trkpt>
      <trkpt lat="46.28548" lon="5.97539">
        <ele>1409.8000488281</ele>
        <time>2020-08-13T17:05:56.000Z</time>
      </trkpt>
      <trkpt lat="46.2854" lon="5.97522">
        <ele>1409</ele>
        <time>2020-08-13T17:05:59.000Z</time>
      </trkpt>
      <trkpt lat="46.28532" lon="5.97505">
        <ele>1408.8000488281</ele>
        <time>2020-08-13T17:06:02.000Z</time>
      </trkpt>
      <trkpt lat="46.2852" lon="5.97478">
        <ele>1408.8000488281</ele>
        <time>2020-08-13T17:06:07.000Z</time>
      </trkpt>
      <trkpt lat="46.28516" lon="5.97465">
        <ele>1408</ele>
        <time>2020-08-13T17:06:09.000Z</time>
      </trkpt>
      <trkpt lat="46.28513" lon="5.97457">
        <ele>1407.4000244141</ele>
        <time>2020-08-13T17:06:10.000Z</time>
      </trkpt>
      <trkpt lat="46.2851" lon="5.97449">
        <ele>1406</ele>
        <time>2020-08-13T17:06:11.000Z</time>
      </trkpt>
      <trkpt lat="46.28506" lon="5.97441">
        <ele>1404.8000488281</ele>
        <time>2020-08-13T17:06:12.000Z</time>
      </trkpt>
      <trkpt lat="46.28499" lon="5.97424">
        <ele>1403.5999755859</ele>
        <time>2020-08-13T17:06:14.000Z</time>
      </trkpt>
      <trkpt lat="46.2849" lon="5.9741">
        <ele>1403.1999511719</ele>
        <time>2020-08-13T17:06:16.000Z</time>
      </trkpt>
      <trkpt lat="46.28485" lon="5.97404">
        <ele>1403</ele>
        <time>2020-08-13T17:06:17.000Z</time>
      </trkpt>
      <trkpt lat="46.28478" lon="5.97389">
        <ele>1403</ele>
        <time>2020-08-13T17:06:20.000Z</time>
      </trkpt>
      <trkpt lat="46.28476" lon="5.97378">
        <ele>1403.5999755859</ele>
        <time>2020-08-13T17:06:23.000Z</time>
      </trkpt>
      <trkpt lat="46.28475" lon="5.97372">
        <ele>1404.1999511719</ele>
        <time>2020-08-13T17:06:25.000Z</time>
      </trkpt>
      <trkpt lat="46.28474" lon="5.97369">
        <ele>1404.5999755859</ele>
        <time>2020-08-13T17:06:26.000Z</time>
      </trkpt>
      <trkpt lat="46.28474" lon="5.97365">
        <ele>1404.8000488281</ele>
        <time>2020-08-13T17:06:27.000Z</time>
      </trkpt>
      <trkpt lat="46.28473" lon="5.97351">
        <ele>1406</ele>
        <time>2020-08-13T17:06:31.000Z</time>
      </trkpt>
      <trkpt lat="46.28473" lon="5.97337">
        <ele>1406.4000244141</ele>
        <time>2020-08-13T17:06:35.000Z</time>
      </trkpt>
      <trkpt lat="46.28473" lon="5.9733">
        <ele>1407</ele>
        <time>2020-08-13T17:06:37.000Z</time>
      </trkpt>
      <trkpt lat="46.28476" lon="5.97313">
        <ele>1408.4000244141</ele>
        <time>2020-08-13T17:06:42.000Z</time>
      </trkpt>
      <trkpt lat="46.28476" lon="5.9731">
        <ele>1408.8000488281</ele>
        <time>2020-08-13T17:06:43.000Z</time>
      </trkpt>
      <trkpt lat="46.28476" lon="5.97278">
        <ele>1409</ele>
        <time>2020-08-13T17:06:52.000Z</time>
      </trkpt>
      <trkpt lat="46.28471" lon="5.97251">
        <ele>1409.1999511719</ele>
        <time>2020-08-13T17:06:59.000Z</time>
      </trkpt>
      <trkpt lat="46.28467" lon="5.97236">
        <ele>1408.5999755859</ele>
        <time>2020-08-13T17:07:03.000Z</time>
      </trkpt>
      <trkpt lat="46.28465" lon="5.97225">
        <ele>1408.5999755859</ele>
        <time>2020-08-13T17:07:06.000Z</time>
      </trkpt>
      <trkpt lat="46.28464" lon="5.97216">
        <ele>1409.4000244141</ele>
        <time>2020-08-13T17:07:09.000Z</time>
      </trkpt>
      <trkpt lat="46.28462" lon="5.97201">
        <ele>1409.8000488281</ele>
        <time>2020-08-13T17:07:14.000Z</time>
      </trkpt>
      <trkpt lat="46.2846" lon="5.9719">
        <ele>1410.5999755859</ele>
        <time>2020-08-13T17:07:18.000Z</time>
      </trkpt>
      <trkpt lat="46.28458" lon="5.9718">
        <ele>1411.5999755859</ele>
        <time>2020-08-13T17:07:21.000Z</time>
      </trkpt>
      <trkpt lat="46.28457" lon="5.97175">
        <ele>1411.8000488281</ele>
        <time>2020-08-13T17:07:23.000Z</time>
      </trkpt>
      <trkpt lat="46.28457" lon="5.97173">
        <ele>1411.8000488281</ele>
        <time>2020-08-13T17:07:24.000Z</time>
      </trkpt>
      <trkpt lat="46.28458" lon="5.97169">
        <ele>1411.8000488281</ele>
        <time>2020-08-13T17:07:26.000Z</time>
      </trkpt>
      <trkpt lat="46.28459" lon="5.97167">
        <ele>1411.8000488281</ele>
        <time>2020-08-13T17:07:27.000Z</time>
      </trkpt>
      <trkpt lat="46.28462" lon="5.97164">
        <ele>1412.8000488281</ele>
        <time>2020-08-13T17:07:30.000Z</time>
      </trkpt>
      <trkpt lat="46.28464" lon="5.97159">
        <ele>1413.1999511719</ele>
        <time>2020-08-13T17:07:32.000Z</time>
      </trkpt>
      <trkpt lat="46.28465" lon="5.97158">
        <ele>1413.4000244141</ele>
        <time>2020-08-13T17:07:33.000Z</time>
      </trkpt>
      <trkpt lat="46.28465" lon="5.97149">
        <ele>1413.8000488281</ele>
        <time>2020-08-13T17:07:38.000Z</time>
      </trkpt>
      <trkpt lat="46.28465" lon="5.97148">
        <ele>1413.8000488281</ele>
        <time>2020-08-13T17:07:39.000Z</time>
      </trkpt>
      <trkpt lat="46.28465" lon="5.97149">
        <ele>1414</ele>
        <time>2020-08-13T17:07:43.000Z</time>
      </trkpt>
      <trkpt lat="46.28466" lon="5.97151">
        <ele>1413.8000488281</ele>
        <time>2020-08-13T17:07:46.000Z</time>
      </trkpt>
      <trkpt lat="46.28465" lon="5.9716">
        <ele>1413.8000488281</ele>
        <time>2020-08-13T17:07:49.000Z</time>
      </trkpt>
      <trkpt lat="46.28462" lon="5.97166">
        <ele>1413.5999755859</ele>
        <time>2020-08-13T17:07:51.000Z</time>
      </trkpt>
      <trkpt lat="46.2846" lon="5.97167">
        <ele>1413.5999755859</ele>
        <time>2020-08-13T17:07:52.000Z</time>
      </trkpt>
      <trkpt lat="46.28457" lon="5.97167">
        <ele>1413.4000244141</ele>
        <time>2020-08-13T17:07:53.000Z</time>
      </trkpt>
      <trkpt lat="46.28456" lon="5.97165">
        <ele>1412.5999755859</ele>
        <time>2020-08-13T17:07:54.000Z</time>
      </trkpt>
      <trkpt lat="46.28455" lon="5.97162">
        <ele>1411.8000488281</ele>
        <time>2020-08-13T17:07:55.000Z</time>
      </trkpt>
      <trkpt lat="46.28453" lon="5.97157">
        <ele>1411</ele>
        <time>2020-08-13T17:07:56.000Z</time>
      </trkpt>
      <trkpt lat="46.28447" lon="5.97146">
        <ele>1409.8000488281</ele>
        <time>2020-08-13T17:07:59.000Z</time>
      </trkpt>
      <trkpt lat="46.28441" lon="5.97139">
        <ele>1409.5999755859</ele>
        <time>2020-08-13T17:08:01.000Z</time>
      </trkpt>
      <trkpt lat="46.28422" lon="5.97118">
        <ele>1409.1999511719</ele>
        <time>2020-08-13T17:08:08.000Z</time>
      </trkpt>
      <trkpt lat="46.28415" lon="5.97109">
        <ele>1408.8000488281</ele>
        <time>2020-08-13T17:08:10.000Z</time>
      </trkpt>
      <trkpt lat="46.28407" lon="5.97097">
        <ele>1407.4000244141</ele>
        <time>2020-08-13T17:08:12.000Z</time>
      </trkpt>
      <trkpt lat="46.28403" lon="5.97092">
        <ele>1406.8000488281</ele>
        <time>2020-08-13T17:08:13.000Z</time>
      </trkpt>
      <trkpt lat="46.28395" lon="5.97084">
        <ele>1406.1999511719</ele>
        <time>2020-08-13T17:08:15.000Z</time>
      </trkpt>
      <trkpt lat="46.28378" lon="5.97069">
        <ele>1406</ele>
        <time>2020-08-13T17:08:19.000Z</time>
      </trkpt>
      <trkpt lat="46.28357" lon="5.97057">
        <ele>1406</ele>
        <time>2020-08-13T17:08:24.000Z</time>
      </trkpt>
      <trkpt lat="46.28352" lon="5.97054">
        <ele>1405.8000488281</ele>
        <time>2020-08-13T17:08:25.000Z</time>
      </trkpt>
      <trkpt lat="46.28346" lon="5.97051">
        <ele>1405.4000244141</ele>
        <time>2020-08-13T17:08:26.000Z</time>
      </trkpt>
      <trkpt lat="46.28341" lon="5.97046">
        <ele>1404.5999755859</ele>
        <time>2020-08-13T17:08:27.000Z</time>
      </trkpt>
      <trkpt lat="46.2833" lon="5.97039">
        <ele>1403.1999511719</ele>
        <time>2020-08-13T17:08:29.000Z</time>
      </trkpt>
      <trkpt lat="46.28314" lon="5.97027">
        <ele>1403.1999511719</ele>
        <time>2020-08-13T17:08:33.000Z</time>
      </trkpt>
      <trkpt lat="46.28302" lon="5.9701">
        <ele>1403.8000488281</ele>
        <time>2020-08-13T17:08:38.000Z</time>
      </trkpt>
      <trkpt lat="46.283" lon="5.97004">
        <ele>1403.8000488281</ele>
        <time>2020-08-13T17:08:39.000Z</time>
      </trkpt>
      <trkpt lat="46.28293" lon="5.96991">
        <ele>1403.4000244141</ele>
        <time>2020-08-13T17:08:41.000Z</time>
      </trkpt>
      <trkpt lat="46.28281" lon="5.96981">
        <ele>1402.5999755859</ele>
        <time>2020-08-13T17:08:43.000Z</time>
      </trkpt>
      <trkpt lat="46.28275" lon="5.96979">
        <ele>1401.8000488281</ele>
        <time>2020-08-13T17:08:44.000Z</time>
      </trkpt>
      <trkpt lat="46.28264" lon="5.96975">
        <ele>1400.5999755859</ele>
        <time>2020-08-13T17:08:46.000Z</time>
      </trkpt>
      <trkpt lat="46.28259" lon="5.96973">
        <ele>1400.5999755859</ele>
        <time>2020-08-13T17:08:47.000Z</time>
      </trkpt>
      <trkpt lat="46.28236" lon="5.96961">
        <ele>1399.5999755859</ele>
        <time>2020-08-13T17:08:52.000Z</time>
      </trkpt>
      <trkpt lat="46.28222" lon="5.9695">
        <ele>1400.5999755859</ele>
        <time>2020-08-13T17:08:57.000Z</time>
      </trkpt>
      <trkpt lat="46.28209" lon="5.9693">
        <ele>1400.8000488281</ele>
        <time>2020-08-13T17:09:02.000Z</time>
      </trkpt>
      <trkpt lat="46.28206" lon="5.96926">
        <ele>1400.8000488281</ele>
        <time>2020-08-13T17:09:03.000Z</time>
      </trkpt>
      <trkpt lat="46.28188" lon="5.96901">
        <ele>1400.8000488281</ele>
        <time>2020-08-13T17:09:08.000Z</time>
      </trkpt>
      <trkpt lat="46.28184" lon="5.9689">
        <ele>1399.5999755859</ele>
        <time>2020-08-13T17:09:10.000Z</time>
      </trkpt>
      <trkpt lat="46.2818" lon="5.96881">
        <ele>1398.1999511719</ele>
        <time>2020-08-13T17:09:12.000Z</time>
      </trkpt>
      <trkpt lat="46.28177" lon="5.96877">
        <ele>1398</ele>
        <time>2020-08-13T17:09:13.000Z</time>
      </trkpt>
      <trkpt lat="46.28162" lon="5.96852">
        <ele>1398</ele>
        <time>2020-08-13T17:09:19.000Z</time>
      </trkpt>
      <trkpt lat="46.28159" lon="5.96847">
        <ele>1396.5999755859</ele>
        <time>2020-08-13T17:09:21.000Z</time>
      </trkpt>
      <trkpt lat="46.28159" lon="5.96846">
        <ele>1396.4000244141</ele>
        <time>2020-08-13T17:09:22.000Z</time>
      </trkpt>
      <trkpt lat="46.28159" lon="5.96846">
        <ele>1396.1999511719</ele>
        <time>2020-08-13T17:09:23.000Z</time>
      </trkpt>
      <trkpt lat="46.28157" lon="5.96845">
        <ele>1396</ele>
        <time>2020-08-13T17:09:34.000Z</time>
      </trkpt>
      <trkpt lat="46.28156" lon="5.96843">
        <ele>1396</ele>
        <time>2020-08-13T17:09:41.000Z</time>
      </trkpt>
      <trkpt lat="46.28155" lon="5.96843">
        <ele>1395.8000488281</ele>
        <time>2020-08-13T17:09:52.000Z</time>
      </trkpt>
      <trkpt lat="46.28155" lon="5.96843">
        <ele>1395.5999755859</ele>
        <time>2020-08-13T17:09:53.000Z</time>
      </trkpt>
      <trkpt lat="46.28154" lon="5.9684">
        <ele>1395.8000488281</ele>
        <time>2020-08-13T17:09:55.000Z</time>
      </trkpt>
      <trkpt lat="46.2815" lon="5.96831">
        <ele>1395.5999755859</ele>
        <time>2020-08-13T17:09:58.000Z</time>
      </trkpt>
      <trkpt lat="46.28147" lon="5.9682">
        <ele>1395.4000244141</ele>
        <time>2020-08-13T17:10:00.000Z</time>
      </trkpt>
      <trkpt lat="46.28144" lon="5.96801">
        <ele>1395.1999511719</ele>
        <time>2020-08-13T17:10:03.000Z</time>
      </trkpt>
      <trkpt lat="46.28144" lon="5.96795">
        <ele>1395</ele>
        <time>2020-08-13T17:10:04.000Z</time>
      </trkpt>
      <trkpt lat="46.28143" lon="5.96781">
        <ele>1395</ele>
        <time>2020-08-13T17:10:07.000Z</time>
      </trkpt>
      <trkpt lat="46.28137" lon="5.96751">
        <ele>1395.5999755859</ele>
        <time>2020-08-13T17:10:13.000Z</time>
      </trkpt>
      <trkpt lat="46.28133" lon="5.96742">
        <ele>1395.4000244141</ele>
        <time>2020-08-13T17:10:15.000Z</time>
      </trkpt>
      <trkpt lat="46.28125" lon="5.96733">
        <ele>1395</ele>
        <time>2020-08-13T17:10:17.000Z</time>
      </trkpt>
      <trkpt lat="46.2812" lon="5.96728">
        <ele>1394.1999511719</ele>
        <time>2020-08-13T17:10:18.000Z</time>
      </trkpt>
      <trkpt lat="46.28115" lon="5.96722">
        <ele>1393.1999511719</ele>
        <time>2020-08-13T17:10:19.000Z</time>
      </trkpt>
      <trkpt lat="46.2811" lon="5.96716">
        <ele>1392.1999511719</ele>
        <time>2020-08-13T17:10:20.000Z</time>
      </trkpt>
      <trkpt lat="46.28098" lon="5.96702">
        <ele>1391</ele>
        <time>2020-08-13T17:10:22.000Z</time>
      </trkpt>
      <trkpt lat="46.28086" lon="5.96693">
        <ele>1390.4000244141</ele>
        <time>2020-08-13T17:10:24.000Z</time>
      </trkpt>
      <trkpt lat="46.28079" lon="5.96691">
        <ele>1390</ele>
        <time>2020-08-13T17:10:25.000Z</time>
      </trkpt>
      <trkpt lat="46.28072" lon="5.96689">
        <ele>1389.5999755859</ele>
        <time>2020-08-13T17:10:26.000Z</time>
      </trkpt>
      <trkpt lat="46.28057" lon="5.96686">
        <ele>1387.4000244141</ele>
        <time>2020-08-13T17:10:28.000Z</time>
      </trkpt>
      <trkpt lat="46.28044" lon="5.96681">
        <ele>1385.1999511719</ele>
        <time>2020-08-13T17:10:30.000Z</time>
      </trkpt>
      <trkpt lat="46.28037" lon="5.96677">
        <ele>1383.4000244141</ele>
        <time>2020-08-13T17:10:31.000Z</time>
      </trkpt>
      <trkpt lat="46.2803" lon="5.96673">
        <ele>1382</ele>
        <time>2020-08-13T17:10:32.000Z</time>
      </trkpt>
      <trkpt lat="46.28015" lon="5.96665">
        <ele>1380.5999755859</ele>
        <time>2020-08-13T17:10:34.000Z</time>
      </trkpt>
      <trkpt lat="46.28003" lon="5.9666">
        <ele>1380.1999511719</ele>
        <time>2020-08-13T17:10:36.000Z</time>
      </trkpt>
      <trkpt lat="46.27997" lon="5.96656">
        <ele>1379.4000244141</ele>
        <time>2020-08-13T17:10:37.000Z</time>
      </trkpt>
      <trkpt lat="46.27992" lon="5.96652">
        <ele>1378.1999511719</ele>
        <time>2020-08-13T17:10:38.000Z</time>
      </trkpt>
      <trkpt lat="46.27986" lon="5.96648">
        <ele>1376.8000488281</ele>
        <time>2020-08-13T17:10:39.000Z</time>
      </trkpt>
      <trkpt lat="46.2798" lon="5.96643">
        <ele>1375.8000488281</ele>
        <time>2020-08-13T17:10:40.000Z</time>
      </trkpt>
      <trkpt lat="46.27973" lon="5.96638">
        <ele>1374.8000488281</ele>
        <time>2020-08-13T17:10:41.000Z</time>
      </trkpt>
      <trkpt lat="46.27966" lon="5.96633">
        <ele>1374</ele>
        <time>2020-08-13T17:10:42.000Z</time>
      </trkpt>
      <trkpt lat="46.27959" lon="5.96629">
        <ele>1373.1999511719</ele>
        <time>2020-08-13T17:10:43.000Z</time>
      </trkpt>
      <trkpt lat="46.27951" lon="5.96624">
        <ele>1372.8000488281</ele>
        <time>2020-08-13T17:10:44.000Z</time>
      </trkpt>
      <trkpt lat="46.27943" lon="5.9662">
        <ele>1372.4000244141</ele>
        <time>2020-08-13T17:10:45.000Z</time>
      </trkpt>
      <trkpt lat="46.27935" lon="5.96614">
        <ele>1371.5999755859</ele>
        <time>2020-08-13T17:10:46.000Z</time>
      </trkpt>
      <trkpt lat="46.2792" lon="5.96603">
        <ele>1370.1999511719</ele>
        <time>2020-08-13T17:10:48.000Z</time>
      </trkpt>
      <trkpt lat="46.27906" lon="5.96594">
        <ele>1368.8000488281</ele>
        <time>2020-08-13T17:10:50.000Z</time>
      </trkpt>
      <trkpt lat="46.27892" lon="5.9659">
        <ele>1368.4000244141</ele>
        <time>2020-08-13T17:10:52.000Z</time>
      </trkpt>
      <trkpt lat="46.27884" lon="5.96589">
        <ele>1367.8000488281</ele>
        <time>2020-08-13T17:10:53.000Z</time>
      </trkpt>
      <trkpt lat="46.27876" lon="5.96587">
        <ele>1367.4000244141</ele>
        <time>2020-08-13T17:10:54.000Z</time>
      </trkpt>
      <trkpt lat="46.27869" lon="5.96584">
        <ele>1367</ele>
        <time>2020-08-13T17:10:55.000Z</time>
      </trkpt>
      <trkpt lat="46.27862" lon="5.9658">
        <ele>1366.8000488281</ele>
        <time>2020-08-13T17:10:56.000Z</time>
      </trkpt>
      <trkpt lat="46.2785" lon="5.96572">
        <ele>1366.1999511719</ele>
        <time>2020-08-13T17:10:58.000Z</time>
      </trkpt>
      <trkpt lat="46.27844" lon="5.96568">
        <ele>1365.4000244141</ele>
        <time>2020-08-13T17:10:59.000Z</time>
      </trkpt>
      <trkpt lat="46.27835" lon="5.96561">
        <ele>1363.8000488281</ele>
        <time>2020-08-13T17:11:01.000Z</time>
      </trkpt>
      <trkpt lat="46.27832" lon="5.96557">
        <ele>1363.1999511719</ele>
        <time>2020-08-13T17:11:02.000Z</time>
      </trkpt>
      <trkpt lat="46.27826" lon="5.96552">
        <ele>1362.5999755859</ele>
        <time>2020-08-13T17:11:04.000Z</time>
      </trkpt>
      <trkpt lat="46.2782" lon="5.96547">
        <ele>1361.4000244141</ele>
        <time>2020-08-13T17:11:06.000Z</time>
      </trkpt>
      <trkpt lat="46.27815" lon="5.96542">
        <ele>1360.5999755859</ele>
        <time>2020-08-13T17:11:08.000Z</time>
      </trkpt>
      <trkpt lat="46.27813" lon="5.96541">
        <ele>1360.4000244141</ele>
        <time>2020-08-13T17:11:10.000Z</time>
      </trkpt>
      <trkpt lat="46.27813" lon="5.96541">
        <ele>1360.1999511719</ele>
        <time>2020-08-13T17:11:11.000Z</time>
      </trkpt>
      <trkpt lat="46.27814" lon="5.96541">
        <ele>1360.1999511719</ele>
        <time>2020-08-13T17:11:12.000Z</time>
      </trkpt>
      <trkpt lat="46.27809" lon="5.96539">
        <ele>1359.8000488281</ele>
        <time>2020-08-13T17:11:21.000Z</time>
      </trkpt>
      <trkpt lat="46.27799" lon="5.96529">
        <ele>1360.5999755859</ele>
        <time>2020-08-13T17:11:34.000Z</time>
      </trkpt>
      <trkpt lat="46.27795" lon="5.96526">
        <ele>1361.5999755859</ele>
        <time>2020-08-13T17:11:38.000Z</time>
      </trkpt>
      <trkpt lat="46.2779" lon="5.9652">
        <ele>1362.5999755859</ele>
        <time>2020-08-13T17:11:46.000Z</time>
      </trkpt>
      <trkpt lat="46.27789" lon="5.96519">
        <ele>1362.8000488281</ele>
        <time>2020-08-13T17:11:47.000Z</time>
      </trkpt>
      <trkpt lat="46.27785" lon="5.96513">
        <ele>1363.5999755859</ele>
        <time>2020-08-13T17:11:53.000Z</time>
      </trkpt>
      <trkpt lat="46.27782" lon="5.96506">
        <ele>1364.1999511719</ele>
        <time>2020-08-13T17:11:59.000Z</time>
      </trkpt>
      <trkpt lat="46.27779" lon="5.96501">
        <ele>1364.5999755859</ele>
        <time>2020-08-13T17:12:03.000Z</time>
      </trkpt>
      <trkpt lat="46.27775" lon="5.96494">
        <ele>1364.5999755859</ele>
        <time>2020-08-13T17:12:09.000Z</time>
      </trkpt>
      <trkpt lat="46.27772" lon="5.96484">
        <ele>1365.1999511719</ele>
        <time>2020-08-13T17:12:17.000Z</time>
      </trkpt>
      <trkpt lat="46.27771" lon="5.96474">
        <ele>1365.5999755859</ele>
        <time>2020-08-13T17:12:25.000Z</time>
      </trkpt>
      <trkpt lat="46.27771" lon="5.96473">
        <ele>1365.5999755859</ele>
        <time>2020-08-13T17:12:28.000Z</time>
      </trkpt>
      <trkpt lat="46.2777" lon="5.96469">
        <ele>1365.8000488281</ele>
        <time>2020-08-13T17:12:32.000Z</time>
      </trkpt>
      <trkpt lat="46.27771" lon="5.96467">
        <ele>1366.1999511719</ele>
        <time>2020-08-13T17:12:35.000Z</time>
      </trkpt>
      <trkpt lat="46.27772" lon="5.96469">
        <ele>1366.4000244141</ele>
        <time>2020-08-13T17:12:46.000Z</time>
      </trkpt>
      <trkpt lat="46.27773" lon="5.96465">
        <ele>1366.1999511719</ele>
        <time>2020-08-13T17:12:51.000Z</time>
      </trkpt>
      <trkpt lat="46.27773" lon="5.96462">
        <ele>1366.4000244141</ele>
        <time>2020-08-13T17:12:53.000Z</time>
      </trkpt>
      <trkpt lat="46.27773" lon="5.96461">
        <ele>1366.4000244141</ele>
        <time>2020-08-13T17:12:54.000Z</time>
      </trkpt>
      <trkpt lat="46.27773" lon="5.96459">
        <ele>1366.8000488281</ele>
        <time>2020-08-13T17:12:56.000Z</time>
      </trkpt>
      <trkpt lat="46.27773" lon="5.96455">
        <ele>1367.1999511719</ele>
        <time>2020-08-13T17:13:02.000Z</time>
      </trkpt>
      <trkpt lat="46.27774" lon="5.96457">
        <ele>1366.8000488281</ele>
        <time>2020-08-13T17:13:13.000Z</time>
      </trkpt>
      <trkpt lat="46.27774" lon="5.96458">
        <ele>1366.5999755859</ele>
        <time>2020-08-13T17:13:22.000Z</time>
      </trkpt>
      <trkpt lat="46.27774" lon="5.96458">
        <ele>1366.4000244141</ele>
        <time>2020-08-13T17:13:25.000Z</time>
      </trkpt>
      <trkpt lat="46.27775" lon="5.96458">
        <ele>1366.5999755859</ele>
        <time>2020-08-13T17:13:29.000Z</time>
      </trkpt>
      <trkpt lat="46.27775" lon="5.96457">
        <ele>1366.5999755859</ele>
        <time>2020-08-13T17:13:32.000Z</time>
      </trkpt>
      <trkpt lat="46.27776" lon="5.96457">
        <ele>1366.1999511719</ele>
        <time>2020-08-13T17:13:38.000Z</time>
      </trkpt>
      <trkpt lat="46.27776" lon="5.96457">
        <ele>1366.1999511719</ele>
        <time>2020-08-13T17:13:39.000Z</time>
      </trkpt>
      <trkpt lat="46.27776" lon="5.96457">
        <ele>1366.1999511719</ele>
        <time>2020-08-13T17:13:40.000Z</time>
      </trkpt>
      <trkpt lat="46.27776" lon="5.96457">
        <ele>1366.4000244141</ele>
        <time>2020-08-13T17:13:41.000Z</time>
      </trkpt>
      <trkpt lat="46.27776" lon="5.96457">
        <ele>1366.1999511719</ele>
        <time>2020-08-13T17:13:42.000Z</time>
      </trkpt>
      <trkpt lat="46.27776" lon="5.96457">
        <ele>1366.1999511719</ele>
        <time>2020-08-13T17:13:43.000Z</time>
      </trkpt>
      <trkpt lat="46.27776" lon="5.96456">
        <ele>1366.1999511719</ele>
        <time>2020-08-13T17:13:44.000Z</time>
      </trkpt>
      <trkpt lat="46.27776" lon="5.96456">
        <ele>1366.4000244141</ele>
        <time>2020-08-13T17:13:45.000Z</time>
      </trkpt>
      <trkpt lat="46.27776" lon="5.96456">
        <ele>1366.4000244141</ele>
        <time>2020-08-13T17:13:46.000Z</time>
      </trkpt>
      <trkpt lat="46.27775" lon="5.96456">
        <ele>1366.4000244141</ele>
        <time>2020-08-13T17:13:51.000Z</time>
      </trkpt>
      <trkpt lat="46.27775" lon="5.96456">
        <ele>1366.4000244141</ele>
        <time>2020-08-13T17:13:53.000Z</time>
      </trkpt>
      <trkpt lat="46.27776" lon="5.96456">
        <ele>1366.1999511719</ele>
        <time>2020-08-13T17:14:07.000Z</time>
      </trkpt>
      <trkpt lat="46.27776" lon="5.96456">
        <ele>1366.1999511719</ele>
        <time>2020-08-13T17:14:09.000Z</time>
      </trkpt>
      <trkpt lat="46.27777" lon="5.96456">
        <ele>1366</ele>
        <time>2020-08-13T17:14:15.000Z</time>
      </trkpt>
      <trkpt lat="46.27777" lon="5.96455">
        <ele>1366.1999511719</ele>
        <time>2020-08-13T17:14:20.000Z</time>
      </trkpt>
      <trkpt lat="46.27777" lon="5.96456">
        <ele>1365.8000488281</ele>
        <time>2020-08-13T17:14:32.000Z</time>
      </trkpt>
      <trkpt lat="46.27778" lon="5.96457">
        <ele>1365.8000488281</ele>
        <time>2020-08-13T17:14:34.000Z</time>
      </trkpt>
      <trkpt lat="46.27778" lon="5.96456">
        <ele>1365.8000488281</ele>
        <time>2020-08-13T17:14:35.000Z</time>
      </trkpt>
      <trkpt lat="46.27779" lon="5.96458">
        <ele>1366</ele>
        <time>2020-08-13T17:14:47.000Z</time>
      </trkpt>
      <trkpt lat="46.27779" lon="5.96461">
        <ele>1365.8000488281</ele>
        <time>2020-08-13T17:14:51.000Z</time>
      </trkpt>
      <trkpt lat="46.27779" lon="5.96462">
        <ele>1365.8000488281</ele>
        <time>2020-08-13T17:14:53.000Z</time>
      </trkpt>
      <trkpt lat="46.27779" lon="5.96463">
        <ele>1366</ele>
        <time>2020-08-13T17:14:57.000Z</time>
      </trkpt>
      <trkpt lat="46.27778" lon="5.96463">
        <ele>1366</ele>
        <time>2020-08-13T17:15:02.000Z</time>
      </trkpt>
      <trkpt lat="46.27778" lon="5.96463">
        <ele>1365.8000488281</ele>
        <time>2020-08-13T17:15:03.000Z</time>
      </trkpt>
      <trkpt lat="46.27779" lon="5.96464">
        <ele>1365.5999755859</ele>
        <time>2020-08-13T17:15:13.000Z</time>
      </trkpt>
      <trkpt lat="46.27777" lon="5.96463">
        <ele>1365.4000244141</ele>
        <time>2020-08-13T17:15:25.000Z</time>
      </trkpt>
      <trkpt lat="46.27778" lon="5.96461">
        <ele>1366</ele>
        <time>2020-08-13T17:15:33.000Z</time>
      </trkpt>
      <trkpt lat="46.27779" lon="5.96459">
        <ele>1366.4000244141</ele>
        <time>2020-08-13T17:15:38.000Z</time>
      </trkpt>
      <trkpt lat="46.27779" lon="5.96458">
        <ele>1365.8000488281</ele>
        <time>2020-08-13T17:15:41.000Z</time>
      </trkpt>
      <trkpt lat="46.27779" lon="5.96456">
        <ele>1366</ele>
        <time>2020-08-13T17:15:51.000Z</time>
      </trkpt>
      <trkpt lat="46.27778" lon="5.96452">
        <ele>1366.1999511719</ele>
        <time>2020-08-13T17:15:56.000Z</time>
      </trkpt>
      <trkpt lat="46.27776" lon="5.96446">
        <ele>1366</ele>
        <time>2020-08-13T17:15:58.000Z</time>
      </trkpt>
      <trkpt lat="46.27772" lon="5.96435">
        <ele>1365.5999755859</ele>
        <time>2020-08-13T17:16:01.000Z</time>
      </trkpt>
      <trkpt lat="46.27767" lon="5.9643">
        <ele>1365.5999755859</ele>
        <time>2020-08-13T17:16:03.000Z</time>
      </trkpt>
      <trkpt lat="46.27759" lon="5.96428">
        <ele>1366.4000244141</ele>
        <time>2020-08-13T17:16:07.000Z</time>
      </trkpt>
      <trkpt lat="46.27757" lon="5.96428">
        <ele>1366.8000488281</ele>
        <time>2020-08-13T17:16:08.000Z</time>
      </trkpt>
      <trkpt lat="46.27755" lon="5.96429">
        <ele>1367.1999511719</ele>
        <time>2020-08-13T17:16:09.000Z</time>
      </trkpt>
      <trkpt lat="46.27749" lon="5.9643">
        <ele>1368.1999511719</ele>
        <time>2020-08-13T17:16:12.000Z</time>
      </trkpt>
      <trkpt lat="46.27747" lon="5.9643">
        <ele>1368.5999755859</ele>
        <time>2020-08-13T17:16:13.000Z</time>
      </trkpt>
      <trkpt lat="46.27746" lon="5.96431">
        <ele>1368.8000488281</ele>
        <time>2020-08-13T17:16:14.000Z</time>
      </trkpt>
      <trkpt lat="46.27744" lon="5.96432">
        <ele>1369.1999511719</ele>
        <time>2020-08-13T17:16:15.000Z</time>
      </trkpt>
      <trkpt lat="46.27743" lon="5.96434">
        <ele>1369.4000244141</ele>
        <time>2020-08-13T17:16:16.000Z</time>
      </trkpt>
      <trkpt lat="46.27741" lon="5.96435">
        <ele>1369.5999755859</ele>
        <time>2020-08-13T17:16:17.000Z</time>
      </trkpt>
      <trkpt lat="46.27739" lon="5.96435">
        <ele>1370</ele>
        <time>2020-08-13T17:16:18.000Z</time>
      </trkpt>
      <trkpt lat="46.27738" lon="5.96435">
        <ele>1370.1999511719</ele>
        <time>2020-08-13T17:16:19.000Z</time>
      </trkpt>
      <trkpt lat="46.27736" lon="5.96435">
        <ele>1370.5999755859</ele>
        <time>2020-08-13T17:16:20.000Z</time>
      </trkpt>
      <trkpt lat="46.27728" lon="5.96433">
        <ele>1371.8000488281</ele>
        <time>2020-08-13T17:16:25.000Z</time>
      </trkpt>
      <trkpt lat="46.27725" lon="5.9643">
        <ele>1372.1999511719</ele>
        <time>2020-08-13T17:16:27.000Z</time>
      </trkpt>
      <trkpt lat="46.27711" lon="5.9642">
        <ele>1372</ele>
        <time>2020-08-13T17:16:34.000Z</time>
      </trkpt>
      <trkpt lat="46.27709" lon="5.96419">
        <ele>1372</ele>
        <time>2020-08-13T17:16:35.000Z</time>
      </trkpt>
      <trkpt lat="46.27697" lon="5.9641">
        <ele>1372.8000488281</ele>
        <time>2020-08-13T17:16:41.000Z</time>
      </trkpt>
      <trkpt lat="46.27695" lon="5.96408">
        <ele>1373</ele>
        <time>2020-08-13T17:16:42.000Z</time>
      </trkpt>
      <trkpt lat="46.27679" lon="5.96388">
        <ele>1374</ele>
        <time>2020-08-13T17:16:51.000Z</time>
      </trkpt>
      <trkpt lat="46.27669" lon="5.96372">
        <ele>1374.5999755859</ele>
        <time>2020-08-13T17:16:58.000Z</time>
      </trkpt>
      <trkpt lat="46.27664" lon="5.96365">
        <ele>1375</ele>
        <time>2020-08-13T17:17:02.000Z</time>
      </trkpt>
      <trkpt lat="46.27659" lon="5.96359">
        <ele>1375.8000488281</ele>
        <time>2020-08-13T17:17:06.000Z</time>
      </trkpt>
      <trkpt lat="46.27657" lon="5.96357">
        <ele>1376</ele>
        <time>2020-08-13T17:17:07.000Z</time>
      </trkpt>
      <trkpt lat="46.27654" lon="5.96353">
        <ele>1376.5999755859</ele>
        <time>2020-08-13T17:17:10.000Z</time>
      </trkpt>
      <trkpt lat="46.27653" lon="5.96352">
        <ele>1377</ele>
        <time>2020-08-13T17:17:11.000Z</time>
      </trkpt>
      <trkpt lat="46.27649" lon="5.96349">
        <ele>1378</ele>
        <time>2020-08-13T17:17:14.000Z</time>
      </trkpt>
      <trkpt lat="46.27648" lon="5.96349">
        <ele>1378.1999511719</ele>
        <time>2020-08-13T17:17:15.000Z</time>
      </trkpt>
      <trkpt lat="46.27643" lon="5.96345">
        <ele>1379.1999511719</ele>
        <time>2020-08-13T17:17:19.000Z</time>
      </trkpt>
      <trkpt lat="46.27641" lon="5.96344">
        <ele>1379.4000244141</ele>
        <time>2020-08-13T17:17:20.000Z</time>
      </trkpt>
      <trkpt lat="46.27634" lon="5.96339">
        <ele>1380</ele>
        <time>2020-08-13T17:17:26.000Z</time>
      </trkpt>
      <trkpt lat="46.2763" lon="5.9634">
        <ele>1380.1999511719</ele>
        <time>2020-08-13T17:17:28.000Z</time>
      </trkpt>
      <trkpt lat="46.27622" lon="5.96333">
        <ele>1380</ele>
        <time>2020-08-13T17:17:34.000Z</time>
      </trkpt>
      <trkpt lat="46.27623" lon="5.96331">
        <ele>1379.4000244141</ele>
        <time>2020-08-13T17:17:44.000Z</time>
      </trkpt>
      <trkpt lat="46.27623" lon="5.96331">
        <ele>1379.1999511719</ele>
        <time>2020-08-13T17:17:47.000Z</time>
      </trkpt>
      <trkpt lat="46.27623" lon="5.9633">
        <ele>1378.8000488281</ele>
        <time>2020-08-13T17:17:51.000Z</time>
      </trkpt>
      <trkpt lat="46.27622" lon="5.9633">
        <ele>1378.8000488281</ele>
        <time>2020-08-13T17:17:53.000Z</time>
      </trkpt>
      <trkpt lat="46.27623" lon="5.9633">
        <ele>1379</ele>
        <time>2020-08-13T17:17:56.000Z</time>
      </trkpt>
      <trkpt lat="46.27623" lon="5.9633">
        <ele>1379.5999755859</ele>
        <time>2020-08-13T17:18:03.000Z</time>
      </trkpt>
      <trkpt lat="46.27623" lon="5.9633">
        <ele>1379.4000244141</ele>
        <time>2020-08-13T17:18:11.000Z</time>
      </trkpt>
      <trkpt lat="46.27623" lon="5.9633">
        <ele>1379.4000244141</ele>
        <time>2020-08-13T17:18:12.000Z</time>
      </trkpt>
      <trkpt lat="46.27623" lon="5.9633">
        <ele>1379.4000244141</ele>
        <time>2020-08-13T17:18:13.000Z</time>
      </trkpt>
      <trkpt lat="46.2762" lon="5.96327">
        <ele>1379.5999755859</ele>
        <time>2020-08-13T17:18:19.000Z</time>
      </trkpt>
      <trkpt lat="46.27615" lon="5.96317">
        <ele>1379.5999755859</ele>
        <time>2020-08-13T17:18:22.000Z</time>
      </trkpt>
      <trkpt lat="46.27614" lon="5.96313">
        <ele>1379.4000244141</ele>
        <time>2020-08-13T17:18:23.000Z</time>
      </trkpt>
      <trkpt lat="46.27612" lon="5.96309">
        <ele>1379.4000244141</ele>
        <time>2020-08-13T17:18:24.000Z</time>
      </trkpt>
      <trkpt lat="46.27608" lon="5.96301">
        <ele>1379.1999511719</ele>
        <time>2020-08-13T17:18:26.000Z</time>
      </trkpt>
      <trkpt lat="46.27603" lon="5.9629">
        <ele>1379.1999511719</ele>
        <time>2020-08-13T17:18:29.000Z</time>
      </trkpt>
      <trkpt lat="46.27599" lon="5.96279">
        <ele>1379.5999755859</ele>
        <time>2020-08-13T17:18:32.000Z</time>
      </trkpt>
      <trkpt lat="46.27593" lon="5.9627">
        <ele>1380.4000244141</ele>
        <time>2020-08-13T17:18:35.000Z</time>
      </trkpt>
      <trkpt lat="46.27589" lon="5.96267">
        <ele>1380.8000488281</ele>
        <time>2020-08-13T17:18:37.000Z</time>
      </trkpt>
      <trkpt lat="46.27585" lon="5.96265">
        <ele>1381.4000244141</ele>
        <time>2020-08-13T17:18:39.000Z</time>
      </trkpt>
      <trkpt lat="46.27576" lon="5.96261">
        <ele>1381.4000244141</ele>
        <time>2020-08-13T17:18:42.000Z</time>
      </trkpt>
      <trkpt lat="46.27571" lon="5.9626">
        <ele>1380.8000488281</ele>
        <time>2020-08-13T17:18:43.000Z</time>
      </trkpt>
      <trkpt lat="46.27566" lon="5.96258">
        <ele>1379.5999755859</ele>
        <time>2020-08-13T17:18:44.000Z</time>
      </trkpt>
      <trkpt lat="46.2756" lon="5.96255">
        <ele>1378.4000244141</ele>
        <time>2020-08-13T17:18:45.000Z</time>
      </trkpt>
      <trkpt lat="46.27553" lon="5.96251">
        <ele>1377.5999755859</ele>
        <time>2020-08-13T17:18:46.000Z</time>
      </trkpt>
      <trkpt lat="46.27547" lon="5.96247">
        <ele>1376.8000488281</ele>
        <time>2020-08-13T17:18:47.000Z</time>
      </trkpt>
      <trkpt lat="46.27542" lon="5.96241">
        <ele>1376.1999511719</ele>
        <time>2020-08-13T17:18:48.000Z</time>
      </trkpt>
      <trkpt lat="46.27537" lon="5.96235">
        <ele>1375.4000244141</ele>
        <time>2020-08-13T17:18:49.000Z</time>
      </trkpt>
      <trkpt lat="46.27532" lon="5.96229">
        <ele>1374.8000488281</ele>
        <time>2020-08-13T17:18:50.000Z</time>
      </trkpt>
      <trkpt lat="46.27529" lon="5.96222">
        <ele>1374.1999511719</ele>
        <time>2020-08-13T17:18:51.000Z</time>
      </trkpt>
      <trkpt lat="46.27525" lon="5.96213">
        <ele>1373.5999755859</ele>
        <time>2020-08-13T17:18:52.000Z</time>
      </trkpt>
      <trkpt lat="46.2752" lon="5.96197">
        <ele>1372.8000488281</ele>
        <time>2020-08-13T17:18:54.000Z</time>
      </trkpt>
      <trkpt lat="46.27516" lon="5.96189">
        <ele>1372</ele>
        <time>2020-08-13T17:18:55.000Z</time>
      </trkpt>
      <trkpt lat="46.27513" lon="5.9618">
        <ele>1371.4000244141</ele>
        <time>2020-08-13T17:18:56.000Z</time>
      </trkpt>
      <trkpt lat="46.27503" lon="5.96157">
        <ele>1370.1999511719</ele>
        <time>2020-08-13T17:18:59.000Z</time>
      </trkpt>
      <trkpt lat="46.27501" lon="5.9615">
        <ele>1370</ele>
        <time>2020-08-13T17:19:00.000Z</time>
      </trkpt>
      <trkpt lat="46.27498" lon="5.96137">
        <ele>1370.5999755859</ele>
        <time>2020-08-13T17:19:03.000Z</time>
      </trkpt>
      <trkpt lat="46.275" lon="5.96127">
        <ele>1371.1999511719</ele>
        <time>2020-08-13T17:19:07.000Z</time>
      </trkpt>
      <trkpt lat="46.275" lon="5.96123">
        <ele>1371.5999755859</ele>
        <time>2020-08-13T17:19:09.000Z</time>
      </trkpt>
      <trkpt lat="46.27498" lon="5.96116">
        <ele>1372.1999511719</ele>
        <time>2020-08-13T17:19:12.000Z</time>
      </trkpt>
      <trkpt lat="46.27498" lon="5.96113">
        <ele>1372.4000244141</ele>
        <time>2020-08-13T17:19:13.000Z</time>
      </trkpt>
      <trkpt lat="46.27495" lon="5.96105">
        <ele>1373</ele>
        <time>2020-08-13T17:19:17.000Z</time>
      </trkpt>
      <trkpt lat="46.27494" lon="5.961">
        <ele>1373.5999755859</ele>
        <time>2020-08-13T17:19:19.000Z</time>
      </trkpt>
      <trkpt lat="46.27489" lon="5.96093">
        <ele>1374.4000244141</ele>
        <time>2020-08-13T17:19:23.000Z</time>
      </trkpt>
      <trkpt lat="46.27482" lon="5.96089">
        <ele>1374.4000244141</ele>
        <time>2020-08-13T17:19:26.000Z</time>
      </trkpt>
      <trkpt lat="46.27478" lon="5.96086">
        <ele>1374.4000244141</ele>
        <time>2020-08-13T17:19:28.000Z</time>
      </trkpt>
      <trkpt lat="46.27476" lon="5.96085">
        <ele>1374.8000488281</ele>
        <time>2020-08-13T17:19:29.000Z</time>
      </trkpt>
      <trkpt lat="46.27469" lon="5.96078">
        <ele>1375.8000488281</ele>
        <time>2020-08-13T17:19:35.000Z</time>
      </trkpt>
      <trkpt lat="46.27466" lon="5.96072">
        <ele>1377</ele>
        <time>2020-08-13T17:19:38.000Z</time>
      </trkpt>
      <trkpt lat="46.27462" lon="5.96066">
        <ele>1377.4000244141</ele>
        <time>2020-08-13T17:19:41.000Z</time>
      </trkpt>
      <trkpt lat="46.27456" lon="5.96047">
        <ele>1376.8000488281</ele>
        <time>2020-08-13T17:19:48.000Z</time>
      </trkpt>
      <trkpt lat="46.27449" lon="5.96027">
        <ele>1376.8000488281</ele>
        <time>2020-08-13T17:19:55.000Z</time>
      </trkpt>
      <trkpt lat="46.27443" lon="5.96022">
        <ele>1378</ele>
        <time>2020-08-13T17:19:59.000Z</time>
      </trkpt>
      <trkpt lat="46.27439" lon="5.96018">
        <ele>1379.1999511719</ele>
        <time>2020-08-13T17:20:02.000Z</time>
      </trkpt>
      <trkpt lat="46.27438" lon="5.96016">
        <ele>1379.4000244141</ele>
        <time>2020-08-13T17:20:03.000Z</time>
      </trkpt>
      <trkpt lat="46.27438" lon="5.96014">
        <ele>1379.5999755859</ele>
        <time>2020-08-13T17:20:04.000Z</time>
      </trkpt>
      <trkpt lat="46.27436" lon="5.96011">
        <ele>1379.8000488281</ele>
        <time>2020-08-13T17:20:06.000Z</time>
      </trkpt>
      <trkpt lat="46.27434" lon="5.96006">
        <ele>1380.4000244141</ele>
        <time>2020-08-13T17:20:09.000Z</time>
      </trkpt>
      <trkpt lat="46.27433" lon="5.96005">
        <ele>1380.5999755859</ele>
        <time>2020-08-13T17:20:10.000Z</time>
      </trkpt>
      <trkpt lat="46.27429" lon="5.95997">
        <ele>1381.4000244141</ele>
        <time>2020-08-13T17:20:16.000Z</time>
      </trkpt>
      <trkpt lat="46.27429" lon="5.95996">
        <ele>1381.5999755859</ele>
        <time>2020-08-13T17:20:17.000Z</time>
      </trkpt>
      <trkpt lat="46.27428" lon="5.95997">
        <ele>1381.4000244141</ele>
        <time>2020-08-13T17:20:23.000Z</time>
      </trkpt>
      <trkpt lat="46.27428" lon="5.95997">
        <ele>1381.4000244141</ele>
        <time>2020-08-13T17:20:25.000Z</time>
      </trkpt>
      <trkpt lat="46.27428" lon="5.95997">
        <ele>1381.4000244141</ele>
        <time>2020-08-13T17:20:26.000Z</time>
      </trkpt>
      <trkpt lat="46.27426" lon="5.95997">
        <ele>1381.8000488281</ele>
        <time>2020-08-13T17:20:40.000Z</time>
      </trkpt>
      <trkpt lat="46.27424" lon="5.95991">
        <ele>1382.5999755859</ele>
        <time>2020-08-13T17:20:45.000Z</time>
      </trkpt>
      <trkpt lat="46.27424" lon="5.9599">
        <ele>1382.8000488281</ele>
        <time>2020-08-13T17:20:46.000Z</time>
      </trkpt>
      <trkpt lat="46.27421" lon="5.95984">
        <ele>1383.4000244141</ele>
        <time>2020-08-13T17:20:50.000Z</time>
      </trkpt>
      <trkpt lat="46.27419" lon="5.95978">
        <ele>1384</ele>
        <time>2020-08-13T17:20:54.000Z</time>
      </trkpt>
      <trkpt lat="46.27416" lon="5.95973">
        <ele>1384.1999511719</ele>
        <time>2020-08-13T17:20:59.000Z</time>
      </trkpt>
      <trkpt lat="46.27412" lon="5.95965">
        <ele>1385</ele>
        <time>2020-08-13T17:21:04.000Z</time>
      </trkpt>
      <trkpt lat="46.27411" lon="5.95963">
        <ele>1385.1999511719</ele>
        <time>2020-08-13T17:21:06.000Z</time>
      </trkpt>
      <trkpt lat="46.27409" lon="5.95959">
        <ele>1385.5999755859</ele>
        <time>2020-08-13T17:21:09.000Z</time>
      </trkpt>
      <trkpt lat="46.27409" lon="5.95958">
        <ele>1386</ele>
        <time>2020-08-13T17:21:10.000Z</time>
      </trkpt>
      <trkpt lat="46.27408" lon="5.95958">
        <ele>1386.1999511719</ele>
        <time>2020-08-13T17:21:11.000Z</time>
      </trkpt>
      <trkpt lat="46.27407" lon="5.95955">
        <ele>1387</ele>
        <time>2020-08-13T17:21:15.000Z</time>
      </trkpt>
      <trkpt lat="46.27406" lon="5.95953">
        <ele>1387.4000244141</ele>
        <time>2020-08-13T17:21:17.000Z</time>
      </trkpt>
      <trkpt lat="46.27402" lon="5.95945">
        <ele>1388.4000244141</ele>
        <time>2020-08-13T17:21:24.000Z</time>
      </trkpt>
      <trkpt lat="46.27401" lon="5.95939">
        <ele>1389.4000244141</ele>
        <time>2020-08-13T17:21:28.000Z</time>
      </trkpt>
      <trkpt lat="46.274" lon="5.95935">
        <ele>1389.5999755859</ele>
        <time>2020-08-13T17:21:31.000Z</time>
      </trkpt>
      <trkpt lat="46.27399" lon="5.9593">
        <ele>1390.4000244141</ele>
        <time>2020-08-13T17:21:35.000Z</time>
      </trkpt>
      <trkpt lat="46.27396" lon="5.95921">
        <ele>1391.5999755859</ele>
        <time>2020-08-13T17:21:41.000Z</time>
      </trkpt>
      <trkpt lat="46.27394" lon="5.95914">
        <ele>1392.5999755859</ele>
        <time>2020-08-13T17:21:47.000Z</time>
      </trkpt>
      <trkpt lat="46.27393" lon="5.95913">
        <ele>1392.8000488281</ele>
        <time>2020-08-13T17:21:48.000Z</time>
      </trkpt>
      <trkpt lat="46.2739" lon="5.95898">
        <ele>1393.8000488281</ele>
        <time>2020-08-13T17:21:58.000Z</time>
      </trkpt>
      <trkpt lat="46.2739" lon="5.95896">
        <ele>1394</ele>
        <time>2020-08-13T17:21:59.000Z</time>
      </trkpt>
      <trkpt lat="46.27386" lon="5.95888">
        <ele>1395</ele>
        <time>2020-08-13T17:22:06.000Z</time>
      </trkpt>
      <trkpt lat="46.27383" lon="5.95878">
        <ele>1396</ele>
        <time>2020-08-13T17:22:12.000Z</time>
      </trkpt>
      <trkpt lat="46.27378" lon="5.95869">
        <ele>1397</ele>
        <time>2020-08-13T17:22:18.000Z</time>
      </trkpt>
      <trkpt lat="46.27376" lon="5.95862">
        <ele>1398</ele>
        <time>2020-08-13T17:22:25.000Z</time>
      </trkpt>
      <trkpt lat="46.27376" lon="5.95859">
        <ele>1398.1999511719</ele>
        <time>2020-08-13T17:22:27.000Z</time>
      </trkpt>
      <trkpt lat="46.27375" lon="5.95856">
        <ele>1398.1999511719</ele>
        <time>2020-08-13T17:22:35.000Z</time>
      </trkpt>
      <trkpt lat="46.27375" lon="5.95856">
        <ele>1398</ele>
        <time>2020-08-13T17:22:37.000Z</time>
      </trkpt>
      <trkpt lat="46.27375" lon="5.95855">
        <ele>1399</ele>
        <time>2020-08-13T17:22:45.000Z</time>
      </trkpt>
      <trkpt lat="46.27375" lon="5.95855">
        <ele>1398.4000244141</ele>
        <time>2020-08-13T17:22:51.000Z</time>
      </trkpt>
      <trkpt lat="46.27373" lon="5.95859">
        <ele>1398.1999511719</ele>
        <time>2020-08-13T17:23:01.000Z</time>
      </trkpt>
      <trkpt lat="46.27374" lon="5.9586">
        <ele>1397.8000488281</ele>
        <time>2020-08-13T17:23:05.000Z</time>
      </trkpt>
      <trkpt lat="46.27375" lon="5.9586">
        <ele>1398.1999511719</ele>
        <time>2020-08-13T17:23:14.000Z</time>
      </trkpt>
      <trkpt lat="46.27375" lon="5.95861">
        <ele>1398.4000244141</ele>
        <time>2020-08-13T17:23:18.000Z</time>
      </trkpt>
      <trkpt lat="46.27374" lon="5.9586">
        <ele>1398.5999755859</ele>
        <time>2020-08-13T17:23:31.000Z</time>
      </trkpt>
      <trkpt lat="46.27374" lon="5.9586">
        <ele>1398.5999755859</ele>
        <time>2020-08-13T17:23:33.000Z</time>
      </trkpt>
      <trkpt lat="46.27375" lon="5.9586">
        <ele>1397.8000488281</ele>
        <time>2020-08-13T17:23:46.000Z</time>
      </trkpt>
      <trkpt lat="46.27375" lon="5.95861">
        <ele>1397.8000488281</ele>
        <time>2020-08-13T17:23:48.000Z</time>
      </trkpt>
      <trkpt lat="46.27375" lon="5.95861">
        <ele>1397.8000488281</ele>
        <time>2020-08-13T17:23:50.000Z</time>
      </trkpt>
      <trkpt lat="46.27376" lon="5.9586">
        <ele>1397.8000488281</ele>
        <time>2020-08-13T17:23:53.000Z</time>
      </trkpt>
      <trkpt lat="46.27377" lon="5.95863">
        <ele>1397.8000488281</ele>
        <time>2020-08-13T17:23:58.000Z</time>
      </trkpt>
      <trkpt lat="46.27378" lon="5.95866">
        <ele>1397.8000488281</ele>
        <time>2020-08-13T17:23:59.000Z</time>
      </trkpt>
      <trkpt lat="46.27384" lon="5.95885">
        <ele>1397.5999755859</ele>
        <time>2020-08-13T17:24:02.000Z</time>
      </trkpt>
      <trkpt lat="46.27386" lon="5.95893">
        <ele>1396.5999755859</ele>
        <time>2020-08-13T17:24:03.000Z</time>
      </trkpt>
      <trkpt lat="46.27388" lon="5.95902">
        <ele>1395.1999511719</ele>
        <time>2020-08-13T17:24:04.000Z</time>
      </trkpt>
      <trkpt lat="46.27389" lon="5.9591">
        <ele>1393.8000488281</ele>
        <time>2020-08-13T17:24:05.000Z</time>
      </trkpt>
      <trkpt lat="46.27392" lon="5.95917">
        <ele>1392.4000244141</ele>
        <time>2020-08-13T17:24:06.000Z</time>
      </trkpt>
      <trkpt lat="46.27393" lon="5.95923">
        <ele>1391.4000244141</ele>
        <time>2020-08-13T17:24:07.000Z</time>
      </trkpt>
      <trkpt lat="46.27395" lon="5.95929">
        <ele>1390.5999755859</ele>
        <time>2020-08-13T17:24:08.000Z</time>
      </trkpt>
      <trkpt lat="46.27396" lon="5.95936">
        <ele>1390</ele>
        <time>2020-08-13T17:24:09.000Z</time>
      </trkpt>
      <trkpt lat="46.27399" lon="5.95942">
        <ele>1389.1999511719</ele>
        <time>2020-08-13T17:24:10.000Z</time>
      </trkpt>
      <trkpt lat="46.27401" lon="5.95948">
        <ele>1388.4000244141</ele>
        <time>2020-08-13T17:24:11.000Z</time>
      </trkpt>
      <trkpt lat="46.27405" lon="5.95955">
        <ele>1387.5999755859</ele>
        <time>2020-08-13T17:24:12.000Z</time>
      </trkpt>
      <trkpt lat="46.27413" lon="5.9597">
        <ele>1386.8000488281</ele>
        <time>2020-08-13T17:24:14.000Z</time>
      </trkpt>
      <trkpt lat="46.27416" lon="5.95978">
        <ele>1386.1999511719</ele>
        <time>2020-08-13T17:24:15.000Z</time>
      </trkpt>
      <trkpt lat="46.2742" lon="5.95986">
        <ele>1384.8000488281</ele>
        <time>2020-08-13T17:24:16.000Z</time>
      </trkpt>
      <trkpt lat="46.27424" lon="5.95995">
        <ele>1383</ele>
        <time>2020-08-13T17:24:17.000Z</time>
      </trkpt>
      <trkpt lat="46.27428" lon="5.96003">
        <ele>1381.8000488281</ele>
        <time>2020-08-13T17:24:18.000Z</time>
      </trkpt>
      <trkpt lat="46.27436" lon="5.96015">
        <ele>1380.4000244141</ele>
        <time>2020-08-13T17:24:20.000Z</time>
      </trkpt>
      <trkpt lat="46.2744" lon="5.96019">
        <ele>1379.4000244141</ele>
        <time>2020-08-13T17:24:21.000Z</time>
      </trkpt>
      <trkpt lat="46.27445" lon="5.96023">
        <ele>1378.4000244141</ele>
        <time>2020-08-13T17:24:22.000Z</time>
      </trkpt>
      <trkpt lat="46.27449" lon="5.96029">
        <ele>1377.1999511719</ele>
        <time>2020-08-13T17:24:23.000Z</time>
      </trkpt>
      <trkpt lat="46.27453" lon="5.96035">
        <ele>1376.5999755859</ele>
        <time>2020-08-13T17:24:24.000Z</time>
      </trkpt>
      <trkpt lat="46.27455" lon="5.96041">
        <ele>1376.4000244141</ele>
        <time>2020-08-13T17:24:25.000Z</time>
      </trkpt>
      <trkpt lat="46.27457" lon="5.96047">
        <ele>1376</ele>
        <time>2020-08-13T17:24:26.000Z</time>
      </trkpt>
      <trkpt lat="46.27463" lon="5.96061">
        <ele>1376</ele>
        <time>2020-08-13T17:24:29.000Z</time>
      </trkpt>
      <trkpt lat="46.27468" lon="5.96067">
        <ele>1375.8000488281</ele>
        <time>2020-08-13T17:24:31.000Z</time>
      </trkpt>
      <trkpt lat="46.2747" lon="5.9607">
        <ele>1375.8000488281</ele>
        <time>2020-08-13T17:24:32.000Z</time>
      </trkpt>
      <trkpt lat="46.27474" lon="5.96077">
        <ele>1375.4000244141</ele>
        <time>2020-08-13T17:24:34.000Z</time>
      </trkpt>
      <trkpt lat="46.27477" lon="5.96081">
        <ele>1375.1999511719</ele>
        <time>2020-08-13T17:24:35.000Z</time>
      </trkpt>
      <trkpt lat="46.2748" lon="5.96084">
        <ele>1374.5999755859</ele>
        <time>2020-08-13T17:24:36.000Z</time>
      </trkpt>
      <trkpt lat="46.27487" lon="5.9609">
        <ele>1373.4000244141</ele>
        <time>2020-08-13T17:24:38.000Z</time>
      </trkpt>
      <trkpt lat="46.27494" lon="5.96098">
        <ele>1373</ele>
        <time>2020-08-13T17:24:40.000Z</time>
      </trkpt>
      <trkpt lat="46.27498" lon="5.96111">
        <ele>1372.1999511719</ele>
        <time>2020-08-13T17:24:42.000Z</time>
      </trkpt>
      <trkpt lat="46.27501" lon="5.96124">
        <ele>1371</ele>
        <time>2020-08-13T17:24:44.000Z</time>
      </trkpt>
      <trkpt lat="46.27502" lon="5.96131">
        <ele>1370.4000244141</ele>
        <time>2020-08-13T17:24:45.000Z</time>
      </trkpt>
      <trkpt lat="46.27502" lon="5.96142">
        <ele>1369.8000488281</ele>
        <time>2020-08-13T17:24:47.000Z</time>
      </trkpt>
      <trkpt lat="46.27503" lon="5.96147">
        <ele>1369.1999511719</ele>
        <time>2020-08-13T17:24:48.000Z</time>
      </trkpt>
      <trkpt lat="46.27505" lon="5.96158">
        <ele>1368.5999755859</ele>
        <time>2020-08-13T17:24:50.000Z</time>
      </trkpt>
      <trkpt lat="46.27512" lon="5.96175">
        <ele>1368.1999511719</ele>
        <time>2020-08-13T17:24:54.000Z</time>
      </trkpt>
      <trkpt lat="46.2752" lon="5.96197">
        <ele>1369.5999755859</ele>
        <time>2020-08-13T17:24:59.000Z</time>
      </trkpt>
      <trkpt lat="46.27523" lon="5.96206">
        <ele>1370</ele>
        <time>2020-08-13T17:25:01.000Z</time>
      </trkpt>
      <trkpt lat="46.27531" lon="5.96226">
        <ele>1370.5999755859</ele>
        <time>2020-08-13T17:25:06.000Z</time>
      </trkpt>
      <trkpt lat="46.27532" lon="5.9623">
        <ele>1371.1999511719</ele>
        <time>2020-08-13T17:25:07.000Z</time>
      </trkpt>
      <trkpt lat="46.27533" lon="5.96235">
        <ele>1371.8000488281</ele>
        <time>2020-08-13T17:25:08.000Z</time>
      </trkpt>
      <trkpt lat="46.27538" lon="5.96242">
        <ele>1373</ele>
        <time>2020-08-13T17:25:11.000Z</time>
      </trkpt>
      <trkpt lat="46.27543" lon="5.96243">
        <ele>1373.1999511719</ele>
        <time>2020-08-13T17:25:13.000Z</time>
      </trkpt>
      <trkpt lat="46.27555" lon="5.96251">
        <ele>1374</ele>
        <time>2020-08-13T17:25:19.000Z</time>
      </trkpt>
      <trkpt lat="46.27557" lon="5.96252">
        <ele>1374.4000244141</ele>
        <time>2020-08-13T17:25:20.000Z</time>
      </trkpt>
      <trkpt lat="46.2756" lon="5.96253">
        <ele>1375.1999511719</ele>
        <time>2020-08-13T17:25:22.000Z</time>
      </trkpt>
      <trkpt lat="46.27565" lon="5.96254">
        <ele>1376</ele>
        <time>2020-08-13T17:25:25.000Z</time>
      </trkpt>
      <trkpt lat="46.27566" lon="5.96254">
        <ele>1376.4000244141</ele>
        <time>2020-08-13T17:25:26.000Z</time>
      </trkpt>
      <trkpt lat="46.27569" lon="5.96254">
        <ele>1376.8000488281</ele>
        <time>2020-08-13T17:25:28.000Z</time>
      </trkpt>
      <trkpt lat="46.27573" lon="5.96256">
        <ele>1377.5999755859</ele>
        <time>2020-08-13T17:25:32.000Z</time>
      </trkpt>
      <trkpt lat="46.27578" lon="5.96259">
        <ele>1378.8000488281</ele>
        <time>2020-08-13T17:25:36.000Z</time>
      </trkpt>
      <trkpt lat="46.27589" lon="5.96262">
        <ele>1379.1999511719</ele>
        <time>2020-08-13T17:25:43.000Z</time>
      </trkpt>
      <trkpt lat="46.276" lon="5.96271">
        <ele>1378.5999755859</ele>
        <time>2020-08-13T17:25:47.000Z</time>
      </trkpt>
      <trkpt lat="46.27608" lon="5.96285">
        <ele>1377.8000488281</ele>
        <time>2020-08-13T17:25:50.000Z</time>
      </trkpt>
      <trkpt lat="46.2761" lon="5.9629">
        <ele>1377.4000244141</ele>
        <time>2020-08-13T17:25:51.000Z</time>
      </trkpt>
      <trkpt lat="46.27614" lon="5.96302">
        <ele>1377</ele>
        <time>2020-08-13T17:25:53.000Z</time>
      </trkpt>
      <trkpt lat="46.27623" lon="5.96324">
        <ele>1377.4000244141</ele>
        <time>2020-08-13T17:25:58.000Z</time>
      </trkpt>
      <trkpt lat="46.27628" lon="5.96329">
        <ele>1378</ele>
        <time>2020-08-13T17:26:01.000Z</time>
      </trkpt>
      <trkpt lat="46.27634" lon="5.96329">
        <ele>1378.1999511719</ele>
        <time>2020-08-13T17:26:03.000Z</time>
      </trkpt>
      <trkpt lat="46.2765" lon="5.9634">
        <ele>1377.5999755859</ele>
        <time>2020-08-13T17:26:08.000Z</time>
      </trkpt>
      <trkpt lat="46.27657" lon="5.9635">
        <ele>1376.8000488281</ele>
        <time>2020-08-13T17:26:10.000Z</time>
      </trkpt>
      <trkpt lat="46.27661" lon="5.96355">
        <ele>1375.4000244141</ele>
        <time>2020-08-13T17:26:11.000Z</time>
      </trkpt>
      <trkpt lat="46.27665" lon="5.96363">
        <ele>1374.1999511719</ele>
        <time>2020-08-13T17:26:12.000Z</time>
      </trkpt>
      <trkpt lat="46.27669" lon="5.9637">
        <ele>1373.1999511719</ele>
        <time>2020-08-13T17:26:13.000Z</time>
      </trkpt>
      <trkpt lat="46.27673" lon="5.96376">
        <ele>1372.5999755859</ele>
        <time>2020-08-13T17:26:14.000Z</time>
      </trkpt>
      <trkpt lat="46.27678" lon="5.96383">
        <ele>1372.1999511719</ele>
        <time>2020-08-13T17:26:15.000Z</time>
      </trkpt>
      <trkpt lat="46.27682" lon="5.96389">
        <ele>1371.8000488281</ele>
        <time>2020-08-13T17:26:16.000Z</time>
      </trkpt>
      <trkpt lat="46.27694" lon="5.96406">
        <ele>1371.4000244141</ele>
        <time>2020-08-13T17:26:19.000Z</time>
      </trkpt>
      <trkpt lat="46.27698" lon="5.96412">
        <ele>1371</ele>
        <time>2020-08-13T17:26:20.000Z</time>
      </trkpt>
      <trkpt lat="46.27707" lon="5.9642">
        <ele>1370.8000488281</ele>
        <time>2020-08-13T17:26:22.000Z</time>
      </trkpt>
      <trkpt lat="46.27716" lon="5.96425">
        <ele>1370.4000244141</ele>
        <time>2020-08-13T17:26:24.000Z</time>
      </trkpt>
      <trkpt lat="46.2772" lon="5.96429">
        <ele>1370.1999511719</ele>
        <time>2020-08-13T17:26:25.000Z</time>
      </trkpt>
      <trkpt lat="46.27734" lon="5.96433">
        <ele>1369.1999511719</ele>
        <time>2020-08-13T17:26:29.000Z</time>
      </trkpt>
      <trkpt lat="46.27743" lon="5.9643">
        <ele>1368.8000488281</ele>
        <time>2020-08-13T17:26:31.000Z</time>
      </trkpt>
      <trkpt lat="46.27753" lon="5.96428">
        <ele>1367.8000488281</ele>
        <time>2020-08-13T17:26:33.000Z</time>
      </trkpt>
      <trkpt lat="46.27758" lon="5.96428">
        <ele>1366.8000488281</ele>
        <time>2020-08-13T17:26:34.000Z</time>
      </trkpt>
      <trkpt lat="46.27768" lon="5.96433">
        <ele>1365.4000244141</ele>
        <time>2020-08-13T17:26:36.000Z</time>
      </trkpt>
      <trkpt lat="46.27773" lon="5.96449">
        <ele>1364</ele>
        <time>2020-08-13T17:26:39.000Z</time>
      </trkpt>
      <trkpt lat="46.27773" lon="5.9647">
        <ele>1363.5999755859</ele>
        <time>2020-08-13T17:26:44.000Z</time>
      </trkpt>
      <trkpt lat="46.27773" lon="5.96478">
        <ele>1363</ele>
        <time>2020-08-13T17:26:46.000Z</time>
      </trkpt>
      <trkpt lat="46.27773" lon="5.96481">
        <ele>1362.8000488281</ele>
        <time>2020-08-13T17:26:47.000Z</time>
      </trkpt>
      <trkpt lat="46.27771" lon="5.96485">
        <ele>1361.8000488281</ele>
        <time>2020-08-13T17:26:49.000Z</time>
      </trkpt>
      <trkpt lat="46.27769" lon="5.96493">
        <ele>1360.8000488281</ele>
        <time>2020-08-13T17:26:52.000Z</time>
      </trkpt>
      <trkpt lat="46.27768" lon="5.965">
        <ele>1359.8000488281</ele>
        <time>2020-08-13T17:26:54.000Z</time>
      </trkpt>
      <trkpt lat="46.27766" lon="5.96504">
        <ele>1358.5999755859</ele>
        <time>2020-08-13T17:26:56.000Z</time>
      </trkpt>
      <trkpt lat="46.27763" lon="5.96506">
        <ele>1357</ele>
        <time>2020-08-13T17:26:58.000Z</time>
      </trkpt>
      <trkpt lat="46.27758" lon="5.96505">
        <ele>1355.8000488281</ele>
        <time>2020-08-13T17:27:00.000Z</time>
      </trkpt>
      <trkpt lat="46.27753" lon="5.96509">
        <ele>1354.8000488281</ele>
        <time>2020-08-13T17:27:02.000Z</time>
      </trkpt>
      <trkpt lat="46.27749" lon="5.96513">
        <ele>1353</ele>
        <time>2020-08-13T17:27:04.000Z</time>
      </trkpt>
      <trkpt lat="46.27744" lon="5.96521">
        <ele>1351.5999755859</ele>
        <time>2020-08-13T17:27:07.000Z</time>
      </trkpt>
      <trkpt lat="46.27741" lon="5.96526">
        <ele>1349.8000488281</ele>
        <time>2020-08-13T17:27:09.000Z</time>
      </trkpt>
      <trkpt lat="46.27739" lon="5.96528">
        <ele>1348.8000488281</ele>
        <time>2020-08-13T17:27:11.000Z</time>
      </trkpt>
      <trkpt lat="46.27737" lon="5.96533">
        <ele>1347.8000488281</ele>
        <time>2020-08-13T17:27:13.000Z</time>
      </trkpt>
      <trkpt lat="46.27735" lon="5.9654">
        <ele>1346.8000488281</ele>
        <time>2020-08-13T17:27:15.000Z</time>
      </trkpt>
      <trkpt lat="46.27734" lon="5.96543">
        <ele>1345.5999755859</ele>
        <time>2020-08-13T17:27:16.000Z</time>
      </trkpt>
      <trkpt lat="46.27734" lon="5.96547">
        <ele>1344.4000244141</ele>
        <time>2020-08-13T17:27:17.000Z</time>
      </trkpt>
      <trkpt lat="46.27733" lon="5.96551">
        <ele>1343.4000244141</ele>
        <time>2020-08-13T17:27:18.000Z</time>
      </trkpt>
      <trkpt lat="46.27732" lon="5.96555">
        <ele>1342.5999755859</ele>
        <time>2020-08-13T17:27:19.000Z</time>
      </trkpt>
      <trkpt lat="46.2773" lon="5.96557">
        <ele>1341.5999755859</ele>
        <time>2020-08-13T17:27:20.000Z</time>
      </trkpt>
      <trkpt lat="46.27728" lon="5.96563">
        <ele>1339.8000488281</ele>
        <time>2020-08-13T17:27:22.000Z</time>
      </trkpt>
      <trkpt lat="46.27727" lon="5.96566">
        <ele>1338.5999755859</ele>
        <time>2020-08-13T17:27:23.000Z</time>
      </trkpt>
      <trkpt lat="46.27726" lon="5.96569">
        <ele>1337.1999511719</ele>
        <time>2020-08-13T17:27:24.000Z</time>
      </trkpt>
      <trkpt lat="46.27725" lon="5.96574">
        <ele>1336.1999511719</ele>
        <time>2020-08-13T17:27:25.000Z</time>
      </trkpt>
      <trkpt lat="46.27724" lon="5.96581">
        <ele>1334.1999511719</ele>
        <time>2020-08-13T17:27:27.000Z</time>
      </trkpt>
      <trkpt lat="46.27724" lon="5.96584">
        <ele>1333.1999511719</ele>
        <time>2020-08-13T17:27:28.000Z</time>
      </trkpt>
      <trkpt lat="46.27724" lon="5.96586">
        <ele>1332</ele>
        <time>2020-08-13T17:27:29.000Z</time>
      </trkpt>
      <trkpt lat="46.27724" lon="5.96588">
        <ele>1331</ele>
        <time>2020-08-13T17:27:30.000Z</time>
      </trkpt>
      <trkpt lat="46.27724" lon="5.9659">
        <ele>1330.4000244141</ele>
        <time>2020-08-13T17:27:31.000Z</time>
      </trkpt>
      <trkpt lat="46.27723" lon="5.96594">
        <ele>1329.1999511719</ele>
        <time>2020-08-13T17:27:33.000Z</time>
      </trkpt>
      <trkpt lat="46.27722" lon="5.966">
        <ele>1328.4000244141</ele>
        <time>2020-08-13T17:27:35.000Z</time>
      </trkpt>
      <trkpt lat="46.27722" lon="5.96603">
        <ele>1327.5999755859</ele>
        <time>2020-08-13T17:27:36.000Z</time>
      </trkpt>
      <trkpt lat="46.27721" lon="5.96605">
        <ele>1326.5999755859</ele>
        <time>2020-08-13T17:27:37.000Z</time>
      </trkpt>
      <trkpt lat="46.27721" lon="5.96608">
        <ele>1325.4000244141</ele>
        <time>2020-08-13T17:27:38.000Z</time>
      </trkpt>
      <trkpt lat="46.27722" lon="5.9661">
        <ele>1324.5999755859</ele>
        <time>2020-08-13T17:27:39.000Z</time>
      </trkpt>
      <trkpt lat="46.27722" lon="5.96612">
        <ele>1323.5999755859</ele>
        <time>2020-08-13T17:27:40.000Z</time>
      </trkpt>
      <trkpt lat="46.27723" lon="5.96614">
        <ele>1322.8000488281</ele>
        <time>2020-08-13T17:27:41.000Z</time>
      </trkpt>
      <trkpt lat="46.27724" lon="5.96617">
        <ele>1322</ele>
        <time>2020-08-13T17:27:42.000Z</time>
      </trkpt>
      <trkpt lat="46.27729" lon="5.96626">
        <ele>1320.4000244141</ele>
        <time>2020-08-13T17:27:44.000Z</time>
      </trkpt>
      <trkpt lat="46.27731" lon="5.9663">
        <ele>1319.5999755859</ele>
        <time>2020-08-13T17:27:45.000Z</time>
      </trkpt>
      <trkpt lat="46.27733" lon="5.96634">
        <ele>1319</ele>
        <time>2020-08-13T17:27:46.000Z</time>
      </trkpt>
      <trkpt lat="46.27735" lon="5.96642">
        <ele>1317.4000244141</ele>
        <time>2020-08-13T17:27:49.000Z</time>
      </trkpt>
      <trkpt lat="46.27736" lon="5.96645">
        <ele>1315.8000488281</ele>
        <time>2020-08-13T17:27:51.000Z</time>
      </trkpt>
      <trkpt lat="46.27737" lon="5.9665">
        <ele>1314.5999755859</ele>
        <time>2020-08-13T17:27:53.000Z</time>
      </trkpt>
      <trkpt lat="46.27738" lon="5.96658">
        <ele>1312.4000244141</ele>
        <time>2020-08-13T17:27:55.000Z</time>
      </trkpt>
      <trkpt lat="46.27738" lon="5.96662">
        <ele>1311</ele>
        <time>2020-08-13T17:27:56.000Z</time>
      </trkpt>
      <trkpt lat="46.27738" lon="5.96665">
        <ele>1309.5999755859</ele>
        <time>2020-08-13T17:27:57.000Z</time>
      </trkpt>
      <trkpt lat="46.27738" lon="5.96673">
        <ele>1308.4000244141</ele>
        <time>2020-08-13T17:27:59.000Z</time>
      </trkpt>
      <trkpt lat="46.27739" lon="5.96683">
        <ele>1307.1999511719</ele>
        <time>2020-08-13T17:28:01.000Z</time>
      </trkpt>
      <trkpt lat="46.2774" lon="5.96692">
        <ele>1305.4000244141</ele>
        <time>2020-08-13T17:28:03.000Z</time>
      </trkpt>
      <trkpt lat="46.2774" lon="5.96696">
        <ele>1304.1999511719</ele>
        <time>2020-08-13T17:28:04.000Z</time>
      </trkpt>
      <trkpt lat="46.2774" lon="5.96701">
        <ele>1303</ele>
        <time>2020-08-13T17:28:05.000Z</time>
      </trkpt>
      <trkpt lat="46.2774" lon="5.96705">
        <ele>1301.8000488281</ele>
        <time>2020-08-13T17:28:06.000Z</time>
      </trkpt>
      <trkpt lat="46.2774" lon="5.96708">
        <ele>1301.1999511719</ele>
        <time>2020-08-13T17:28:07.000Z</time>
      </trkpt>
      <trkpt lat="46.2774" lon="5.9671">
        <ele>1300.5999755859</ele>
        <time>2020-08-13T17:28:08.000Z</time>
      </trkpt>
      <trkpt lat="46.27738" lon="5.96711">
        <ele>1299.4000244141</ele>
        <time>2020-08-13T17:28:10.000Z</time>
      </trkpt>
      <trkpt lat="46.27736" lon="5.96714">
        <ele>1298.4000244141</ele>
        <time>2020-08-13T17:28:12.000Z</time>
      </trkpt>
      <trkpt lat="46.27734" lon="5.96719">
        <ele>1296.4000244141</ele>
        <time>2020-08-13T17:28:14.000Z</time>
      </trkpt>
      <trkpt lat="46.27734" lon="5.96722">
        <ele>1295.1999511719</ele>
        <time>2020-08-13T17:28:15.000Z</time>
      </trkpt>
      <trkpt lat="46.27734" lon="5.96726">
        <ele>1294.1999511719</ele>
        <time>2020-08-13T17:28:16.000Z</time>
      </trkpt>
      <trkpt lat="46.27734" lon="5.96731">
        <ele>1292.4000244141</ele>
        <time>2020-08-13T17:28:18.000Z</time>
      </trkpt>
      <trkpt lat="46.27734" lon="5.96736">
        <ele>1291</ele>
        <time>2020-08-13T17:28:20.000Z</time>
      </trkpt>
      <trkpt lat="46.27735" lon="5.96743">
        <ele>1289.4000244141</ele>
        <time>2020-08-13T17:28:22.000Z</time>
      </trkpt>
      <trkpt lat="46.27736" lon="5.96746">
        <ele>1288.1999511719</ele>
        <time>2020-08-13T17:28:23.000Z</time>
      </trkpt>
      <trkpt lat="46.27736" lon="5.96749">
        <ele>1287</ele>
        <time>2020-08-13T17:28:24.000Z</time>
      </trkpt>
      <trkpt lat="46.27737" lon="5.96751">
        <ele>1286</ele>
        <time>2020-08-13T17:28:25.000Z</time>
      </trkpt>
      <trkpt lat="46.27739" lon="5.96757">
        <ele>1284</ele>
        <time>2020-08-13T17:28:27.000Z</time>
      </trkpt>
      <trkpt lat="46.2774" lon="5.96761">
        <ele>1283.1999511719</ele>
        <time>2020-08-13T17:28:28.000Z</time>
      </trkpt>
      <trkpt lat="46.27741" lon="5.96764">
        <ele>1282.1999511719</ele>
        <time>2020-08-13T17:28:29.000Z</time>
      </trkpt>
      <trkpt lat="46.27741" lon="5.96769">
        <ele>1281.1999511719</ele>
        <time>2020-08-13T17:28:30.000Z</time>
      </trkpt>
      <trkpt lat="46.27741" lon="5.96774">
        <ele>1280</ele>
        <time>2020-08-13T17:28:31.000Z</time>
      </trkpt>
      <trkpt lat="46.27742" lon="5.96777">
        <ele>1279</ele>
        <time>2020-08-13T17:28:32.000Z</time>
      </trkpt>
      <trkpt lat="46.27742" lon="5.96779">
        <ele>1278.1999511719</ele>
        <time>2020-08-13T17:28:33.000Z</time>
      </trkpt>
      <trkpt lat="46.27742" lon="5.96785">
        <ele>1276</ele>
        <time>2020-08-13T17:28:35.000Z</time>
      </trkpt>
      <trkpt lat="46.27739" lon="5.96791">
        <ele>1274.1999511719</ele>
        <time>2020-08-13T17:28:37.000Z</time>
      </trkpt>
      <trkpt lat="46.27738" lon="5.96794">
        <ele>1273.4000244141</ele>
        <time>2020-08-13T17:28:38.000Z</time>
      </trkpt>
      <trkpt lat="46.27738" lon="5.96796">
        <ele>1272.5999755859</ele>
        <time>2020-08-13T17:28:39.000Z</time>
      </trkpt>
      <trkpt lat="46.27737" lon="5.96806">
        <ele>1270.8000488281</ele>
        <time>2020-08-13T17:28:41.000Z</time>
      </trkpt>
      <trkpt lat="46.27737" lon="5.96813">
        <ele>1269.5999755859</ele>
        <time>2020-08-13T17:28:42.000Z</time>
      </trkpt>
      <trkpt lat="46.27738" lon="5.96817">
        <ele>1268.4000244141</ele>
        <time>2020-08-13T17:28:43.000Z</time>
      </trkpt>
      <trkpt lat="46.27736" lon="5.96828">
        <ele>1266.8000488281</ele>
        <time>2020-08-13T17:28:45.000Z</time>
      </trkpt>
      <trkpt lat="46.27736" lon="5.96831">
        <ele>1265.5999755859</ele>
        <time>2020-08-13T17:28:46.000Z</time>
      </trkpt>
      <trkpt lat="46.27737" lon="5.96835">
        <ele>1264.4000244141</ele>
        <time>2020-08-13T17:28:47.000Z</time>
      </trkpt>
      <trkpt lat="46.27737" lon="5.96837">
        <ele>1263.4000244141</ele>
        <time>2020-08-13T17:28:48.000Z</time>
      </trkpt>
      <trkpt lat="46.27738" lon="5.96844">
        <ele>1261.4000244141</ele>
        <time>2020-08-13T17:28:50.000Z</time>
      </trkpt>
      <trkpt lat="46.27738" lon="5.96848">
        <ele>1260.4000244141</ele>
        <time>2020-08-13T17:28:51.000Z</time>
      </trkpt>
      <trkpt lat="46.27739" lon="5.96852">
        <ele>1259.4000244141</ele>
        <time>2020-08-13T17:28:52.000Z</time>
      </trkpt>
      <trkpt lat="46.2774" lon="5.96857">
        <ele>1258.4000244141</ele>
        <time>2020-08-13T17:28:53.000Z</time>
      </trkpt>
      <trkpt lat="46.2774" lon="5.96861">
        <ele>1257</ele>
        <time>2020-08-13T17:28:54.000Z</time>
      </trkpt>
      <trkpt lat="46.2774" lon="5.96865">
        <ele>1255.8000488281</ele>
        <time>2020-08-13T17:28:55.000Z</time>
      </trkpt>
      <trkpt lat="46.27741" lon="5.96869">
        <ele>1254.5999755859</ele>
        <time>2020-08-13T17:28:56.000Z</time>
      </trkpt>
      <trkpt lat="46.2774" lon="5.96876">
        <ele>1253</ele>
        <time>2020-08-13T17:28:58.000Z</time>
      </trkpt>
      <trkpt lat="46.27739" lon="5.96884">
        <ele>1251.5999755859</ele>
        <time>2020-08-13T17:29:00.000Z</time>
      </trkpt>
      <trkpt lat="46.27739" lon="5.96895">
        <ele>1250.4000244141</ele>
        <time>2020-08-13T17:29:02.000Z</time>
      </trkpt>
      <trkpt lat="46.2774" lon="5.96906">
        <ele>1249</ele>
        <time>2020-08-13T17:29:04.000Z</time>
      </trkpt>
      <trkpt lat="46.27741" lon="5.96912">
        <ele>1248.4000244141</ele>
        <time>2020-08-13T17:29:05.000Z</time>
      </trkpt>
      <trkpt lat="46.27741" lon="5.96924">
        <ele>1248</ele>
        <time>2020-08-13T17:29:07.000Z</time>
      </trkpt>
      <trkpt lat="46.27739" lon="5.96936">
        <ele>1248.1999511719</ele>
        <time>2020-08-13T17:29:10.000Z</time>
      </trkpt>
      <trkpt lat="46.27737" lon="5.96952">
        <ele>1248.1999511719</ele>
        <time>2020-08-13T17:29:16.000Z</time>
      </trkpt>
      <trkpt lat="46.27737" lon="5.96954">
        <ele>1247.4000244141</ele>
        <time>2020-08-13T17:29:19.000Z</time>
      </trkpt>
      <trkpt lat="46.27737" lon="5.96956">
        <ele>1247</ele>
        <time>2020-08-13T17:29:22.000Z</time>
      </trkpt>
      <trkpt lat="46.27736" lon="5.96961">
        <ele>1245.8000488281</ele>
        <time>2020-08-13T17:29:28.000Z</time>
      </trkpt>
      <trkpt lat="46.27737" lon="5.96962">
        <ele>1244.8000488281</ele>
        <time>2020-08-13T17:29:32.000Z</time>
      </trkpt>
      <trkpt lat="46.27737" lon="5.96967">
        <ele>1243.8000488281</ele>
        <time>2020-08-13T17:29:38.000Z</time>
      </trkpt>
      <trkpt lat="46.27737" lon="5.96974">
        <ele>1242.4000244141</ele>
        <time>2020-08-13T17:29:44.000Z</time>
      </trkpt>
      <trkpt lat="46.27737" lon="5.96977">
        <ele>1241.8000488281</ele>
        <time>2020-08-13T17:29:46.000Z</time>
      </trkpt>
      <trkpt lat="46.27737" lon="5.96978">
        <ele>1241.1999511719</ele>
        <time>2020-08-13T17:29:48.000Z</time>
      </trkpt>
      <trkpt lat="46.27736" lon="5.96982">
        <ele>1240.1999511719</ele>
        <time>2020-08-13T17:29:52.000Z</time>
      </trkpt>
      <trkpt lat="46.27735" lon="5.96985">
        <ele>1239.1999511719</ele>
        <time>2020-08-13T17:29:55.000Z</time>
      </trkpt>
      <trkpt lat="46.27734" lon="5.96988">
        <ele>1238.1999511719</ele>
        <time>2020-08-13T17:29:57.000Z</time>
      </trkpt>
      <trkpt lat="46.27733" lon="5.9699">
        <ele>1237.5999755859</ele>
        <time>2020-08-13T17:29:58.000Z</time>
      </trkpt>
      <trkpt lat="46.27732" lon="5.96991">
        <ele>1237</ele>
        <time>2020-08-13T17:29:59.000Z</time>
      </trkpt>
      <trkpt lat="46.27732" lon="5.96994">
        <ele>1236</ele>
        <time>2020-08-13T17:30:01.000Z</time>
      </trkpt>
      <trkpt lat="46.27731" lon="5.96997">
        <ele>1234.4000244141</ele>
        <time>2020-08-13T17:30:04.000Z</time>
      </trkpt>
      <trkpt lat="46.2773" lon="5.96999">
        <ele>1233.1999511719</ele>
        <time>2020-08-13T17:30:06.000Z</time>
      </trkpt>
      <trkpt lat="46.2773" lon="5.97004">
        <ele>1232.4000244141</ele>
        <time>2020-08-13T17:30:08.000Z</time>
      </trkpt>
      <trkpt lat="46.2773" lon="5.97005">
        <ele>1232</ele>
        <time>2020-08-13T17:30:09.000Z</time>
      </trkpt>
      <trkpt lat="46.2773" lon="5.97007">
        <ele>1231.8000488281</ele>
        <time>2020-08-13T17:30:10.000Z</time>
      </trkpt>
      <trkpt lat="46.2773" lon="5.97012">
        <ele>1231</ele>
        <time>2020-08-13T17:30:12.000Z</time>
      </trkpt>
      <trkpt lat="46.2773" lon="5.97022">
        <ele>1229.4000244141</ele>
        <time>2020-08-13T17:30:14.000Z</time>
      </trkpt>
      <trkpt lat="46.2773" lon="5.97035">
        <ele>1228.1999511719</ele>
        <time>2020-08-13T17:30:16.000Z</time>
      </trkpt>
      <trkpt lat="46.2773" lon="5.97045">
        <ele>1227.4000244141</ele>
        <time>2020-08-13T17:30:18.000Z</time>
      </trkpt>
      <trkpt lat="46.27729" lon="5.97053">
        <ele>1227</ele>
        <time>2020-08-13T17:30:20.000Z</time>
      </trkpt>
      <trkpt lat="46.27726" lon="5.9706">
        <ele>1226</ele>
        <time>2020-08-13T17:30:22.000Z</time>
      </trkpt>
      <trkpt lat="46.27721" lon="5.97065">
        <ele>1224.1999511719</ele>
        <time>2020-08-13T17:30:24.000Z</time>
      </trkpt>
      <trkpt lat="46.27719" lon="5.97067">
        <ele>1223</ele>
        <time>2020-08-13T17:30:25.000Z</time>
      </trkpt>
      <trkpt lat="46.27718" lon="5.9707">
        <ele>1222</ele>
        <time>2020-08-13T17:30:26.000Z</time>
      </trkpt>
      <trkpt lat="46.27718" lon="5.97072">
        <ele>1221.1999511719</ele>
        <time>2020-08-13T17:30:27.000Z</time>
      </trkpt>
      <trkpt lat="46.27717" lon="5.97075">
        <ele>1220.5999755859</ele>
        <time>2020-08-13T17:30:28.000Z</time>
      </trkpt>
      <trkpt lat="46.27716" lon="5.97082">
        <ele>1219.1999511719</ele>
        <time>2020-08-13T17:30:30.000Z</time>
      </trkpt>
      <trkpt lat="46.27715" lon="5.97088">
        <ele>1217.8000488281</ele>
        <time>2020-08-13T17:30:32.000Z</time>
      </trkpt>
      <trkpt lat="46.27715" lon="5.97091">
        <ele>1216.5999755859</ele>
        <time>2020-08-13T17:30:34.000Z</time>
      </trkpt>
      <trkpt lat="46.27715" lon="5.97096">
        <ele>1215.8000488281</ele>
        <time>2020-08-13T17:30:37.000Z</time>
      </trkpt>
      <trkpt lat="46.27714" lon="5.97098">
        <ele>1215.1999511719</ele>
        <time>2020-08-13T17:30:38.000Z</time>
      </trkpt>
      <trkpt lat="46.27714" lon="5.97102">
        <ele>1214.1999511719</ele>
        <time>2020-08-13T17:30:40.000Z</time>
      </trkpt>
      <trkpt lat="46.27712" lon="5.97109">
        <ele>1213.1999511719</ele>
        <time>2020-08-13T17:30:42.000Z</time>
      </trkpt>
      <trkpt lat="46.27711" lon="5.97112">
        <ele>1212.4000244141</ele>
        <time>2020-08-13T17:30:43.000Z</time>
      </trkpt>
      <trkpt lat="46.2771" lon="5.97115">
        <ele>1211.4000244141</ele>
        <time>2020-08-13T17:30:44.000Z</time>
      </trkpt>
      <trkpt lat="46.2771" lon="5.97118">
        <ele>1210.1999511719</ele>
        <time>2020-08-13T17:30:45.000Z</time>
      </trkpt>
      <trkpt lat="46.27709" lon="5.97126">
        <ele>1208.4000244141</ele>
        <time>2020-08-13T17:30:47.000Z</time>
      </trkpt>
      <trkpt lat="46.27709" lon="5.97129">
        <ele>1207.8000488281</ele>
        <time>2020-08-13T17:30:48.000Z</time>
      </trkpt>
      <trkpt lat="46.27709" lon="5.97132">
        <ele>1207.1999511719</ele>
        <time>2020-08-13T17:30:49.000Z</time>
      </trkpt>
      <trkpt lat="46.2771" lon="5.97134">
        <ele>1206.8000488281</ele>
        <time>2020-08-13T17:30:50.000Z</time>
      </trkpt>
      <trkpt lat="46.27711" lon="5.97138">
        <ele>1206</ele>
        <time>2020-08-13T17:30:51.000Z</time>
      </trkpt>
      <trkpt lat="46.27711" lon="5.97142">
        <ele>1205.1999511719</ele>
        <time>2020-08-13T17:30:52.000Z</time>
      </trkpt>
      <trkpt lat="46.27712" lon="5.97145">
        <ele>1204.1999511719</ele>
        <time>2020-08-13T17:30:53.000Z</time>
      </trkpt>
      <trkpt lat="46.27712" lon="5.97153">
        <ele>1202.5999755859</ele>
        <time>2020-08-13T17:30:55.000Z</time>
      </trkpt>
      <trkpt lat="46.27714" lon="5.97159">
        <ele>1200.8000488281</ele>
        <time>2020-08-13T17:30:57.000Z</time>
      </trkpt>
      <trkpt lat="46.27714" lon="5.97161">
        <ele>1199.5999755859</ele>
        <time>2020-08-13T17:30:58.000Z</time>
      </trkpt>
      <trkpt lat="46.27715" lon="5.97164">
        <ele>1198.5999755859</ele>
        <time>2020-08-13T17:30:59.000Z</time>
      </trkpt>
      <trkpt lat="46.27715" lon="5.97167">
        <ele>1197.5999755859</ele>
        <time>2020-08-13T17:31:00.000Z</time>
      </trkpt>
      <trkpt lat="46.27715" lon="5.97171">
        <ele>1197</ele>
        <time>2020-08-13T17:31:01.000Z</time>
      </trkpt>
      <trkpt lat="46.27716" lon="5.97175">
        <ele>1196.4000244141</ele>
        <time>2020-08-13T17:31:02.000Z</time>
      </trkpt>
      <trkpt lat="46.27717" lon="5.97179">
        <ele>1195.4000244141</ele>
        <time>2020-08-13T17:31:03.000Z</time>
      </trkpt>
      <trkpt lat="46.27719" lon="5.97187">
        <ele>1193.5999755859</ele>
        <time>2020-08-13T17:31:05.000Z</time>
      </trkpt>
      <trkpt lat="46.2772" lon="5.97191">
        <ele>1192.5999755859</ele>
        <time>2020-08-13T17:31:06.000Z</time>
      </trkpt>
      <trkpt lat="46.2772" lon="5.97195">
        <ele>1191.4000244141</ele>
        <time>2020-08-13T17:31:07.000Z</time>
      </trkpt>
      <trkpt lat="46.27721" lon="5.97199">
        <ele>1190</ele>
        <time>2020-08-13T17:31:08.000Z</time>
      </trkpt>
      <trkpt lat="46.27722" lon="5.97205">
        <ele>1188.8000488281</ele>
        <time>2020-08-13T17:31:09.000Z</time>
      </trkpt>
      <trkpt lat="46.27725" lon="5.97216">
        <ele>1187.5999755859</ele>
        <time>2020-08-13T17:31:11.000Z</time>
      </trkpt>
      <trkpt lat="46.27727" lon="5.97223">
        <ele>1187</ele>
        <time>2020-08-13T17:31:12.000Z</time>
      </trkpt>
      <trkpt lat="46.27729" lon="5.97231">
        <ele>1186</ele>
        <time>2020-08-13T17:31:13.000Z</time>
      </trkpt>
      <trkpt lat="46.27731" lon="5.97239">
        <ele>1185</ele>
        <time>2020-08-13T17:31:14.000Z</time>
      </trkpt>
      <trkpt lat="46.27733" lon="5.97247">
        <ele>1183.5999755859</ele>
        <time>2020-08-13T17:31:15.000Z</time>
      </trkpt>
      <trkpt lat="46.27735" lon="5.97254">
        <ele>1182.1999511719</ele>
        <time>2020-08-13T17:31:16.000Z</time>
      </trkpt>
      <trkpt lat="46.27736" lon="5.97261">
        <ele>1181</ele>
        <time>2020-08-13T17:31:17.000Z</time>
      </trkpt>
      <trkpt lat="46.27736" lon="5.97273">
        <ele>1179.8000488281</ele>
        <time>2020-08-13T17:31:19.000Z</time>
      </trkpt>
      <trkpt lat="46.27736" lon="5.9728">
        <ele>1179.5999755859</ele>
        <time>2020-08-13T17:31:20.000Z</time>
      </trkpt>
      <trkpt lat="46.27735" lon="5.97292">
        <ele>1178</ele>
        <time>2020-08-13T17:31:22.000Z</time>
      </trkpt>
      <trkpt lat="46.27735" lon="5.97298">
        <ele>1177</ele>
        <time>2020-08-13T17:31:23.000Z</time>
      </trkpt>
      <trkpt lat="46.27737" lon="5.97305">
        <ele>1176.4000244141</ele>
        <time>2020-08-13T17:31:24.000Z</time>
      </trkpt>
      <trkpt lat="46.27739" lon="5.97319">
        <ele>1174.5999755859</ele>
        <time>2020-08-13T17:31:26.000Z</time>
      </trkpt>
      <trkpt lat="46.27741" lon="5.97328">
        <ele>1172.8000488281</ele>
        <time>2020-08-13T17:31:28.000Z</time>
      </trkpt>
      <trkpt lat="46.27741" lon="5.9733">
        <ele>1172</ele>
        <time>2020-08-13T17:31:29.000Z</time>
      </trkpt>
      <trkpt lat="46.27742" lon="5.97334">
        <ele>1171.5999755859</ele>
        <time>2020-08-13T17:31:30.000Z</time>
      </trkpt>
      <trkpt lat="46.27744" lon="5.97343">
        <ele>1170</ele>
        <time>2020-08-13T17:31:32.000Z</time>
      </trkpt>
      <trkpt lat="46.27743" lon="5.97351">
        <ele>1168.4000244141</ele>
        <time>2020-08-13T17:31:34.000Z</time>
      </trkpt>
      <trkpt lat="46.27742" lon="5.97356">
        <ele>1166.8000488281</ele>
        <time>2020-08-13T17:31:36.000Z</time>
      </trkpt>
      <trkpt lat="46.27742" lon="5.97359">
        <ele>1165.8000488281</ele>
        <time>2020-08-13T17:31:37.000Z</time>
      </trkpt>
      <trkpt lat="46.27743" lon="5.97362">
        <ele>1165</ele>
        <time>2020-08-13T17:31:38.000Z</time>
      </trkpt>
      <trkpt lat="46.27744" lon="5.97367">
        <ele>1163.4000244141</ele>
        <time>2020-08-13T17:31:40.000Z</time>
      </trkpt>
      <trkpt lat="46.27745" lon="5.9737">
        <ele>1162.4000244141</ele>
        <time>2020-08-13T17:31:42.000Z</time>
      </trkpt>
      <trkpt lat="46.27746" lon="5.97375">
        <ele>1161</ele>
        <time>2020-08-13T17:31:44.000Z</time>
      </trkpt>
      <trkpt lat="46.27745" lon="5.97378">
        <ele>1160.1999511719</ele>
        <time>2020-08-13T17:31:45.000Z</time>
      </trkpt>
      <trkpt lat="46.27744" lon="5.97382">
        <ele>1159.1999511719</ele>
        <time>2020-08-13T17:31:46.000Z</time>
      </trkpt>
      <trkpt lat="46.27742" lon="5.97383">
        <ele>1158.1999511719</ele>
        <time>2020-08-13T17:31:47.000Z</time>
      </trkpt>
      <trkpt lat="46.27737" lon="5.97383">
        <ele>1156.1999511719</ele>
        <time>2020-08-13T17:31:49.000Z</time>
      </trkpt>
      <trkpt lat="46.27733" lon="5.97382">
        <ele>1155.1999511719</ele>
        <time>2020-08-13T17:31:50.000Z</time>
      </trkpt>
      <trkpt lat="46.27728" lon="5.97379">
        <ele>1154.4000244141</ele>
        <time>2020-08-13T17:31:51.000Z</time>
      </trkpt>
      <trkpt lat="46.27723" lon="5.97378">
        <ele>1153.8000488281</ele>
        <time>2020-08-13T17:31:52.000Z</time>
      </trkpt>
      <trkpt lat="46.27714" lon="5.97376">
        <ele>1152.4000244141</ele>
        <time>2020-08-13T17:31:54.000Z</time>
      </trkpt>
      <trkpt lat="46.2771" lon="5.97375">
        <ele>1151</ele>
        <time>2020-08-13T17:31:55.000Z</time>
      </trkpt>
      <trkpt lat="46.27706" lon="5.97373">
        <ele>1149.5999755859</ele>
        <time>2020-08-13T17:31:56.000Z</time>
      </trkpt>
      <trkpt lat="46.27701" lon="5.97372">
        <ele>1148.1999511719</ele>
        <time>2020-08-13T17:31:57.000Z</time>
      </trkpt>
      <trkpt lat="46.27697" lon="5.97372">
        <ele>1147</ele>
        <time>2020-08-13T17:31:58.000Z</time>
      </trkpt>
      <trkpt lat="46.27693" lon="5.97371">
        <ele>1146</ele>
        <time>2020-08-13T17:31:59.000Z</time>
      </trkpt>
      <trkpt lat="46.2769" lon="5.9737">
        <ele>1145</ele>
        <time>2020-08-13T17:32:00.000Z</time>
      </trkpt>
      <trkpt lat="46.27688" lon="5.9737">
        <ele>1144.1999511719</ele>
        <time>2020-08-13T17:32:01.000Z</time>
      </trkpt>
      <trkpt lat="46.27682" lon="5.97372">
        <ele>1142.4000244141</ele>
        <time>2020-08-13T17:32:03.000Z</time>
      </trkpt>
      <trkpt lat="46.27673" lon="5.97373">
        <ele>1140.5999755859</ele>
        <time>2020-08-13T17:32:05.000Z</time>
      </trkpt>
      <trkpt lat="46.27669" lon="5.97371">
        <ele>1139</ele>
        <time>2020-08-13T17:32:07.000Z</time>
      </trkpt>
      <trkpt lat="46.27669" lon="5.9737">
        <ele>1138.1999511719</ele>
        <time>2020-08-13T17:32:09.000Z</time>
      </trkpt>
      <trkpt lat="46.27668" lon="5.9737">
        <ele>1138</ele>
        <time>2020-08-13T17:32:10.000Z</time>
      </trkpt>
      <trkpt lat="46.27666" lon="5.97371">
        <ele>1137.8000488281</ele>
        <time>2020-08-13T17:32:12.000Z</time>
      </trkpt>
      <trkpt lat="46.2766" lon="5.97373">
        <ele>1137.1999511719</ele>
        <time>2020-08-13T17:32:14.000Z</time>
      </trkpt>
      <trkpt lat="46.27656" lon="5.97374">
        <ele>1136.5999755859</ele>
        <time>2020-08-13T17:32:15.000Z</time>
      </trkpt>
      <trkpt lat="46.27648" lon="5.97374">
        <ele>1135</ele>
        <time>2020-08-13T17:32:17.000Z</time>
      </trkpt>
      <trkpt lat="46.27645" lon="5.97373">
        <ele>1134.1999511719</ele>
        <time>2020-08-13T17:32:18.000Z</time>
      </trkpt>
      <trkpt lat="46.27642" lon="5.97372">
        <ele>1133.1999511719</ele>
        <time>2020-08-13T17:32:19.000Z</time>
      </trkpt>
      <trkpt lat="46.27637" lon="5.97373">
        <ele>1132</ele>
        <time>2020-08-13T17:32:21.000Z</time>
      </trkpt>
      <trkpt lat="46.27631" lon="5.97375">
        <ele>1130.1999511719</ele>
        <time>2020-08-13T17:32:23.000Z</time>
      </trkpt>
      <trkpt lat="46.27628" lon="5.97375">
        <ele>1129</ele>
        <time>2020-08-13T17:32:24.000Z</time>
      </trkpt>
      <trkpt lat="46.27625" lon="5.97374">
        <ele>1128</ele>
        <time>2020-08-13T17:32:25.000Z</time>
      </trkpt>
      <trkpt lat="46.27622" lon="5.97373">
        <ele>1127</ele>
        <time>2020-08-13T17:32:26.000Z</time>
      </trkpt>
      <trkpt lat="46.27619" lon="5.97372">
        <ele>1125.5999755859</ele>
        <time>2020-08-13T17:32:28.000Z</time>
      </trkpt>
      <trkpt lat="46.27617" lon="5.97371">
        <ele>1124.5999755859</ele>
        <time>2020-08-13T17:32:30.000Z</time>
      </trkpt>
      <trkpt lat="46.27616" lon="5.97371">
        <ele>1124.1999511719</ele>
        <time>2020-08-13T17:32:31.000Z</time>
      </trkpt>
      <trkpt lat="46.27611" lon="5.9737">
        <ele>1123.4000244141</ele>
        <time>2020-08-13T17:32:33.000Z</time>
      </trkpt>
      <trkpt lat="46.27609" lon="5.97369">
        <ele>1122.8000488281</ele>
        <time>2020-08-13T17:32:34.000Z</time>
      </trkpt>
      <trkpt lat="46.27607" lon="5.97369">
        <ele>1122</ele>
        <time>2020-08-13T17:32:35.000Z</time>
      </trkpt>
      <trkpt lat="46.27605" lon="5.97368">
        <ele>1121.4000244141</ele>
        <time>2020-08-13T17:32:36.000Z</time>
      </trkpt>
      <trkpt lat="46.276" lon="5.97367">
        <ele>1120</ele>
        <time>2020-08-13T17:32:38.000Z</time>
      </trkpt>
      <trkpt lat="46.27593" lon="5.97365">
        <ele>1118.1999511719</ele>
        <time>2020-08-13T17:32:40.000Z</time>
      </trkpt>
      <trkpt lat="46.2759" lon="5.97363">
        <ele>1117.1999511719</ele>
        <time>2020-08-13T17:32:41.000Z</time>
      </trkpt>
      <trkpt lat="46.27585" lon="5.97366">
        <ele>1115</ele>
        <time>2020-08-13T17:32:43.000Z</time>
      </trkpt>
      <trkpt lat="46.27583" lon="5.97368">
        <ele>1114</ele>
        <time>2020-08-13T17:32:44.000Z</time>
      </trkpt>
      <trkpt lat="46.27581" lon="5.97369">
        <ele>1112.8000488281</ele>
        <time>2020-08-13T17:32:45.000Z</time>
      </trkpt>
      <trkpt lat="46.27575" lon="5.97371">
        <ele>1111</ele>
        <time>2020-08-13T17:32:47.000Z</time>
      </trkpt>
      <trkpt lat="46.27571" lon="5.97373">
        <ele>1109.5999755859</ele>
        <time>2020-08-13T17:32:49.000Z</time>
      </trkpt>
      <trkpt lat="46.27569" lon="5.97374">
        <ele>1108.4000244141</ele>
        <time>2020-08-13T17:32:50.000Z</time>
      </trkpt>
      <trkpt lat="46.27568" lon="5.97375">
        <ele>1107.1999511719</ele>
        <time>2020-08-13T17:32:51.000Z</time>
      </trkpt>
      <trkpt lat="46.27568" lon="5.97379">
        <ele>1105.5999755859</ele>
        <time>2020-08-13T17:32:53.000Z</time>
      </trkpt>
      <trkpt lat="46.27568" lon="5.97384">
        <ele>1104</ele>
        <time>2020-08-13T17:32:55.000Z</time>
      </trkpt>
      <trkpt lat="46.2757" lon="5.97389">
        <ele>1102.8000488281</ele>
        <time>2020-08-13T17:32:57.000Z</time>
      </trkpt>
      <trkpt lat="46.27571" lon="5.97392">
        <ele>1102.4000244141</ele>
        <time>2020-08-13T17:32:58.000Z</time>
      </trkpt>
      <trkpt lat="46.27571" lon="5.97396">
        <ele>1101.8000488281</ele>
        <time>2020-08-13T17:32:59.000Z</time>
      </trkpt>
      <trkpt lat="46.2757" lon="5.97404">
        <ele>1099.8000488281</ele>
        <time>2020-08-13T17:33:01.000Z</time>
      </trkpt>
      <trkpt lat="46.2757" lon="5.97408">
        <ele>1098.8000488281</ele>
        <time>2020-08-13T17:33:02.000Z</time>
      </trkpt>
      <trkpt lat="46.27568" lon="5.97412">
        <ele>1097.8000488281</ele>
        <time>2020-08-13T17:33:03.000Z</time>
      </trkpt>
      <trkpt lat="46.27567" lon="5.97414">
        <ele>1096.5999755859</ele>
        <time>2020-08-13T17:33:04.000Z</time>
      </trkpt>
      <trkpt lat="46.27564" lon="5.97415">
        <ele>1095</ele>
        <time>2020-08-13T17:33:06.000Z</time>
      </trkpt>
      <trkpt lat="46.27563" lon="5.97416">
        <ele>1094.1999511719</ele>
        <time>2020-08-13T17:33:08.000Z</time>
      </trkpt>
      <trkpt lat="46.27562" lon="5.97416">
        <ele>1093.8000488281</ele>
        <time>2020-08-13T17:33:09.000Z</time>
      </trkpt>
      <trkpt lat="46.2756" lon="5.97418">
        <ele>1093.1999511719</ele>
        <time>2020-08-13T17:33:14.000Z</time>
      </trkpt>
      <trkpt lat="46.27559" lon="5.97418">
        <ele>1092.8000488281</ele>
        <time>2020-08-13T17:33:17.000Z</time>
      </trkpt>
      <trkpt lat="46.27552" lon="5.9742">
        <ele>1091.5999755859</ele>
        <time>2020-08-13T17:33:24.000Z</time>
      </trkpt>
      <trkpt lat="46.2755" lon="5.9742">
        <ele>1091.1999511719</ele>
        <time>2020-08-13T17:33:25.000Z</time>
      </trkpt>
      <trkpt lat="46.27548" lon="5.97421">
        <ele>1090.8000488281</ele>
        <time>2020-08-13T17:33:26.000Z</time>
      </trkpt>
      <trkpt lat="46.27546" lon="5.97421">
        <ele>1090.4000244141</ele>
        <time>2020-08-13T17:33:27.000Z</time>
      </trkpt>
      <trkpt lat="46.27541" lon="5.97422">
        <ele>1089</ele>
        <time>2020-08-13T17:33:29.000Z</time>
      </trkpt>
      <trkpt lat="46.27535" lon="5.97421">
        <ele>1087.5999755859</ele>
        <time>2020-08-13T17:33:31.000Z</time>
      </trkpt>
      <trkpt lat="46.2753" lon="5.9742">
        <ele>1085.5999755859</ele>
        <time>2020-08-13T17:33:33.000Z</time>
      </trkpt>
      <trkpt lat="46.27528" lon="5.9742">
        <ele>1084.4000244141</ele>
        <time>2020-08-13T17:33:34.000Z</time>
      </trkpt>
      <trkpt lat="46.27522" lon="5.97419">
        <ele>1082.8000488281</ele>
        <time>2020-08-13T17:33:36.000Z</time>
      </trkpt>
      <trkpt lat="46.27519" lon="5.97419">
        <ele>1081.5999755859</ele>
        <time>2020-08-13T17:33:37.000Z</time>
      </trkpt>
      <trkpt lat="46.27517" lon="5.97419">
        <ele>1080.4000244141</ele>
        <time>2020-08-13T17:33:38.000Z</time>
      </trkpt>
      <trkpt lat="46.27514" lon="5.97421">
        <ele>1079.4000244141</ele>
        <time>2020-08-13T17:33:39.000Z</time>
      </trkpt>
      <trkpt lat="46.2751" lon="5.97427">
        <ele>1077.5999755859</ele>
        <time>2020-08-13T17:33:41.000Z</time>
      </trkpt>
      <trkpt lat="46.27507" lon="5.97435">
        <ele>1076</ele>
        <time>2020-08-13T17:33:43.000Z</time>
      </trkpt>
      <trkpt lat="46.27506" lon="5.97439">
        <ele>1074.1999511719</ele>
        <time>2020-08-13T17:33:45.000Z</time>
      </trkpt>
      <trkpt lat="46.27505" lon="5.97441">
        <ele>1073.1999511719</ele>
        <time>2020-08-13T17:33:46.000Z</time>
      </trkpt>
      <trkpt lat="46.27505" lon="5.97441">
        <ele>1072.5999755859</ele>
        <time>2020-08-13T17:33:47.000Z</time>
      </trkpt>
      <trkpt lat="46.27504" lon="5.97442">
        <ele>1072.1999511719</ele>
        <time>2020-08-13T17:33:49.000Z</time>
      </trkpt>
      <trkpt lat="46.27504" lon="5.97443">
        <ele>1072</ele>
        <time>2020-08-13T17:33:53.000Z</time>
      </trkpt>
      <trkpt lat="46.27503" lon="5.97444">
        <ele>1071.4000244141</ele>
        <time>2020-08-13T17:33:57.000Z</time>
      </trkpt>
      <trkpt lat="46.27503" lon="5.97446">
        <ele>1071.1999511719</ele>
        <time>2020-08-13T17:33:58.000Z</time>
      </trkpt>
      <trkpt lat="46.27501" lon="5.97448">
        <ele>1070.8000488281</ele>
        <time>2020-08-13T17:34:00.000Z</time>
      </trkpt>
      <trkpt lat="46.275" lon="5.97449">
        <ele>1070.4000244141</ele>
        <time>2020-08-13T17:34:01.000Z</time>
      </trkpt>
      <trkpt lat="46.27499" lon="5.9745">
        <ele>1069.5999755859</ele>
        <time>2020-08-13T17:34:03.000Z</time>
      </trkpt>
      <trkpt lat="46.27498" lon="5.97452">
        <ele>1069.4000244141</ele>
        <time>2020-08-13T17:34:04.000Z</time>
      </trkpt>
      <trkpt lat="46.27497" lon="5.97453">
        <ele>1068.8000488281</ele>
        <time>2020-08-13T17:34:05.000Z</time>
      </trkpt>
      <trkpt lat="46.27495" lon="5.97456">
        <ele>1068.1999511719</ele>
        <time>2020-08-13T17:34:06.000Z</time>
      </trkpt>
      <trkpt lat="46.27491" lon="5.9746">
        <ele>1066.5999755859</ele>
        <time>2020-08-13T17:34:08.000Z</time>
      </trkpt>
      <trkpt lat="46.27487" lon="5.97468">
        <ele>1065</ele>
        <time>2020-08-13T17:34:10.000Z</time>
      </trkpt>
      <trkpt lat="46.27485" lon="5.97472">
        <ele>1064</ele>
        <time>2020-08-13T17:34:11.000Z</time>
      </trkpt>
      <trkpt lat="46.27483" lon="5.97475">
        <ele>1062.8000488281</ele>
        <time>2020-08-13T17:34:12.000Z</time>
      </trkpt>
      <trkpt lat="46.27482" lon="5.97478">
        <ele>1061.4000244141</ele>
        <time>2020-08-13T17:34:13.000Z</time>
      </trkpt>
      <trkpt lat="46.27481" lon="5.97481">
        <ele>1059.8000488281</ele>
        <time>2020-08-13T17:34:15.000Z</time>
      </trkpt>
      <trkpt lat="46.27481" lon="5.97482">
        <ele>1058.5999755859</ele>
        <time>2020-08-13T17:34:19.000Z</time>
      </trkpt>
      <trkpt lat="46.27481" lon="5.97483">
        <ele>1058.5999755859</ele>
        <time>2020-08-13T17:34:21.000Z</time>
      </trkpt>
      <trkpt lat="46.27477" lon="5.97488">
        <ele>1058</ele>
        <time>2020-08-13T17:34:28.000Z</time>
      </trkpt>
      <trkpt lat="46.27475" lon="5.97488">
        <ele>1057.5999755859</ele>
        <time>2020-08-13T17:34:30.000Z</time>
      </trkpt>
      <trkpt lat="46.27472" lon="5.97488">
        <ele>1056.1999511719</ele>
        <time>2020-08-13T17:34:32.000Z</time>
      </trkpt>
      <trkpt lat="46.27471" lon="5.97488">
        <ele>1055.5999755859</ele>
        <time>2020-08-13T17:34:33.000Z</time>
      </trkpt>
      <trkpt lat="46.27471" lon="5.97488">
        <ele>1055</ele>
        <time>2020-08-13T17:34:34.000Z</time>
      </trkpt>
      <trkpt lat="46.2747" lon="5.97489">
        <ele>1054.5999755859</ele>
        <time>2020-08-13T17:34:35.000Z</time>
      </trkpt>
      <trkpt lat="46.27469" lon="5.97489">
        <ele>1054.4000244141</ele>
        <time>2020-08-13T17:34:36.000Z</time>
      </trkpt>
      <trkpt lat="46.27466" lon="5.9749">
        <ele>1053.5999755859</ele>
        <time>2020-08-13T17:34:38.000Z</time>
      </trkpt>
      <trkpt lat="46.2746" lon="5.97492">
        <ele>1051.8000488281</ele>
        <time>2020-08-13T17:34:41.000Z</time>
      </trkpt>
      <trkpt lat="46.27458" lon="5.97492">
        <ele>1050.5999755859</ele>
        <time>2020-08-13T17:34:42.000Z</time>
      </trkpt>
      <trkpt lat="46.27457" lon="5.97493">
        <ele>1049.5999755859</ele>
        <time>2020-08-13T17:34:43.000Z</time>
      </trkpt>
      <trkpt lat="46.27452" lon="5.97499">
        <ele>1048.1999511719</ele>
        <time>2020-08-13T17:34:46.000Z</time>
      </trkpt>
      <trkpt lat="46.27451" lon="5.97501">
        <ele>1047.8000488281</ele>
        <time>2020-08-13T17:34:47.000Z</time>
      </trkpt>
      <trkpt lat="46.27449" lon="5.97504">
        <ele>1046.8000488281</ele>
        <time>2020-08-13T17:34:48.000Z</time>
      </trkpt>
      <trkpt lat="46.27448" lon="5.97507">
        <ele>1045.8000488281</ele>
        <time>2020-08-13T17:34:49.000Z</time>
      </trkpt>
      <trkpt lat="46.27446" lon="5.97514">
        <ele>1043.8000488281</ele>
        <time>2020-08-13T17:34:51.000Z</time>
      </trkpt>
      <trkpt lat="46.27445" lon="5.97517">
        <ele>1042.8000488281</ele>
        <time>2020-08-13T17:34:52.000Z</time>
      </trkpt>
      <trkpt lat="46.27445" lon="5.9752">
        <ele>1041.5999755859</ele>
        <time>2020-08-13T17:34:53.000Z</time>
      </trkpt>
      <trkpt lat="46.27444" lon="5.97525">
        <ele>1040</ele>
        <time>2020-08-13T17:34:55.000Z</time>
      </trkpt>
      <trkpt lat="46.27444" lon="5.97531">
        <ele>1038.1999511719</ele>
        <time>2020-08-13T17:34:57.000Z</time>
      </trkpt>
      <trkpt lat="46.27443" lon="5.97534">
        <ele>1037.4000244141</ele>
        <time>2020-08-13T17:34:58.000Z</time>
      </trkpt>
      <trkpt lat="46.27443" lon="5.97536">
        <ele>1036</ele>
        <time>2020-08-13T17:34:59.000Z</time>
      </trkpt>
      <trkpt lat="46.27442" lon="5.97538">
        <ele>1034.5999755859</ele>
        <time>2020-08-13T17:35:00.000Z</time>
      </trkpt>
      <trkpt lat="46.27441" lon="5.97539">
        <ele>1033.5999755859</ele>
        <time>2020-08-13T17:35:01.000Z</time>
      </trkpt>
      <trkpt lat="46.27441" lon="5.97543">
        <ele>1032.4000244141</ele>
        <time>2020-08-13T17:35:03.000Z</time>
      </trkpt>
      <trkpt lat="46.2744" lon="5.97549">
        <ele>1030.8000488281</ele>
        <time>2020-08-13T17:35:05.000Z</time>
      </trkpt>
      <trkpt lat="46.27438" lon="5.97556">
        <ele>1029.1999511719</ele>
        <time>2020-08-13T17:35:07.000Z</time>
      </trkpt>
      <trkpt lat="46.27438" lon="5.9756">
        <ele>1028.1999511719</ele>
        <time>2020-08-13T17:35:08.000Z</time>
      </trkpt>
      <trkpt lat="46.27439" lon="5.97563">
        <ele>1027.4000244141</ele>
        <time>2020-08-13T17:35:09.000Z</time>
      </trkpt>
      <trkpt lat="46.27441" lon="5.97574">
        <ele>1026</ele>
        <time>2020-08-13T17:35:12.000Z</time>
      </trkpt>
      <trkpt lat="46.27441" lon="5.97578">
        <ele>1025.5999755859</ele>
        <time>2020-08-13T17:35:13.000Z</time>
      </trkpt>
      <trkpt lat="46.27443" lon="5.97587">
        <ele>1025</ele>
        <time>2020-08-13T17:35:15.000Z</time>
      </trkpt>
      <trkpt lat="46.27443" lon="5.97605">
        <ele>1023.799987793</ele>
        <time>2020-08-13T17:35:18.000Z</time>
      </trkpt>
      <trkpt lat="46.27442" lon="5.97617">
        <ele>1023.200012207</ele>
        <time>2020-08-13T17:35:22.000Z</time>
      </trkpt>
      <trkpt lat="46.2744" lon="5.97624">
        <ele>1023</ele>
        <time>2020-08-13T17:35:29.000Z</time>
      </trkpt>
      <trkpt lat="46.27438" lon="5.97627">
        <ele>1022.799987793</ele>
        <time>2020-08-13T17:35:31.000Z</time>
      </trkpt>
      <trkpt lat="46.27437" lon="5.97629">
        <ele>1022.799987793</ele>
        <time>2020-08-13T17:35:32.000Z</time>
      </trkpt>
      <trkpt lat="46.27432" lon="5.97637">
        <ele>1022</ele>
        <time>2020-08-13T17:35:35.000Z</time>
      </trkpt>
      <trkpt lat="46.2743" lon="5.97638">
        <ele>1021.5999755859</ele>
        <time>2020-08-13T17:35:36.000Z</time>
      </trkpt>
      <trkpt lat="46.27424" lon="5.97641">
        <ele>1020.5999755859</ele>
        <time>2020-08-13T17:35:40.000Z</time>
      </trkpt>
      <trkpt lat="46.27425" lon="5.97645">
        <ele>1020.200012207</ele>
        <time>2020-08-13T17:35:42.000Z</time>
      </trkpt>
      <trkpt lat="46.27425" lon="5.97651">
        <ele>1019.5999755859</ele>
        <time>2020-08-13T17:35:44.000Z</time>
      </trkpt>
      <trkpt lat="46.27425" lon="5.97655">
        <ele>1019</ele>
        <time>2020-08-13T17:35:46.000Z</time>
      </trkpt>
      <trkpt lat="46.27426" lon="5.97658">
        <ele>1018.4000244141</ele>
        <time>2020-08-13T17:35:48.000Z</time>
      </trkpt>
      <trkpt lat="46.27428" lon="5.97663">
        <ele>1018</ele>
        <time>2020-08-13T17:35:51.000Z</time>
      </trkpt>
      <trkpt lat="46.27428" lon="5.97666">
        <ele>1017.799987793</ele>
        <time>2020-08-13T17:35:52.000Z</time>
      </trkpt>
      <trkpt lat="46.27429" lon="5.97669">
        <ele>1017.4000244141</ele>
        <time>2020-08-13T17:35:53.000Z</time>
      </trkpt>
      <trkpt lat="46.27429" lon="5.97672">
        <ele>1016.4000244141</ele>
        <time>2020-08-13T17:35:54.000Z</time>
      </trkpt>
      <trkpt lat="46.27429" lon="5.97676">
        <ele>1015.4000244141</ele>
        <time>2020-08-13T17:35:55.000Z</time>
      </trkpt>
      <trkpt lat="46.27429" lon="5.9768">
        <ele>1014.200012207</ele>
        <time>2020-08-13T17:35:56.000Z</time>
      </trkpt>
      <trkpt lat="46.27428" lon="5.97684">
        <ele>1013</ele>
        <time>2020-08-13T17:35:57.000Z</time>
      </trkpt>
      <trkpt lat="46.27426" lon="5.97688">
        <ele>1011.5999755859</ele>
        <time>2020-08-13T17:35:58.000Z</time>
      </trkpt>
      <trkpt lat="46.27423" lon="5.97692">
        <ele>1010.5999755859</ele>
        <time>2020-08-13T17:35:59.000Z</time>
      </trkpt>
      <trkpt lat="46.27419" lon="5.97697">
        <ele>1009</ele>
        <time>2020-08-13T17:36:01.000Z</time>
      </trkpt>
      <trkpt lat="46.27415" lon="5.97703">
        <ele>1007.200012207</ele>
        <time>2020-08-13T17:36:03.000Z</time>
      </trkpt>
      <trkpt lat="46.27413" lon="5.97706">
        <ele>1006</ele>
        <time>2020-08-13T17:36:04.000Z</time>
      </trkpt>
      <trkpt lat="46.27411" lon="5.9771">
        <ele>1004.5999755859</ele>
        <time>2020-08-13T17:36:05.000Z</time>
      </trkpt>
      <trkpt lat="46.27409" lon="5.97714">
        <ele>1003.5999755859</ele>
        <time>2020-08-13T17:36:06.000Z</time>
      </trkpt>
      <trkpt lat="46.27404" lon="5.97721">
        <ele>1001.799987793</ele>
        <time>2020-08-13T17:36:08.000Z</time>
      </trkpt>
      <trkpt lat="46.27398" lon="5.97726">
        <ele>1000.200012207</ele>
        <time>2020-08-13T17:36:10.000Z</time>
      </trkpt>
      <trkpt lat="46.2739" lon="5.9773">
        <ele>999</ele>
        <time>2020-08-13T17:36:13.000Z</time>
      </trkpt>
      <trkpt lat="46.27387" lon="5.97731">
        <ele>998.40002441406</ele>
        <time>2020-08-13T17:36:15.000Z</time>
      </trkpt>
      <trkpt lat="46.27384" lon="5.97733">
        <ele>997.79998779297</ele>
        <time>2020-08-13T17:36:17.000Z</time>
      </trkpt>
      <trkpt lat="46.27382" lon="5.97734">
        <ele>997.59997558594</ele>
        <time>2020-08-13T17:36:18.000Z</time>
      </trkpt>
      <trkpt lat="46.27374" lon="5.97735">
        <ele>996.79998779297</ele>
        <time>2020-08-13T17:36:21.000Z</time>
      </trkpt>
      <trkpt lat="46.27369" lon="5.97734">
        <ele>995.59997558594</ele>
        <time>2020-08-13T17:36:23.000Z</time>
      </trkpt>
      <trkpt lat="46.27365" lon="5.97733">
        <ele>994.79998779297</ele>
        <time>2020-08-13T17:36:24.000Z</time>
      </trkpt>
      <trkpt lat="46.27363" lon="5.97733">
        <ele>994.20001220703</ele>
        <time>2020-08-13T17:36:25.000Z</time>
      </trkpt>
      <trkpt lat="46.27358" lon="5.97733">
        <ele>993</ele>
        <time>2020-08-13T17:36:28.000Z</time>
      </trkpt>
      <trkpt lat="46.27357" lon="5.97734">
        <ele>992.79998779297</ele>
        <time>2020-08-13T17:36:29.000Z</time>
      </trkpt>
      <trkpt lat="46.27355" lon="5.97733">
        <ele>992.40002441406</ele>
        <time>2020-08-13T17:36:32.000Z</time>
      </trkpt>
      <trkpt lat="46.27353" lon="5.97733">
        <ele>992.40002441406</ele>
        <time>2020-08-13T17:36:33.000Z</time>
      </trkpt>
      <trkpt lat="46.27352" lon="5.97733">
        <ele>992.40002441406</ele>
        <time>2020-08-13T17:36:36.000Z</time>
      </trkpt>
      <trkpt lat="46.27349" lon="5.97733">
        <ele>992</ele>
        <time>2020-08-13T17:36:41.000Z</time>
      </trkpt>
      <trkpt lat="46.27344" lon="5.9773">
        <ele>991</ele>
        <time>2020-08-13T17:36:46.000Z</time>
      </trkpt>
      <trkpt lat="46.27342" lon="5.97729">
        <ele>990.40002441406</ele>
        <time>2020-08-13T17:36:47.000Z</time>
      </trkpt>
      <trkpt lat="46.2734" lon="5.97728">
        <ele>989.79998779297</ele>
        <time>2020-08-13T17:36:48.000Z</time>
      </trkpt>
      <trkpt lat="46.27337" lon="5.97728">
        <ele>989</ele>
        <time>2020-08-13T17:36:49.000Z</time>
      </trkpt>
      <trkpt lat="46.27332" lon="5.97729">
        <ele>987.79998779297</ele>
        <time>2020-08-13T17:36:50.000Z</time>
      </trkpt>
      <trkpt lat="46.27328" lon="5.97732">
        <ele>986.79998779297</ele>
        <time>2020-08-13T17:36:51.000Z</time>
      </trkpt>
      <trkpt lat="46.27324" lon="5.97735">
        <ele>985.40002441406</ele>
        <time>2020-08-13T17:36:52.000Z</time>
      </trkpt>
      <trkpt lat="46.2732" lon="5.97737">
        <ele>983.79998779297</ele>
        <time>2020-08-13T17:36:53.000Z</time>
      </trkpt>
      <trkpt lat="46.27317" lon="5.9774">
        <ele>982.40002441406</ele>
        <time>2020-08-13T17:36:54.000Z</time>
      </trkpt>
      <trkpt lat="46.27314" lon="5.97744">
        <ele>981.20001220703</ele>
        <time>2020-08-13T17:36:55.000Z</time>
      </trkpt>
      <trkpt lat="46.27311" lon="5.97747">
        <ele>980</ele>
        <time>2020-08-13T17:36:56.000Z</time>
      </trkpt>
      <trkpt lat="46.27309" lon="5.97751">
        <ele>979</ele>
        <time>2020-08-13T17:36:57.000Z</time>
      </trkpt>
      <trkpt lat="46.27307" lon="5.97755">
        <ele>977.79998779297</ele>
        <time>2020-08-13T17:36:58.000Z</time>
      </trkpt>
      <trkpt lat="46.27305" lon="5.97758">
        <ele>976.59997558594</ele>
        <time>2020-08-13T17:36:59.000Z</time>
      </trkpt>
      <trkpt lat="46.27304" lon="5.97761">
        <ele>975</ele>
        <time>2020-08-13T17:37:00.000Z</time>
      </trkpt>
      <trkpt lat="46.27303" lon="5.97766">
        <ele>973.59997558594</ele>
        <time>2020-08-13T17:37:01.000Z</time>
      </trkpt>
      <trkpt lat="46.27301" lon="5.9777">
        <ele>972.40002441406</ele>
        <time>2020-08-13T17:37:02.000Z</time>
      </trkpt>
      <trkpt lat="46.273" lon="5.97774">
        <ele>971.40002441406</ele>
        <time>2020-08-13T17:37:03.000Z</time>
      </trkpt>
      <trkpt lat="46.27299" lon="5.97776">
        <ele>970.40002441406</ele>
        <time>2020-08-13T17:37:04.000Z</time>
      </trkpt>
      <trkpt lat="46.27298" lon="5.97778">
        <ele>968.59997558594</ele>
        <time>2020-08-13T17:37:06.000Z</time>
      </trkpt>
      <trkpt lat="46.27297" lon="5.97778">
        <ele>968.20001220703</ele>
        <time>2020-08-13T17:37:07.000Z</time>
      </trkpt>
      <trkpt lat="46.27296" lon="5.97778">
        <ele>967.79998779297</ele>
        <time>2020-08-13T17:37:09.000Z</time>
      </trkpt>
      <trkpt lat="46.27293" lon="5.97777">
        <ele>967.59997558594</ele>
        <time>2020-08-13T17:37:13.000Z</time>
      </trkpt>
      <trkpt lat="46.27292" lon="5.97776">
        <ele>967.20001220703</ele>
        <time>2020-08-13T17:37:14.000Z</time>
      </trkpt>
      <trkpt lat="46.27291" lon="5.97775">
        <ele>966.20001220703</ele>
        <time>2020-08-13T17:37:16.000Z</time>
      </trkpt>
      <trkpt lat="46.2729" lon="5.97777">
        <ele>965.59997558594</ele>
        <time>2020-08-13T17:37:19.000Z</time>
      </trkpt>
      <trkpt lat="46.27288" lon="5.97779">
        <ele>965.40002441406</ele>
        <time>2020-08-13T17:37:20.000Z</time>
      </trkpt>
      <trkpt lat="46.27286" lon="5.9778">
        <ele>964.79998779297</ele>
        <time>2020-08-13T17:37:21.000Z</time>
      </trkpt>
      <trkpt lat="46.27282" lon="5.97782">
        <ele>964</ele>
        <time>2020-08-13T17:37:22.000Z</time>
      </trkpt>
      <trkpt lat="46.27279" lon="5.97784">
        <ele>963.40002441406</ele>
        <time>2020-08-13T17:37:23.000Z</time>
      </trkpt>
      <trkpt lat="46.2727" lon="5.97789">
        <ele>961</ele>
        <time>2020-08-13T17:37:25.000Z</time>
      </trkpt>
      <trkpt lat="46.27266" lon="5.9779">
        <ele>958.79998779297</ele>
        <time>2020-08-13T17:37:26.000Z</time>
      </trkpt>
      <trkpt lat="46.27261" lon="5.97792">
        <ele>956.59997558594</ele>
        <time>2020-08-13T17:37:27.000Z</time>
      </trkpt>
      <trkpt lat="46.27258" lon="5.97794">
        <ele>954.59997558594</ele>
        <time>2020-08-13T17:37:28.000Z</time>
      </trkpt>
      <trkpt lat="46.27254" lon="5.97795">
        <ele>953.20001220703</ele>
        <time>2020-08-13T17:37:29.000Z</time>
      </trkpt>
      <trkpt lat="46.2725" lon="5.97797">
        <ele>951.79998779297</ele>
        <time>2020-08-13T17:37:30.000Z</time>
      </trkpt>
      <trkpt lat="46.27248" lon="5.97799">
        <ele>950.40002441406</ele>
        <time>2020-08-13T17:37:31.000Z</time>
      </trkpt>
      <trkpt lat="46.27246" lon="5.97802">
        <ele>949</ele>
        <time>2020-08-13T17:37:32.000Z</time>
      </trkpt>
      <trkpt lat="46.27244" lon="5.97806">
        <ele>948</ele>
        <time>2020-08-13T17:37:33.000Z</time>
      </trkpt>
      <trkpt lat="46.27242" lon="5.97816">
        <ele>946</ele>
        <time>2020-08-13T17:37:35.000Z</time>
      </trkpt>
      <trkpt lat="46.27242" lon="5.97822">
        <ele>945</ele>
        <time>2020-08-13T17:37:36.000Z</time>
      </trkpt>
      <trkpt lat="46.27241" lon="5.97828">
        <ele>943.79998779297</ele>
        <time>2020-08-13T17:37:37.000Z</time>
      </trkpt>
      <trkpt lat="46.27241" lon="5.97832">
        <ele>942.40002441406</ele>
        <time>2020-08-13T17:37:38.000Z</time>
      </trkpt>
      <trkpt lat="46.27241" lon="5.97836">
        <ele>941</ele>
        <time>2020-08-13T17:37:39.000Z</time>
      </trkpt>
      <trkpt lat="46.27241" lon="5.97838">
        <ele>940</ele>
        <time>2020-08-13T17:37:40.000Z</time>
      </trkpt>
      <trkpt lat="46.2724" lon="5.9784">
        <ele>939.20001220703</ele>
        <time>2020-08-13T17:37:41.000Z</time>
      </trkpt>
      <trkpt lat="46.27241" lon="5.97841">
        <ele>938.59997558594</ele>
        <time>2020-08-13T17:37:42.000Z</time>
      </trkpt>
      <trkpt lat="46.27241" lon="5.97842">
        <ele>938</ele>
        <time>2020-08-13T17:37:44.000Z</time>
      </trkpt>
      <trkpt lat="46.27242" lon="5.97841">
        <ele>937.79998779297</ele>
        <time>2020-08-13T17:37:46.000Z</time>
      </trkpt>
      <trkpt lat="46.27242" lon="5.97841">
        <ele>937.59997558594</ele>
        <time>2020-08-13T17:37:48.000Z</time>
      </trkpt>
      <trkpt lat="46.27242" lon="5.97842">
        <ele>937</ele>
        <time>2020-08-13T17:37:52.000Z</time>
      </trkpt>
      <trkpt lat="46.27241" lon="5.97847">
        <ele>936.59997558594</ele>
        <time>2020-08-13T17:37:55.000Z</time>
      </trkpt>
      <trkpt lat="46.27241" lon="5.97849">
        <ele>936.40002441406</ele>
        <time>2020-08-13T17:37:56.000Z</time>
      </trkpt>
      <trkpt lat="46.27243" lon="5.97857">
        <ele>935.40002441406</ele>
        <time>2020-08-13T17:38:00.000Z</time>
      </trkpt>
      <trkpt lat="46.27243" lon="5.9786">
        <ele>934.79998779297</ele>
        <time>2020-08-13T17:38:02.000Z</time>
      </trkpt>
      <trkpt lat="46.27242" lon="5.97863">
        <ele>934.20001220703</ele>
        <time>2020-08-13T17:38:04.000Z</time>
      </trkpt>
      <trkpt lat="46.2724" lon="5.97868">
        <ele>933.40002441406</ele>
        <time>2020-08-13T17:38:07.000Z</time>
      </trkpt>
      <trkpt lat="46.2724" lon="5.97871">
        <ele>933</ele>
        <time>2020-08-13T17:38:08.000Z</time>
      </trkpt>
      <trkpt lat="46.27241" lon="5.97877">
        <ele>932.20001220703</ele>
        <time>2020-08-13T17:38:10.000Z</time>
      </trkpt>
      <trkpt lat="46.27241" lon="5.9788">
        <ele>931.79998779297</ele>
        <time>2020-08-13T17:38:11.000Z</time>
      </trkpt>
      <trkpt lat="46.27242" lon="5.97883">
        <ele>930.59997558594</ele>
        <time>2020-08-13T17:38:13.000Z</time>
      </trkpt>
      <trkpt lat="46.27243" lon="5.97884">
        <ele>929.79998779297</ele>
        <time>2020-08-13T17:38:16.000Z</time>
      </trkpt>
      <trkpt lat="46.27243" lon="5.97885">
        <ele>929.40002441406</ele>
        <time>2020-08-13T17:38:17.000Z</time>
      </trkpt>
      <trkpt lat="46.27242" lon="5.97889">
        <ele>928.79998779297</ele>
        <time>2020-08-13T17:38:20.000Z</time>
      </trkpt>
      <trkpt lat="46.2724" lon="5.97895">
        <ele>928.40002441406</ele>
        <time>2020-08-13T17:38:22.000Z</time>
      </trkpt>
      <trkpt lat="46.2724" lon="5.97906">
        <ele>926.79998779297</ele>
        <time>2020-08-13T17:38:24.000Z</time>
      </trkpt>
      <trkpt lat="46.2724" lon="5.97912">
        <ele>925.59997558594</ele>
        <time>2020-08-13T17:38:25.000Z</time>
      </trkpt>
      <trkpt lat="46.2724" lon="5.97918">
        <ele>924.40002441406</ele>
        <time>2020-08-13T17:38:26.000Z</time>
      </trkpt>
      <trkpt lat="46.27241" lon="5.97925">
        <ele>923.20001220703</ele>
        <time>2020-08-13T17:38:27.000Z</time>
      </trkpt>
      <trkpt lat="46.27242" lon="5.97932">
        <ele>922.20001220703</ele>
        <time>2020-08-13T17:38:28.000Z</time>
      </trkpt>
      <trkpt lat="46.27244" lon="5.97943">
        <ele>920.20001220703</ele>
        <time>2020-08-13T17:38:30.000Z</time>
      </trkpt>
      <trkpt lat="46.27245" lon="5.97948">
        <ele>919</ele>
        <time>2020-08-13T17:38:31.000Z</time>
      </trkpt>
      <trkpt lat="46.27246" lon="5.97953">
        <ele>918</ele>
        <time>2020-08-13T17:38:32.000Z</time>
      </trkpt>
      <trkpt lat="46.27246" lon="5.97958">
        <ele>916.79998779297</ele>
        <time>2020-08-13T17:38:33.000Z</time>
      </trkpt>
      <trkpt lat="46.27247" lon="5.97963">
        <ele>915.79998779297</ele>
        <time>2020-08-13T17:38:34.000Z</time>
      </trkpt>
      <trkpt lat="46.27248" lon="5.97973">
        <ele>914.20001220703</ele>
        <time>2020-08-13T17:38:36.000Z</time>
      </trkpt>
      <trkpt lat="46.27248" lon="5.97976">
        <ele>913.40002441406</ele>
        <time>2020-08-13T17:38:37.000Z</time>
      </trkpt>
      <trkpt lat="46.27249" lon="5.97978">
        <ele>912.79998779297</ele>
        <time>2020-08-13T17:38:38.000Z</time>
      </trkpt>
      <trkpt lat="46.27249" lon="5.97979">
        <ele>911.59997558594</ele>
        <time>2020-08-13T17:38:40.000Z</time>
      </trkpt>
      <trkpt lat="46.2725" lon="5.97979">
        <ele>911.40002441406</ele>
        <time>2020-08-13T17:38:41.000Z</time>
      </trkpt>
      <trkpt lat="46.2725" lon="5.9798">
        <ele>911.20001220703</ele>
        <time>2020-08-13T17:38:43.000Z</time>
      </trkpt>
      <trkpt lat="46.27251" lon="5.97981">
        <ele>911</ele>
        <time>2020-08-13T17:38:44.000Z</time>
      </trkpt>
      <trkpt lat="46.27253" lon="5.97986">
        <ele>910.40002441406</ele>
        <time>2020-08-13T17:38:47.000Z</time>
      </trkpt>
      <trkpt lat="46.27255" lon="5.97993">
        <ele>909.59997558594</ele>
        <time>2020-08-13T17:38:49.000Z</time>
      </trkpt>
      <trkpt lat="46.27257" lon="5.97996">
        <ele>909</ele>
        <time>2020-08-13T17:38:50.000Z</time>
      </trkpt>
      <trkpt lat="46.27258" lon="5.98">
        <ele>908.20001220703</ele>
        <time>2020-08-13T17:38:51.000Z</time>
      </trkpt>
      <trkpt lat="46.27259" lon="5.98004">
        <ele>907.20001220703</ele>
        <time>2020-08-13T17:38:52.000Z</time>
      </trkpt>
      <trkpt lat="46.2726" lon="5.98008">
        <ele>906.20001220703</ele>
        <time>2020-08-13T17:38:53.000Z</time>
      </trkpt>
      <trkpt lat="46.27263" lon="5.98014">
        <ele>904.40002441406</ele>
        <time>2020-08-13T17:38:55.000Z</time>
      </trkpt>
      <trkpt lat="46.27263" lon="5.98018">
        <ele>903.20001220703</ele>
        <time>2020-08-13T17:38:56.000Z</time>
      </trkpt>
      <trkpt lat="46.27263" lon="5.98021">
        <ele>902.20001220703</ele>
        <time>2020-08-13T17:38:57.000Z</time>
      </trkpt>
      <trkpt lat="46.27262" lon="5.98028">
        <ele>900.20001220703</ele>
        <time>2020-08-13T17:38:59.000Z</time>
      </trkpt>
      <trkpt lat="46.27261" lon="5.9803">
        <ele>899.40002441406</ele>
        <time>2020-08-13T17:39:00.000Z</time>
      </trkpt>
      <trkpt lat="46.27261" lon="5.98032">
        <ele>898.59997558594</ele>
        <time>2020-08-13T17:39:01.000Z</time>
      </trkpt>
      <trkpt lat="46.2726" lon="5.98035">
        <ele>897.59997558594</ele>
        <time>2020-08-13T17:39:02.000Z</time>
      </trkpt>
      <trkpt lat="46.2726" lon="5.98039">
        <ele>896.59997558594</ele>
        <time>2020-08-13T17:39:03.000Z</time>
      </trkpt>
      <trkpt lat="46.2726" lon="5.98042">
        <ele>895.20001220703</ele>
        <time>2020-08-13T17:39:04.000Z</time>
      </trkpt>
      <trkpt lat="46.2726" lon="5.98046">
        <ele>894</ele>
        <time>2020-08-13T17:39:05.000Z</time>
      </trkpt>
      <trkpt lat="46.2726" lon="5.9805">
        <ele>892.79998779297</ele>
        <time>2020-08-13T17:39:06.000Z</time>
      </trkpt>
      <trkpt lat="46.27261" lon="5.98056">
        <ele>891.79998779297</ele>
        <time>2020-08-13T17:39:07.000Z</time>
      </trkpt>
      <trkpt lat="46.27262" lon="5.98065">
        <ele>889.59997558594</ele>
        <time>2020-08-13T17:39:09.000Z</time>
      </trkpt>
      <trkpt lat="46.27262" lon="5.98068">
        <ele>888.20001220703</ele>
        <time>2020-08-13T17:39:10.000Z</time>
      </trkpt>
      <trkpt lat="46.27263" lon="5.98071">
        <ele>886.79998779297</ele>
        <time>2020-08-13T17:39:11.000Z</time>
      </trkpt>
      <trkpt lat="46.27263" lon="5.98073">
        <ele>885.79998779297</ele>
        <time>2020-08-13T17:39:12.000Z</time>
      </trkpt>
      <trkpt lat="46.27265" lon="5.98077">
        <ele>884.40002441406</ele>
        <time>2020-08-13T17:39:14.000Z</time>
      </trkpt>
      <trkpt lat="46.27267" lon="5.98081">
        <ele>882.79998779297</ele>
        <time>2020-08-13T17:39:16.000Z</time>
      </trkpt>
      <trkpt lat="46.27267" lon="5.98083">
        <ele>882</ele>
        <time>2020-08-13T17:39:17.000Z</time>
      </trkpt>
      <trkpt lat="46.27268" lon="5.98086">
        <ele>880.79998779297</ele>
        <time>2020-08-13T17:39:18.000Z</time>
      </trkpt>
      <trkpt lat="46.27269" lon="5.9809">
        <ele>879.59997558594</ele>
        <time>2020-08-13T17:39:19.000Z</time>
      </trkpt>
      <trkpt lat="46.27269" lon="5.98093">
        <ele>878.40002441406</ele>
        <time>2020-08-13T17:39:20.000Z</time>
      </trkpt>
      <trkpt lat="46.27269" lon="5.98094">
        <ele>877.40002441406</ele>
        <time>2020-08-13T17:39:21.000Z</time>
      </trkpt>
      <trkpt lat="46.2727" lon="5.98102">
        <ele>875.59997558594</ele>
        <time>2020-08-13T17:39:23.000Z</time>
      </trkpt>
      <trkpt lat="46.2727" lon="5.98108">
        <ele>874.20001220703</ele>
        <time>2020-08-13T17:39:25.000Z</time>
      </trkpt>
      <trkpt lat="46.27271" lon="5.98116">
        <ele>872.59997558594</ele>
        <time>2020-08-13T17:39:27.000Z</time>
      </trkpt>
      <trkpt lat="46.27271" lon="5.9812">
        <ele>871.79998779297</ele>
        <time>2020-08-13T17:39:28.000Z</time>
      </trkpt>
      <trkpt lat="46.27271" lon="5.98123">
        <ele>871</ele>
        <time>2020-08-13T17:39:29.000Z</time>
      </trkpt>
      <trkpt lat="46.2727" lon="5.98128">
        <ele>869.40002441406</ele>
        <time>2020-08-13T17:39:31.000Z</time>
      </trkpt>
      <trkpt lat="46.2727" lon="5.98133">
        <ele>867.79998779297</ele>
        <time>2020-08-13T17:39:33.000Z</time>
      </trkpt>
      <trkpt lat="46.2727" lon="5.98138">
        <ele>866.40002441406</ele>
        <time>2020-08-13T17:39:35.000Z</time>
      </trkpt>
      <trkpt lat="46.27272" lon="5.98144">
        <ele>864.59997558594</ele>
        <time>2020-08-13T17:39:37.000Z</time>
      </trkpt>
      <trkpt lat="46.27273" lon="5.98147">
        <ele>863.79998779297</ele>
        <time>2020-08-13T17:39:38.000Z</time>
      </trkpt>
      <trkpt lat="46.27274" lon="5.98151">
        <ele>862.79998779297</ele>
        <time>2020-08-13T17:39:39.000Z</time>
      </trkpt>
      <trkpt lat="46.27275" lon="5.98156">
        <ele>861.79998779297</ele>
        <time>2020-08-13T17:39:40.000Z</time>
      </trkpt>
      <trkpt lat="46.27275" lon="5.98162">
        <ele>860.40002441406</ele>
        <time>2020-08-13T17:39:41.000Z</time>
      </trkpt>
      <trkpt lat="46.27276" lon="5.98166">
        <ele>859</ele>
        <time>2020-08-13T17:39:42.000Z</time>
      </trkpt>
      <trkpt lat="46.27277" lon="5.9817">
        <ele>857.40002441406</ele>
        <time>2020-08-13T17:39:43.000Z</time>
      </trkpt>
      <trkpt lat="46.27278" lon="5.98173">
        <ele>856</ele>
        <time>2020-08-13T17:39:44.000Z</time>
      </trkpt>
      <trkpt lat="46.27278" lon="5.98175">
        <ele>855.20001220703</ele>
        <time>2020-08-13T17:39:45.000Z</time>
      </trkpt>
      <trkpt lat="46.27278" lon="5.98176">
        <ele>854.40002441406</ele>
        <time>2020-08-13T17:39:46.000Z</time>
      </trkpt>
      <trkpt lat="46.27276" lon="5.98178">
        <ele>853.20001220703</ele>
        <time>2020-08-13T17:39:47.000Z</time>
      </trkpt>
      <trkpt lat="46.27274" lon="5.98178">
        <ele>852.40002441406</ele>
        <time>2020-08-13T17:39:48.000Z</time>
      </trkpt>
      <trkpt lat="46.27271" lon="5.98179">
        <ele>851.40002441406</ele>
        <time>2020-08-13T17:39:49.000Z</time>
      </trkpt>
      <trkpt lat="46.27265" lon="5.9818">
        <ele>849.40002441406</ele>
        <time>2020-08-13T17:39:51.000Z</time>
      </trkpt>
      <trkpt lat="46.27257" lon="5.98179">
        <ele>847.40002441406</ele>
        <time>2020-08-13T17:39:53.000Z</time>
      </trkpt>
      <trkpt lat="46.27253" lon="5.98178">
        <ele>846</ele>
        <time>2020-08-13T17:39:54.000Z</time>
      </trkpt>
      <trkpt lat="46.2725" lon="5.98178">
        <ele>844.40002441406</ele>
        <time>2020-08-13T17:39:55.000Z</time>
      </trkpt>
      <trkpt lat="46.27247" lon="5.98177">
        <ele>843.20001220703</ele>
        <time>2020-08-13T17:39:56.000Z</time>
      </trkpt>
      <trkpt lat="46.27245" lon="5.98178">
        <ele>842.20001220703</ele>
        <time>2020-08-13T17:39:57.000Z</time>
      </trkpt>
      <trkpt lat="46.27242" lon="5.98178">
        <ele>841</ele>
        <time>2020-08-13T17:39:58.000Z</time>
      </trkpt>
      <trkpt lat="46.27239" lon="5.98179">
        <ele>840</ele>
        <time>2020-08-13T17:39:59.000Z</time>
      </trkpt>
      <trkpt lat="46.27233" lon="5.98181">
        <ele>838</ele>
        <time>2020-08-13T17:40:01.000Z</time>
      </trkpt>
      <trkpt lat="46.27229" lon="5.98182">
        <ele>836.59997558594</ele>
        <time>2020-08-13T17:40:02.000Z</time>
      </trkpt>
      <trkpt lat="46.27227" lon="5.98182">
        <ele>835.20001220703</ele>
        <time>2020-08-13T17:40:03.000Z</time>
      </trkpt>
      <trkpt lat="46.27225" lon="5.98183">
        <ele>833.79998779297</ele>
        <time>2020-08-13T17:40:04.000Z</time>
      </trkpt>
      <trkpt lat="46.27223" lon="5.98184">
        <ele>832.59997558594</ele>
        <time>2020-08-13T17:40:05.000Z</time>
      </trkpt>
      <trkpt lat="46.27222" lon="5.98184">
        <ele>831.40002441406</ele>
        <time>2020-08-13T17:40:07.000Z</time>
      </trkpt>
      <trkpt lat="46.27222" lon="5.98183">
        <ele>831.20001220703</ele>
        <time>2020-08-13T17:40:08.000Z</time>
      </trkpt>
      <trkpt lat="46.2722" lon="5.98183">
        <ele>830.40002441406</ele>
        <time>2020-08-13T17:40:17.000Z</time>
      </trkpt>
      <trkpt lat="46.27215" lon="5.98187">
        <ele>829.79998779297</ele>
        <time>2020-08-13T17:40:19.000Z</time>
      </trkpt>
      <trkpt lat="46.27211" lon="5.98189">
        <ele>829.40002441406</ele>
        <time>2020-08-13T17:40:20.000Z</time>
      </trkpt>
      <trkpt lat="46.27206" lon="5.98194">
        <ele>829</ele>
        <time>2020-08-13T17:40:21.000Z</time>
      </trkpt>
      <trkpt lat="46.27198" lon="5.982">
        <ele>826.79998779297</ele>
        <time>2020-08-13T17:40:23.000Z</time>
      </trkpt>
      <trkpt lat="46.27194" lon="5.98203">
        <ele>825.40002441406</ele>
        <time>2020-08-13T17:40:24.000Z</time>
      </trkpt>
      <trkpt lat="46.27191" lon="5.98204">
        <ele>824.20001220703</ele>
        <time>2020-08-13T17:40:25.000Z</time>
      </trkpt>
      <trkpt lat="46.27188" lon="5.98204">
        <ele>823.20001220703</ele>
        <time>2020-08-13T17:40:26.000Z</time>
      </trkpt>
      <trkpt lat="46.27186" lon="5.98204">
        <ele>822.20001220703</ele>
        <time>2020-08-13T17:40:27.000Z</time>
      </trkpt>
      <trkpt lat="46.27184" lon="5.98205">
        <ele>821.59997558594</ele>
        <time>2020-08-13T17:40:28.000Z</time>
      </trkpt>
      <trkpt lat="46.27182" lon="5.98206">
        <ele>821</ele>
        <time>2020-08-13T17:40:29.000Z</time>
      </trkpt>
      <trkpt lat="46.2718" lon="5.98207">
        <ele>820.20001220703</ele>
        <time>2020-08-13T17:40:30.000Z</time>
      </trkpt>
      <trkpt lat="46.27178" lon="5.98207">
        <ele>819.40002441406</ele>
        <time>2020-08-13T17:40:31.000Z</time>
      </trkpt>
      <trkpt lat="46.27176" lon="5.98207">
        <ele>818.20001220703</ele>
        <time>2020-08-13T17:40:32.000Z</time>
      </trkpt>
      <trkpt lat="46.27172" lon="5.98208">
        <ele>816.79998779297</ele>
        <time>2020-08-13T17:40:34.000Z</time>
      </trkpt>
      <trkpt lat="46.27169" lon="5.98209">
        <ele>816</ele>
        <time>2020-08-13T17:40:36.000Z</time>
      </trkpt>
      <trkpt lat="46.27168" lon="5.9821">
        <ele>815.59997558594</ele>
        <time>2020-08-13T17:40:37.000Z</time>
      </trkpt>
      <trkpt lat="46.27167" lon="5.9821">
        <ele>815</ele>
        <time>2020-08-13T17:40:40.000Z</time>
      </trkpt>
      <trkpt lat="46.27167" lon="5.98209">
        <ele>814.59997558594</ele>
        <time>2020-08-13T17:40:46.000Z</time>
      </trkpt>
      <trkpt lat="46.27167" lon="5.98208">
        <ele>814.40002441406</ele>
        <time>2020-08-13T17:40:48.000Z</time>
      </trkpt>
      <trkpt lat="46.27165" lon="5.98207">
        <ele>814.59997558594</ele>
        <time>2020-08-13T17:40:57.000Z</time>
      </trkpt>
      <trkpt lat="46.27165" lon="5.98207">
        <ele>814.40002441406</ele>
        <time>2020-08-13T17:41:00.000Z</time>
      </trkpt>
      <trkpt lat="46.27163" lon="5.98205">
        <ele>814</ele>
        <time>2020-08-13T17:41:10.000Z</time>
      </trkpt>
      <trkpt lat="46.27165" lon="5.98201">
        <ele>813.79998779297</ele>
        <time>2020-08-13T17:41:22.000Z</time>
      </trkpt>
      <trkpt lat="46.27164" lon="5.98201">
        <ele>813.79998779297</ele>
        <time>2020-08-13T17:41:28.000Z</time>
      </trkpt>
      <trkpt lat="46.27163" lon="5.98203">
        <ele>813.79998779297</ele>
        <time>2020-08-13T17:41:33.000Z</time>
      </trkpt>
      <trkpt lat="46.27163" lon="5.98206">
        <ele>813.79998779297</ele>
        <time>2020-08-13T17:41:41.000Z</time>
      </trkpt>
      <trkpt lat="46.27162" lon="5.98208">
        <ele>813.59997558594</ele>
        <time>2020-08-13T17:41:45.000Z</time>
      </trkpt>
      <trkpt lat="46.27161" lon="5.98209">
        <ele>813.59997558594</ele>
        <time>2020-08-13T17:41:46.000Z</time>
      </trkpt>
      <trkpt lat="46.27162" lon="5.9821">
        <ele>813.59997558594</ele>
        <time>2020-08-13T17:41:56.000Z</time>
      </trkpt>
      <trkpt lat="46.2716" lon="5.98209">
        <ele>813</ele>
        <time>2020-08-13T17:42:02.000Z</time>
      </trkpt>
      <trkpt lat="46.27159" lon="5.9821">
        <ele>812.59997558594</ele>
        <time>2020-08-13T17:42:03.000Z</time>
      </trkpt>
      <trkpt lat="46.27152" lon="5.98214">
        <ele>811.40002441406</ele>
        <time>2020-08-13T17:42:05.000Z</time>
      </trkpt>
      <trkpt lat="46.27149" lon="5.98216">
        <ele>810.20001220703</ele>
        <time>2020-08-13T17:42:06.000Z</time>
      </trkpt>
      <trkpt lat="46.27145" lon="5.98219">
        <ele>809</ele>
        <time>2020-08-13T17:42:07.000Z</time>
      </trkpt>
      <trkpt lat="46.27136" lon="5.98225">
        <ele>807</ele>
        <time>2020-08-13T17:42:09.000Z</time>
      </trkpt>
      <trkpt lat="46.27131" lon="5.98228">
        <ele>805.20001220703</ele>
        <time>2020-08-13T17:42:10.000Z</time>
      </trkpt>
      <trkpt lat="46.27127" lon="5.98231">
        <ele>803.20001220703</ele>
        <time>2020-08-13T17:42:11.000Z</time>
      </trkpt>
      <trkpt lat="46.27124" lon="5.98232">
        <ele>801.79998779297</ele>
        <time>2020-08-13T17:42:12.000Z</time>
      </trkpt>
      <trkpt lat="46.27121" lon="5.98233">
        <ele>800.79998779297</ele>
        <time>2020-08-13T17:42:13.000Z</time>
      </trkpt>
      <trkpt lat="46.27115" lon="5.98236">
        <ele>799.20001220703</ele>
        <time>2020-08-13T17:42:15.000Z</time>
      </trkpt>
      <trkpt lat="46.27107" lon="5.98238">
        <ele>797.59997558594</ele>
        <time>2020-08-13T17:42:17.000Z</time>
      </trkpt>
      <trkpt lat="46.27104" lon="5.98239">
        <ele>796.40002441406</ele>
        <time>2020-08-13T17:42:18.000Z</time>
      </trkpt>
      <trkpt lat="46.271" lon="5.98239">
        <ele>795.40002441406</ele>
        <time>2020-08-13T17:42:19.000Z</time>
      </trkpt>
      <trkpt lat="46.27097" lon="5.9824">
        <ele>794.20001220703</ele>
        <time>2020-08-13T17:42:20.000Z</time>
      </trkpt>
      <trkpt lat="46.27093" lon="5.98241">
        <ele>792.59997558594</ele>
        <time>2020-08-13T17:42:21.000Z</time>
      </trkpt>
      <trkpt lat="46.27089" lon="5.98242">
        <ele>790.79998779297</ele>
        <time>2020-08-13T17:42:22.000Z</time>
      </trkpt>
      <trkpt lat="46.27086" lon="5.98243">
        <ele>789.40002441406</ele>
        <time>2020-08-13T17:42:23.000Z</time>
      </trkpt>
      <trkpt lat="46.27082" lon="5.98243">
        <ele>788.20001220703</ele>
        <time>2020-08-13T17:42:24.000Z</time>
      </trkpt>
      <trkpt lat="46.27078" lon="5.98244">
        <ele>787</ele>
        <time>2020-08-13T17:42:25.000Z</time>
      </trkpt>
      <trkpt lat="46.27074" lon="5.98245">
        <ele>785.79998779297</ele>
        <time>2020-08-13T17:42:26.000Z</time>
      </trkpt>
      <trkpt lat="46.2707" lon="5.98247">
        <ele>784.20001220703</ele>
        <time>2020-08-13T17:42:27.000Z</time>
      </trkpt>
      <trkpt lat="46.27066" lon="5.9825">
        <ele>782.79998779297</ele>
        <time>2020-08-13T17:42:28.000Z</time>
      </trkpt>
      <trkpt lat="46.27064" lon="5.98253">
        <ele>781.40002441406</ele>
        <time>2020-08-13T17:42:29.000Z</time>
      </trkpt>
      <trkpt lat="46.27062" lon="5.98257">
        <ele>779.40002441406</ele>
        <time>2020-08-13T17:42:30.000Z</time>
      </trkpt>
      <trkpt lat="46.2706" lon="5.98261">
        <ele>777.40002441406</ele>
        <time>2020-08-13T17:42:31.000Z</time>
      </trkpt>
      <trkpt lat="46.27059" lon="5.98265">
        <ele>775.40002441406</ele>
        <time>2020-08-13T17:42:32.000Z</time>
      </trkpt>
      <trkpt lat="46.27058" lon="5.9827">
        <ele>773.79998779297</ele>
        <time>2020-08-13T17:42:33.000Z</time>
      </trkpt>
      <trkpt lat="46.27057" lon="5.98276">
        <ele>772.79998779297</ele>
        <time>2020-08-13T17:42:34.000Z</time>
      </trkpt>
      <trkpt lat="46.27056" lon="5.98281">
        <ele>771.79998779297</ele>
        <time>2020-08-13T17:42:35.000Z</time>
      </trkpt>
      <trkpt lat="46.27055" lon="5.98285">
        <ele>770.20001220703</ele>
        <time>2020-08-13T17:42:36.000Z</time>
      </trkpt>
      <trkpt lat="46.27054" lon="5.98289">
        <ele>768.59997558594</ele>
        <time>2020-08-13T17:42:37.000Z</time>
      </trkpt>
      <trkpt lat="46.27053" lon="5.98291">
        <ele>766.79998779297</ele>
        <time>2020-08-13T17:42:38.000Z</time>
      </trkpt>
      <trkpt lat="46.27053" lon="5.98293">
        <ele>765.40002441406</ele>
        <time>2020-08-13T17:42:39.000Z</time>
      </trkpt>
      <trkpt lat="46.27052" lon="5.98296">
        <ele>763.79998779297</ele>
        <time>2020-08-13T17:42:41.000Z</time>
      </trkpt>
      <trkpt lat="46.27051" lon="5.98299">
        <ele>763.40002441406</ele>
        <time>2020-08-13T17:42:42.000Z</time>
      </trkpt>
      <trkpt lat="46.2705" lon="5.98302">
        <ele>762.79998779297</ele>
        <time>2020-08-13T17:42:43.000Z</time>
      </trkpt>
      <trkpt lat="46.27048" lon="5.98308">
        <ele>761.40002441406</ele>
        <time>2020-08-13T17:42:45.000Z</time>
      </trkpt>
      <trkpt lat="46.27047" lon="5.98311">
        <ele>760.20001220703</ele>
        <time>2020-08-13T17:42:47.000Z</time>
      </trkpt>
      <trkpt lat="46.27046" lon="5.98312">
        <ele>759.40002441406</ele>
        <time>2020-08-13T17:42:51.000Z</time>
      </trkpt>
      <trkpt lat="46.27045" lon="5.98312">
        <ele>759.40002441406</ele>
        <time>2020-08-13T17:42:53.000Z</time>
      </trkpt>
      <trkpt lat="46.27044" lon="5.98314">
        <ele>759.20001220703</ele>
        <time>2020-08-13T17:42:54.000Z</time>
      </trkpt>
      <trkpt lat="46.27041" lon="5.98319">
        <ele>757.79998779297</ele>
        <time>2020-08-13T17:42:56.000Z</time>
      </trkpt>
      <trkpt lat="46.27039" lon="5.98322">
        <ele>756.40002441406</ele>
        <time>2020-08-13T17:42:57.000Z</time>
      </trkpt>
      <trkpt lat="46.27037" lon="5.98326">
        <ele>755.40002441406</ele>
        <time>2020-08-13T17:42:58.000Z</time>
      </trkpt>
      <trkpt lat="46.27035" lon="5.98329">
        <ele>754.40002441406</ele>
        <time>2020-08-13T17:42:59.000Z</time>
      </trkpt>
      <trkpt lat="46.27032" lon="5.98333">
        <ele>753.59997558594</ele>
        <time>2020-08-13T17:43:00.000Z</time>
      </trkpt>
      <trkpt lat="46.27029" lon="5.98338">
        <ele>752.40002441406</ele>
        <time>2020-08-13T17:43:01.000Z</time>
      </trkpt>
      <trkpt lat="46.27025" lon="5.98343">
        <ele>750.79998779297</ele>
        <time>2020-08-13T17:43:02.000Z</time>
      </trkpt>
      <trkpt lat="46.27021" lon="5.98348">
        <ele>748.79998779297</ele>
        <time>2020-08-13T17:43:03.000Z</time>
      </trkpt>
      <trkpt lat="46.27017" lon="5.98354">
        <ele>746.79998779297</ele>
        <time>2020-08-13T17:43:04.000Z</time>
      </trkpt>
      <trkpt lat="46.27012" lon="5.98359">
        <ele>745.20001220703</ele>
        <time>2020-08-13T17:43:05.000Z</time>
      </trkpt>
      <trkpt lat="46.27009" lon="5.98364">
        <ele>744.20001220703</ele>
        <time>2020-08-13T17:43:06.000Z</time>
      </trkpt>
      <trkpt lat="46.27002" lon="5.98373">
        <ele>742.20001220703</ele>
        <time>2020-08-13T17:43:08.000Z</time>
      </trkpt>
      <trkpt lat="46.27" lon="5.98378">
        <ele>741</ele>
        <time>2020-08-13T17:43:09.000Z</time>
      </trkpt>
      <trkpt lat="46.26997" lon="5.98381">
        <ele>739.79998779297</ele>
        <time>2020-08-13T17:43:10.000Z</time>
      </trkpt>
      <trkpt lat="46.26995" lon="5.98384">
        <ele>738.40002441406</ele>
        <time>2020-08-13T17:43:11.000Z</time>
      </trkpt>
      <trkpt lat="46.26992" lon="5.98387">
        <ele>737.40002441406</ele>
        <time>2020-08-13T17:43:12.000Z</time>
      </trkpt>
      <trkpt lat="46.26986" lon="5.98395">
        <ele>736.40002441406</ele>
        <time>2020-08-13T17:43:14.000Z</time>
      </trkpt>
      <trkpt lat="46.26983" lon="5.98399">
        <ele>736</ele>
        <time>2020-08-13T17:43:15.000Z</time>
      </trkpt>
      <trkpt lat="46.26975" lon="5.98408">
        <ele>734.20001220703</ele>
        <time>2020-08-13T17:43:17.000Z</time>
      </trkpt>
      <trkpt lat="46.2697" lon="5.98411">
        <ele>733</ele>
        <time>2020-08-13T17:43:18.000Z</time>
      </trkpt>
      <trkpt lat="46.26966" lon="5.98413">
        <ele>732</ele>
        <time>2020-08-13T17:43:19.000Z</time>
      </trkpt>
      <trkpt lat="46.26961" lon="5.98414">
        <ele>731</ele>
        <time>2020-08-13T17:43:20.000Z</time>
      </trkpt>
      <trkpt lat="46.26956" lon="5.98415">
        <ele>729.40002441406</ele>
        <time>2020-08-13T17:43:21.000Z</time>
      </trkpt>
      <trkpt lat="46.26952" lon="5.98417">
        <ele>727.79998779297</ele>
        <time>2020-08-13T17:43:22.000Z</time>
      </trkpt>
      <trkpt lat="46.26948" lon="5.98418">
        <ele>726.20001220703</ele>
        <time>2020-08-13T17:43:23.000Z</time>
      </trkpt>
      <trkpt lat="46.26944" lon="5.9842">
        <ele>724.59997558594</ele>
        <time>2020-08-13T17:43:24.000Z</time>
      </trkpt>
      <trkpt lat="46.2694" lon="5.98423">
        <ele>723</ele>
        <time>2020-08-13T17:43:25.000Z</time>
      </trkpt>
      <trkpt lat="46.26936" lon="5.98425">
        <ele>721.59997558594</ele>
        <time>2020-08-13T17:43:26.000Z</time>
      </trkpt>
      <trkpt lat="46.26933" lon="5.98428">
        <ele>720.40002441406</ele>
        <time>2020-08-13T17:43:27.000Z</time>
      </trkpt>
      <trkpt lat="46.26929" lon="5.98438">
        <ele>718.40002441406</ele>
        <time>2020-08-13T17:43:29.000Z</time>
      </trkpt>
      <trkpt lat="46.26928" lon="5.98443">
        <ele>717</ele>
        <time>2020-08-13T17:43:30.000Z</time>
      </trkpt>
      <trkpt lat="46.26925" lon="5.98448">
        <ele>715.40002441406</ele>
        <time>2020-08-13T17:43:31.000Z</time>
      </trkpt>
      <trkpt lat="46.26922" lon="5.98454">
        <ele>714.20001220703</ele>
        <time>2020-08-13T17:43:32.000Z</time>
      </trkpt>
      <trkpt lat="46.26918" lon="5.98458">
        <ele>712.79998779297</ele>
        <time>2020-08-13T17:43:33.000Z</time>
      </trkpt>
      <trkpt lat="46.26914" lon="5.98463">
        <ele>711.59997558594</ele>
        <time>2020-08-13T17:43:34.000Z</time>
      </trkpt>
      <trkpt lat="46.2691" lon="5.98467">
        <ele>710.40002441406</ele>
        <time>2020-08-13T17:43:35.000Z</time>
      </trkpt>
      <trkpt lat="46.26906" lon="5.98471">
        <ele>709.20001220703</ele>
        <time>2020-08-13T17:43:36.000Z</time>
      </trkpt>
      <trkpt lat="46.26902" lon="5.98474">
        <ele>707.79998779297</ele>
        <time>2020-08-13T17:43:37.000Z</time>
      </trkpt>
      <trkpt lat="46.26898" lon="5.98479">
        <ele>706.40002441406</ele>
        <time>2020-08-13T17:43:38.000Z</time>
      </trkpt>
      <trkpt lat="46.26894" lon="5.98484">
        <ele>704.79998779297</ele>
        <time>2020-08-13T17:43:39.000Z</time>
      </trkpt>
      <trkpt lat="46.2689" lon="5.98491">
        <ele>703.40002441406</ele>
        <time>2020-08-13T17:43:40.000Z</time>
      </trkpt>
      <trkpt lat="46.26887" lon="5.98496">
        <ele>702.20001220703</ele>
        <time>2020-08-13T17:43:41.000Z</time>
      </trkpt>
      <trkpt lat="46.26883" lon="5.98501">
        <ele>701.20001220703</ele>
        <time>2020-08-13T17:43:42.000Z</time>
      </trkpt>
      <trkpt lat="46.2688" lon="5.98506">
        <ele>700.20001220703</ele>
        <time>2020-08-13T17:43:43.000Z</time>
      </trkpt>
      <trkpt lat="46.26877" lon="5.98511">
        <ele>699</ele>
        <time>2020-08-13T17:43:44.000Z</time>
      </trkpt>
      <trkpt lat="46.26873" lon="5.98515">
        <ele>697.59997558594</ele>
        <time>2020-08-13T17:43:45.000Z</time>
      </trkpt>
      <trkpt lat="46.2687" lon="5.9852">
        <ele>696.40002441406</ele>
        <time>2020-08-13T17:43:46.000Z</time>
      </trkpt>
      <trkpt lat="46.26866" lon="5.98526">
        <ele>695.59997558594</ele>
        <time>2020-08-13T17:43:47.000Z</time>
      </trkpt>
      <trkpt lat="46.26862" lon="5.9853">
        <ele>694.59997558594</ele>
        <time>2020-08-13T17:43:48.000Z</time>
      </trkpt>
      <trkpt lat="46.26856" lon="5.98538">
        <ele>693.20001220703</ele>
        <time>2020-08-13T17:43:50.000Z</time>
      </trkpt>
      <trkpt lat="46.26851" lon="5.98544">
        <ele>691.40002441406</ele>
        <time>2020-08-13T17:43:52.000Z</time>
      </trkpt>
      <trkpt lat="46.26845" lon="5.9855">
        <ele>689.59997558594</ele>
        <time>2020-08-13T17:43:54.000Z</time>
      </trkpt>
      <trkpt lat="46.26843" lon="5.98555">
        <ele>688.40002441406</ele>
        <time>2020-08-13T17:43:55.000Z</time>
      </trkpt>
      <trkpt lat="46.2684" lon="5.98559">
        <ele>687.40002441406</ele>
        <time>2020-08-13T17:43:56.000Z</time>
      </trkpt>
      <trkpt lat="46.26834" lon="5.98568">
        <ele>685.40002441406</ele>
        <time>2020-08-13T17:43:58.000Z</time>
      </trkpt>
      <trkpt lat="46.26832" lon="5.98571">
        <ele>684.20001220703</ele>
        <time>2020-08-13T17:43:59.000Z</time>
      </trkpt>
      <trkpt lat="46.2683" lon="5.98576">
        <ele>683.20001220703</ele>
        <time>2020-08-13T17:44:00.000Z</time>
      </trkpt>
      <trkpt lat="46.26824" lon="5.98586">
        <ele>681.79998779297</ele>
        <time>2020-08-13T17:44:02.000Z</time>
      </trkpt>
      <trkpt lat="46.26816" lon="5.98593">
        <ele>679.59997558594</ele>
        <time>2020-08-13T17:44:04.000Z</time>
      </trkpt>
      <trkpt lat="46.26812" lon="5.98596">
        <ele>678</ele>
        <time>2020-08-13T17:44:05.000Z</time>
      </trkpt>
      <trkpt lat="46.26808" lon="5.98599">
        <ele>676.59997558594</ele>
        <time>2020-08-13T17:44:06.000Z</time>
      </trkpt>
      <trkpt lat="46.26801" lon="5.98606">
        <ele>675</ele>
        <time>2020-08-13T17:44:08.000Z</time>
      </trkpt>
      <trkpt lat="46.26795" lon="5.98614">
        <ele>673</ele>
        <time>2020-08-13T17:44:10.000Z</time>
      </trkpt>
      <trkpt lat="46.26792" lon="5.98618">
        <ele>672</ele>
        <time>2020-08-13T17:44:11.000Z</time>
      </trkpt>
      <trkpt lat="46.26789" lon="5.98623">
        <ele>670.79998779297</ele>
        <time>2020-08-13T17:44:12.000Z</time>
      </trkpt>
      <trkpt lat="46.26788" lon="5.98628">
        <ele>669.59997558594</ele>
        <time>2020-08-13T17:44:13.000Z</time>
      </trkpt>
      <trkpt lat="46.26785" lon="5.98634">
        <ele>668.40002441406</ele>
        <time>2020-08-13T17:44:14.000Z</time>
      </trkpt>
      <trkpt lat="46.26782" lon="5.98639">
        <ele>667.40002441406</ele>
        <time>2020-08-13T17:44:15.000Z</time>
      </trkpt>
      <trkpt lat="46.26778" lon="5.98645">
        <ele>666</ele>
        <time>2020-08-13T17:44:16.000Z</time>
      </trkpt>
      <trkpt lat="46.26773" lon="5.98649">
        <ele>664.59997558594</ele>
        <time>2020-08-13T17:44:17.000Z</time>
      </trkpt>
      <trkpt lat="46.2677" lon="5.98654">
        <ele>663.40002441406</ele>
        <time>2020-08-13T17:44:18.000Z</time>
      </trkpt>
      <trkpt lat="46.26761" lon="5.98663">
        <ele>662</ele>
        <time>2020-08-13T17:44:20.000Z</time>
      </trkpt>
      <trkpt lat="46.26756" lon="5.98668">
        <ele>661</ele>
        <time>2020-08-13T17:44:21.000Z</time>
      </trkpt>
      <trkpt lat="46.26752" lon="5.98672">
        <ele>659.79998779297</ele>
        <time>2020-08-13T17:44:22.000Z</time>
      </trkpt>
      <trkpt lat="46.26748" lon="5.98676">
        <ele>658.59997558594</ele>
        <time>2020-08-13T17:44:23.000Z</time>
      </trkpt>
      <trkpt lat="46.26744" lon="5.9868">
        <ele>657.40002441406</ele>
        <time>2020-08-13T17:44:24.000Z</time>
      </trkpt>
      <trkpt lat="46.26741" lon="5.98684">
        <ele>656</ele>
        <time>2020-08-13T17:44:25.000Z</time>
      </trkpt>
      <trkpt lat="46.26738" lon="5.98691">
        <ele>654.79998779297</ele>
        <time>2020-08-13T17:44:26.000Z</time>
      </trkpt>
      <trkpt lat="46.26735" lon="5.98695">
        <ele>653.79998779297</ele>
        <time>2020-08-13T17:44:27.000Z</time>
      </trkpt>
      <trkpt lat="46.26729" lon="5.98703">
        <ele>651.79998779297</ele>
        <time>2020-08-13T17:44:29.000Z</time>
      </trkpt>
      <trkpt lat="46.26722" lon="5.98712">
        <ele>649.59997558594</ele>
        <time>2020-08-13T17:44:31.000Z</time>
      </trkpt>
      <trkpt lat="46.26718" lon="5.98716">
        <ele>648.20001220703</ele>
        <time>2020-08-13T17:44:32.000Z</time>
      </trkpt>
      <trkpt lat="46.26714" lon="5.9872">
        <ele>646.79998779297</ele>
        <time>2020-08-13T17:44:33.000Z</time>
      </trkpt>
      <trkpt lat="46.26711" lon="5.98724">
        <ele>646.20001220703</ele>
        <time>2020-08-13T17:44:34.000Z</time>
      </trkpt>
      <trkpt lat="46.26708" lon="5.98726">
        <ele>645.59997558594</ele>
        <time>2020-08-13T17:44:35.000Z</time>
      </trkpt>
      <trkpt lat="46.26693" lon="5.98734">
        <ele>643.59997558594</ele>
        <time>2020-08-13T17:44:38.000Z</time>
      </trkpt>
      <trkpt lat="46.26687" lon="5.98736">
        <ele>642.40002441406</ele>
        <time>2020-08-13T17:44:39.000Z</time>
      </trkpt>
      <trkpt lat="46.26682" lon="5.98739">
        <ele>641</ele>
        <time>2020-08-13T17:44:40.000Z</time>
      </trkpt>
      <trkpt lat="46.26677" lon="5.98741">
        <ele>639.79998779297</ele>
        <time>2020-08-13T17:44:41.000Z</time>
      </trkpt>
      <trkpt lat="46.26673" lon="5.98743">
        <ele>638.40002441406</ele>
        <time>2020-08-13T17:44:42.000Z</time>
      </trkpt>
      <trkpt lat="46.26669" lon="5.98744">
        <ele>637</ele>
        <time>2020-08-13T17:44:43.000Z</time>
      </trkpt>
      <trkpt lat="46.26665" lon="5.98744">
        <ele>636</ele>
        <time>2020-08-13T17:44:44.000Z</time>
      </trkpt>
      <trkpt lat="46.26661" lon="5.98745">
        <ele>635.20001220703</ele>
        <time>2020-08-13T17:44:45.000Z</time>
      </trkpt>
      <trkpt lat="46.26653" lon="5.98748">
        <ele>633.20001220703</ele>
        <time>2020-08-13T17:44:47.000Z</time>
      </trkpt>
      <trkpt lat="46.26648" lon="5.98752">
        <ele>631.79998779297</ele>
        <time>2020-08-13T17:44:49.000Z</time>
      </trkpt>
      <trkpt lat="46.26644" lon="5.98752">
        <ele>630.79998779297</ele>
        <time>2020-08-13T17:44:50.000Z</time>
      </trkpt>
      <trkpt lat="46.2664" lon="5.98753">
        <ele>629.20001220703</ele>
        <time>2020-08-13T17:44:51.000Z</time>
      </trkpt>
      <trkpt lat="46.26635" lon="5.98754">
        <ele>628</ele>
        <time>2020-08-13T17:44:52.000Z</time>
      </trkpt>
      <trkpt lat="46.26625" lon="5.98753">
        <ele>626.59997558594</ele>
        <time>2020-08-13T17:44:54.000Z</time>
      </trkpt>
      <trkpt lat="46.26615" lon="5.98753">
        <ele>624.79998779297</ele>
        <time>2020-08-13T17:44:56.000Z</time>
      </trkpt>
      <trkpt lat="46.2661" lon="5.98753">
        <ele>623.40002441406</ele>
        <time>2020-08-13T17:44:57.000Z</time>
      </trkpt>
      <trkpt lat="46.26605" lon="5.98753">
        <ele>622</ele>
        <time>2020-08-13T17:44:58.000Z</time>
      </trkpt>
      <trkpt lat="46.26599" lon="5.98755">
        <ele>620.59997558594</ele>
        <time>2020-08-13T17:44:59.000Z</time>
      </trkpt>
      <trkpt lat="46.26594" lon="5.98756">
        <ele>619.40002441406</ele>
        <time>2020-08-13T17:45:00.000Z</time>
      </trkpt>
      <trkpt lat="46.2659" lon="5.98757">
        <ele>618.40002441406</ele>
        <time>2020-08-13T17:45:01.000Z</time>
      </trkpt>
      <trkpt lat="46.26588" lon="5.98757">
        <ele>617.59997558594</ele>
        <time>2020-08-13T17:45:02.000Z</time>
      </trkpt>
      <trkpt lat="46.26587" lon="5.9876">
        <ele>617</ele>
        <time>2020-08-13T17:45:04.000Z</time>
      </trkpt>
      <trkpt lat="46.26585" lon="5.98763">
        <ele>616.59997558594</ele>
        <time>2020-08-13T17:45:05.000Z</time>
      </trkpt>
      <trkpt lat="46.26581" lon="5.98773">
        <ele>615</ele>
        <time>2020-08-13T17:45:07.000Z</time>
      </trkpt>
      <trkpt lat="46.26579" lon="5.98778">
        <ele>614</ele>
        <time>2020-08-13T17:45:08.000Z</time>
      </trkpt>
      <trkpt lat="46.26578" lon="5.98782">
        <ele>613.40002441406</ele>
        <time>2020-08-13T17:45:09.000Z</time>
      </trkpt>
      <trkpt lat="46.26575" lon="5.98792">
        <ele>611.79998779297</ele>
        <time>2020-08-13T17:45:11.000Z</time>
      </trkpt>
      <trkpt lat="46.26573" lon="5.98796">
        <ele>610.59997558594</ele>
        <time>2020-08-13T17:45:12.000Z</time>
      </trkpt>
      <trkpt lat="46.2657" lon="5.98801">
        <ele>609.79998779297</ele>
        <time>2020-08-13T17:45:13.000Z</time>
      </trkpt>
      <trkpt lat="46.26566" lon="5.98805">
        <ele>609</ele>
        <time>2020-08-13T17:45:14.000Z</time>
      </trkpt>
      <trkpt lat="46.26562" lon="5.9881">
        <ele>608</ele>
        <time>2020-08-13T17:45:15.000Z</time>
      </trkpt>
      <trkpt lat="46.26559" lon="5.98813">
        <ele>606.79998779297</ele>
        <time>2020-08-13T17:45:16.000Z</time>
      </trkpt>
      <trkpt lat="46.26556" lon="5.98817">
        <ele>605.59997558594</ele>
        <time>2020-08-13T17:45:17.000Z</time>
      </trkpt>
      <trkpt lat="46.26553" lon="5.9882">
        <ele>604.59997558594</ele>
        <time>2020-08-13T17:45:18.000Z</time>
      </trkpt>
      <trkpt lat="46.2655" lon="5.98824">
        <ele>603.59997558594</ele>
        <time>2020-08-13T17:45:19.000Z</time>
      </trkpt>
      <trkpt lat="46.26547" lon="5.98827">
        <ele>602.59997558594</ele>
        <time>2020-08-13T17:45:20.000Z</time>
      </trkpt>
      <trkpt lat="46.26544" lon="5.98831">
        <ele>601.40002441406</ele>
        <time>2020-08-13T17:45:21.000Z</time>
      </trkpt>
      <trkpt lat="46.2654" lon="5.9884">
        <ele>600</ele>
        <time>2020-08-13T17:45:23.000Z</time>
      </trkpt>
      <trkpt lat="46.26535" lon="5.98848">
        <ele>599</ele>
        <time>2020-08-13T17:45:25.000Z</time>
      </trkpt>
      <trkpt lat="46.26529" lon="5.98855">
        <ele>597.79998779297</ele>
        <time>2020-08-13T17:45:27.000Z</time>
      </trkpt>
      <trkpt lat="46.26526" lon="5.98859">
        <ele>597</ele>
        <time>2020-08-13T17:45:28.000Z</time>
      </trkpt>
      <trkpt lat="46.26523" lon="5.9886">
        <ele>596.20001220703</ele>
        <time>2020-08-13T17:45:29.000Z</time>
      </trkpt>
      <trkpt lat="46.26517" lon="5.98862">
        <ele>594.59997558594</ele>
        <time>2020-08-13T17:45:31.000Z</time>
      </trkpt>
      <trkpt lat="46.26512" lon="5.98862">
        <ele>593.59997558594</ele>
        <time>2020-08-13T17:45:33.000Z</time>
      </trkpt>
      <trkpt lat="46.26507" lon="5.98864">
        <ele>591.79998779297</ele>
        <time>2020-08-13T17:45:36.000Z</time>
      </trkpt>
      <trkpt lat="46.26503" lon="5.98865">
        <ele>590.59997558594</ele>
        <time>2020-08-13T17:45:38.000Z</time>
      </trkpt>
      <trkpt lat="46.265" lon="5.98866">
        <ele>589.79998779297</ele>
        <time>2020-08-13T17:45:39.000Z</time>
      </trkpt>
      <trkpt lat="46.26497" lon="5.98867">
        <ele>588.59997558594</ele>
        <time>2020-08-13T17:45:40.000Z</time>
      </trkpt>
      <trkpt lat="46.26492" lon="5.98868">
        <ele>587</ele>
        <time>2020-08-13T17:45:42.000Z</time>
      </trkpt>
      <trkpt lat="46.26488" lon="5.9887">
        <ele>585.40002441406</ele>
        <time>2020-08-13T17:45:44.000Z</time>
      </trkpt>
      <trkpt lat="46.26486" lon="5.98873">
        <ele>584.20001220703</ele>
        <time>2020-08-13T17:45:45.000Z</time>
      </trkpt>
      <trkpt lat="46.26484" lon="5.98875">
        <ele>583</ele>
        <time>2020-08-13T17:45:46.000Z</time>
      </trkpt>
      <trkpt lat="46.26482" lon="5.98877">
        <ele>582.20001220703</ele>
        <time>2020-08-13T17:45:47.000Z</time>
      </trkpt>
      <trkpt lat="46.2648" lon="5.98879">
        <ele>581.59997558594</ele>
        <time>2020-08-13T17:45:48.000Z</time>
      </trkpt>
      <trkpt lat="46.26477" lon="5.98881">
        <ele>580.40002441406</ele>
        <time>2020-08-13T17:45:50.000Z</time>
      </trkpt>
      <trkpt lat="46.26474" lon="5.98885">
        <ele>578.79998779297</ele>
        <time>2020-08-13T17:45:52.000Z</time>
      </trkpt>
      <trkpt lat="46.2647" lon="5.9889">
        <ele>577.59997558594</ele>
        <time>2020-08-13T17:45:55.000Z</time>
      </trkpt>
      <trkpt lat="46.26466" lon="5.98898">
        <ele>575.79998779297</ele>
        <time>2020-08-13T17:45:58.000Z</time>
      </trkpt>
      <trkpt lat="46.26461" lon="5.98901">
        <ele>574.40002441406</ele>
        <time>2020-08-13T17:46:00.000Z</time>
      </trkpt>
      <trkpt lat="46.26459" lon="5.98903">
        <ele>573.79998779297</ele>
        <time>2020-08-13T17:46:01.000Z</time>
      </trkpt>
      <trkpt lat="46.26455" lon="5.98905">
        <ele>573.20001220703</ele>
        <time>2020-08-13T17:46:02.000Z</time>
      </trkpt>
      <trkpt lat="46.26449" lon="5.98909">
        <ele>571.20001220703</ele>
        <time>2020-08-13T17:46:04.000Z</time>
      </trkpt>
      <trkpt lat="46.26447" lon="5.9891">
        <ele>570.20001220703</ele>
        <time>2020-08-13T17:46:05.000Z</time>
      </trkpt>
      <trkpt lat="46.26443" lon="5.98913">
        <ele>569</ele>
        <time>2020-08-13T17:46:07.000Z</time>
      </trkpt>
      <trkpt lat="46.26433" lon="5.98922">
        <ele>568</ele>
        <time>2020-08-13T17:46:12.000Z</time>
      </trkpt>
      <trkpt lat="46.26432" lon="5.98925">
        <ele>567.79998779297</ele>
        <time>2020-08-13T17:46:13.000Z</time>
      </trkpt>
      <trkpt lat="46.26428" lon="5.98931">
        <ele>566.79998779297</ele>
        <time>2020-08-13T17:46:15.000Z</time>
      </trkpt>
      <trkpt lat="46.26425" lon="5.98937">
        <ele>565</ele>
        <time>2020-08-13T17:46:17.000Z</time>
      </trkpt>
      <trkpt lat="46.2642" lon="5.98945">
        <ele>563</ele>
        <time>2020-08-13T17:46:19.000Z</time>
      </trkpt>
      <trkpt lat="46.26417" lon="5.98949">
        <ele>561.79998779297</ele>
        <time>2020-08-13T17:46:20.000Z</time>
      </trkpt>
      <trkpt lat="46.26415" lon="5.98952">
        <ele>560.59997558594</ele>
        <time>2020-08-13T17:46:21.000Z</time>
      </trkpt>
      <trkpt lat="46.26412" lon="5.98955">
        <ele>559.59997558594</ele>
        <time>2020-08-13T17:46:22.000Z</time>
      </trkpt>
      <trkpt lat="46.26409" lon="5.98959">
        <ele>558.40002441406</ele>
        <time>2020-08-13T17:46:23.000Z</time>
      </trkpt>
      <trkpt lat="46.26406" lon="5.98964">
        <ele>557.20001220703</ele>
        <time>2020-08-13T17:46:24.000Z</time>
      </trkpt>
      <trkpt lat="46.26403" lon="5.9897">
        <ele>556</ele>
        <time>2020-08-13T17:46:25.000Z</time>
      </trkpt>
      <trkpt lat="46.26398" lon="5.98982">
        <ele>554.79998779297</ele>
        <time>2020-08-13T17:46:27.000Z</time>
      </trkpt>
      <trkpt lat="46.26394" lon="5.98994">
        <ele>553.59997558594</ele>
        <time>2020-08-13T17:46:29.000Z</time>
      </trkpt>
      <trkpt lat="46.2639" lon="5.99003">
        <ele>552.20001220703</ele>
        <time>2020-08-13T17:46:31.000Z</time>
      </trkpt>
      <trkpt lat="46.26387" lon="5.99007">
        <ele>551.40002441406</ele>
        <time>2020-08-13T17:46:32.000Z</time>
      </trkpt>
      <trkpt lat="46.26385" lon="5.9901">
        <ele>550.59997558594</ele>
        <time>2020-08-13T17:46:33.000Z</time>
      </trkpt>
      <trkpt lat="46.26381" lon="5.99017">
        <ele>549.40002441406</ele>
        <time>2020-08-13T17:46:35.000Z</time>
      </trkpt>
      <trkpt lat="46.26374" lon="5.99026">
        <ele>548</ele>
        <time>2020-08-13T17:46:37.000Z</time>
      </trkpt>
      <trkpt lat="46.2637" lon="5.99031">
        <ele>547.59997558594</ele>
        <time>2020-08-13T17:46:38.000Z</time>
      </trkpt>
      <trkpt lat="46.26363" lon="5.99039">
        <ele>546.79998779297</ele>
        <time>2020-08-13T17:46:40.000Z</time>
      </trkpt>
      <trkpt lat="46.26347" lon="5.99053">
        <ele>545.79998779297</ele>
        <time>2020-08-13T17:46:44.000Z</time>
      </trkpt>
      <trkpt lat="46.26329" lon="5.9906">
        <ele>544</ele>
        <time>2020-08-13T17:46:47.000Z</time>
      </trkpt>
      <trkpt lat="46.26323" lon="5.99062">
        <ele>543.59997558594</ele>
        <time>2020-08-13T17:46:48.000Z</time>
      </trkpt>
      <trkpt lat="46.26317" lon="5.99065">
        <ele>543</ele>
        <time>2020-08-13T17:46:49.000Z</time>
      </trkpt>
      <trkpt lat="46.2631" lon="5.9907">
        <ele>541.79998779297</ele>
        <time>2020-08-13T17:46:50.000Z</time>
      </trkpt>
      <trkpt lat="46.26303" lon="5.99076">
        <ele>540.40002441406</ele>
        <time>2020-08-13T17:46:51.000Z</time>
      </trkpt>
      <trkpt lat="46.26296" lon="5.99081">
        <ele>539.20001220703</ele>
        <time>2020-08-13T17:46:52.000Z</time>
      </trkpt>
      <trkpt lat="46.2629" lon="5.99087">
        <ele>538</ele>
        <time>2020-08-13T17:46:53.000Z</time>
      </trkpt>
      <trkpt lat="46.26284" lon="5.99093">
        <ele>536.79998779297</ele>
        <time>2020-08-13T17:46:54.000Z</time>
      </trkpt>
      <trkpt lat="46.26279" lon="5.99099">
        <ele>535.20001220703</ele>
        <time>2020-08-13T17:46:55.000Z</time>
      </trkpt>
      <trkpt lat="46.26273" lon="5.99103">
        <ele>533.79998779297</ele>
        <time>2020-08-13T17:46:56.000Z</time>
      </trkpt>
      <trkpt lat="46.26266" lon="5.99107">
        <ele>532.79998779297</ele>
        <time>2020-08-13T17:46:57.000Z</time>
      </trkpt>
      <trkpt lat="46.2626" lon="5.99113">
        <ele>532</ele>
        <time>2020-08-13T17:46:58.000Z</time>
      </trkpt>
      <trkpt lat="46.26254" lon="5.99119">
        <ele>531.40002441406</ele>
        <time>2020-08-13T17:46:59.000Z</time>
      </trkpt>
      <trkpt lat="46.26248" lon="5.99127">
        <ele>530.79998779297</ele>
        <time>2020-08-13T17:47:00.000Z</time>
      </trkpt>
      <trkpt lat="46.2624" lon="5.99134">
        <ele>530.20001220703</ele>
        <time>2020-08-13T17:47:01.000Z</time>
      </trkpt>
      <trkpt lat="46.26223" lon="5.99149">
        <ele>527.79998779297</ele>
        <time>2020-08-13T17:47:03.000Z</time>
      </trkpt>
      <trkpt lat="46.26215" lon="5.99158">
        <ele>526.20001220703</ele>
        <time>2020-08-13T17:47:04.000Z</time>
      </trkpt>
      <trkpt lat="46.26206" lon="5.99166">
        <ele>525</ele>
        <time>2020-08-13T17:47:05.000Z</time>
      </trkpt>
      <trkpt lat="46.26199" lon="5.99173">
        <ele>523.79998779297</ele>
        <time>2020-08-13T17:47:06.000Z</time>
      </trkpt>
      <trkpt lat="46.26192" lon="5.99179">
        <ele>522.79998779297</ele>
        <time>2020-08-13T17:47:07.000Z</time>
      </trkpt>
      <trkpt lat="46.26185" lon="5.99186">
        <ele>521.79998779297</ele>
        <time>2020-08-13T17:47:08.000Z</time>
      </trkpt>
      <trkpt lat="46.26172" lon="5.99197">
        <ele>520.20001220703</ele>
        <time>2020-08-13T17:47:10.000Z</time>
      </trkpt>
      <trkpt lat="46.26166" lon="5.99201">
        <ele>519.40002441406</ele>
        <time>2020-08-13T17:47:11.000Z</time>
      </trkpt>
      <trkpt lat="46.2616" lon="5.99201">
        <ele>519</ele>
        <time>2020-08-13T17:47:12.000Z</time>
      </trkpt>
      <trkpt lat="46.26154" lon="5.99199">
        <ele>518.40002441406</ele>
        <time>2020-08-13T17:47:13.000Z</time>
      </trkpt>
      <trkpt lat="46.26148" lon="5.99195">
        <ele>517.79998779297</ele>
        <time>2020-08-13T17:47:14.000Z</time>
      </trkpt>
      <trkpt lat="46.2613" lon="5.99176">
        <ele>516.20001220703</ele>
        <time>2020-08-13T17:47:17.000Z</time>
      </trkpt>
      <trkpt lat="46.26119" lon="5.99162">
        <ele>515.40002441406</ele>
        <time>2020-08-13T17:47:19.000Z</time>
      </trkpt>
      <trkpt lat="46.26113" lon="5.99155">
        <ele>515.20001220703</ele>
        <time>2020-08-13T17:47:20.000Z</time>
      </trkpt>
      <trkpt lat="46.26089" lon="5.99122">
        <ele>514.79998779297</ele>
        <time>2020-08-13T17:47:25.000Z</time>
      </trkpt>
      <trkpt lat="46.26079" lon="5.9911">
        <ele>514.79998779297</ele>
        <time>2020-08-13T17:47:27.000Z</time>
      </trkpt>
      <trkpt lat="46.2606" lon="5.99083">
        <ele>514.20001220703</ele>
        <time>2020-08-13T17:47:31.000Z</time>
      </trkpt>
      <trkpt lat="46.26055" lon="5.99077">
        <ele>514</ele>
        <time>2020-08-13T17:47:32.000Z</time>
      </trkpt>
      <trkpt lat="46.26046" lon="5.99064">
        <ele>513.79998779297</ele>
        <time>2020-08-13T17:47:34.000Z</time>
      </trkpt>
      <trkpt lat="46.26017" lon="5.99031">
        <ele>513.59997558594</ele>
        <time>2020-08-13T17:47:40.000Z</time>
      </trkpt>
      <trkpt lat="46.26012" lon="5.99027">
        <ele>513.59997558594</ele>
        <time>2020-08-13T17:47:41.000Z</time>
      </trkpt>
      <trkpt lat="46.25993" lon="5.99012">
        <ele>513.79998779297</ele>
        <time>2020-08-13T17:47:45.000Z</time>
      </trkpt>
      <trkpt lat="46.25987" lon="5.9901">
        <ele>513.59997558594</ele>
        <time>2020-08-13T17:47:46.000Z</time>
      </trkpt>
      <trkpt lat="46.25967" lon="5.99006">
        <ele>513</ele>
        <time>2020-08-13T17:47:49.000Z</time>
      </trkpt>
      <trkpt lat="46.25951" lon="5.99006">
        <ele>511.79998779297</ele>
        <time>2020-08-13T17:47:51.000Z</time>
      </trkpt>
      <trkpt lat="46.25934" lon="5.99005">
        <ele>510.60000610352</ele>
        <time>2020-08-13T17:47:53.000Z</time>
      </trkpt>
      <trkpt lat="46.25925" lon="5.99005">
        <ele>510</ele>
        <time>2020-08-13T17:47:54.000Z</time>
      </trkpt>
      <trkpt lat="46.25917" lon="5.99006">
        <ele>509.60000610352</ele>
        <time>2020-08-13T17:47:55.000Z</time>
      </trkpt>
      <trkpt lat="46.259" lon="5.99009">
        <ele>508.79998779297</ele>
        <time>2020-08-13T17:47:57.000Z</time>
      </trkpt>
      <trkpt lat="46.25892" lon="5.99013">
        <ele>508.39999389648</ele>
        <time>2020-08-13T17:47:58.000Z</time>
      </trkpt>
      <trkpt lat="46.25885" lon="5.99018">
        <ele>508</ele>
        <time>2020-08-13T17:47:59.000Z</time>
      </trkpt>
      <trkpt lat="46.25871" lon="5.99034">
        <ele>506.79998779297</ele>
        <time>2020-08-13T17:48:01.000Z</time>
      </trkpt>
      <trkpt lat="46.25857" lon="5.99052">
        <ele>505.39999389648</ele>
        <time>2020-08-13T17:48:03.000Z</time>
      </trkpt>
      <trkpt lat="46.25845" lon="5.99071">
        <ele>504.39999389648</ele>
        <time>2020-08-13T17:48:05.000Z</time>
      </trkpt>
      <trkpt lat="46.25832" lon="5.99091">
        <ele>503.20001220703</ele>
        <time>2020-08-13T17:48:07.000Z</time>
      </trkpt>
      <trkpt lat="46.25812" lon="5.99121">
        <ele>501.79998779297</ele>
        <time>2020-08-13T17:48:10.000Z</time>
      </trkpt>
      <trkpt lat="46.25796" lon="5.99139">
        <ele>500</ele>
        <time>2020-08-13T17:48:12.000Z</time>
      </trkpt>
      <trkpt lat="46.25788" lon="5.99147">
        <ele>498.79998779297</ele>
        <time>2020-08-13T17:48:13.000Z</time>
      </trkpt>
      <trkpt lat="46.2578" lon="5.99155">
        <ele>497.60000610352</ele>
        <time>2020-08-13T17:48:14.000Z</time>
      </trkpt>
      <trkpt lat="46.25772" lon="5.99164">
        <ele>496.60000610352</ele>
        <time>2020-08-13T17:48:15.000Z</time>
      </trkpt>
      <trkpt lat="46.25765" lon="5.99174">
        <ele>496</ele>
        <time>2020-08-13T17:48:16.000Z</time>
      </trkpt>
      <trkpt lat="46.2576" lon="5.99186">
        <ele>495.39999389648</ele>
        <time>2020-08-13T17:48:17.000Z</time>
      </trkpt>
      <trkpt lat="46.25756" lon="5.99199">
        <ele>494.79998779297</ele>
        <time>2020-08-13T17:48:18.000Z</time>
      </trkpt>
      <trkpt lat="46.25748" lon="5.99226">
        <ele>493.39999389648</ele>
        <time>2020-08-13T17:48:20.000Z</time>
      </trkpt>
      <trkpt lat="46.25743" lon="5.99238">
        <ele>492.79998779297</ele>
        <time>2020-08-13T17:48:21.000Z</time>
      </trkpt>
      <trkpt lat="46.25738" lon="5.99251">
        <ele>492</ele>
        <time>2020-08-13T17:48:22.000Z</time>
      </trkpt>
      <trkpt lat="46.2572" lon="5.99286">
        <ele>490.60000610352</ele>
        <time>2020-08-13T17:48:25.000Z</time>
      </trkpt>
      <trkpt lat="46.25713" lon="5.99297">
        <ele>490.20001220703</ele>
        <time>2020-08-13T17:48:26.000Z</time>
      </trkpt>
      <trkpt lat="46.25706" lon="5.99307">
        <ele>489.39999389648</ele>
        <time>2020-08-13T17:48:27.000Z</time>
      </trkpt>
      <trkpt lat="46.25691" lon="5.99326">
        <ele>487.79998779297</ele>
        <time>2020-08-13T17:48:29.000Z</time>
      </trkpt>
      <trkpt lat="46.25675" lon="5.99344">
        <ele>486</ele>
        <time>2020-08-13T17:48:31.000Z</time>
      </trkpt>
      <trkpt lat="46.25658" lon="5.99361">
        <ele>484.39999389648</ele>
        <time>2020-08-13T17:48:33.000Z</time>
      </trkpt>
      <trkpt lat="46.25642" lon="5.99376">
        <ele>483.39999389648</ele>
        <time>2020-08-13T17:48:35.000Z</time>
      </trkpt>
      <trkpt lat="46.25628" lon="5.99389">
        <ele>482.60000610352</ele>
        <time>2020-08-13T17:48:37.000Z</time>
      </trkpt>
      <trkpt lat="46.25622" lon="5.99394">
        <ele>481.79998779297</ele>
        <time>2020-08-13T17:48:38.000Z</time>
      </trkpt>
      <trkpt lat="46.2561" lon="5.99405">
        <ele>480.60000610352</ele>
        <time>2020-08-13T17:48:40.000Z</time>
      </trkpt>
      <trkpt lat="46.25605" lon="5.99411">
        <ele>480.20001220703</ele>
        <time>2020-08-13T17:48:41.000Z</time>
      </trkpt>
      <trkpt lat="46.25601" lon="5.99418">
        <ele>479.79998779297</ele>
        <time>2020-08-13T17:48:42.000Z</time>
      </trkpt>
      <trkpt lat="46.25596" lon="5.99426">
        <ele>479.60000610352</ele>
        <time>2020-08-13T17:48:43.000Z</time>
      </trkpt>
      <trkpt lat="46.25574" lon="5.99458">
        <ele>478.39999389648</ele>
        <time>2020-08-13T17:48:47.000Z</time>
      </trkpt>
      <trkpt lat="46.25561" lon="5.99473">
        <ele>477.79998779297</ele>
        <time>2020-08-13T17:48:49.000Z</time>
      </trkpt>
      <trkpt lat="46.25554" lon="5.99481">
        <ele>477.39999389648</ele>
        <time>2020-08-13T17:48:50.000Z</time>
      </trkpt>
      <trkpt lat="46.25547" lon="5.9949">
        <ele>477.20001220703</ele>
        <time>2020-08-13T17:48:51.000Z</time>
      </trkpt>
      <trkpt lat="46.25534" lon="5.99508">
        <ele>476</ele>
        <time>2020-08-13T17:48:53.000Z</time>
      </trkpt>
      <trkpt lat="46.25528" lon="5.99517">
        <ele>474.79998779297</ele>
        <time>2020-08-13T17:48:54.000Z</time>
      </trkpt>
      <trkpt lat="46.25521" lon="5.99527">
        <ele>473.20001220703</ele>
        <time>2020-08-13T17:48:55.000Z</time>
      </trkpt>
      <trkpt lat="46.25514" lon="5.99536">
        <ele>471.60000610352</ele>
        <time>2020-08-13T17:48:56.000Z</time>
      </trkpt>
      <trkpt lat="46.25507" lon="5.99546">
        <ele>470.60000610352</ele>
        <time>2020-08-13T17:48:57.000Z</time>
      </trkpt>
      <trkpt lat="46.25474" lon="5.99592">
        <ele>469.39999389648</ele>
        <time>2020-08-13T17:49:02.000Z</time>
      </trkpt>
      <trkpt lat="46.25434" lon="5.99642">
        <ele>468.20001220703</ele>
        <time>2020-08-13T17:49:08.000Z</time>
      </trkpt>
      <trkpt lat="46.25421" lon="5.99658">
        <ele>467.60000610352</ele>
        <time>2020-08-13T17:49:10.000Z</time>
      </trkpt>
      <trkpt lat="46.25409" lon="5.99675">
        <ele>467.20001220703</ele>
        <time>2020-08-13T17:49:12.000Z</time>
      </trkpt>
      <trkpt lat="46.25387" lon="5.99709">
        <ele>465.60000610352</ele>
        <time>2020-08-13T17:49:16.000Z</time>
      </trkpt>
      <trkpt lat="46.25375" lon="5.99725">
        <ele>464</ele>
        <time>2020-08-13T17:49:18.000Z</time>
      </trkpt>
      <trkpt lat="46.25357" lon="5.99748">
        <ele>462.79998779297</ele>
        <time>2020-08-13T17:49:21.000Z</time>
      </trkpt>
      <trkpt lat="46.25331" lon="5.99779">
        <ele>462.20001220703</ele>
        <time>2020-08-13T17:49:25.000Z</time>
      </trkpt>
      <trkpt lat="46.25318" lon="5.99797">
        <ele>461.79998779297</ele>
        <time>2020-08-13T17:49:27.000Z</time>
      </trkpt>
      <trkpt lat="46.25303" lon="5.99827">
        <ele>461.20001220703</ele>
        <time>2020-08-13T17:49:30.000Z</time>
      </trkpt>
      <trkpt lat="46.25289" lon="5.99856">
        <ele>460.39999389648</ele>
        <time>2020-08-13T17:49:33.000Z</time>
      </trkpt>
      <trkpt lat="46.25271" lon="5.99891">
        <ele>459.60000610352</ele>
        <time>2020-08-13T17:49:37.000Z</time>
      </trkpt>
      <trkpt lat="46.25264" lon="5.99901">
        <ele>459.39999389648</ele>
        <time>2020-08-13T17:49:39.000Z</time>
      </trkpt>
      <trkpt lat="46.25262" lon="5.99904">
        <ele>459.20001220703</ele>
        <time>2020-08-13T17:49:40.000Z</time>
      </trkpt>
      <trkpt lat="46.25259" lon="5.99908">
        <ele>459</ele>
        <time>2020-08-13T17:49:44.000Z</time>
      </trkpt>
      <trkpt lat="46.25258" lon="5.99915">
        <ele>458.79998779297</ele>
        <time>2020-08-13T17:49:47.000Z</time>
      </trkpt>
      <trkpt lat="46.25261" lon="5.99924">
        <ele>458.79998779297</ele>
        <time>2020-08-13T17:49:49.000Z</time>
      </trkpt>
      <trkpt lat="46.25279" lon="5.99943">
        <ele>458.60000610352</ele>
        <time>2020-08-13T17:49:53.000Z</time>
      </trkpt>
      <trkpt lat="46.2529" lon="5.99952">
        <ele>458.20001220703</ele>
        <time>2020-08-13T17:49:55.000Z</time>
      </trkpt>
      <trkpt lat="46.25314" lon="5.99972">
        <ele>457.39999389648</ele>
        <time>2020-08-13T17:49:59.000Z</time>
      </trkpt>
      <trkpt lat="46.25326" lon="5.99983">
        <ele>457.20001220703</ele>
        <time>2020-08-13T17:50:01.000Z</time>
      </trkpt>
      <trkpt lat="46.25344" lon="6.00003">
        <ele>456</ele>
        <time>2020-08-13T17:50:04.000Z</time>
      </trkpt>
      <trkpt lat="46.25351" lon="6.00024">
        <ele>455.20001220703</ele>
        <time>2020-08-13T17:50:06.000Z</time>
      </trkpt>
      <trkpt lat="46.25353" lon="6.00036">
        <ele>454.79998779297</ele>
        <time>2020-08-13T17:50:07.000Z</time>
      </trkpt>
      <trkpt lat="46.25353" lon="6.00048">
        <ele>454.39999389648</ele>
        <time>2020-08-13T17:50:08.000Z</time>
      </trkpt>
      <trkpt lat="46.25346" lon="6.00071">
        <ele>453.39999389648</ele>
        <time>2020-08-13T17:50:10.000Z</time>
      </trkpt>
      <trkpt lat="46.25323" lon="6.00111">
        <ele>452.20001220703</ele>
        <time>2020-08-13T17:50:14.000Z</time>
      </trkpt>
      <trkpt lat="46.25296" lon="6.00148">
        <ele>451.20001220703</ele>
        <time>2020-08-13T17:50:18.000Z</time>
      </trkpt>
      <trkpt lat="46.25282" lon="6.00165">
        <ele>451</ele>
        <time>2020-08-13T17:50:20.000Z</time>
      </trkpt>
      <trkpt lat="46.25254" lon="6.00198">
        <ele>450</ele>
        <time>2020-08-13T17:50:24.000Z</time>
      </trkpt>
      <trkpt lat="46.25225" lon="6.0023">
        <ele>448.79998779297</ele>
        <time>2020-08-13T17:50:28.000Z</time>
      </trkpt>
      <trkpt lat="46.25183" lon="6.00277">
        <ele>447.79998779297</ele>
        <time>2020-08-13T17:50:34.000Z</time>
      </trkpt>
      <trkpt lat="46.25177" lon="6.00285">
        <ele>447.39999389648</ele>
        <time>2020-08-13T17:50:35.000Z</time>
      </trkpt>
      <trkpt lat="46.25141" lon="6.00335">
        <ele>446.60000610352</ele>
        <time>2020-08-13T17:50:41.000Z</time>
      </trkpt>
      <trkpt lat="46.25119" lon="6.00369">
        <ele>446.39999389648</ele>
        <time>2020-08-13T17:50:45.000Z</time>
      </trkpt>
      <trkpt lat="46.25103" lon="6.00394">
        <ele>446</ele>
        <time>2020-08-13T17:50:48.000Z</time>
      </trkpt>
      <trkpt lat="46.25081" lon="6.00426">
        <ele>445.20001220703</ele>
        <time>2020-08-13T17:50:52.000Z</time>
      </trkpt>
      <trkpt lat="46.25054" lon="6.00466">
        <ele>444.39999389648</ele>
        <time>2020-08-13T17:50:57.000Z</time>
      </trkpt>
      <trkpt lat="46.25044" lon="6.00483">
        <ele>444.39999389648</ele>
        <time>2020-08-13T17:50:59.000Z</time>
      </trkpt>
      <trkpt lat="46.25033" lon="6.00511">
        <ele>444.60000610352</ele>
        <time>2020-08-13T17:51:02.000Z</time>
      </trkpt>
      <trkpt lat="46.25019" lon="6.00572">
        <ele>444.79998779297</ele>
        <time>2020-08-13T17:51:08.000Z</time>
      </trkpt>
      <trkpt lat="46.25009" lon="6.00622">
        <ele>444.20001220703</ele>
        <time>2020-08-13T17:51:13.000Z</time>
      </trkpt>
      <trkpt lat="46.25004" lon="6.00643">
        <ele>443.79998779297</ele>
        <time>2020-08-13T17:51:15.000Z</time>
      </trkpt>
      <trkpt lat="46.24994" lon="6.00685">
        <ele>443</ele>
        <time>2020-08-13T17:51:19.000Z</time>
      </trkpt>
      <trkpt lat="46.24984" lon="6.00728">
        <ele>442</ele>
        <time>2020-08-13T17:51:23.000Z</time>
      </trkpt>
      <trkpt lat="46.24979" lon="6.00749">
        <ele>441.60000610352</ele>
        <time>2020-08-13T17:51:25.000Z</time>
      </trkpt>
      <trkpt lat="46.24967" lon="6.00802">
        <ele>440.79998779297</ele>
        <time>2020-08-13T17:51:30.000Z</time>
      </trkpt>
      <trkpt lat="46.24962" lon="6.00823">
        <ele>440.39999389648</ele>
        <time>2020-08-13T17:51:32.000Z</time>
      </trkpt>
      <trkpt lat="46.24957" lon="6.00843">
        <ele>439.79998779297</ele>
        <time>2020-08-13T17:51:34.000Z</time>
      </trkpt>
      <trkpt lat="46.24947" lon="6.00885">
        <ele>438.79998779297</ele>
        <time>2020-08-13T17:51:38.000Z</time>
      </trkpt>
      <trkpt lat="46.24944" lon="6.00895">
        <ele>438.79998779297</ele>
        <time>2020-08-13T17:51:39.000Z</time>
      </trkpt>
      <trkpt lat="46.24937" lon="6.00926">
        <ele>438.60000610352</ele>
        <time>2020-08-13T17:51:42.000Z</time>
      </trkpt>
      <trkpt lat="46.24924" lon="6.00976">
        <ele>438.20001220703</ele>
        <time>2020-08-13T17:51:47.000Z</time>
      </trkpt>
      <trkpt lat="46.24918" lon="6.00996">
        <ele>437.79998779297</ele>
        <time>2020-08-13T17:51:49.000Z</time>
      </trkpt>
      <trkpt lat="46.24915" lon="6.01006">
        <ele>437.60000610352</ele>
        <time>2020-08-13T17:51:50.000Z</time>
      </trkpt>
      <trkpt lat="46.24901" lon="6.01042">
        <ele>437.20001220703</ele>
        <time>2020-08-13T17:51:54.000Z</time>
      </trkpt>
      <trkpt lat="46.24896" lon="6.0105">
        <ele>437.20001220703</ele>
        <time>2020-08-13T17:51:55.000Z</time>
      </trkpt>
      <trkpt lat="46.24867" lon="6.01097">
        <ele>436.79998779297</ele>
        <time>2020-08-13T17:52:01.000Z</time>
      </trkpt>
      <trkpt lat="46.24863" lon="6.01106">
        <ele>436.60000610352</ele>
        <time>2020-08-13T17:52:02.000Z</time>
      </trkpt>
      <trkpt lat="46.24858" lon="6.01115">
        <ele>436.39999389648</ele>
        <time>2020-08-13T17:52:03.000Z</time>
      </trkpt>
      <trkpt lat="46.2483" lon="6.01166">
        <ele>435.60000610352</ele>
        <time>2020-08-13T17:52:09.000Z</time>
      </trkpt>
      <trkpt lat="46.24821" lon="6.01182">
        <ele>435.39999389648</ele>
        <time>2020-08-13T17:52:11.000Z</time>
      </trkpt>
      <trkpt lat="46.24797" lon="6.0122">
        <ele>434.20001220703</ele>
        <time>2020-08-13T17:52:16.000Z</time>
      </trkpt>
      <trkpt lat="46.24792" lon="6.01229">
        <ele>434</ele>
        <time>2020-08-13T17:52:17.000Z</time>
      </trkpt>
      <trkpt lat="46.24764" lon="6.01276">
        <ele>433.79998779297</ele>
        <time>2020-08-13T17:52:23.000Z</time>
      </trkpt>
      <trkpt lat="46.2473" lon="6.0133">
        <ele>433.20001220703</ele>
        <time>2020-08-13T17:52:30.000Z</time>
      </trkpt>
      <trkpt lat="46.2472" lon="6.01345">
        <ele>433</ele>
        <time>2020-08-13T17:52:32.000Z</time>
      </trkpt>
      <trkpt lat="46.24709" lon="6.0136">
        <ele>432.79998779297</ele>
        <time>2020-08-13T17:52:34.000Z</time>
      </trkpt>
      <trkpt lat="46.24677" lon="6.01407">
        <ele>432</ele>
        <time>2020-08-13T17:52:40.000Z</time>
      </trkpt>
      <trkpt lat="46.24661" lon="6.01432">
        <ele>431.60000610352</ele>
        <time>2020-08-13T17:52:43.000Z</time>
      </trkpt>
      <trkpt lat="46.2465" lon="6.01449">
        <ele>431.20001220703</ele>
        <time>2020-08-13T17:52:45.000Z</time>
      </trkpt>
      <trkpt lat="46.24639" lon="6.01466">
        <ele>430.60000610352</ele>
        <time>2020-08-13T17:52:47.000Z</time>
      </trkpt>
      <trkpt lat="46.24627" lon="6.01483">
        <ele>429.60000610352</ele>
        <time>2020-08-13T17:52:49.000Z</time>
      </trkpt>
      <trkpt lat="46.24616" lon="6.01501">
        <ele>428.79998779297</ele>
        <time>2020-08-13T17:52:51.000Z</time>
      </trkpt>
      <trkpt lat="46.24609" lon="6.01509">
        <ele>428.60000610352</ele>
        <time>2020-08-13T17:52:52.000Z</time>
      </trkpt>
      <trkpt lat="46.24591" lon="6.01534">
        <ele>427.79998779297</ele>
        <time>2020-08-13T17:52:55.000Z</time>
      </trkpt>
      <trkpt lat="46.24582" lon="6.01553">
        <ele>427.39999389648</ele>
        <time>2020-08-13T17:52:57.000Z</time>
      </trkpt>
      <trkpt lat="46.24566" lon="6.01578">
        <ele>426.79998779297</ele>
        <time>2020-08-13T17:53:00.000Z</time>
      </trkpt>
      <trkpt lat="46.2453" lon="6.01631">
        <ele>427</ele>
        <time>2020-08-13T17:53:07.000Z</time>
      </trkpt>
      <trkpt lat="46.24522" lon="6.01646">
        <ele>427.39999389648</ele>
        <time>2020-08-13T17:53:09.000Z</time>
      </trkpt>
      <trkpt lat="46.24508" lon="6.01677">
        <ele>428.20001220703</ele>
        <time>2020-08-13T17:53:13.000Z</time>
      </trkpt>
      <trkpt lat="46.24504" lon="6.01684">
        <ele>428.39999389648</ele>
        <time>2020-08-13T17:53:14.000Z</time>
      </trkpt>
      <trkpt lat="46.24501" lon="6.0169">
        <ele>428.60000610352</ele>
        <time>2020-08-13T17:53:15.000Z</time>
      </trkpt>
      <trkpt lat="46.24497" lon="6.01704">
        <ele>429</ele>
        <time>2020-08-13T17:53:17.000Z</time>
      </trkpt>
      <trkpt lat="46.24495" lon="6.01711">
        <ele>429.20001220703</ele>
        <time>2020-08-13T17:53:18.000Z</time>
      </trkpt>
      <trkpt lat="46.24493" lon="6.01718">
        <ele>429.20001220703</ele>
        <time>2020-08-13T17:53:19.000Z</time>
      </trkpt>
      <trkpt lat="46.24488" lon="6.0173">
        <ele>429.39999389648</ele>
        <time>2020-08-13T17:53:21.000Z</time>
      </trkpt>
      <trkpt lat="46.24485" lon="6.01743">
        <ele>430</ele>
        <time>2020-08-13T17:53:23.000Z</time>
      </trkpt>
      <trkpt lat="46.24482" lon="6.01762">
        <ele>430.39999389648</ele>
        <time>2020-08-13T17:53:27.000Z</time>
      </trkpt>
      <trkpt lat="46.24481" lon="6.01766">
        <ele>430.60000610352</ele>
        <time>2020-08-13T17:53:28.000Z</time>
      </trkpt>
      <trkpt lat="46.24475" lon="6.01779">
        <ele>431</ele>
        <time>2020-08-13T17:53:31.000Z</time>
      </trkpt>
      <trkpt lat="46.24459" lon="6.01809">
        <ele>431.39999389648</ele>
        <time>2020-08-13T17:53:38.000Z</time>
      </trkpt>
      <trkpt lat="46.24447" lon="6.0183">
        <ele>431.60000610352</ele>
        <time>2020-08-13T17:53:44.000Z</time>
      </trkpt>
      <trkpt lat="46.24445" lon="6.01834">
        <ele>431.60000610352</ele>
        <time>2020-08-13T17:53:45.000Z</time>
      </trkpt>
      <trkpt lat="46.24433" lon="6.01858">
        <ele>431.60000610352</ele>
        <time>2020-08-13T17:53:50.000Z</time>
      </trkpt>
      <trkpt lat="46.24427" lon="6.01872">
        <ele>431.60000610352</ele>
        <time>2020-08-13T17:53:53.000Z</time>
      </trkpt>
      <trkpt lat="46.24424" lon="6.01876">
        <ele>431.60000610352</ele>
        <time>2020-08-13T17:53:54.000Z</time>
      </trkpt>
      <trkpt lat="46.24422" lon="6.01881">
        <ele>431.79998779297</ele>
        <time>2020-08-13T17:53:55.000Z</time>
      </trkpt>
      <trkpt lat="46.24415" lon="6.01895">
        <ele>432.39999389648</ele>
        <time>2020-08-13T17:53:58.000Z</time>
      </trkpt>
      <trkpt lat="46.24409" lon="6.01905">
        <ele>432.79998779297</ele>
        <time>2020-08-13T17:54:01.000Z</time>
      </trkpt>
      <trkpt lat="46.24405" lon="6.01911">
        <ele>433</ele>
        <time>2020-08-13T17:54:03.000Z</time>
      </trkpt>
      <trkpt lat="46.24393" lon="6.01931">
        <ele>433.20001220703</ele>
        <time>2020-08-13T17:54:09.000Z</time>
      </trkpt>
      <trkpt lat="46.24382" lon="6.0195">
        <ele>433.79998779297</ele>
        <time>2020-08-13T17:54:14.000Z</time>
      </trkpt>
      <trkpt lat="46.24379" lon="6.01953">
        <ele>433.79998779297</ele>
        <time>2020-08-13T17:54:15.000Z</time>
      </trkpt>
      <trkpt lat="46.2436" lon="6.01986">
        <ele>434.20001220703</ele>
        <time>2020-08-13T17:54:23.000Z</time>
      </trkpt>
      <trkpt lat="46.24357" lon="6.0199">
        <ele>434.20001220703</ele>
        <time>2020-08-13T17:54:24.000Z</time>
      </trkpt>
      <trkpt lat="46.24347" lon="6.0201">
        <ele>434.39999389648</ele>
        <time>2020-08-13T17:54:29.000Z</time>
      </trkpt>
      <trkpt lat="46.24336" lon="6.02023">
        <ele>434.39999389648</ele>
        <time>2020-08-13T17:54:33.000Z</time>
      </trkpt>
      <trkpt lat="46.24326" lon="6.02044">
        <ele>434.79998779297</ele>
        <time>2020-08-13T17:54:39.000Z</time>
      </trkpt>
      <trkpt lat="46.24328" lon="6.0206">
        <ele>434.79998779297</ele>
        <time>2020-08-13T17:54:43.000Z</time>
      </trkpt>
      <trkpt lat="46.2433" lon="6.02065">
        <ele>435</ele>
        <time>2020-08-13T17:54:44.000Z</time>
      </trkpt>
      <trkpt lat="46.24344" lon="6.02092">
        <ele>435.20001220703</ele>
        <time>2020-08-13T17:54:50.000Z</time>
      </trkpt>
      <trkpt lat="46.24357" lon="6.02112">
        <ele>435.60000610352</ele>
        <time>2020-08-13T17:54:56.000Z</time>
      </trkpt>
      <trkpt lat="46.24366" lon="6.0212">
        <ele>435.39999389648</ele>
        <time>2020-08-13T17:55:02.000Z</time>
      </trkpt>
      <trkpt lat="46.24369" lon="6.02121">
        <ele>435.60000610352</ele>
        <time>2020-08-13T17:55:06.000Z</time>
      </trkpt>
      <trkpt lat="46.24369" lon="6.0212">
        <ele>435.79998779297</ele>
        <time>2020-08-13T17:55:07.000Z</time>
      </trkpt>
      <trkpt lat="46.2437" lon="6.0212">
        <ele>435.79998779297</ele>
        <time>2020-08-13T17:55:09.000Z</time>
      </trkpt>
      <trkpt lat="46.24372" lon="6.02117">
        <ele>436</ele>
        <time>2020-08-13T17:55:17.000Z</time>
      </trkpt>
      <trkpt lat="46.24372" lon="6.02117">
        <ele>436</ele>
        <time>2020-08-13T17:55:20.000Z</time>
      </trkpt>
      <trkpt lat="46.24371" lon="6.02113">
        <ele>436</ele>
        <time>2020-08-13T17:55:27.000Z</time>
      </trkpt>
      <trkpt lat="46.2437" lon="6.02111">
        <ele>435.79998779297</ele>
        <time>2020-08-13T17:55:29.000Z</time>
      </trkpt>
      <trkpt lat="46.24368" lon="6.02108">
        <ele>435.60000610352</ele>
        <time>2020-08-13T17:55:30.000Z</time>
      </trkpt>
      <trkpt lat="46.24348" lon="6.0211">
        <ele>435.60000610352</ele>
        <time>2020-08-13T17:55:33.000Z</time>
      </trkpt>
      <trkpt lat="46.24339" lon="6.02129">
        <ele>435.60000610352</ele>
        <time>2020-08-13T17:55:37.000Z</time>
      </trkpt>
      <trkpt lat="46.24337" lon="6.02132">
        <ele>435.60000610352</ele>
        <time>2020-08-13T17:55:38.000Z</time>
      </trkpt>
      <trkpt lat="46.24331" lon="6.02127">
        <ele>435.20001220703</ele>
        <time>2020-08-13T17:55:42.000Z</time>
      </trkpt>
      <trkpt lat="46.24331" lon="6.02123">
        <ele>434.60000610352</ele>
        <time>2020-08-13T17:55:44.000Z</time>
      </trkpt>
      <trkpt lat="46.24331" lon="6.0212">
        <ele>433.60000610352</ele>
        <time>2020-08-13T17:55:47.000Z</time>
      </trkpt>
    </trkseg>
  </trk>
</gpx>